<?xml version="1.0" encoding="utf-8"?>
<gpx xmlns:xsi="http://www.w3.org/2001/XMLSchema-instance" xmlns:xsd="http://www.w3.org/2001/XMLSchema" version="1.1" creator="Shapelink.com" xmlns="http://www.topografix.com/GPX/1/1" xmlns:gpxtpx="http://www.garmin.com/xmlschemas/TrackPointExtension/v1">
  <metadata>
    <name>Bicicleta de montaña 10.12 km, 2019-09-01</name>
    <desc></desc>
    <author><name>Peter Littke</name></author> 
    <time>2019-09-01T14:31:35Z</time>
  </metadata>
  <trk>
    <name>Bicicleta de montaña 10.12 km, 2019-09-01</name>
    <trkseg>
      <trkpt lat="59.17349" lon="18.14332">
        <ele>47</ele>
        <time>2019-09-01T14:31:35Z</time>
      </trkpt>
      <trkpt lat="59.173515" lon="18.143348">
        <ele>49</ele>
        <time>2019-09-01T14:31:38Z</time>
      </trkpt>
      <trkpt lat="59.173537" lon="18.143366">
        <ele>49</ele>
        <time>2019-09-01T14:31:40Z</time>
      </trkpt>
      <trkpt lat="59.173557" lon="18.143371">
        <ele>49</ele>
        <time>2019-09-01T14:31:42Z</time>
      </trkpt>
      <trkpt lat="59.17354" lon="18.143336">
        <ele>49</ele>
        <time>2019-09-01T14:31:45Z</time>
      </trkpt>
      <trkpt lat="59.173508" lon="18.143349">
        <ele>49</ele>
        <time>2019-09-01T14:31:47Z</time>
      </trkpt>
      <trkpt lat="59.173477" lon="18.143363">
        <ele>49</ele>
        <time>2019-09-01T14:31:49Z</time>
      </trkpt>
      <trkpt lat="59.173458" lon="18.143353">
        <ele>50</ele>
        <time>2019-09-01T14:31:50Z</time>
      </trkpt>
      <trkpt lat="59.173439" lon="18.14333">
        <ele>50</ele>
        <time>2019-09-01T14:31:51Z</time>
      </trkpt>
      <trkpt lat="59.173421" lon="18.143301">
        <ele>50</ele>
        <time>2019-09-01T14:31:52Z</time>
      </trkpt>
      <trkpt lat="59.173401" lon="18.143279">
        <ele>50</ele>
        <time>2019-09-01T14:31:53Z</time>
      </trkpt>
      <trkpt lat="59.17338" lon="18.143257">
        <ele>50</ele>
        <time>2019-09-01T14:31:54Z</time>
      </trkpt>
      <trkpt lat="59.173367" lon="18.143234">
        <ele>50</ele>
        <time>2019-09-01T14:31:55Z</time>
      </trkpt>
      <trkpt lat="59.173359" lon="18.143166">
        <ele>50</ele>
        <time>2019-09-01T14:31:57Z</time>
      </trkpt>
      <trkpt lat="59.173361" lon="18.14312">
        <ele>51</ele>
        <time>2019-09-01T14:31:58Z</time>
      </trkpt>
      <trkpt lat="59.173363" lon="18.143069">
        <ele>51</ele>
        <time>2019-09-01T14:31:59Z</time>
      </trkpt>
      <trkpt lat="59.17336" lon="18.143014">
        <ele>50</ele>
        <time>2019-09-01T14:32:00Z</time>
      </trkpt>
      <trkpt lat="59.173346" lon="18.142964">
        <ele>51</ele>
        <time>2019-09-01T14:32:01Z</time>
      </trkpt>
      <trkpt lat="59.173325" lon="18.142934">
        <ele>50</ele>
        <time>2019-09-01T14:32:02Z</time>
      </trkpt>
      <trkpt lat="59.173294" lon="18.142922">
        <ele>50</ele>
        <time>2019-09-01T14:32:03Z</time>
      </trkpt>
      <trkpt lat="59.173262" lon="18.142901">
        <ele>50</ele>
        <time>2019-09-01T14:32:04Z</time>
      </trkpt>
      <trkpt lat="59.173233" lon="18.142868">
        <ele>50</ele>
        <time>2019-09-01T14:32:05Z</time>
      </trkpt>
      <trkpt lat="59.173205" lon="18.142828">
        <ele>50</ele>
        <time>2019-09-01T14:32:06Z</time>
      </trkpt>
      <trkpt lat="59.173177" lon="18.14278">
        <ele>50</ele>
        <time>2019-09-01T14:32:07Z</time>
      </trkpt>
      <trkpt lat="59.17315" lon="18.142721">
        <ele>50</ele>
        <time>2019-09-01T14:32:08Z</time>
      </trkpt>
      <trkpt lat="59.173131" lon="18.142658">
        <ele>50</ele>
        <time>2019-09-01T14:32:09Z</time>
      </trkpt>
      <trkpt lat="59.17312" lon="18.142594">
        <ele>50</ele>
        <time>2019-09-01T14:32:10Z</time>
      </trkpt>
      <trkpt lat="59.173104" lon="18.142539">
        <ele>50</ele>
        <time>2019-09-01T14:32:11Z</time>
      </trkpt>
      <trkpt lat="59.173078" lon="18.142495">
        <ele>50</ele>
        <time>2019-09-01T14:32:12Z</time>
      </trkpt>
      <trkpt lat="59.173048" lon="18.142465">
        <ele>50</ele>
        <time>2019-09-01T14:32:13Z</time>
      </trkpt>
      <trkpt lat="59.173017" lon="18.142438">
        <ele>50</ele>
        <time>2019-09-01T14:32:14Z</time>
      </trkpt>
      <trkpt lat="59.172983" lon="18.142415">
        <ele>50</ele>
        <time>2019-09-01T14:32:15Z</time>
      </trkpt>
      <trkpt lat="59.172947" lon="18.142402">
        <ele>50</ele>
        <time>2019-09-01T14:32:16Z</time>
      </trkpt>
      <trkpt lat="59.172914" lon="18.142387">
        <ele>51</ele>
        <time>2019-09-01T14:32:17Z</time>
      </trkpt>
      <trkpt lat="59.17288" lon="18.142373">
        <ele>51</ele>
        <time>2019-09-01T14:32:18Z</time>
      </trkpt>
      <trkpt lat="59.172846" lon="18.142357">
        <ele>51</ele>
        <time>2019-09-01T14:32:19Z</time>
      </trkpt>
      <trkpt lat="59.172814" lon="18.142337">
        <ele>51</ele>
        <time>2019-09-01T14:32:20Z</time>
      </trkpt>
      <trkpt lat="59.17278" lon="18.142323">
        <ele>51</ele>
        <time>2019-09-01T14:32:21Z</time>
      </trkpt>
      <trkpt lat="59.17275" lon="18.142301">
        <ele>51</ele>
        <time>2019-09-01T14:32:22Z</time>
      </trkpt>
      <trkpt lat="59.172721" lon="18.142281">
        <ele>51</ele>
        <time>2019-09-01T14:32:23Z</time>
      </trkpt>
      <trkpt lat="59.172691" lon="18.142264">
        <ele>51</ele>
        <time>2019-09-01T14:32:24Z</time>
      </trkpt>
      <trkpt lat="59.172665" lon="18.142249">
        <ele>52</ele>
        <time>2019-09-01T14:32:25Z</time>
      </trkpt>
      <trkpt lat="59.172635" lon="18.142237">
        <ele>52</ele>
        <time>2019-09-01T14:32:26Z</time>
      </trkpt>
      <trkpt lat="59.172605" lon="18.142223">
        <ele>52</ele>
        <time>2019-09-01T14:32:27Z</time>
      </trkpt>
      <trkpt lat="59.172579" lon="18.14221">
        <ele>52</ele>
        <time>2019-09-01T14:32:28Z</time>
      </trkpt>
      <trkpt lat="59.172553" lon="18.142198">
        <ele>52</ele>
        <time>2019-09-01T14:32:29Z</time>
      </trkpt>
      <trkpt lat="59.172526" lon="18.142181">
        <ele>52</ele>
        <time>2019-09-01T14:32:30Z</time>
      </trkpt>
      <trkpt lat="59.172501" lon="18.142149">
        <ele>52</ele>
        <time>2019-09-01T14:32:31Z</time>
      </trkpt>
      <trkpt lat="59.172476" lon="18.142108">
        <ele>53</ele>
        <time>2019-09-01T14:32:32Z</time>
      </trkpt>
      <trkpt lat="59.172454" lon="18.142066">
        <ele>53</ele>
        <time>2019-09-01T14:32:33Z</time>
      </trkpt>
      <trkpt lat="59.172431" lon="18.142024">
        <ele>53</ele>
        <time>2019-09-01T14:32:34Z</time>
      </trkpt>
      <trkpt lat="59.172407" lon="18.141984">
        <ele>53</ele>
        <time>2019-09-01T14:32:35Z</time>
      </trkpt>
      <trkpt lat="59.172387" lon="18.141938">
        <ele>53</ele>
        <time>2019-09-01T14:32:36Z</time>
      </trkpt>
      <trkpt lat="59.172368" lon="18.141888">
        <ele>53</ele>
        <time>2019-09-01T14:32:37Z</time>
      </trkpt>
      <trkpt lat="59.172351" lon="18.141835">
        <ele>53</ele>
        <time>2019-09-01T14:32:38Z</time>
      </trkpt>
      <trkpt lat="59.172339" lon="18.141778">
        <ele>53</ele>
        <time>2019-09-01T14:32:39Z</time>
      </trkpt>
      <trkpt lat="59.17233" lon="18.141721">
        <ele>52</ele>
        <time>2019-09-01T14:32:40Z</time>
      </trkpt>
      <trkpt lat="59.172325" lon="18.14166">
        <ele>52</ele>
        <time>2019-09-01T14:32:41Z</time>
      </trkpt>
      <trkpt lat="59.172323" lon="18.141597">
        <ele>52</ele>
        <time>2019-09-01T14:32:42Z</time>
      </trkpt>
      <trkpt lat="59.17232" lon="18.141531">
        <ele>52</ele>
        <time>2019-09-01T14:32:43Z</time>
      </trkpt>
      <trkpt lat="59.172319" lon="18.141461">
        <ele>53</ele>
        <time>2019-09-01T14:32:44Z</time>
      </trkpt>
      <trkpt lat="59.172319" lon="18.14139">
        <ele>53</ele>
        <time>2019-09-01T14:32:45Z</time>
      </trkpt>
      <trkpt lat="59.172322" lon="18.141318">
        <ele>53</ele>
        <time>2019-09-01T14:32:46Z</time>
      </trkpt>
      <trkpt lat="59.172322" lon="18.141243">
        <ele>53</ele>
        <time>2019-09-01T14:32:47Z</time>
      </trkpt>
      <trkpt lat="59.172313" lon="18.141169">
        <ele>53</ele>
        <time>2019-09-01T14:32:48Z</time>
      </trkpt>
      <trkpt lat="59.172293" lon="18.141099">
        <ele>53</ele>
        <time>2019-09-01T14:32:49Z</time>
      </trkpt>
      <trkpt lat="59.172277" lon="18.141023">
        <ele>53</ele>
        <time>2019-09-01T14:32:50Z</time>
      </trkpt>
      <trkpt lat="59.172261" lon="18.14094">
        <ele>53</ele>
        <time>2019-09-01T14:32:51Z</time>
      </trkpt>
      <trkpt lat="59.172239" lon="18.140856">
        <ele>53</ele>
        <time>2019-09-01T14:32:52Z</time>
      </trkpt>
      <trkpt lat="59.172209" lon="18.140778">
        <ele>52</ele>
        <time>2019-09-01T14:32:53Z</time>
      </trkpt>
      <trkpt lat="59.17218" lon="18.140702">
        <ele>52</ele>
        <time>2019-09-01T14:32:54Z</time>
      </trkpt>
      <trkpt lat="59.172151" lon="18.140634">
        <ele>52</ele>
        <time>2019-09-01T14:32:55Z</time>
      </trkpt>
      <trkpt lat="59.172127" lon="18.140572">
        <ele>52</ele>
        <time>2019-09-01T14:32:56Z</time>
      </trkpt>
      <trkpt lat="59.172109" lon="18.140507">
        <ele>52</ele>
        <time>2019-09-01T14:32:57Z</time>
      </trkpt>
      <trkpt lat="59.172092" lon="18.140438">
        <ele>52</ele>
        <time>2019-09-01T14:32:58Z</time>
      </trkpt>
      <trkpt lat="59.172072" lon="18.140371">
        <ele>52</ele>
        <time>2019-09-01T14:32:59Z</time>
      </trkpt>
      <trkpt lat="59.172051" lon="18.140306">
        <ele>52</ele>
        <time>2019-09-01T14:33:00Z</time>
      </trkpt>
      <trkpt lat="59.172028" lon="18.140245">
        <ele>52</ele>
        <time>2019-09-01T14:33:01Z</time>
      </trkpt>
      <trkpt lat="59.172003" lon="18.140188">
        <ele>52</ele>
        <time>2019-09-01T14:33:02Z</time>
      </trkpt>
      <trkpt lat="59.171975" lon="18.140139">
        <ele>52</ele>
        <time>2019-09-01T14:33:03Z</time>
      </trkpt>
      <trkpt lat="59.171946" lon="18.140096">
        <ele>52</ele>
        <time>2019-09-01T14:33:04Z</time>
      </trkpt>
      <trkpt lat="59.171914" lon="18.140059">
        <ele>52</ele>
        <time>2019-09-01T14:33:05Z</time>
      </trkpt>
      <trkpt lat="59.171881" lon="18.140029">
        <ele>52</ele>
        <time>2019-09-01T14:33:06Z</time>
      </trkpt>
      <trkpt lat="59.171847" lon="18.140005">
        <ele>52</ele>
        <time>2019-09-01T14:33:07Z</time>
      </trkpt>
      <trkpt lat="59.171811" lon="18.13999">
        <ele>52</ele>
        <time>2019-09-01T14:33:08Z</time>
      </trkpt>
      <trkpt lat="59.171775" lon="18.139977">
        <ele>52</ele>
        <time>2019-09-01T14:33:09Z</time>
      </trkpt>
      <trkpt lat="59.171739" lon="18.139966">
        <ele>52</ele>
        <time>2019-09-01T14:33:10Z</time>
      </trkpt>
      <trkpt lat="59.171704" lon="18.139955">
        <ele>52</ele>
        <time>2019-09-01T14:33:11Z</time>
      </trkpt>
      <trkpt lat="59.171669" lon="18.139941">
        <ele>52</ele>
        <time>2019-09-01T14:33:12Z</time>
      </trkpt>
      <trkpt lat="59.171634" lon="18.139925">
        <ele>52</ele>
        <time>2019-09-01T14:33:13Z</time>
      </trkpt>
      <trkpt lat="59.171598" lon="18.139912">
        <ele>53</ele>
        <time>2019-09-01T14:33:14Z</time>
      </trkpt>
      <trkpt lat="59.171562" lon="18.139902">
        <ele>53</ele>
        <time>2019-09-01T14:33:15Z</time>
      </trkpt>
      <trkpt lat="59.171526" lon="18.13989">
        <ele>53</ele>
        <time>2019-09-01T14:33:16Z</time>
      </trkpt>
      <trkpt lat="59.17149" lon="18.139875">
        <ele>53</ele>
        <time>2019-09-01T14:33:17Z</time>
      </trkpt>
      <trkpt lat="59.171454" lon="18.13986">
        <ele>53</ele>
        <time>2019-09-01T14:33:18Z</time>
      </trkpt>
      <trkpt lat="59.171418" lon="18.139852">
        <ele>53</ele>
        <time>2019-09-01T14:33:19Z</time>
      </trkpt>
      <trkpt lat="59.171382" lon="18.139836">
        <ele>53</ele>
        <time>2019-09-01T14:33:20Z</time>
      </trkpt>
      <trkpt lat="59.171343" lon="18.139819">
        <ele>53</ele>
        <time>2019-09-01T14:33:21Z</time>
      </trkpt>
      <trkpt lat="59.171305" lon="18.139803">
        <ele>53</ele>
        <time>2019-09-01T14:33:22Z</time>
      </trkpt>
      <trkpt lat="59.17127" lon="18.139789">
        <ele>53</ele>
        <time>2019-09-01T14:33:23Z</time>
      </trkpt>
      <trkpt lat="59.171239" lon="18.139779">
        <ele>53</ele>
        <time>2019-09-01T14:33:24Z</time>
      </trkpt>
      <trkpt lat="59.171206" lon="18.139767">
        <ele>53</ele>
        <time>2019-09-01T14:33:25Z</time>
      </trkpt>
      <trkpt lat="59.171171" lon="18.139753">
        <ele>53</ele>
        <time>2019-09-01T14:33:26Z</time>
      </trkpt>
      <trkpt lat="59.171143" lon="18.139732">
        <ele>53</ele>
        <time>2019-09-01T14:33:27Z</time>
      </trkpt>
      <trkpt lat="59.171112" lon="18.13972">
        <ele>54</ele>
        <time>2019-09-01T14:33:28Z</time>
      </trkpt>
      <trkpt lat="59.171078" lon="18.139712">
        <ele>54</ele>
        <time>2019-09-01T14:33:29Z</time>
      </trkpt>
      <trkpt lat="59.171048" lon="18.139699">
        <ele>54</ele>
        <time>2019-09-01T14:33:30Z</time>
      </trkpt>
      <trkpt lat="59.170982" lon="18.139669">
        <ele>54</ele>
        <time>2019-09-01T14:33:32Z</time>
      </trkpt>
      <trkpt lat="59.170949" lon="18.139663">
        <ele>54</ele>
        <time>2019-09-01T14:33:33Z</time>
      </trkpt>
      <trkpt lat="59.170904" lon="18.139653">
        <ele>54</ele>
        <time>2019-09-01T14:33:34Z</time>
      </trkpt>
      <trkpt lat="59.170833" lon="18.139661">
        <ele>54</ele>
        <time>2019-09-01T14:33:35Z</time>
      </trkpt>
      <trkpt lat="59.170786" lon="18.139643">
        <ele>55</ele>
        <time>2019-09-01T14:33:36Z</time>
      </trkpt>
      <trkpt lat="59.170722" lon="18.139641">
        <ele>55</ele>
        <time>2019-09-01T14:33:37Z</time>
      </trkpt>
      <trkpt lat="59.170669" lon="18.139629">
        <ele>55</ele>
        <time>2019-09-01T14:33:38Z</time>
      </trkpt>
      <trkpt lat="59.170626" lon="18.139607">
        <ele>55</ele>
        <time>2019-09-01T14:33:39Z</time>
      </trkpt>
      <trkpt lat="59.170584" lon="18.139584">
        <ele>55</ele>
        <time>2019-09-01T14:33:40Z</time>
      </trkpt>
      <trkpt lat="59.170542" lon="18.139558">
        <ele>55</ele>
        <time>2019-09-01T14:33:41Z</time>
      </trkpt>
      <trkpt lat="59.1705" lon="18.139533">
        <ele>55</ele>
        <time>2019-09-01T14:33:42Z</time>
      </trkpt>
      <trkpt lat="59.170459" lon="18.139503">
        <ele>55</ele>
        <time>2019-09-01T14:33:43Z</time>
      </trkpt>
      <trkpt lat="59.170421" lon="18.139473">
        <ele>55</ele>
        <time>2019-09-01T14:33:44Z</time>
      </trkpt>
      <trkpt lat="59.170384" lon="18.139442">
        <ele>56</ele>
        <time>2019-09-01T14:33:45Z</time>
      </trkpt>
      <trkpt lat="59.170346" lon="18.139413">
        <ele>56</ele>
        <time>2019-09-01T14:33:46Z</time>
      </trkpt>
      <trkpt lat="59.17031" lon="18.139386">
        <ele>56</ele>
        <time>2019-09-01T14:33:47Z</time>
      </trkpt>
      <trkpt lat="59.170277" lon="18.13936">
        <ele>56</ele>
        <time>2019-09-01T14:33:48Z</time>
      </trkpt>
      <trkpt lat="59.170244" lon="18.139339">
        <ele>57</ele>
        <time>2019-09-01T14:33:49Z</time>
      </trkpt>
      <trkpt lat="59.170215" lon="18.139323">
        <ele>57</ele>
        <time>2019-09-01T14:33:50Z</time>
      </trkpt>
      <trkpt lat="59.17019" lon="18.139304">
        <ele>57</ele>
        <time>2019-09-01T14:33:51Z</time>
      </trkpt>
      <trkpt lat="59.170168" lon="18.139282">
        <ele>57</ele>
        <time>2019-09-01T14:33:52Z</time>
      </trkpt>
      <trkpt lat="59.170149" lon="18.139246">
        <ele>57</ele>
        <time>2019-09-01T14:33:53Z</time>
      </trkpt>
      <trkpt lat="59.170141" lon="18.139185">
        <ele>57</ele>
        <time>2019-09-01T14:33:54Z</time>
      </trkpt>
      <trkpt lat="59.170142" lon="18.139114">
        <ele>57</ele>
        <time>2019-09-01T14:33:55Z</time>
      </trkpt>
      <trkpt lat="59.170146" lon="18.139046">
        <ele>57</ele>
        <time>2019-09-01T14:33:56Z</time>
      </trkpt>
      <trkpt lat="59.170149" lon="18.138979">
        <ele>57</ele>
        <time>2019-09-01T14:33:57Z</time>
      </trkpt>
      <trkpt lat="59.170146" lon="18.138912">
        <ele>57</ele>
        <time>2019-09-01T14:33:58Z</time>
      </trkpt>
      <trkpt lat="59.170134" lon="18.138852">
        <ele>57</ele>
        <time>2019-09-01T14:33:59Z</time>
      </trkpt>
      <trkpt lat="59.170107" lon="18.138821">
        <ele>57</ele>
        <time>2019-09-01T14:34:00Z</time>
      </trkpt>
      <trkpt lat="59.17007" lon="18.138809">
        <ele>57</ele>
        <time>2019-09-01T14:34:01Z</time>
      </trkpt>
      <trkpt lat="59.170032" lon="18.138799">
        <ele>58</ele>
        <time>2019-09-01T14:34:02Z</time>
      </trkpt>
      <trkpt lat="59.169996" lon="18.138786">
        <ele>58</ele>
        <time>2019-09-01T14:34:03Z</time>
      </trkpt>
      <trkpt lat="59.16996" lon="18.138764">
        <ele>58</ele>
        <time>2019-09-01T14:34:04Z</time>
      </trkpt>
      <trkpt lat="59.169928" lon="18.138725">
        <ele>58</ele>
        <time>2019-09-01T14:34:05Z</time>
      </trkpt>
      <trkpt lat="59.169904" lon="18.138663">
        <ele>58</ele>
        <time>2019-09-01T14:34:06Z</time>
      </trkpt>
      <trkpt lat="59.169886" lon="18.138585">
        <ele>58</ele>
        <time>2019-09-01T14:34:07Z</time>
      </trkpt>
      <trkpt lat="59.169868" lon="18.138501">
        <ele>58</ele>
        <time>2019-09-01T14:34:08Z</time>
      </trkpt>
      <trkpt lat="59.169847" lon="18.138422">
        <ele>58</ele>
        <time>2019-09-01T14:34:09Z</time>
      </trkpt>
      <trkpt lat="59.169818" lon="18.138358">
        <ele>58</ele>
        <time>2019-09-01T14:34:10Z</time>
      </trkpt>
      <trkpt lat="59.169784" lon="18.138316">
        <ele>58</ele>
        <time>2019-09-01T14:34:11Z</time>
      </trkpt>
      <trkpt lat="59.169749" lon="18.138291">
        <ele>58</ele>
        <time>2019-09-01T14:34:12Z</time>
      </trkpt>
      <trkpt lat="59.169712" lon="18.138274">
        <ele>58</ele>
        <time>2019-09-01T14:34:13Z</time>
      </trkpt>
      <trkpt lat="59.169675" lon="18.138258">
        <ele>58</ele>
        <time>2019-09-01T14:34:14Z</time>
      </trkpt>
      <trkpt lat="59.169636" lon="18.138244">
        <ele>58</ele>
        <time>2019-09-01T14:34:15Z</time>
      </trkpt>
      <trkpt lat="59.169594" lon="18.138231">
        <ele>58</ele>
        <time>2019-09-01T14:34:16Z</time>
      </trkpt>
      <trkpt lat="59.169552" lon="18.138214">
        <ele>58</ele>
        <time>2019-09-01T14:34:17Z</time>
      </trkpt>
      <trkpt lat="59.16951" lon="18.1382">
        <ele>59</ele>
        <time>2019-09-01T14:34:18Z</time>
      </trkpt>
      <trkpt lat="59.169468" lon="18.138188">
        <ele>59</ele>
        <time>2019-09-01T14:34:19Z</time>
      </trkpt>
      <trkpt lat="59.169428" lon="18.138177">
        <ele>59</ele>
        <time>2019-09-01T14:34:20Z</time>
      </trkpt>
      <trkpt lat="59.169388" lon="18.138163">
        <ele>59</ele>
        <time>2019-09-01T14:34:21Z</time>
      </trkpt>
      <trkpt lat="59.169349" lon="18.13815">
        <ele>59</ele>
        <time>2019-09-01T14:34:22Z</time>
      </trkpt>
      <trkpt lat="59.16931" lon="18.138134">
        <ele>59</ele>
        <time>2019-09-01T14:34:23Z</time>
      </trkpt>
      <trkpt lat="59.16927" lon="18.138116">
        <ele>59</ele>
        <time>2019-09-01T14:34:24Z</time>
      </trkpt>
      <trkpt lat="59.16923" lon="18.138097">
        <ele>59</ele>
        <time>2019-09-01T14:34:25Z</time>
      </trkpt>
      <trkpt lat="59.169186" lon="18.138076">
        <ele>59</ele>
        <time>2019-09-01T14:34:26Z</time>
      </trkpt>
      <trkpt lat="59.169144" lon="18.138056">
        <ele>59</ele>
        <time>2019-09-01T14:34:27Z</time>
      </trkpt>
      <trkpt lat="59.169102" lon="18.13804">
        <ele>59</ele>
        <time>2019-09-01T14:34:28Z</time>
      </trkpt>
      <trkpt lat="59.169059" lon="18.138027">
        <ele>59</ele>
        <time>2019-09-01T14:34:29Z</time>
      </trkpt>
      <trkpt lat="59.169016" lon="18.138014">
        <ele>59</ele>
        <time>2019-09-01T14:34:30Z</time>
      </trkpt>
      <trkpt lat="59.168969" lon="18.138001">
        <ele>59</ele>
        <time>2019-09-01T14:34:31Z</time>
      </trkpt>
      <trkpt lat="59.168926" lon="18.137986">
        <ele>59</ele>
        <time>2019-09-01T14:34:32Z</time>
      </trkpt>
      <trkpt lat="59.16888" lon="18.13797">
        <ele>59</ele>
        <time>2019-09-01T14:34:33Z</time>
      </trkpt>
      <trkpt lat="59.168836" lon="18.137953">
        <ele>59</ele>
        <time>2019-09-01T14:34:34Z</time>
      </trkpt>
      <trkpt lat="59.16879" lon="18.137934">
        <ele>59</ele>
        <time>2019-09-01T14:34:35Z</time>
      </trkpt>
      <trkpt lat="59.168745" lon="18.137913">
        <ele>59</ele>
        <time>2019-09-01T14:34:36Z</time>
      </trkpt>
      <trkpt lat="59.168699" lon="18.137891">
        <ele>59</ele>
        <time>2019-09-01T14:34:37Z</time>
      </trkpt>
      <trkpt lat="59.168652" lon="18.137871">
        <ele>60</ele>
        <time>2019-09-01T14:34:38Z</time>
      </trkpt>
      <trkpt lat="59.168606" lon="18.13785">
        <ele>60</ele>
        <time>2019-09-01T14:34:39Z</time>
      </trkpt>
      <trkpt lat="59.16856" lon="18.137828">
        <ele>60</ele>
        <time>2019-09-01T14:34:40Z</time>
      </trkpt>
      <trkpt lat="59.168513" lon="18.137804">
        <ele>60</ele>
        <time>2019-09-01T14:34:41Z</time>
      </trkpt>
      <trkpt lat="59.168468" lon="18.137781">
        <ele>60</ele>
        <time>2019-09-01T14:34:42Z</time>
      </trkpt>
      <trkpt lat="59.168426" lon="18.137759">
        <ele>60</ele>
        <time>2019-09-01T14:34:43Z</time>
      </trkpt>
      <trkpt lat="59.168384" lon="18.137735">
        <ele>60</ele>
        <time>2019-09-01T14:34:44Z</time>
      </trkpt>
      <trkpt lat="59.168346" lon="18.137707">
        <ele>60</ele>
        <time>2019-09-01T14:34:45Z</time>
      </trkpt>
      <trkpt lat="59.168313" lon="18.137673">
        <ele>60</ele>
        <time>2019-09-01T14:34:46Z</time>
      </trkpt>
      <trkpt lat="59.168284" lon="18.137644">
        <ele>60</ele>
        <time>2019-09-01T14:34:47Z</time>
      </trkpt>
      <trkpt lat="59.168262" lon="18.137628">
        <ele>60</ele>
        <time>2019-09-01T14:34:48Z</time>
      </trkpt>
      <trkpt lat="59.168244" lon="18.137633">
        <ele>60</ele>
        <time>2019-09-01T14:34:49Z</time>
      </trkpt>
      <trkpt lat="59.168215" lon="18.13761">
        <ele>60</ele>
        <time>2019-09-01T14:34:51Z</time>
      </trkpt>
      <trkpt lat="59.16821" lon="18.137553">
        <ele>61</ele>
        <time>2019-09-01T14:34:52Z</time>
      </trkpt>
      <trkpt lat="59.168212" lon="18.137477">
        <ele>60</ele>
        <time>2019-09-01T14:34:53Z</time>
      </trkpt>
      <trkpt lat="59.168219" lon="18.137383">
        <ele>60</ele>
        <time>2019-09-01T14:34:54Z</time>
      </trkpt>
      <trkpt lat="59.168224" lon="18.137279">
        <ele>60</ele>
        <time>2019-09-01T14:34:55Z</time>
      </trkpt>
      <trkpt lat="59.168232" lon="18.137161">
        <ele>59</ele>
        <time>2019-09-01T14:34:56Z</time>
      </trkpt>
      <trkpt lat="59.168242" lon="18.137034">
        <ele>59</ele>
        <time>2019-09-01T14:34:57Z</time>
      </trkpt>
      <trkpt lat="59.168248" lon="18.136909">
        <ele>59</ele>
        <time>2019-09-01T14:34:58Z</time>
      </trkpt>
      <trkpt lat="59.168243" lon="18.136791">
        <ele>59</ele>
        <time>2019-09-01T14:34:59Z</time>
      </trkpt>
      <trkpt lat="59.168222" lon="18.13668">
        <ele>59</ele>
        <time>2019-09-01T14:35:00Z</time>
      </trkpt>
      <trkpt lat="59.16819" lon="18.136582">
        <ele>59</ele>
        <time>2019-09-01T14:35:01Z</time>
      </trkpt>
      <trkpt lat="59.168144" lon="18.13651">
        <ele>59</ele>
        <time>2019-09-01T14:35:02Z</time>
      </trkpt>
      <trkpt lat="59.1681" lon="18.136457">
        <ele>59</ele>
        <time>2019-09-01T14:35:03Z</time>
      </trkpt>
      <trkpt lat="59.168056" lon="18.136407">
        <ele>59</ele>
        <time>2019-09-01T14:35:05Z</time>
      </trkpt>
      <trkpt lat="59.168023" lon="18.136367">
        <ele>59</ele>
        <time>2019-09-01T14:35:05Z</time>
      </trkpt>
      <trkpt lat="59.167987" lon="18.136338">
        <ele>59</ele>
        <time>2019-09-01T14:35:06Z</time>
      </trkpt>
      <trkpt lat="59.167948" lon="18.136325">
        <ele>59</ele>
        <time>2019-09-01T14:35:07Z</time>
      </trkpt>
      <trkpt lat="59.167906" lon="18.136321">
        <ele>59</ele>
        <time>2019-09-01T14:35:08Z</time>
      </trkpt>
      <trkpt lat="59.167864" lon="18.136322">
        <ele>58</ele>
        <time>2019-09-01T14:35:09Z</time>
      </trkpt>
      <trkpt lat="59.167823" lon="18.136318">
        <ele>58</ele>
        <time>2019-09-01T14:35:10Z</time>
      </trkpt>
      <trkpt lat="59.167784" lon="18.136296">
        <ele>58</ele>
        <time>2019-09-01T14:35:11Z</time>
      </trkpt>
      <trkpt lat="59.167747" lon="18.136262">
        <ele>58</ele>
        <time>2019-09-01T14:35:12Z</time>
      </trkpt>
      <trkpt lat="59.167708" lon="18.136229">
        <ele>58</ele>
        <time>2019-09-01T14:35:13Z</time>
      </trkpt>
      <trkpt lat="59.167667" lon="18.136196">
        <ele>58</ele>
        <time>2019-09-01T14:35:14Z</time>
      </trkpt>
      <trkpt lat="59.16763" lon="18.136167">
        <ele>58</ele>
        <time>2019-09-01T14:35:15Z</time>
      </trkpt>
      <trkpt lat="59.167593" lon="18.136134">
        <ele>58</ele>
        <time>2019-09-01T14:35:16Z</time>
      </trkpt>
      <trkpt lat="59.167556" lon="18.136102">
        <ele>58</ele>
        <time>2019-09-01T14:35:17Z</time>
      </trkpt>
      <trkpt lat="59.167515" lon="18.136081">
        <ele>58</ele>
        <time>2019-09-01T14:35:18Z</time>
      </trkpt>
      <trkpt lat="59.16747" lon="18.136065">
        <ele>58</ele>
        <time>2019-09-01T14:35:19Z</time>
      </trkpt>
      <trkpt lat="59.167426" lon="18.136045">
        <ele>58</ele>
        <time>2019-09-01T14:35:20Z</time>
      </trkpt>
      <trkpt lat="59.167379" lon="18.136023">
        <ele>58</ele>
        <time>2019-09-01T14:35:21Z</time>
      </trkpt>
      <trkpt lat="59.167332" lon="18.135992">
        <ele>58</ele>
        <time>2019-09-01T14:35:22Z</time>
      </trkpt>
      <trkpt lat="59.167286" lon="18.135958">
        <ele>58</ele>
        <time>2019-09-01T14:35:23Z</time>
      </trkpt>
      <trkpt lat="59.167241" lon="18.135922">
        <ele>58</ele>
        <time>2019-09-01T14:35:24Z</time>
      </trkpt>
      <trkpt lat="59.167196" lon="18.135883">
        <ele>58</ele>
        <time>2019-09-01T14:35:25Z</time>
      </trkpt>
      <trkpt lat="59.167149" lon="18.135843">
        <ele>58</ele>
        <time>2019-09-01T14:35:26Z</time>
      </trkpt>
      <trkpt lat="59.167105" lon="18.135803">
        <ele>57</ele>
        <time>2019-09-01T14:35:27Z</time>
      </trkpt>
      <trkpt lat="59.16706" lon="18.135763">
        <ele>57</ele>
        <time>2019-09-01T14:35:28Z</time>
      </trkpt>
      <trkpt lat="59.167013" lon="18.135725">
        <ele>57</ele>
        <time>2019-09-01T14:35:29Z</time>
      </trkpt>
      <trkpt lat="59.166967" lon="18.135693">
        <ele>57</ele>
        <time>2019-09-01T14:35:30Z</time>
      </trkpt>
      <trkpt lat="59.16692" lon="18.135667">
        <ele>57</ele>
        <time>2019-09-01T14:35:31Z</time>
      </trkpt>
      <trkpt lat="59.166874" lon="18.135641">
        <ele>57</ele>
        <time>2019-09-01T14:35:32Z</time>
      </trkpt>
      <trkpt lat="59.166827" lon="18.135621">
        <ele>57</ele>
        <time>2019-09-01T14:35:33Z</time>
      </trkpt>
      <trkpt lat="59.16678" lon="18.135605">
        <ele>57</ele>
        <time>2019-09-01T14:35:34Z</time>
      </trkpt>
      <trkpt lat="59.166737" lon="18.135599">
        <ele>57</ele>
        <time>2019-09-01T14:35:35Z</time>
      </trkpt>
      <trkpt lat="59.166694" lon="18.135607">
        <ele>56</ele>
        <time>2019-09-01T14:35:36Z</time>
      </trkpt>
      <trkpt lat="59.166637" lon="18.135628">
        <ele>56</ele>
        <time>2019-09-01T14:35:37Z</time>
      </trkpt>
      <trkpt lat="59.166581" lon="18.135643">
        <ele>56</ele>
        <time>2019-09-01T14:35:38Z</time>
      </trkpt>
      <trkpt lat="59.166525" lon="18.13565">
        <ele>56</ele>
        <time>2019-09-01T14:35:39Z</time>
      </trkpt>
      <trkpt lat="59.166467" lon="18.135656">
        <ele>56</ele>
        <time>2019-09-01T14:35:40Z</time>
      </trkpt>
      <trkpt lat="59.166408" lon="18.135666">
        <ele>56</ele>
        <time>2019-09-01T14:35:41Z</time>
      </trkpt>
      <trkpt lat="59.166349" lon="18.135673">
        <ele>56</ele>
        <time>2019-09-01T14:35:42Z</time>
      </trkpt>
      <trkpt lat="59.16629" lon="18.135671">
        <ele>55</ele>
        <time>2019-09-01T14:35:43Z</time>
      </trkpt>
      <trkpt lat="59.166229" lon="18.135664">
        <ele>55</ele>
        <time>2019-09-01T14:35:44Z</time>
      </trkpt>
      <trkpt lat="59.166173" lon="18.135664">
        <ele>55</ele>
        <time>2019-09-01T14:35:45Z</time>
      </trkpt>
      <trkpt lat="59.166121" lon="18.135654">
        <ele>55</ele>
        <time>2019-09-01T14:35:46Z</time>
      </trkpt>
      <trkpt lat="59.166074" lon="18.135627">
        <ele>55</ele>
        <time>2019-09-01T14:35:47Z</time>
      </trkpt>
      <trkpt lat="59.166028" lon="18.135598">
        <ele>55</ele>
        <time>2019-09-01T14:35:48Z</time>
      </trkpt>
      <trkpt lat="59.165981" lon="18.135571">
        <ele>55</ele>
        <time>2019-09-01T14:35:49Z</time>
      </trkpt>
      <trkpt lat="59.165933" lon="18.135541">
        <ele>54</ele>
        <time>2019-09-01T14:35:50Z</time>
      </trkpt>
      <trkpt lat="59.165885" lon="18.135512">
        <ele>54</ele>
        <time>2019-09-01T14:35:51Z</time>
      </trkpt>
      <trkpt lat="59.165837" lon="18.135484">
        <ele>54</ele>
        <time>2019-09-01T14:35:52Z</time>
      </trkpt>
      <trkpt lat="59.165787" lon="18.135455">
        <ele>54</ele>
        <time>2019-09-01T14:35:53Z</time>
      </trkpt>
      <trkpt lat="59.165736" lon="18.135428">
        <ele>54</ele>
        <time>2019-09-01T14:35:54Z</time>
      </trkpt>
      <trkpt lat="59.165686" lon="18.135402">
        <ele>54</ele>
        <time>2019-09-01T14:35:55Z</time>
      </trkpt>
      <trkpt lat="59.165636" lon="18.135375">
        <ele>54</ele>
        <time>2019-09-01T14:35:56Z</time>
      </trkpt>
      <trkpt lat="59.165584" lon="18.135346">
        <ele>54</ele>
        <time>2019-09-01T14:35:57Z</time>
      </trkpt>
      <trkpt lat="59.165531" lon="18.135317">
        <ele>54</ele>
        <time>2019-09-01T14:35:58Z</time>
      </trkpt>
      <trkpt lat="59.165479" lon="18.135286">
        <ele>54</ele>
        <time>2019-09-01T14:35:59Z</time>
      </trkpt>
      <trkpt lat="59.165428" lon="18.135253">
        <ele>54</ele>
        <time>2019-09-01T14:36:00Z</time>
      </trkpt>
      <trkpt lat="59.165377" lon="18.135223">
        <ele>54</ele>
        <time>2019-09-01T14:36:01Z</time>
      </trkpt>
      <trkpt lat="59.165327" lon="18.135189">
        <ele>54</ele>
        <time>2019-09-01T14:36:02Z</time>
      </trkpt>
      <trkpt lat="59.165277" lon="18.135158">
        <ele>53</ele>
        <time>2019-09-01T14:36:03Z</time>
      </trkpt>
      <trkpt lat="59.165227" lon="18.135127">
        <ele>53</ele>
        <time>2019-09-01T14:36:04Z</time>
      </trkpt>
      <trkpt lat="59.165178" lon="18.135096">
        <ele>53</ele>
        <time>2019-09-01T14:36:05Z</time>
      </trkpt>
      <trkpt lat="59.165127" lon="18.135065">
        <ele>53</ele>
        <time>2019-09-01T14:36:06Z</time>
      </trkpt>
      <trkpt lat="59.165076" lon="18.135039">
        <ele>53</ele>
        <time>2019-09-01T14:36:07Z</time>
      </trkpt>
      <trkpt lat="59.165027" lon="18.13501">
        <ele>53</ele>
        <time>2019-09-01T14:36:08Z</time>
      </trkpt>
      <trkpt lat="59.164977" lon="18.134979">
        <ele>53</ele>
        <time>2019-09-01T14:36:09Z</time>
      </trkpt>
      <trkpt lat="59.164927" lon="18.13495">
        <ele>53</ele>
        <time>2019-09-01T14:36:10Z</time>
      </trkpt>
      <trkpt lat="59.164878" lon="18.134929">
        <ele>52</ele>
        <time>2019-09-01T14:36:11Z</time>
      </trkpt>
      <trkpt lat="59.164829" lon="18.134912">
        <ele>52</ele>
        <time>2019-09-01T14:36:12Z</time>
      </trkpt>
      <trkpt lat="59.16478" lon="18.1349">
        <ele>53</ele>
        <time>2019-09-01T14:36:13Z</time>
      </trkpt>
      <trkpt lat="59.164732" lon="18.13489">
        <ele>53</ele>
        <time>2019-09-01T14:36:14Z</time>
      </trkpt>
      <trkpt lat="59.164684" lon="18.134882">
        <ele>53</ele>
        <time>2019-09-01T14:36:15Z</time>
      </trkpt>
      <trkpt lat="59.164637" lon="18.134873">
        <ele>53</ele>
        <time>2019-09-01T14:36:16Z</time>
      </trkpt>
      <trkpt lat="59.16459" lon="18.134868">
        <ele>53</ele>
        <time>2019-09-01T14:36:17Z</time>
      </trkpt>
      <trkpt lat="59.164552" lon="18.13486">
        <ele>53</ele>
        <time>2019-09-01T14:36:18Z</time>
      </trkpt>
      <trkpt lat="59.164521" lon="18.13483">
        <ele>53</ele>
        <time>2019-09-01T14:36:19Z</time>
      </trkpt>
      <trkpt lat="59.164508" lon="18.134775">
        <ele>53</ele>
        <time>2019-09-01T14:36:20Z</time>
      </trkpt>
      <trkpt lat="59.164509" lon="18.134708">
        <ele>53</ele>
        <time>2019-09-01T14:36:21Z</time>
      </trkpt>
      <trkpt lat="59.164512" lon="18.134634">
        <ele>53</ele>
        <time>2019-09-01T14:36:22Z</time>
      </trkpt>
      <trkpt lat="59.164518" lon="18.134554">
        <ele>53</ele>
        <time>2019-09-01T14:36:23Z</time>
      </trkpt>
      <trkpt lat="59.164533" lon="18.134474">
        <ele>53</ele>
        <time>2019-09-01T14:36:24Z</time>
      </trkpt>
      <trkpt lat="59.16455" lon="18.134397">
        <ele>53</ele>
        <time>2019-09-01T14:36:25Z</time>
      </trkpt>
      <trkpt lat="59.164566" lon="18.134323">
        <ele>52</ele>
        <time>2019-09-01T14:36:26Z</time>
      </trkpt>
      <trkpt lat="59.164578" lon="18.134249">
        <ele>52</ele>
        <time>2019-09-01T14:36:27Z</time>
      </trkpt>
      <trkpt lat="59.164589" lon="18.134176">
        <ele>52</ele>
        <time>2019-09-01T14:36:28Z</time>
      </trkpt>
      <trkpt lat="59.16459" lon="18.134103">
        <ele>53</ele>
        <time>2019-09-01T14:36:29Z</time>
      </trkpt>
      <trkpt lat="59.164591" lon="18.134034">
        <ele>53</ele>
        <time>2019-09-01T14:36:30Z</time>
      </trkpt>
      <trkpt lat="59.164605" lon="18.13398">
        <ele>53</ele>
        <time>2019-09-01T14:36:31Z</time>
      </trkpt>
      <trkpt lat="59.164623" lon="18.133959">
        <ele>53</ele>
        <time>2019-09-01T14:36:32Z</time>
      </trkpt>
      <trkpt lat="59.164642" lon="18.133959">
        <ele>53</ele>
        <time>2019-09-01T14:36:33Z</time>
      </trkpt>
      <trkpt lat="59.164663" lon="18.13394">
        <ele>53</ele>
        <time>2019-09-01T14:36:35Z</time>
      </trkpt>
      <trkpt lat="59.164684" lon="18.13392">
        <ele>53</ele>
        <time>2019-09-01T14:36:36Z</time>
      </trkpt>
      <trkpt lat="59.164786" lon="18.133769">
        <ele>51</ele>
        <time>2019-09-01T14:36:39Z</time>
      </trkpt>
      <trkpt lat="59.16487" lon="18.133608">
        <ele>50</ele>
        <time>2019-09-01T14:36:42Z</time>
      </trkpt>
      <trkpt lat="59.164888" lon="18.133436">
        <ele>48</ele>
        <time>2019-09-01T14:36:47Z</time>
      </trkpt>
      <trkpt lat="59.164807" lon="18.133331">
        <ele>46</ele>
        <time>2019-09-01T14:36:50Z</time>
      </trkpt>
      <trkpt lat="59.164843" lon="18.133104">
        <ele>49</ele>
        <time>2019-09-01T14:36:54Z</time>
      </trkpt>
      <trkpt lat="59.164881" lon="18.133081">
        <ele>49</ele>
        <time>2019-09-01T14:36:55Z</time>
      </trkpt>
      <trkpt lat="59.164964" lon="18.133085">
        <ele>49</ele>
        <time>2019-09-01T14:36:57Z</time>
      </trkpt>
      <trkpt lat="59.164996" lon="18.133076">
        <ele>49</ele>
        <time>2019-09-01T14:36:58Z</time>
      </trkpt>
      <trkpt lat="59.165024" lon="18.133039">
        <ele>49</ele>
        <time>2019-09-01T14:36:59Z</time>
      </trkpt>
      <trkpt lat="59.165042" lon="18.132993">
        <ele>49</ele>
        <time>2019-09-01T14:37:00Z</time>
      </trkpt>
      <trkpt lat="59.165059" lon="18.132914">
        <ele>48</ele>
        <time>2019-09-01T14:37:01Z</time>
      </trkpt>
      <trkpt lat="59.165046" lon="18.132846">
        <ele>48</ele>
        <time>2019-09-01T14:37:02Z</time>
      </trkpt>
      <trkpt lat="59.165021" lon="18.1328">
        <ele>48</ele>
        <time>2019-09-01T14:37:03Z</time>
      </trkpt>
      <trkpt lat="59.164991" lon="18.132806">
        <ele>48</ele>
        <time>2019-09-01T14:37:04Z</time>
      </trkpt>
      <trkpt lat="59.164963" lon="18.132854">
        <ele>48</ele>
        <time>2019-09-01T14:37:05Z</time>
      </trkpt>
      <trkpt lat="59.164949" lon="18.132896">
        <ele>48</ele>
        <time>2019-09-01T14:37:06Z</time>
      </trkpt>
      <trkpt lat="59.164975" lon="18.132964">
        <ele>48</ele>
        <time>2019-09-01T14:37:08Z</time>
      </trkpt>
      <trkpt lat="59.164988" lon="18.13299">
        <ele>48</ele>
        <time>2019-09-01T14:37:09Z</time>
      </trkpt>
      <trkpt lat="59.164987" lon="18.132931">
        <ele>47</ele>
        <time>2019-09-01T14:37:12Z</time>
      </trkpt>
      <trkpt lat="59.164985" lon="18.132886">
        <ele>47</ele>
        <time>2019-09-01T14:37:14Z</time>
      </trkpt>
      <trkpt lat="59.164963" lon="18.132872">
        <ele>47</ele>
        <time>2019-09-01T14:37:15Z</time>
      </trkpt>
      <trkpt lat="59.16493" lon="18.132858">
        <ele>47</ele>
        <time>2019-09-01T14:37:16Z</time>
      </trkpt>
      <trkpt lat="59.164906" lon="18.132822">
        <ele>47</ele>
        <time>2019-09-01T14:37:17Z</time>
      </trkpt>
      <trkpt lat="59.164862" lon="18.132758">
        <ele>47</ele>
        <time>2019-09-01T14:37:18Z</time>
      </trkpt>
      <trkpt lat="59.164815" lon="18.132717">
        <ele>47</ele>
        <time>2019-09-01T14:37:19Z</time>
      </trkpt>
      <trkpt lat="59.164766" lon="18.132692">
        <ele>47</ele>
        <time>2019-09-01T14:37:20Z</time>
      </trkpt>
      <trkpt lat="59.164723" lon="18.132658">
        <ele>47</ele>
        <time>2019-09-01T14:37:21Z</time>
      </trkpt>
      <trkpt lat="59.16469" lon="18.132622">
        <ele>47</ele>
        <time>2019-09-01T14:37:22Z</time>
      </trkpt>
      <trkpt lat="59.16466" lon="18.13259">
        <ele>47</ele>
        <time>2019-09-01T14:37:23Z</time>
      </trkpt>
      <trkpt lat="59.164632" lon="18.132584">
        <ele>47</ele>
        <time>2019-09-01T14:37:24Z</time>
      </trkpt>
      <trkpt lat="59.164602" lon="18.13259">
        <ele>47</ele>
        <time>2019-09-01T14:37:25Z</time>
      </trkpt>
      <trkpt lat="59.164572" lon="18.132596">
        <ele>47</ele>
        <time>2019-09-01T14:37:26Z</time>
      </trkpt>
      <trkpt lat="59.164543" lon="18.132594">
        <ele>47</ele>
        <time>2019-09-01T14:37:27Z</time>
      </trkpt>
      <trkpt lat="59.164515" lon="18.132582">
        <ele>47</ele>
        <time>2019-09-01T14:37:28Z</time>
      </trkpt>
      <trkpt lat="59.164483" lon="18.132562">
        <ele>47</ele>
        <time>2019-09-01T14:37:29Z</time>
      </trkpt>
      <trkpt lat="59.164441" lon="18.132546">
        <ele>47</ele>
        <time>2019-09-01T14:37:30Z</time>
      </trkpt>
      <trkpt lat="59.164401" lon="18.132524">
        <ele>46</ele>
        <time>2019-09-01T14:37:31Z</time>
      </trkpt>
      <trkpt lat="59.164362" lon="18.132494">
        <ele>46</ele>
        <time>2019-09-01T14:37:32Z</time>
      </trkpt>
      <trkpt lat="59.164323" lon="18.132464">
        <ele>46</ele>
        <time>2019-09-01T14:37:33Z</time>
      </trkpt>
      <trkpt lat="59.164285" lon="18.132424">
        <ele>46</ele>
        <time>2019-09-01T14:37:34Z</time>
      </trkpt>
      <trkpt lat="59.164252" lon="18.132376">
        <ele>45</ele>
        <time>2019-09-01T14:37:35Z</time>
      </trkpt>
      <trkpt lat="59.164231" lon="18.132301">
        <ele>45</ele>
        <time>2019-09-01T14:37:36Z</time>
      </trkpt>
      <trkpt lat="59.164218" lon="18.132205">
        <ele>45</ele>
        <time>2019-09-01T14:37:37Z</time>
      </trkpt>
      <trkpt lat="59.164213" lon="18.132098">
        <ele>44</ele>
        <time>2019-09-01T14:37:38Z</time>
      </trkpt>
      <trkpt lat="59.164212" lon="18.131994">
        <ele>44</ele>
        <time>2019-09-01T14:37:39Z</time>
      </trkpt>
      <trkpt lat="59.164206" lon="18.131904">
        <ele>44</ele>
        <time>2019-09-01T14:37:40Z</time>
      </trkpt>
      <trkpt lat="59.164189" lon="18.131822">
        <ele>43</ele>
        <time>2019-09-01T14:37:41Z</time>
      </trkpt>
      <trkpt lat="59.164173" lon="18.131749">
        <ele>43</ele>
        <time>2019-09-01T14:37:42Z</time>
      </trkpt>
      <trkpt lat="59.164143" lon="18.131688">
        <ele>42</ele>
        <time>2019-09-01T14:37:43Z</time>
      </trkpt>
      <trkpt lat="59.164115" lon="18.131628">
        <ele>42</ele>
        <time>2019-09-01T14:37:44Z</time>
      </trkpt>
      <trkpt lat="59.16409" lon="18.131574">
        <ele>41</ele>
        <time>2019-09-01T14:37:45Z</time>
      </trkpt>
      <trkpt lat="59.164065" lon="18.131522">
        <ele>41</ele>
        <time>2019-09-01T14:37:46Z</time>
      </trkpt>
      <trkpt lat="59.164041" lon="18.131478">
        <ele>40</ele>
        <time>2019-09-01T14:37:47Z</time>
      </trkpt>
      <trkpt lat="59.164017" lon="18.131438">
        <ele>40</ele>
        <time>2019-09-01T14:37:48Z</time>
      </trkpt>
      <trkpt lat="59.163987" lon="18.131404">
        <ele>40</ele>
        <time>2019-09-01T14:37:49Z</time>
      </trkpt>
      <trkpt lat="59.163953" lon="18.131374">
        <ele>40</ele>
        <time>2019-09-01T14:37:50Z</time>
      </trkpt>
      <trkpt lat="59.163923" lon="18.13134">
        <ele>40</ele>
        <time>2019-09-01T14:37:51Z</time>
      </trkpt>
      <trkpt lat="59.163896" lon="18.131302">
        <ele>40</ele>
        <time>2019-09-01T14:37:52Z</time>
      </trkpt>
      <trkpt lat="59.163865" lon="18.131278">
        <ele>40</ele>
        <time>2019-09-01T14:37:53Z</time>
      </trkpt>
      <trkpt lat="59.163833" lon="18.13126">
        <ele>40</ele>
        <time>2019-09-01T14:37:54Z</time>
      </trkpt>
      <trkpt lat="59.163798" lon="18.131239">
        <ele>40</ele>
        <time>2019-09-01T14:37:55Z</time>
      </trkpt>
      <trkpt lat="59.163759" lon="18.131218">
        <ele>40</ele>
        <time>2019-09-01T14:37:56Z</time>
      </trkpt>
      <trkpt lat="59.163721" lon="18.131194">
        <ele>40</ele>
        <time>2019-09-01T14:37:57Z</time>
      </trkpt>
      <trkpt lat="59.163685" lon="18.131168">
        <ele>40</ele>
        <time>2019-09-01T14:37:58Z</time>
      </trkpt>
      <trkpt lat="59.163654" lon="18.131134">
        <ele>40</ele>
        <time>2019-09-01T14:37:59Z</time>
      </trkpt>
      <trkpt lat="59.163626" lon="18.131098">
        <ele>40</ele>
        <time>2019-09-01T14:38:00Z</time>
      </trkpt>
      <trkpt lat="59.163598" lon="18.131062">
        <ele>39</ele>
        <time>2019-09-01T14:38:01Z</time>
      </trkpt>
      <trkpt lat="59.163573" lon="18.131031">
        <ele>39</ele>
        <time>2019-09-01T14:38:02Z</time>
      </trkpt>
      <trkpt lat="59.163549" lon="18.131001">
        <ele>39</ele>
        <time>2019-09-01T14:38:03Z</time>
      </trkpt>
      <trkpt lat="59.163525" lon="18.130973">
        <ele>39</ele>
        <time>2019-09-01T14:38:04Z</time>
      </trkpt>
      <trkpt lat="59.163501" lon="18.130947">
        <ele>39</ele>
        <time>2019-09-01T14:38:05Z</time>
      </trkpt>
      <trkpt lat="59.163476" lon="18.130922">
        <ele>39</ele>
        <time>2019-09-01T14:38:06Z</time>
      </trkpt>
      <trkpt lat="59.163446" lon="18.130896">
        <ele>39</ele>
        <time>2019-09-01T14:38:07Z</time>
      </trkpt>
      <trkpt lat="59.163411" lon="18.130868">
        <ele>39</ele>
        <time>2019-09-01T14:38:08Z</time>
      </trkpt>
      <trkpt lat="59.163376" lon="18.130833">
        <ele>39</ele>
        <time>2019-09-01T14:38:09Z</time>
      </trkpt>
      <trkpt lat="59.163342" lon="18.130802">
        <ele>39</ele>
        <time>2019-09-01T14:38:10Z</time>
      </trkpt>
      <trkpt lat="59.163309" lon="18.130779">
        <ele>39</ele>
        <time>2019-09-01T14:38:11Z</time>
      </trkpt>
      <trkpt lat="59.163279" lon="18.130761">
        <ele>39</ele>
        <time>2019-09-01T14:38:12Z</time>
      </trkpt>
      <trkpt lat="59.163248" lon="18.130745">
        <ele>39</ele>
        <time>2019-09-01T14:38:13Z</time>
      </trkpt>
      <trkpt lat="59.16322" lon="18.130732">
        <ele>39</ele>
        <time>2019-09-01T14:38:14Z</time>
      </trkpt>
      <trkpt lat="59.163192" lon="18.130719">
        <ele>39</ele>
        <time>2019-09-01T14:38:15Z</time>
      </trkpt>
      <trkpt lat="59.163164" lon="18.130711">
        <ele>39</ele>
        <time>2019-09-01T14:38:16Z</time>
      </trkpt>
      <trkpt lat="59.163138" lon="18.130704">
        <ele>39</ele>
        <time>2019-09-01T14:38:17Z</time>
      </trkpt>
      <trkpt lat="59.163109" lon="18.130701">
        <ele>39</ele>
        <time>2019-09-01T14:38:18Z</time>
      </trkpt>
      <trkpt lat="59.16308" lon="18.130701">
        <ele>39</ele>
        <time>2019-09-01T14:38:19Z</time>
      </trkpt>
      <trkpt lat="59.163055" lon="18.130699">
        <ele>39</ele>
        <time>2019-09-01T14:38:20Z</time>
      </trkpt>
      <trkpt lat="59.16303" lon="18.130696">
        <ele>39</ele>
        <time>2019-09-01T14:38:21Z</time>
      </trkpt>
      <trkpt lat="59.163007" lon="18.130694">
        <ele>39</ele>
        <time>2019-09-01T14:38:22Z</time>
      </trkpt>
      <trkpt lat="59.162983" lon="18.130693">
        <ele>39</ele>
        <time>2019-09-01T14:38:23Z</time>
      </trkpt>
      <trkpt lat="59.162959" lon="18.130694">
        <ele>39</ele>
        <time>2019-09-01T14:38:24Z</time>
      </trkpt>
      <trkpt lat="59.162933" lon="18.13069">
        <ele>39</ele>
        <time>2019-09-01T14:38:25Z</time>
      </trkpt>
      <trkpt lat="59.16291" lon="18.130683">
        <ele>39</ele>
        <time>2019-09-01T14:38:26Z</time>
      </trkpt>
      <trkpt lat="59.162888" lon="18.130674">
        <ele>39</ele>
        <time>2019-09-01T14:38:27Z</time>
      </trkpt>
      <trkpt lat="59.162867" lon="18.130671">
        <ele>39</ele>
        <time>2019-09-01T14:38:28Z</time>
      </trkpt>
      <trkpt lat="59.162843" lon="18.13067">
        <ele>39</ele>
        <time>2019-09-01T14:38:29Z</time>
      </trkpt>
      <trkpt lat="59.162823" lon="18.130672">
        <ele>39</ele>
        <time>2019-09-01T14:38:30Z</time>
      </trkpt>
      <trkpt lat="59.1628" lon="18.130672">
        <ele>39</ele>
        <time>2019-09-01T14:38:31Z</time>
      </trkpt>
      <trkpt lat="59.16278" lon="18.130671">
        <ele>39</ele>
        <time>2019-09-01T14:38:32Z</time>
      </trkpt>
      <trkpt lat="59.162756" lon="18.130668">
        <ele>39</ele>
        <time>2019-09-01T14:38:33Z</time>
      </trkpt>
      <trkpt lat="59.162733" lon="18.130663">
        <ele>39</ele>
        <time>2019-09-01T14:38:34Z</time>
      </trkpt>
      <trkpt lat="59.16271" lon="18.130656">
        <ele>39</ele>
        <time>2019-09-01T14:38:35Z</time>
      </trkpt>
      <trkpt lat="59.162688" lon="18.130641">
        <ele>39</ele>
        <time>2019-09-01T14:38:36Z</time>
      </trkpt>
      <trkpt lat="59.162664" lon="18.13062">
        <ele>39</ele>
        <time>2019-09-01T14:38:37Z</time>
      </trkpt>
      <trkpt lat="59.16264" lon="18.130599">
        <ele>39</ele>
        <time>2019-09-01T14:38:38Z</time>
      </trkpt>
      <trkpt lat="59.162617" lon="18.130581">
        <ele>38</ele>
        <time>2019-09-01T14:38:39Z</time>
      </trkpt>
      <trkpt lat="59.162592" lon="18.130563">
        <ele>38</ele>
        <time>2019-09-01T14:38:40Z</time>
      </trkpt>
      <trkpt lat="59.162567" lon="18.13054">
        <ele>38</ele>
        <time>2019-09-01T14:38:41Z</time>
      </trkpt>
      <trkpt lat="59.162541" lon="18.130515">
        <ele>38</ele>
        <time>2019-09-01T14:38:42Z</time>
      </trkpt>
      <trkpt lat="59.162516" lon="18.130488">
        <ele>38</ele>
        <time>2019-09-01T14:38:43Z</time>
      </trkpt>
      <trkpt lat="59.162491" lon="18.130459">
        <ele>38</ele>
        <time>2019-09-01T14:38:44Z</time>
      </trkpt>
      <trkpt lat="59.162468" lon="18.130425">
        <ele>38</ele>
        <time>2019-09-01T14:38:45Z</time>
      </trkpt>
      <trkpt lat="59.162444" lon="18.130397">
        <ele>38</ele>
        <time>2019-09-01T14:38:46Z</time>
      </trkpt>
      <trkpt lat="59.162418" lon="18.130377">
        <ele>38</ele>
        <time>2019-09-01T14:38:47Z</time>
      </trkpt>
      <trkpt lat="59.16239" lon="18.130364">
        <ele>38</ele>
        <time>2019-09-01T14:38:48Z</time>
      </trkpt>
      <trkpt lat="59.162362" lon="18.130356">
        <ele>38</ele>
        <time>2019-09-01T14:38:49Z</time>
      </trkpt>
      <trkpt lat="59.162334" lon="18.13035">
        <ele>38</ele>
        <time>2019-09-01T14:38:50Z</time>
      </trkpt>
      <trkpt lat="59.162307" lon="18.130344">
        <ele>38</ele>
        <time>2019-09-01T14:38:51Z</time>
      </trkpt>
      <trkpt lat="59.16228" lon="18.130335">
        <ele>38</ele>
        <time>2019-09-01T14:38:52Z</time>
      </trkpt>
      <trkpt lat="59.162252" lon="18.130325">
        <ele>38</ele>
        <time>2019-09-01T14:38:53Z</time>
      </trkpt>
      <trkpt lat="59.162228" lon="18.130315">
        <ele>38</ele>
        <time>2019-09-01T14:38:54Z</time>
      </trkpt>
      <trkpt lat="59.162202" lon="18.130303">
        <ele>38</ele>
        <time>2019-09-01T14:38:55Z</time>
      </trkpt>
      <trkpt lat="59.162177" lon="18.130293">
        <ele>38</ele>
        <time>2019-09-01T14:38:56Z</time>
      </trkpt>
      <trkpt lat="59.16215" lon="18.130283">
        <ele>39</ele>
        <time>2019-09-01T14:38:57Z</time>
      </trkpt>
      <trkpt lat="59.162126" lon="18.130275">
        <ele>39</ele>
        <time>2019-09-01T14:38:58Z</time>
      </trkpt>
      <trkpt lat="59.162102" lon="18.130269">
        <ele>39</ele>
        <time>2019-09-01T14:38:59Z</time>
      </trkpt>
      <trkpt lat="59.162078" lon="18.13026">
        <ele>39</ele>
        <time>2019-09-01T14:39:00Z</time>
      </trkpt>
      <trkpt lat="59.162053" lon="18.130251">
        <ele>39</ele>
        <time>2019-09-01T14:39:01Z</time>
      </trkpt>
      <trkpt lat="59.162026" lon="18.130244">
        <ele>39</ele>
        <time>2019-09-01T14:39:02Z</time>
      </trkpt>
      <trkpt lat="59.162" lon="18.13023">
        <ele>39</ele>
        <time>2019-09-01T14:39:03Z</time>
      </trkpt>
      <trkpt lat="59.161973" lon="18.130215">
        <ele>39</ele>
        <time>2019-09-01T14:39:04Z</time>
      </trkpt>
      <trkpt lat="59.161945" lon="18.130202">
        <ele>39</ele>
        <time>2019-09-01T14:39:05Z</time>
      </trkpt>
      <trkpt lat="59.161918" lon="18.130188">
        <ele>39</ele>
        <time>2019-09-01T14:39:06Z</time>
      </trkpt>
      <trkpt lat="59.161888" lon="18.130172">
        <ele>39</ele>
        <time>2019-09-01T14:39:07Z</time>
      </trkpt>
      <trkpt lat="59.16186" lon="18.130156">
        <ele>39</ele>
        <time>2019-09-01T14:39:08Z</time>
      </trkpt>
      <trkpt lat="59.161831" lon="18.130146">
        <ele>39</ele>
        <time>2019-09-01T14:39:09Z</time>
      </trkpt>
      <trkpt lat="59.161802" lon="18.130141">
        <ele>39</ele>
        <time>2019-09-01T14:39:10Z</time>
      </trkpt>
      <trkpt lat="59.161773" lon="18.130136">
        <ele>40</ele>
        <time>2019-09-01T14:39:11Z</time>
      </trkpt>
      <trkpt lat="59.161741" lon="18.130133">
        <ele>40</ele>
        <time>2019-09-01T14:39:12Z</time>
      </trkpt>
      <trkpt lat="59.161707" lon="18.130137">
        <ele>40</ele>
        <time>2019-09-01T14:39:13Z</time>
      </trkpt>
      <trkpt lat="59.161675" lon="18.130147">
        <ele>40</ele>
        <time>2019-09-01T14:39:14Z</time>
      </trkpt>
      <trkpt lat="59.161641" lon="18.130158">
        <ele>40</ele>
        <time>2019-09-01T14:39:15Z</time>
      </trkpt>
      <trkpt lat="59.161605" lon="18.130169">
        <ele>40</ele>
        <time>2019-09-01T14:39:16Z</time>
      </trkpt>
      <trkpt lat="59.161573" lon="18.130183">
        <ele>40</ele>
        <time>2019-09-01T14:39:17Z</time>
      </trkpt>
      <trkpt lat="59.161547" lon="18.130196">
        <ele>41</ele>
        <time>2019-09-01T14:39:18Z</time>
      </trkpt>
      <trkpt lat="59.161518" lon="18.130206">
        <ele>41</ele>
        <time>2019-09-01T14:39:19Z</time>
      </trkpt>
      <trkpt lat="59.161491" lon="18.130214">
        <ele>41</ele>
        <time>2019-09-01T14:39:20Z</time>
      </trkpt>
      <trkpt lat="59.161467" lon="18.130221">
        <ele>41</ele>
        <time>2019-09-01T14:39:21Z</time>
      </trkpt>
      <trkpt lat="59.161442" lon="18.130222">
        <ele>42</ele>
        <time>2019-09-01T14:39:22Z</time>
      </trkpt>
      <trkpt lat="59.161418" lon="18.130222">
        <ele>42</ele>
        <time>2019-09-01T14:39:23Z</time>
      </trkpt>
      <trkpt lat="59.161393" lon="18.130219">
        <ele>42</ele>
        <time>2019-09-01T14:39:24Z</time>
      </trkpt>
      <trkpt lat="59.161367" lon="18.130211">
        <ele>42</ele>
        <time>2019-09-01T14:39:25Z</time>
      </trkpt>
      <trkpt lat="59.16134" lon="18.130201">
        <ele>43</ele>
        <time>2019-09-01T14:39:26Z</time>
      </trkpt>
      <trkpt lat="59.161308" lon="18.130187">
        <ele>43</ele>
        <time>2019-09-01T14:39:27Z</time>
      </trkpt>
      <trkpt lat="59.16128" lon="18.130174">
        <ele>43</ele>
        <time>2019-09-01T14:39:28Z</time>
      </trkpt>
      <trkpt lat="59.161251" lon="18.13016">
        <ele>43</ele>
        <time>2019-09-01T14:39:29Z</time>
      </trkpt>
      <trkpt lat="59.161222" lon="18.130141">
        <ele>43</ele>
        <time>2019-09-01T14:39:30Z</time>
      </trkpt>
      <trkpt lat="59.161192" lon="18.130121">
        <ele>43</ele>
        <time>2019-09-01T14:39:31Z</time>
      </trkpt>
      <trkpt lat="59.161167" lon="18.130093">
        <ele>43</ele>
        <time>2019-09-01T14:39:32Z</time>
      </trkpt>
      <trkpt lat="59.161144" lon="18.130058">
        <ele>43</ele>
        <time>2019-09-01T14:39:33Z</time>
      </trkpt>
      <trkpt lat="59.161122" lon="18.130022">
        <ele>43</ele>
        <time>2019-09-01T14:39:34Z</time>
      </trkpt>
      <trkpt lat="59.161098" lon="18.129985">
        <ele>43</ele>
        <time>2019-09-01T14:39:35Z</time>
      </trkpt>
      <trkpt lat="59.161072" lon="18.129948">
        <ele>44</ele>
        <time>2019-09-01T14:39:36Z</time>
      </trkpt>
      <trkpt lat="59.161048" lon="18.129912">
        <ele>44</ele>
        <time>2019-09-01T14:39:37Z</time>
      </trkpt>
      <trkpt lat="59.161029" lon="18.129883">
        <ele>44</ele>
        <time>2019-09-01T14:39:38Z</time>
      </trkpt>
      <trkpt lat="59.161007" lon="18.129852">
        <ele>43</ele>
        <time>2019-09-01T14:39:39Z</time>
      </trkpt>
      <trkpt lat="59.160983" lon="18.129821">
        <ele>44</ele>
        <time>2019-09-01T14:39:40Z</time>
      </trkpt>
      <trkpt lat="59.160958" lon="18.129793">
        <ele>44</ele>
        <time>2019-09-01T14:39:41Z</time>
      </trkpt>
      <trkpt lat="59.160924" lon="18.129765">
        <ele>44</ele>
        <time>2019-09-01T14:39:42Z</time>
      </trkpt>
      <trkpt lat="59.160889" lon="18.129744">
        <ele>44</ele>
        <time>2019-09-01T14:39:43Z</time>
      </trkpt>
      <trkpt lat="59.160854" lon="18.129723">
        <ele>44</ele>
        <time>2019-09-01T14:39:44Z</time>
      </trkpt>
      <trkpt lat="59.16082" lon="18.129703">
        <ele>44</ele>
        <time>2019-09-01T14:39:45Z</time>
      </trkpt>
      <trkpt lat="59.160787" lon="18.129684">
        <ele>44</ele>
        <time>2019-09-01T14:39:46Z</time>
      </trkpt>
      <trkpt lat="59.160753" lon="18.129666">
        <ele>44</ele>
        <time>2019-09-01T14:39:47Z</time>
      </trkpt>
      <trkpt lat="59.160717" lon="18.129654">
        <ele>44</ele>
        <time>2019-09-01T14:39:48Z</time>
      </trkpt>
      <trkpt lat="59.160677" lon="18.129637">
        <ele>44</ele>
        <time>2019-09-01T14:39:49Z</time>
      </trkpt>
      <trkpt lat="59.160638" lon="18.129617">
        <ele>44</ele>
        <time>2019-09-01T14:39:50Z</time>
      </trkpt>
      <trkpt lat="59.160604" lon="18.129592">
        <ele>44</ele>
        <time>2019-09-01T14:39:51Z</time>
      </trkpt>
      <trkpt lat="59.160572" lon="18.129568">
        <ele>44</ele>
        <time>2019-09-01T14:39:52Z</time>
      </trkpt>
      <trkpt lat="59.160537" lon="18.129552">
        <ele>44</ele>
        <time>2019-09-01T14:39:53Z</time>
      </trkpt>
      <trkpt lat="59.160504" lon="18.129541">
        <ele>45</ele>
        <time>2019-09-01T14:39:54Z</time>
      </trkpt>
      <trkpt lat="59.160472" lon="18.129532">
        <ele>45</ele>
        <time>2019-09-01T14:39:55Z</time>
      </trkpt>
      <trkpt lat="59.160441" lon="18.12952">
        <ele>45</ele>
        <time>2019-09-01T14:39:56Z</time>
      </trkpt>
      <trkpt lat="59.160409" lon="18.129506">
        <ele>45</ele>
        <time>2019-09-01T14:39:57Z</time>
      </trkpt>
      <trkpt lat="59.160376" lon="18.12949">
        <ele>46</ele>
        <time>2019-09-01T14:39:58Z</time>
      </trkpt>
      <trkpt lat="59.160351" lon="18.12947">
        <ele>46</ele>
        <time>2019-09-01T14:39:59Z</time>
      </trkpt>
      <trkpt lat="59.160324" lon="18.129446">
        <ele>46</ele>
        <time>2019-09-01T14:40:00Z</time>
      </trkpt>
      <trkpt lat="59.160296" lon="18.129422">
        <ele>46</ele>
        <time>2019-09-01T14:40:01Z</time>
      </trkpt>
      <trkpt lat="59.160268" lon="18.129395">
        <ele>46</ele>
        <time>2019-09-01T14:40:02Z</time>
      </trkpt>
      <trkpt lat="59.160244" lon="18.129368">
        <ele>47</ele>
        <time>2019-09-01T14:40:03Z</time>
      </trkpt>
      <trkpt lat="59.160223" lon="18.129338">
        <ele>47</ele>
        <time>2019-09-01T14:40:04Z</time>
      </trkpt>
      <trkpt lat="59.160208" lon="18.129304">
        <ele>47</ele>
        <time>2019-09-01T14:40:05Z</time>
      </trkpt>
      <trkpt lat="59.160191" lon="18.129266">
        <ele>47</ele>
        <time>2019-09-01T14:40:06Z</time>
      </trkpt>
      <trkpt lat="59.160169" lon="18.129232">
        <ele>47</ele>
        <time>2019-09-01T14:40:07Z</time>
      </trkpt>
      <trkpt lat="59.160146" lon="18.129194">
        <ele>48</ele>
        <time>2019-09-01T14:40:08Z</time>
      </trkpt>
      <trkpt lat="59.160118" lon="18.129164">
        <ele>48</ele>
        <time>2019-09-01T14:40:09Z</time>
      </trkpt>
      <trkpt lat="59.160098" lon="18.129141">
        <ele>48</ele>
        <time>2019-09-01T14:40:10Z</time>
      </trkpt>
      <trkpt lat="59.160076" lon="18.129119">
        <ele>48</ele>
        <time>2019-09-01T14:40:11Z</time>
      </trkpt>
      <trkpt lat="59.160044" lon="18.129098">
        <ele>48</ele>
        <time>2019-09-01T14:40:12Z</time>
      </trkpt>
      <trkpt lat="59.160022" lon="18.129084">
        <ele>49</ele>
        <time>2019-09-01T14:40:13Z</time>
      </trkpt>
      <trkpt lat="59.160004" lon="18.129074">
        <ele>49</ele>
        <time>2019-09-01T14:40:14Z</time>
      </trkpt>
      <trkpt lat="59.159978" lon="18.129072">
        <ele>49</ele>
        <time>2019-09-01T14:40:15Z</time>
      </trkpt>
      <trkpt lat="59.15995" lon="18.129076">
        <ele>49</ele>
        <time>2019-09-01T14:40:16Z</time>
      </trkpt>
      <trkpt lat="59.159922" lon="18.129078">
        <ele>49</ele>
        <time>2019-09-01T14:40:17Z</time>
      </trkpt>
      <trkpt lat="59.159898" lon="18.129077">
        <ele>49</ele>
        <time>2019-09-01T14:40:18Z</time>
      </trkpt>
      <trkpt lat="59.159876" lon="18.129072">
        <ele>50</ele>
        <time>2019-09-01T14:40:19Z</time>
      </trkpt>
      <trkpt lat="59.159855" lon="18.12906">
        <ele>50</ele>
        <time>2019-09-01T14:40:20Z</time>
      </trkpt>
      <trkpt lat="59.159834" lon="18.129052">
        <ele>50</ele>
        <time>2019-09-01T14:40:21Z</time>
      </trkpt>
      <trkpt lat="59.159812" lon="18.129049">
        <ele>50</ele>
        <time>2019-09-01T14:40:22Z</time>
      </trkpt>
      <trkpt lat="59.15979" lon="18.129042">
        <ele>50</ele>
        <time>2019-09-01T14:40:23Z</time>
      </trkpt>
      <trkpt lat="59.159766" lon="18.129029">
        <ele>51</ele>
        <time>2019-09-01T14:40:24Z</time>
      </trkpt>
      <trkpt lat="59.159744" lon="18.12902">
        <ele>51</ele>
        <time>2019-09-01T14:40:25Z</time>
      </trkpt>
      <trkpt lat="59.15972" lon="18.129014">
        <ele>51</ele>
        <time>2019-09-01T14:40:26Z</time>
      </trkpt>
      <trkpt lat="59.159693" lon="18.129008">
        <ele>51</ele>
        <time>2019-09-01T14:40:27Z</time>
      </trkpt>
      <trkpt lat="59.159668" lon="18.128998">
        <ele>51</ele>
        <time>2019-09-01T14:40:28Z</time>
      </trkpt>
      <trkpt lat="59.159644" lon="18.128986">
        <ele>51</ele>
        <time>2019-09-01T14:40:29Z</time>
      </trkpt>
      <trkpt lat="59.15962" lon="18.12897">
        <ele>52</ele>
        <time>2019-09-01T14:40:30Z</time>
      </trkpt>
      <trkpt lat="59.159595" lon="18.128951">
        <ele>52</ele>
        <time>2019-09-01T14:40:31Z</time>
      </trkpt>
      <trkpt lat="59.159572" lon="18.128936">
        <ele>52</ele>
        <time>2019-09-01T14:40:32Z</time>
      </trkpt>
      <trkpt lat="59.15955" lon="18.12891">
        <ele>52</ele>
        <time>2019-09-01T14:40:33Z</time>
      </trkpt>
      <trkpt lat="59.159528" lon="18.128875">
        <ele>52</ele>
        <time>2019-09-01T14:40:34Z</time>
      </trkpt>
      <trkpt lat="59.159504" lon="18.128846">
        <ele>52</ele>
        <time>2019-09-01T14:40:35Z</time>
      </trkpt>
      <trkpt lat="59.159476" lon="18.128824">
        <ele>52</ele>
        <time>2019-09-01T14:40:36Z</time>
      </trkpt>
      <trkpt lat="59.159448" lon="18.128814">
        <ele>52</ele>
        <time>2019-09-01T14:40:37Z</time>
      </trkpt>
      <trkpt lat="59.159424" lon="18.128808">
        <ele>52</ele>
        <time>2019-09-01T14:40:38Z</time>
      </trkpt>
      <trkpt lat="59.1594" lon="18.1288">
        <ele>52</ele>
        <time>2019-09-01T14:40:39Z</time>
      </trkpt>
      <trkpt lat="59.159375" lon="18.128792">
        <ele>53</ele>
        <time>2019-09-01T14:40:40Z</time>
      </trkpt>
      <trkpt lat="59.159356" lon="18.128796">
        <ele>53</ele>
        <time>2019-09-01T14:40:41Z</time>
      </trkpt>
      <trkpt lat="59.159332" lon="18.128804">
        <ele>53</ele>
        <time>2019-09-01T14:40:42Z</time>
      </trkpt>
      <trkpt lat="59.159304" lon="18.128814">
        <ele>53</ele>
        <time>2019-09-01T14:40:43Z</time>
      </trkpt>
      <trkpt lat="59.159275" lon="18.12882">
        <ele>53</ele>
        <time>2019-09-01T14:40:44Z</time>
      </trkpt>
      <trkpt lat="59.159243" lon="18.128816">
        <ele>53</ele>
        <time>2019-09-01T14:40:45Z</time>
      </trkpt>
      <trkpt lat="59.15922" lon="18.128796">
        <ele>53</ele>
        <time>2019-09-01T14:40:46Z</time>
      </trkpt>
      <trkpt lat="59.159197" lon="18.128772">
        <ele>53</ele>
        <time>2019-09-01T14:40:47Z</time>
      </trkpt>
      <trkpt lat="59.159176" lon="18.12876">
        <ele>53</ele>
        <time>2019-09-01T14:40:48Z</time>
      </trkpt>
      <trkpt lat="59.15915" lon="18.128759">
        <ele>53</ele>
        <time>2019-09-01T14:40:49Z</time>
      </trkpt>
      <trkpt lat="59.159128" lon="18.128754">
        <ele>53</ele>
        <time>2019-09-01T14:40:50Z</time>
      </trkpt>
      <trkpt lat="59.159108" lon="18.128743">
        <ele>54</ele>
        <time>2019-09-01T14:40:51Z</time>
      </trkpt>
      <trkpt lat="59.159088" lon="18.128732">
        <ele>54</ele>
        <time>2019-09-01T14:40:52Z</time>
      </trkpt>
      <trkpt lat="59.159068" lon="18.12871">
        <ele>54</ele>
        <time>2019-09-01T14:40:53Z</time>
      </trkpt>
      <trkpt lat="59.15905" lon="18.12868">
        <ele>54</ele>
        <time>2019-09-01T14:40:54Z</time>
      </trkpt>
      <trkpt lat="59.15904" lon="18.128648">
        <ele>54</ele>
        <time>2019-09-01T14:40:55Z</time>
      </trkpt>
      <trkpt lat="59.159035" lon="18.128612">
        <ele>54</ele>
        <time>2019-09-01T14:40:56Z</time>
      </trkpt>
      <trkpt lat="59.15903" lon="18.128577">
        <ele>54</ele>
        <time>2019-09-01T14:40:57Z</time>
      </trkpt>
      <trkpt lat="59.159012" lon="18.128542">
        <ele>54</ele>
        <time>2019-09-01T14:40:59Z</time>
      </trkpt>
      <trkpt lat="59.158983" lon="18.128565">
        <ele>54</ele>
        <time>2019-09-01T14:41:01Z</time>
      </trkpt>
      <trkpt lat="59.158964" lon="18.128571">
        <ele>54</ele>
        <time>2019-09-01T14:41:02Z</time>
      </trkpt>
      <trkpt lat="59.158932" lon="18.128583">
        <ele>54</ele>
        <time>2019-09-01T14:41:03Z</time>
      </trkpt>
      <trkpt lat="59.158901" lon="18.128595">
        <ele>55</ele>
        <time>2019-09-01T14:41:04Z</time>
      </trkpt>
      <trkpt lat="59.158871" lon="18.128603">
        <ele>55</ele>
        <time>2019-09-01T14:41:05Z</time>
      </trkpt>
      <trkpt lat="59.15884" lon="18.128615">
        <ele>55</ele>
        <time>2019-09-01T14:41:06Z</time>
      </trkpt>
      <trkpt lat="59.158809" lon="18.128647">
        <ele>55</ele>
        <time>2019-09-01T14:41:07Z</time>
      </trkpt>
      <trkpt lat="59.158781" lon="18.12869">
        <ele>55</ele>
        <time>2019-09-01T14:41:08Z</time>
      </trkpt>
      <trkpt lat="59.158764" lon="18.128744">
        <ele>55</ele>
        <time>2019-09-01T14:41:09Z</time>
      </trkpt>
      <trkpt lat="59.158753" lon="18.128803">
        <ele>55</ele>
        <time>2019-09-01T14:41:10Z</time>
      </trkpt>
      <trkpt lat="59.158739" lon="18.128867">
        <ele>55</ele>
        <time>2019-09-01T14:41:11Z</time>
      </trkpt>
      <trkpt lat="59.158719" lon="18.128932">
        <ele>55</ele>
        <time>2019-09-01T14:41:12Z</time>
      </trkpt>
      <trkpt lat="59.158697" lon="18.128992">
        <ele>55</ele>
        <time>2019-09-01T14:41:13Z</time>
      </trkpt>
      <trkpt lat="59.158672" lon="18.129047">
        <ele>55</ele>
        <time>2019-09-01T14:41:14Z</time>
      </trkpt>
      <trkpt lat="59.158656" lon="18.129106">
        <ele>55</ele>
        <time>2019-09-01T14:41:15Z</time>
      </trkpt>
      <trkpt lat="59.158641" lon="18.129158">
        <ele>55</ele>
        <time>2019-09-01T14:41:16Z</time>
      </trkpt>
      <trkpt lat="59.158621" lon="18.129207">
        <ele>55</ele>
        <time>2019-09-01T14:41:17Z</time>
      </trkpt>
      <trkpt lat="59.158596" lon="18.129256">
        <ele>55</ele>
        <time>2019-09-01T14:41:18Z</time>
      </trkpt>
      <trkpt lat="59.158571" lon="18.129302">
        <ele>55</ele>
        <time>2019-09-01T14:41:19Z</time>
      </trkpt>
      <trkpt lat="59.15855" lon="18.129347">
        <ele>54</ele>
        <time>2019-09-01T14:41:20Z</time>
      </trkpt>
      <trkpt lat="59.158534" lon="18.129392">
        <ele>54</ele>
        <time>2019-09-01T14:41:21Z</time>
      </trkpt>
      <trkpt lat="59.158513" lon="18.129428">
        <ele>54</ele>
        <time>2019-09-01T14:41:22Z</time>
      </trkpt>
      <trkpt lat="59.158492" lon="18.129456">
        <ele>54</ele>
        <time>2019-09-01T14:41:23Z</time>
      </trkpt>
      <trkpt lat="59.158467" lon="18.129484">
        <ele>54</ele>
        <time>2019-09-01T14:41:24Z</time>
      </trkpt>
      <trkpt lat="59.158444" lon="18.129518">
        <ele>55</ele>
        <time>2019-09-01T14:41:25Z</time>
      </trkpt>
      <trkpt lat="59.158419" lon="18.129553">
        <ele>55</ele>
        <time>2019-09-01T14:41:26Z</time>
      </trkpt>
      <trkpt lat="59.158392" lon="18.129585">
        <ele>54</ele>
        <time>2019-09-01T14:41:27Z</time>
      </trkpt>
      <trkpt lat="59.158367" lon="18.129612">
        <ele>54</ele>
        <time>2019-09-01T14:41:28Z</time>
      </trkpt>
      <trkpt lat="59.158341" lon="18.129631">
        <ele>54</ele>
        <time>2019-09-01T14:41:29Z</time>
      </trkpt>
      <trkpt lat="59.158314" lon="18.129632">
        <ele>54</ele>
        <time>2019-09-01T14:41:30Z</time>
      </trkpt>
      <trkpt lat="59.158286" lon="18.129624">
        <ele>55</ele>
        <time>2019-09-01T14:41:31Z</time>
      </trkpt>
      <trkpt lat="59.158258" lon="18.129613">
        <ele>55</ele>
        <time>2019-09-01T14:41:32Z</time>
      </trkpt>
      <trkpt lat="59.158228" lon="18.129601">
        <ele>55</ele>
        <time>2019-09-01T14:41:33Z</time>
      </trkpt>
      <trkpt lat="59.158192" lon="18.129586">
        <ele>55</ele>
        <time>2019-09-01T14:41:34Z</time>
      </trkpt>
      <trkpt lat="59.158159" lon="18.129569">
        <ele>55</ele>
        <time>2019-09-01T14:41:35Z</time>
      </trkpt>
      <trkpt lat="59.158127" lon="18.129537">
        <ele>55</ele>
        <time>2019-09-01T14:41:36Z</time>
      </trkpt>
      <trkpt lat="59.158097" lon="18.129504">
        <ele>55</ele>
        <time>2019-09-01T14:41:37Z</time>
      </trkpt>
      <trkpt lat="59.158066" lon="18.129465">
        <ele>55</ele>
        <time>2019-09-01T14:41:38Z</time>
      </trkpt>
      <trkpt lat="59.158036" lon="18.129429">
        <ele>55</ele>
        <time>2019-09-01T14:41:39Z</time>
      </trkpt>
      <trkpt lat="59.158008" lon="18.129399">
        <ele>55</ele>
        <time>2019-09-01T14:41:40Z</time>
      </trkpt>
      <trkpt lat="59.157978" lon="18.129377">
        <ele>55</ele>
        <time>2019-09-01T14:41:41Z</time>
      </trkpt>
      <trkpt lat="59.157953" lon="18.12936">
        <ele>55</ele>
        <time>2019-09-01T14:41:42Z</time>
      </trkpt>
      <trkpt lat="59.157923" lon="18.129342">
        <ele>55</ele>
        <time>2019-09-01T14:41:43Z</time>
      </trkpt>
      <trkpt lat="59.157887" lon="18.129322">
        <ele>55</ele>
        <time>2019-09-01T14:41:44Z</time>
      </trkpt>
      <trkpt lat="59.157857" lon="18.12931">
        <ele>55</ele>
        <time>2019-09-01T14:41:45Z</time>
      </trkpt>
      <trkpt lat="59.157832" lon="18.129306">
        <ele>55</ele>
        <time>2019-09-01T14:41:46Z</time>
      </trkpt>
      <trkpt lat="59.157809" lon="18.129314">
        <ele>55</ele>
        <time>2019-09-01T14:41:47Z</time>
      </trkpt>
      <trkpt lat="59.157789" lon="18.129327">
        <ele>55</ele>
        <time>2019-09-01T14:41:48Z</time>
      </trkpt>
      <trkpt lat="59.157771" lon="18.129338">
        <ele>55</ele>
        <time>2019-09-01T14:41:49Z</time>
      </trkpt>
      <trkpt lat="59.157738" lon="18.129318">
        <ele>55</ele>
        <time>2019-09-01T14:41:51Z</time>
      </trkpt>
      <trkpt lat="59.157721" lon="18.129274">
        <ele>55</ele>
        <time>2019-09-01T14:41:52Z</time>
      </trkpt>
      <trkpt lat="59.157704" lon="18.129233">
        <ele>55</ele>
        <time>2019-09-01T14:41:53Z</time>
      </trkpt>
      <trkpt lat="59.157696" lon="18.129197">
        <ele>55</ele>
        <time>2019-09-01T14:41:54Z</time>
      </trkpt>
      <trkpt lat="59.157705" lon="18.129145">
        <ele>55</ele>
        <time>2019-09-01T14:41:56Z</time>
      </trkpt>
      <trkpt lat="59.1577" lon="18.129082">
        <ele>56</ele>
        <time>2019-09-01T14:41:58Z</time>
      </trkpt>
      <trkpt lat="59.15769" lon="18.129049">
        <ele>56</ele>
        <time>2019-09-01T14:41:59Z</time>
      </trkpt>
      <trkpt lat="59.157671" lon="18.12899">
        <ele>56</ele>
        <time>2019-09-01T14:42:01Z</time>
      </trkpt>
      <trkpt lat="59.157666" lon="18.128946">
        <ele>56</ele>
        <time>2019-09-01T14:42:02Z</time>
      </trkpt>
      <trkpt lat="59.157668" lon="18.128894">
        <ele>56</ele>
        <time>2019-09-01T14:42:03Z</time>
      </trkpt>
      <trkpt lat="59.157665" lon="18.128837">
        <ele>56</ele>
        <time>2019-09-01T14:42:04Z</time>
      </trkpt>
      <trkpt lat="59.157657" lon="18.128776">
        <ele>56</ele>
        <time>2019-09-01T14:42:05Z</time>
      </trkpt>
      <trkpt lat="59.157649" lon="18.128717">
        <ele>56</ele>
        <time>2019-09-01T14:42:06Z</time>
      </trkpt>
      <trkpt lat="59.157638" lon="18.128662">
        <ele>56</ele>
        <time>2019-09-01T14:42:07Z</time>
      </trkpt>
      <trkpt lat="59.157627" lon="18.128609">
        <ele>56</ele>
        <time>2019-09-01T14:42:08Z</time>
      </trkpt>
      <trkpt lat="59.157611" lon="18.128548">
        <ele>56</ele>
        <time>2019-09-01T14:42:09Z</time>
      </trkpt>
      <trkpt lat="59.157597" lon="18.128489">
        <ele>56</ele>
        <time>2019-09-01T14:42:10Z</time>
      </trkpt>
      <trkpt lat="59.157582" lon="18.128419">
        <ele>56</ele>
        <time>2019-09-01T14:42:11Z</time>
      </trkpt>
      <trkpt lat="59.157569" lon="18.128344">
        <ele>56</ele>
        <time>2019-09-01T14:42:12Z</time>
      </trkpt>
      <trkpt lat="59.157557" lon="18.128272">
        <ele>56</ele>
        <time>2019-09-01T14:42:13Z</time>
      </trkpt>
      <trkpt lat="59.157552" lon="18.128193">
        <ele>56</ele>
        <time>2019-09-01T14:42:14Z</time>
      </trkpt>
      <trkpt lat="59.15755" lon="18.12811">
        <ele>56</ele>
        <time>2019-09-01T14:42:15Z</time>
      </trkpt>
      <trkpt lat="59.157558" lon="18.128028">
        <ele>56</ele>
        <time>2019-09-01T14:42:16Z</time>
      </trkpt>
      <trkpt lat="59.15758" lon="18.127962">
        <ele>56</ele>
        <time>2019-09-01T14:42:17Z</time>
      </trkpt>
      <trkpt lat="59.157615" lon="18.127937">
        <ele>56</ele>
        <time>2019-09-01T14:42:18Z</time>
      </trkpt>
      <trkpt lat="59.157648" lon="18.127962">
        <ele>56</ele>
        <time>2019-09-01T14:42:19Z</time>
      </trkpt>
      <trkpt lat="59.157668" lon="18.128008">
        <ele>56</ele>
        <time>2019-09-01T14:42:20Z</time>
      </trkpt>
      <trkpt lat="59.157679" lon="18.128069">
        <ele>56</ele>
        <time>2019-09-01T14:42:21Z</time>
      </trkpt>
      <trkpt lat="59.157686" lon="18.128137">
        <ele>56</ele>
        <time>2019-09-01T14:42:22Z</time>
      </trkpt>
      <trkpt lat="59.15769" lon="18.128201">
        <ele>56</ele>
        <time>2019-09-01T14:42:23Z</time>
      </trkpt>
      <trkpt lat="59.1577" lon="18.128264">
        <ele>56</ele>
        <time>2019-09-01T14:42:24Z</time>
      </trkpt>
      <trkpt lat="59.157708" lon="18.128321">
        <ele>56</ele>
        <time>2019-09-01T14:42:25Z</time>
      </trkpt>
      <trkpt lat="59.15772" lon="18.128372">
        <ele>56</ele>
        <time>2019-09-01T14:42:26Z</time>
      </trkpt>
      <trkpt lat="59.15773" lon="18.128411">
        <ele>56</ele>
        <time>2019-09-01T14:42:27Z</time>
      </trkpt>
      <trkpt lat="59.15774" lon="18.128453">
        <ele>56</ele>
        <time>2019-09-01T14:42:28Z</time>
      </trkpt>
      <trkpt lat="59.157755" lon="18.128478">
        <ele>56</ele>
        <time>2019-09-01T14:42:29Z</time>
      </trkpt>
      <trkpt lat="59.157778" lon="18.128495">
        <ele>56</ele>
        <time>2019-09-01T14:42:30Z</time>
      </trkpt>
      <trkpt lat="59.157804" lon="18.128502">
        <ele>56</ele>
        <time>2019-09-01T14:42:31Z</time>
      </trkpt>
      <trkpt lat="59.157828" lon="18.128496">
        <ele>56</ele>
        <time>2019-09-01T14:42:32Z</time>
      </trkpt>
      <trkpt lat="59.157851" lon="18.128484">
        <ele>57</ele>
        <time>2019-09-01T14:42:33Z</time>
      </trkpt>
      <trkpt lat="59.157875" lon="18.128472">
        <ele>57</ele>
        <time>2019-09-01T14:42:34Z</time>
      </trkpt>
      <trkpt lat="59.1579" lon="18.128453">
        <ele>57</ele>
        <time>2019-09-01T14:42:35Z</time>
      </trkpt>
      <trkpt lat="59.157925" lon="18.128429">
        <ele>57</ele>
        <time>2019-09-01T14:42:36Z</time>
      </trkpt>
      <trkpt lat="59.157956" lon="18.12841">
        <ele>57</ele>
        <time>2019-09-01T14:42:37Z</time>
      </trkpt>
      <trkpt lat="59.157988" lon="18.128392">
        <ele>57</ele>
        <time>2019-09-01T14:42:38Z</time>
      </trkpt>
      <trkpt lat="59.15802" lon="18.128358">
        <ele>57</ele>
        <time>2019-09-01T14:42:39Z</time>
      </trkpt>
      <trkpt lat="59.158054" lon="18.128327">
        <ele>57</ele>
        <time>2019-09-01T14:42:40Z</time>
      </trkpt>
      <trkpt lat="59.158089" lon="18.128304">
        <ele>57</ele>
        <time>2019-09-01T14:42:41Z</time>
      </trkpt>
      <trkpt lat="59.158125" lon="18.128292">
        <ele>57</ele>
        <time>2019-09-01T14:42:42Z</time>
      </trkpt>
      <trkpt lat="59.158161" lon="18.12828">
        <ele>57</ele>
        <time>2019-09-01T14:42:43Z</time>
      </trkpt>
      <trkpt lat="59.158194" lon="18.128266">
        <ele>57</ele>
        <time>2019-09-01T14:42:44Z</time>
      </trkpt>
      <trkpt lat="59.158229" lon="18.128247">
        <ele>57</ele>
        <time>2019-09-01T14:42:45Z</time>
      </trkpt>
      <trkpt lat="59.158261" lon="18.12823">
        <ele>57</ele>
        <time>2019-09-01T14:42:46Z</time>
      </trkpt>
      <trkpt lat="59.158291" lon="18.128207">
        <ele>57</ele>
        <time>2019-09-01T14:42:47Z</time>
      </trkpt>
      <trkpt lat="59.15832" lon="18.128188">
        <ele>57</ele>
        <time>2019-09-01T14:42:48Z</time>
      </trkpt>
      <trkpt lat="59.158353" lon="18.128172">
        <ele>57</ele>
        <time>2019-09-01T14:42:49Z</time>
      </trkpt>
      <trkpt lat="59.158385" lon="18.12816">
        <ele>57</ele>
        <time>2019-09-01T14:42:50Z</time>
      </trkpt>
      <trkpt lat="59.158423" lon="18.128141">
        <ele>58</ele>
        <time>2019-09-01T14:42:51Z</time>
      </trkpt>
      <trkpt lat="59.158462" lon="18.128127">
        <ele>58</ele>
        <time>2019-09-01T14:42:52Z</time>
      </trkpt>
      <trkpt lat="59.1585" lon="18.128125">
        <ele>58</ele>
        <time>2019-09-01T14:42:53Z</time>
      </trkpt>
      <trkpt lat="59.158538" lon="18.128131">
        <ele>57</ele>
        <time>2019-09-01T14:42:54Z</time>
      </trkpt>
      <trkpt lat="59.158568" lon="18.128149">
        <ele>57</ele>
        <time>2019-09-01T14:42:55Z</time>
      </trkpt>
      <trkpt lat="59.158592" lon="18.128176">
        <ele>57</ele>
        <time>2019-09-01T14:42:56Z</time>
      </trkpt>
      <trkpt lat="59.158615" lon="18.128217">
        <ele>57</ele>
        <time>2019-09-01T14:42:57Z</time>
      </trkpt>
      <trkpt lat="59.158635" lon="18.128253">
        <ele>56</ele>
        <time>2019-09-01T14:42:58Z</time>
      </trkpt>
      <trkpt lat="59.158651" lon="18.128294">
        <ele>56</ele>
        <time>2019-09-01T14:42:59Z</time>
      </trkpt>
      <trkpt lat="59.158659" lon="18.128341">
        <ele>56</ele>
        <time>2019-09-01T14:43:00Z</time>
      </trkpt>
      <trkpt lat="59.158662" lon="18.128387">
        <ele>56</ele>
        <time>2019-09-01T14:43:01Z</time>
      </trkpt>
      <trkpt lat="59.158666" lon="18.128438">
        <ele>56</ele>
        <time>2019-09-01T14:43:02Z</time>
      </trkpt>
      <trkpt lat="59.158671" lon="18.128489">
        <ele>56</ele>
        <time>2019-09-01T14:43:03Z</time>
      </trkpt>
      <trkpt lat="59.158678" lon="18.12854">
        <ele>56</ele>
        <time>2019-09-01T14:43:04Z</time>
      </trkpt>
      <trkpt lat="59.158685" lon="18.128594">
        <ele>56</ele>
        <time>2019-09-01T14:43:05Z</time>
      </trkpt>
      <trkpt lat="59.15869" lon="18.128655">
        <ele>56</ele>
        <time>2019-09-01T14:43:06Z</time>
      </trkpt>
      <trkpt lat="59.158697" lon="18.128716">
        <ele>56</ele>
        <time>2019-09-01T14:43:07Z</time>
      </trkpt>
      <trkpt lat="59.158705" lon="18.128777">
        <ele>56</ele>
        <time>2019-09-01T14:43:08Z</time>
      </trkpt>
      <trkpt lat="59.158723" lon="18.12883">
        <ele>56</ele>
        <time>2019-09-01T14:43:09Z</time>
      </trkpt>
      <trkpt lat="59.158737" lon="18.128882">
        <ele>56</ele>
        <time>2019-09-01T14:43:10Z</time>
      </trkpt>
      <trkpt lat="59.158748" lon="18.12893">
        <ele>56</ele>
        <time>2019-09-01T14:43:11Z</time>
      </trkpt>
      <trkpt lat="59.158761" lon="18.128974">
        <ele>56</ele>
        <time>2019-09-01T14:43:12Z</time>
      </trkpt>
      <trkpt lat="59.158776" lon="18.129013">
        <ele>56</ele>
        <time>2019-09-01T14:43:13Z</time>
      </trkpt>
      <trkpt lat="59.158797" lon="18.129053">
        <ele>56</ele>
        <time>2019-09-01T14:43:14Z</time>
      </trkpt>
      <trkpt lat="59.158825" lon="18.129093">
        <ele>56</ele>
        <time>2019-09-01T14:43:15Z</time>
      </trkpt>
      <trkpt lat="59.158854" lon="18.129128">
        <ele>56</ele>
        <time>2019-09-01T14:43:16Z</time>
      </trkpt>
      <trkpt lat="59.158883" lon="18.129156">
        <ele>56</ele>
        <time>2019-09-01T14:43:17Z</time>
      </trkpt>
      <trkpt lat="59.158913" lon="18.129177">
        <ele>56</ele>
        <time>2019-09-01T14:43:18Z</time>
      </trkpt>
      <trkpt lat="59.158945" lon="18.12919">
        <ele>56</ele>
        <time>2019-09-01T14:43:19Z</time>
      </trkpt>
      <trkpt lat="59.158978" lon="18.129197">
        <ele>56</ele>
        <time>2019-09-01T14:43:20Z</time>
      </trkpt>
      <trkpt lat="59.159009" lon="18.129199">
        <ele>56</ele>
        <time>2019-09-01T14:43:21Z</time>
      </trkpt>
      <trkpt lat="59.159042" lon="18.129197">
        <ele>56</ele>
        <time>2019-09-01T14:43:22Z</time>
      </trkpt>
      <trkpt lat="59.159076" lon="18.129194">
        <ele>57</ele>
        <time>2019-09-01T14:43:23Z</time>
      </trkpt>
      <trkpt lat="59.159112" lon="18.129191">
        <ele>57</ele>
        <time>2019-09-01T14:43:24Z</time>
      </trkpt>
      <trkpt lat="59.159147" lon="18.129188">
        <ele>57</ele>
        <time>2019-09-01T14:43:25Z</time>
      </trkpt>
      <trkpt lat="59.159181" lon="18.129181">
        <ele>57</ele>
        <time>2019-09-01T14:43:26Z</time>
      </trkpt>
      <trkpt lat="59.159215" lon="18.129174">
        <ele>57</ele>
        <time>2019-09-01T14:43:27Z</time>
      </trkpt>
      <trkpt lat="59.15925" lon="18.129168">
        <ele>57</ele>
        <time>2019-09-01T14:43:28Z</time>
      </trkpt>
      <trkpt lat="59.159285" lon="18.129165">
        <ele>58</ele>
        <time>2019-09-01T14:43:29Z</time>
      </trkpt>
      <trkpt lat="59.159317" lon="18.129172">
        <ele>58</ele>
        <time>2019-09-01T14:43:30Z</time>
      </trkpt>
      <trkpt lat="59.159348" lon="18.129197">
        <ele>58</ele>
        <time>2019-09-01T14:43:31Z</time>
      </trkpt>
      <trkpt lat="59.159376" lon="18.129225">
        <ele>58</ele>
        <time>2019-09-01T14:43:32Z</time>
      </trkpt>
      <trkpt lat="59.1594" lon="18.129256">
        <ele>58</ele>
        <time>2019-09-01T14:43:33Z</time>
      </trkpt>
      <trkpt lat="59.159421" lon="18.129283">
        <ele>58</ele>
        <time>2019-09-01T14:43:34Z</time>
      </trkpt>
      <trkpt lat="59.159441" lon="18.129311">
        <ele>58</ele>
        <time>2019-09-01T14:43:35Z</time>
      </trkpt>
      <trkpt lat="59.159466" lon="18.129348">
        <ele>57</ele>
        <time>2019-09-01T14:43:36Z</time>
      </trkpt>
      <trkpt lat="59.159491" lon="18.129387">
        <ele>57</ele>
        <time>2019-09-01T14:43:37Z</time>
      </trkpt>
      <trkpt lat="59.159517" lon="18.12943">
        <ele>57</ele>
        <time>2019-09-01T14:43:38Z</time>
      </trkpt>
      <trkpt lat="59.159541" lon="18.129472">
        <ele>57</ele>
        <time>2019-09-01T14:43:39Z</time>
      </trkpt>
      <trkpt lat="59.159566" lon="18.129519">
        <ele>57</ele>
        <time>2019-09-01T14:43:40Z</time>
      </trkpt>
      <trkpt lat="59.159582" lon="18.129574">
        <ele>57</ele>
        <time>2019-09-01T14:43:41Z</time>
      </trkpt>
      <trkpt lat="59.159589" lon="18.12963">
        <ele>57</ele>
        <time>2019-09-01T14:43:42Z</time>
      </trkpt>
      <trkpt lat="59.159586" lon="18.129681">
        <ele>57</ele>
        <time>2019-09-01T14:43:43Z</time>
      </trkpt>
      <trkpt lat="59.15959" lon="18.129735">
        <ele>57</ele>
        <time>2019-09-01T14:43:44Z</time>
      </trkpt>
      <trkpt lat="59.159588" lon="18.129785">
        <ele>57</ele>
        <time>2019-09-01T14:43:45Z</time>
      </trkpt>
      <trkpt lat="59.159593" lon="18.129832">
        <ele>57</ele>
        <time>2019-09-01T14:43:46Z</time>
      </trkpt>
      <trkpt lat="59.159597" lon="18.129889">
        <ele>57</ele>
        <time>2019-09-01T14:43:47Z</time>
      </trkpt>
      <trkpt lat="59.1596" lon="18.129953">
        <ele>56</ele>
        <time>2019-09-01T14:43:48Z</time>
      </trkpt>
      <trkpt lat="59.159604" lon="18.130027">
        <ele>56</ele>
        <time>2019-09-01T14:43:49Z</time>
      </trkpt>
      <trkpt lat="59.159608" lon="18.130083">
        <ele>56</ele>
        <time>2019-09-01T14:43:50Z</time>
      </trkpt>
      <trkpt lat="59.159611" lon="18.130135">
        <ele>56</ele>
        <time>2019-09-01T14:43:51Z</time>
      </trkpt>
      <trkpt lat="59.159616" lon="18.130175">
        <ele>56</ele>
        <time>2019-09-01T14:43:52Z</time>
      </trkpt>
      <trkpt lat="59.159628" lon="18.130208">
        <ele>56</ele>
        <time>2019-09-01T14:43:53Z</time>
      </trkpt>
      <trkpt lat="59.159663" lon="18.130238">
        <ele>56</ele>
        <time>2019-09-01T14:43:55Z</time>
      </trkpt>
      <trkpt lat="59.159692" lon="18.130243">
        <ele>55</ele>
        <time>2019-09-01T14:43:56Z</time>
      </trkpt>
      <trkpt lat="59.159727" lon="18.130241">
        <ele>55</ele>
        <time>2019-09-01T14:43:57Z</time>
      </trkpt>
      <trkpt lat="59.159765" lon="18.130233">
        <ele>55</ele>
        <time>2019-09-01T14:43:58Z</time>
      </trkpt>
      <trkpt lat="59.159807" lon="18.130227">
        <ele>55</ele>
        <time>2019-09-01T14:43:59Z</time>
      </trkpt>
      <trkpt lat="59.159853" lon="18.130216">
        <ele>55</ele>
        <time>2019-09-01T14:44:00Z</time>
      </trkpt>
      <trkpt lat="59.159902" lon="18.130197">
        <ele>55</ele>
        <time>2019-09-01T14:44:01Z</time>
      </trkpt>
      <trkpt lat="59.159954" lon="18.130173">
        <ele>55</ele>
        <time>2019-09-01T14:44:02Z</time>
      </trkpt>
      <trkpt lat="59.160011" lon="18.130148">
        <ele>55</ele>
        <time>2019-09-01T14:44:03Z</time>
      </trkpt>
      <trkpt lat="59.160072" lon="18.130129">
        <ele>55</ele>
        <time>2019-09-01T14:44:04Z</time>
      </trkpt>
      <trkpt lat="59.160138" lon="18.130114">
        <ele>55</ele>
        <time>2019-09-01T14:44:05Z</time>
      </trkpt>
      <trkpt lat="59.160208" lon="18.13011">
        <ele>54</ele>
        <time>2019-09-01T14:44:06Z</time>
      </trkpt>
      <trkpt lat="59.160279" lon="18.130113">
        <ele>54</ele>
        <time>2019-09-01T14:44:07Z</time>
      </trkpt>
      <trkpt lat="59.160348" lon="18.130125">
        <ele>54</ele>
        <time>2019-09-01T14:44:08Z</time>
      </trkpt>
      <trkpt lat="59.160418" lon="18.130144">
        <ele>54</ele>
        <time>2019-09-01T14:44:09Z</time>
      </trkpt>
      <trkpt lat="59.160486" lon="18.130164">
        <ele>54</ele>
        <time>2019-09-01T14:44:10Z</time>
      </trkpt>
      <trkpt lat="59.160546" lon="18.130171">
        <ele>54</ele>
        <time>2019-09-01T14:44:11Z</time>
      </trkpt>
      <trkpt lat="59.160597" lon="18.130148">
        <ele>54</ele>
        <time>2019-09-01T14:44:12Z</time>
      </trkpt>
      <trkpt lat="59.160644" lon="18.130105">
        <ele>54</ele>
        <time>2019-09-01T14:44:13Z</time>
      </trkpt>
      <trkpt lat="59.16069" lon="18.130058">
        <ele>53</ele>
        <time>2019-09-01T14:44:14Z</time>
      </trkpt>
      <trkpt lat="59.160734" lon="18.130008">
        <ele>53</ele>
        <time>2019-09-01T14:44:16Z</time>
      </trkpt>
      <trkpt lat="59.160773" lon="18.12995">
        <ele>53</ele>
        <time>2019-09-01T14:44:16Z</time>
      </trkpt>
      <trkpt lat="59.16081" lon="18.129893">
        <ele>53</ele>
        <time>2019-09-01T14:44:17Z</time>
      </trkpt>
      <trkpt lat="59.16084" lon="18.129839">
        <ele>52</ele>
        <time>2019-09-01T14:44:18Z</time>
      </trkpt>
      <trkpt lat="59.160864" lon="18.129814">
        <ele>52</ele>
        <time>2019-09-01T14:44:19Z</time>
      </trkpt>
      <trkpt lat="59.160896" lon="18.129816">
        <ele>52</ele>
        <time>2019-09-01T14:44:20Z</time>
      </trkpt>
      <trkpt lat="59.160927" lon="18.129839">
        <ele>52</ele>
        <time>2019-09-01T14:44:21Z</time>
      </trkpt>
      <trkpt lat="59.16096" lon="18.129875">
        <ele>52</ele>
        <time>2019-09-01T14:44:22Z</time>
      </trkpt>
      <trkpt lat="59.160989" lon="18.129921">
        <ele>51</ele>
        <time>2019-09-01T14:44:23Z</time>
      </trkpt>
      <trkpt lat="59.161027" lon="18.129981">
        <ele>51</ele>
        <time>2019-09-01T14:44:24Z</time>
      </trkpt>
      <trkpt lat="59.161082" lon="18.130057">
        <ele>51</ele>
        <time>2019-09-01T14:44:25Z</time>
      </trkpt>
      <trkpt lat="59.161134" lon="18.130112">
        <ele>51</ele>
        <time>2019-09-01T14:44:26Z</time>
      </trkpt>
      <trkpt lat="59.16119" lon="18.130149">
        <ele>51</ele>
        <time>2019-09-01T14:44:27Z</time>
      </trkpt>
      <trkpt lat="59.161245" lon="18.130182">
        <ele>51</ele>
        <time>2019-09-01T14:44:28Z</time>
      </trkpt>
      <trkpt lat="59.161306" lon="18.130205">
        <ele>51</ele>
        <time>2019-09-01T14:44:29Z</time>
      </trkpt>
      <trkpt lat="59.161364" lon="18.130214">
        <ele>51</ele>
        <time>2019-09-01T14:44:30Z</time>
      </trkpt>
      <trkpt lat="59.161421" lon="18.13022">
        <ele>51</ele>
        <time>2019-09-01T14:44:31Z</time>
      </trkpt>
      <trkpt lat="59.161476" lon="18.130221">
        <ele>50</ele>
        <time>2019-09-01T14:44:32Z</time>
      </trkpt>
      <trkpt lat="59.161536" lon="18.130205">
        <ele>50</ele>
        <time>2019-09-01T14:44:33Z</time>
      </trkpt>
      <trkpt lat="59.161596" lon="18.130183">
        <ele>49</ele>
        <time>2019-09-01T14:44:35Z</time>
      </trkpt>
      <trkpt lat="59.161674" lon="18.130176">
        <ele>49</ele>
        <time>2019-09-01T14:44:35Z</time>
      </trkpt>
      <trkpt lat="59.161747" lon="18.130179">
        <ele>48</ele>
        <time>2019-09-01T14:44:36Z</time>
      </trkpt>
      <trkpt lat="59.161817" lon="18.130185">
        <ele>48</ele>
        <time>2019-09-01T14:44:37Z</time>
      </trkpt>
      <trkpt lat="59.161882" lon="18.130213">
        <ele>48</ele>
        <time>2019-09-01T14:44:38Z</time>
      </trkpt>
      <trkpt lat="59.16194" lon="18.130264">
        <ele>48</ele>
        <time>2019-09-01T14:44:39Z</time>
      </trkpt>
      <trkpt lat="59.161994" lon="18.130314">
        <ele>48</ele>
        <time>2019-09-01T14:44:40Z</time>
      </trkpt>
      <trkpt lat="59.162044" lon="18.130347">
        <ele>48</ele>
        <time>2019-09-01T14:44:41Z</time>
      </trkpt>
      <trkpt lat="59.162091" lon="18.130359">
        <ele>47</ele>
        <time>2019-09-01T14:44:42Z</time>
      </trkpt>
      <trkpt lat="59.162137" lon="18.130363">
        <ele>47</ele>
        <time>2019-09-01T14:44:43Z</time>
      </trkpt>
      <trkpt lat="59.162181" lon="18.130372">
        <ele>47</ele>
        <time>2019-09-01T14:44:44Z</time>
      </trkpt>
      <trkpt lat="59.162226" lon="18.130388">
        <ele>47</ele>
        <time>2019-09-01T14:44:45Z</time>
      </trkpt>
      <trkpt lat="59.162266" lon="18.130406">
        <ele>46</ele>
        <time>2019-09-01T14:44:46Z</time>
      </trkpt>
      <trkpt lat="59.162307" lon="18.130422">
        <ele>46</ele>
        <time>2019-09-01T14:44:47Z</time>
      </trkpt>
      <trkpt lat="59.162343" lon="18.13044">
        <ele>46</ele>
        <time>2019-09-01T14:44:48Z</time>
      </trkpt>
      <trkpt lat="59.162376" lon="18.130459">
        <ele>46</ele>
        <time>2019-09-01T14:44:49Z</time>
      </trkpt>
      <trkpt lat="59.162406" lon="18.130479">
        <ele>46</ele>
        <time>2019-09-01T14:44:50Z</time>
      </trkpt>
      <trkpt lat="59.162432" lon="18.130497">
        <ele>46</ele>
        <time>2019-09-01T14:44:51Z</time>
      </trkpt>
      <trkpt lat="59.162456" lon="18.130516">
        <ele>46</ele>
        <time>2019-09-01T14:44:52Z</time>
      </trkpt>
      <trkpt lat="59.162474" lon="18.130537">
        <ele>45</ele>
        <time>2019-09-01T14:44:53Z</time>
      </trkpt>
      <trkpt lat="59.162491" lon="18.130559">
        <ele>45</ele>
        <time>2019-09-01T14:44:54Z</time>
      </trkpt>
      <trkpt lat="59.162506" lon="18.13058">
        <ele>44</ele>
        <time>2019-09-01T14:44:55Z</time>
      </trkpt>
      <trkpt lat="59.162511" lon="18.130637">
        <ele>44</ele>
        <time>2019-09-01T14:44:57Z</time>
      </trkpt>
      <trkpt lat="59.162495" lon="18.130678">
        <ele>44</ele>
        <time>2019-09-01T14:44:59Z</time>
      </trkpt>
      <trkpt lat="59.162485" lon="18.130713">
        <ele>44</ele>
        <time>2019-09-01T14:45:01Z</time>
      </trkpt>
      <trkpt lat="59.16251" lon="18.130713">
        <ele>43</ele>
        <time>2019-09-01T14:45:05Z</time>
      </trkpt>
      <trkpt lat="59.162514" lon="18.130713">
        <ele>0</ele>
        <time>2019-09-01T14:45:10Z</time>
      </trkpt>
      <trkpt lat="59.16255" lon="18.13073">
        <ele>42</ele>
        <time>2019-09-01T14:45:45Z</time>
      </trkpt>
      <trkpt lat="59.162566" lon="18.130748">
        <ele>42</ele>
        <time>2019-09-01T14:45:47Z</time>
      </trkpt>
      <trkpt lat="59.162583" lon="18.130771">
        <ele>42</ele>
        <time>2019-09-01T14:45:49Z</time>
      </trkpt>
      <trkpt lat="59.162603" lon="18.130793">
        <ele>42</ele>
        <time>2019-09-01T14:45:51Z</time>
      </trkpt>
      <trkpt lat="59.162636" lon="18.130825">
        <ele>42</ele>
        <time>2019-09-01T14:45:53Z</time>
      </trkpt>
      <trkpt lat="59.162654" lon="18.130844">
        <ele>42</ele>
        <time>2019-09-01T14:45:54Z</time>
      </trkpt>
      <trkpt lat="59.162671" lon="18.130862">
        <ele>42</ele>
        <time>2019-09-01T14:45:55Z</time>
      </trkpt>
      <trkpt lat="59.162701" lon="18.130854">
        <ele>42</ele>
        <time>2019-09-01T14:45:57Z</time>
      </trkpt>
      <trkpt lat="59.162698" lon="18.1308">
        <ele>42</ele>
        <time>2019-09-01T14:45:59Z</time>
      </trkpt>
      <trkpt lat="59.162678" lon="18.130763">
        <ele>42</ele>
        <time>2019-09-01T14:46:01Z</time>
      </trkpt>
      <trkpt lat="59.162654" lon="18.13075">
        <ele>42</ele>
        <time>2019-09-01T14:46:03Z</time>
      </trkpt>
      <trkpt lat="59.162625" lon="18.130763">
        <ele>41</ele>
        <time>2019-09-01T14:46:05Z</time>
      </trkpt>
      <trkpt lat="59.162598" lon="18.13077">
        <ele>41</ele>
        <time>2019-09-01T14:46:07Z</time>
      </trkpt>
      <trkpt lat="59.162572" lon="18.13078">
        <ele>41</ele>
        <time>2019-09-01T14:46:09Z</time>
      </trkpt>
      <trkpt lat="59.16254" lon="18.130798">
        <ele>41</ele>
        <time>2019-09-01T14:46:11Z</time>
      </trkpt>
      <trkpt lat="59.162521" lon="18.130817">
        <ele>41</ele>
        <time>2019-09-01T14:46:12Z</time>
      </trkpt>
      <trkpt lat="59.162505" lon="18.130832">
        <ele>41</ele>
        <time>2019-09-01T14:46:13Z</time>
      </trkpt>
      <trkpt lat="59.162486" lon="18.13084">
        <ele>41</ele>
        <time>2019-09-01T14:46:14Z</time>
      </trkpt>
      <trkpt lat="59.162464" lon="18.130842">
        <ele>41</ele>
        <time>2019-09-01T14:46:15Z</time>
      </trkpt>
      <trkpt lat="59.162442" lon="18.130841">
        <ele>41</ele>
        <time>2019-09-01T14:46:16Z</time>
      </trkpt>
      <trkpt lat="59.162423" lon="18.13084">
        <ele>41</ele>
        <time>2019-09-01T14:46:17Z</time>
      </trkpt>
      <trkpt lat="59.162396" lon="18.130865">
        <ele>41</ele>
        <time>2019-09-01T14:46:19Z</time>
      </trkpt>
      <trkpt lat="59.162396" lon="18.130913">
        <ele>41</ele>
        <time>2019-09-01T14:46:21Z</time>
      </trkpt>
      <trkpt lat="59.162418" lon="18.130917">
        <ele>41</ele>
        <time>2019-09-01T14:46:23Z</time>
      </trkpt>
      <trkpt lat="59.162435" lon="18.130874">
        <ele>40</ele>
        <time>2019-09-01T14:46:25Z</time>
      </trkpt>
      <trkpt lat="59.162433" lon="18.130822">
        <ele>40</ele>
        <time>2019-09-01T14:46:27Z</time>
      </trkpt>
      <trkpt lat="59.162423" lon="18.130786">
        <ele>41</ele>
        <time>2019-09-01T14:46:29Z</time>
      </trkpt>
      <trkpt lat="59.162392" lon="18.130743">
        <ele>41</ele>
        <time>2019-09-01T14:46:31Z</time>
      </trkpt>
      <trkpt lat="59.162373" lon="18.130729">
        <ele>41</ele>
        <time>2019-09-01T14:46:32Z</time>
      </trkpt>
      <trkpt lat="59.162353" lon="18.13072">
        <ele>41</ele>
        <time>2019-09-01T14:46:33Z</time>
      </trkpt>
      <trkpt lat="59.162334" lon="18.130713">
        <ele>41</ele>
        <time>2019-09-01T14:46:34Z</time>
      </trkpt>
      <trkpt lat="59.162315" lon="18.130704">
        <ele>41</ele>
        <time>2019-09-01T14:46:35Z</time>
      </trkpt>
      <trkpt lat="59.162297" lon="18.130697">
        <ele>41</ele>
        <time>2019-09-01T14:46:36Z</time>
      </trkpt>
      <trkpt lat="59.162277" lon="18.130693">
        <ele>41</ele>
        <time>2019-09-01T14:46:37Z</time>
      </trkpt>
      <trkpt lat="59.162256" lon="18.13069">
        <ele>41</ele>
        <time>2019-09-01T14:46:38Z</time>
      </trkpt>
      <trkpt lat="59.162238" lon="18.130694">
        <ele>41</ele>
        <time>2019-09-01T14:46:39Z</time>
      </trkpt>
      <trkpt lat="59.162218" lon="18.130702">
        <ele>41</ele>
        <time>2019-09-01T14:46:40Z</time>
      </trkpt>
      <trkpt lat="59.162197" lon="18.130711">
        <ele>42</ele>
        <time>2019-09-01T14:46:41Z</time>
      </trkpt>
      <trkpt lat="59.162176" lon="18.130722">
        <ele>42</ele>
        <time>2019-09-01T14:46:42Z</time>
      </trkpt>
      <trkpt lat="59.162157" lon="18.130736">
        <ele>42</ele>
        <time>2019-09-01T14:46:43Z</time>
      </trkpt>
      <trkpt lat="59.162138" lon="18.130751">
        <ele>42</ele>
        <time>2019-09-01T14:46:44Z</time>
      </trkpt>
      <trkpt lat="59.162121" lon="18.13077">
        <ele>42</ele>
        <time>2019-09-01T14:46:45Z</time>
      </trkpt>
      <trkpt lat="59.162102" lon="18.130791">
        <ele>42</ele>
        <time>2019-09-01T14:46:46Z</time>
      </trkpt>
      <trkpt lat="59.162083" lon="18.130806">
        <ele>42</ele>
        <time>2019-09-01T14:46:47Z</time>
      </trkpt>
      <trkpt lat="59.162063" lon="18.130818">
        <ele>42</ele>
        <time>2019-09-01T14:46:48Z</time>
      </trkpt>
      <trkpt lat="59.162042" lon="18.13083">
        <ele>43</ele>
        <time>2019-09-01T14:46:49Z</time>
      </trkpt>
      <trkpt lat="59.162023" lon="18.130842">
        <ele>43</ele>
        <time>2019-09-01T14:46:50Z</time>
      </trkpt>
      <trkpt lat="59.162004" lon="18.130853">
        <ele>43</ele>
        <time>2019-09-01T14:46:51Z</time>
      </trkpt>
      <trkpt lat="59.161986" lon="18.130859">
        <ele>43</ele>
        <time>2019-09-01T14:46:52Z</time>
      </trkpt>
      <trkpt lat="59.161966" lon="18.130856">
        <ele>43</ele>
        <time>2019-09-01T14:46:53Z</time>
      </trkpt>
      <trkpt lat="59.161946" lon="18.130852">
        <ele>43</ele>
        <time>2019-09-01T14:46:54Z</time>
      </trkpt>
      <trkpt lat="59.161924" lon="18.13085">
        <ele>43</ele>
        <time>2019-09-01T14:46:55Z</time>
      </trkpt>
      <trkpt lat="59.161903" lon="18.130848">
        <ele>43</ele>
        <time>2019-09-01T14:46:56Z</time>
      </trkpt>
      <trkpt lat="59.161882" lon="18.130847">
        <ele>43</ele>
        <time>2019-09-01T14:46:57Z</time>
      </trkpt>
      <trkpt lat="59.161863" lon="18.130849">
        <ele>43</ele>
        <time>2019-09-01T14:46:58Z</time>
      </trkpt>
      <trkpt lat="59.161835" lon="18.130879">
        <ele>44</ele>
        <time>2019-09-01T14:47:00Z</time>
      </trkpt>
      <trkpt lat="59.16183" lon="18.130931">
        <ele>44</ele>
        <time>2019-09-01T14:47:02Z</time>
      </trkpt>
      <trkpt lat="59.16185" lon="18.130961">
        <ele>44</ele>
        <time>2019-09-01T14:47:04Z</time>
      </trkpt>
      <trkpt lat="59.161888" lon="18.130972">
        <ele>44</ele>
        <time>2019-09-01T14:47:06Z</time>
      </trkpt>
      <trkpt lat="59.161913" lon="18.130978">
        <ele>44</ele>
        <time>2019-09-01T14:47:07Z</time>
      </trkpt>
      <trkpt lat="59.161938" lon="18.130986">
        <ele>44</ele>
        <time>2019-09-01T14:47:08Z</time>
      </trkpt>
      <trkpt lat="59.161965" lon="18.131002">
        <ele>44</ele>
        <time>2019-09-01T14:47:09Z</time>
      </trkpt>
      <trkpt lat="59.161996" lon="18.131021">
        <ele>44</ele>
        <time>2019-09-01T14:47:10Z</time>
      </trkpt>
      <trkpt lat="59.162029" lon="18.131041">
        <ele>43</ele>
        <time>2019-09-01T14:47:11Z</time>
      </trkpt>
      <trkpt lat="59.162068" lon="18.131067">
        <ele>43</ele>
        <time>2019-09-01T14:47:12Z</time>
      </trkpt>
      <trkpt lat="59.162112" lon="18.131096">
        <ele>43</ele>
        <time>2019-09-01T14:47:13Z</time>
      </trkpt>
      <trkpt lat="59.162158" lon="18.131117">
        <ele>43</ele>
        <time>2019-09-01T14:47:14Z</time>
      </trkpt>
      <trkpt lat="59.162201" lon="18.131118">
        <ele>42</ele>
        <time>2019-09-01T14:47:15Z</time>
      </trkpt>
      <trkpt lat="59.162239" lon="18.131096">
        <ele>42</ele>
        <time>2019-09-01T14:47:16Z</time>
      </trkpt>
      <trkpt lat="59.162268" lon="18.131068">
        <ele>42</ele>
        <time>2019-09-01T14:47:17Z</time>
      </trkpt>
      <trkpt lat="59.162288" lon="18.131041">
        <ele>42</ele>
        <time>2019-09-01T14:47:18Z</time>
      </trkpt>
      <trkpt lat="59.162303" lon="18.131018">
        <ele>42</ele>
        <time>2019-09-01T14:47:19Z</time>
      </trkpt>
      <trkpt lat="59.162327" lon="18.130981">
        <ele>42</ele>
        <time>2019-09-01T14:47:21Z</time>
      </trkpt>
      <trkpt lat="59.162351" lon="18.130955">
        <ele>42</ele>
        <time>2019-09-01T14:47:23Z</time>
      </trkpt>
      <trkpt lat="59.162371" lon="18.130925">
        <ele>42</ele>
        <time>2019-09-01T14:47:25Z</time>
      </trkpt>
      <trkpt lat="59.162387" lon="18.130893">
        <ele>41</ele>
        <time>2019-09-01T14:47:27Z</time>
      </trkpt>
      <trkpt lat="59.162402" lon="18.130857">
        <ele>41</ele>
        <time>2019-09-01T14:47:30Z</time>
      </trkpt>
      <trkpt lat="59.162416" lon="18.130833">
        <ele>41</ele>
        <time>2019-09-01T14:47:33Z</time>
      </trkpt>
      <trkpt lat="59.162425" lon="18.130792">
        <ele>41</ele>
        <time>2019-09-01T14:47:37Z</time>
      </trkpt>
      <trkpt lat="59.162433" lon="18.130758">
        <ele>41</ele>
        <time>2019-09-01T14:47:39Z</time>
      </trkpt>
      <trkpt lat="59.162451" lon="18.130729">
        <ele>41</ele>
        <time>2019-09-01T14:47:41Z</time>
      </trkpt>
      <trkpt lat="59.162468" lon="18.130744">
        <ele>40</ele>
        <time>2019-09-01T14:47:43Z</time>
      </trkpt>
      <trkpt lat="59.162492" lon="18.130747">
        <ele>41</ele>
        <time>2019-09-01T14:47:47Z</time>
      </trkpt>
      <trkpt lat="59.162513" lon="18.130737">
        <ele>41</ele>
        <time>2019-09-01T14:47:50Z</time>
      </trkpt>
      <trkpt lat="59.162505" lon="18.130702">
        <ele>41</ele>
        <time>2019-09-01T14:47:53Z</time>
      </trkpt>
      <trkpt lat="59.162482" lon="18.130693">
        <ele>40</ele>
        <time>2019-09-01T14:47:56Z</time>
      </trkpt>
      <trkpt lat="59.162458" lon="18.130683">
        <ele>40</ele>
        <time>2019-09-01T14:47:59Z</time>
      </trkpt>
      <trkpt lat="59.162447" lon="18.130714">
        <ele>40</ele>
        <time>2019-09-01T14:48:01Z</time>
      </trkpt>
      <trkpt lat="59.162435" lon="18.130749">
        <ele>40</ele>
        <time>2019-09-01T14:48:03Z</time>
      </trkpt>
      <trkpt lat="59.162415" lon="18.130798">
        <ele>40</ele>
        <time>2019-09-01T14:48:05Z</time>
      </trkpt>
      <trkpt lat="59.162401" lon="18.130851">
        <ele>40</ele>
        <time>2019-09-01T14:48:07Z</time>
      </trkpt>
      <trkpt lat="59.162386" lon="18.130897">
        <ele>41</ele>
        <time>2019-09-01T14:48:09Z</time>
      </trkpt>
      <trkpt lat="59.162361" lon="18.130945">
        <ele>41</ele>
        <time>2019-09-01T14:48:11Z</time>
      </trkpt>
      <trkpt lat="59.162344" lon="18.130964">
        <ele>41</ele>
        <time>2019-09-01T14:48:12Z</time>
      </trkpt>
      <trkpt lat="59.162332" lon="18.131009">
        <ele>41</ele>
        <time>2019-09-01T14:48:14Z</time>
      </trkpt>
      <trkpt lat="59.162355" lon="18.131016">
        <ele>40</ele>
        <time>2019-09-01T14:48:16Z</time>
      </trkpt>
      <trkpt lat="59.162375" lon="18.130971">
        <ele>40</ele>
        <time>2019-09-01T14:48:18Z</time>
      </trkpt>
      <trkpt lat="59.16239" lon="18.130917">
        <ele>40</ele>
        <time>2019-09-01T14:48:20Z</time>
      </trkpt>
      <trkpt lat="59.162415" lon="18.130871">
        <ele>40</ele>
        <time>2019-09-01T14:48:22Z</time>
      </trkpt>
      <trkpt lat="59.162437" lon="18.130819">
        <ele>40</ele>
        <time>2019-09-01T14:48:24Z</time>
      </trkpt>
      <trkpt lat="59.162452" lon="18.130768">
        <ele>40</ele>
        <time>2019-09-01T14:48:26Z</time>
      </trkpt>
      <trkpt lat="59.162464" lon="18.130721">
        <ele>40</ele>
        <time>2019-09-01T14:48:28Z</time>
      </trkpt>
      <trkpt lat="59.162474" lon="18.130673">
        <ele>40</ele>
        <time>2019-09-01T14:48:30Z</time>
      </trkpt>
      <trkpt lat="59.162476" lon="18.130632">
        <ele>40</ele>
        <time>2019-09-01T14:48:32Z</time>
      </trkpt>
      <trkpt lat="59.162476" lon="18.130638">
        <ele>0</ele>
        <time>2019-09-01T14:48:36Z</time>
      </trkpt>
      <trkpt lat="59.162425" lon="18.130645">
        <ele>40</ele>
        <time>2019-09-01T15:18:43Z</time>
      </trkpt>
      <trkpt lat="59.162416" lon="18.130665">
        <ele>40</ele>
        <time>2019-09-01T15:18:44Z</time>
      </trkpt>
      <trkpt lat="59.162405" lon="18.130709">
        <ele>39</ele>
        <time>2019-09-01T15:18:46Z</time>
      </trkpt>
      <trkpt lat="59.162408" lon="18.130752">
        <ele>39</ele>
        <time>2019-09-01T15:18:49Z</time>
      </trkpt>
      <trkpt lat="59.162407" lon="18.130762">
        <ele>0</ele>
        <time>2019-09-01T15:18:54Z</time>
      </trkpt>
      <trkpt lat="59.162424" lon="18.130763">
        <ele>39</ele>
        <time>2019-09-01T15:23:43Z</time>
      </trkpt>
      <trkpt lat="59.162418" lon="18.130749">
        <ele>39</ele>
        <time>2019-09-01T15:23:44Z</time>
      </trkpt>
      <trkpt lat="59.162406" lon="18.130722">
        <ele>39</ele>
        <time>2019-09-01T15:23:46Z</time>
      </trkpt>
      <trkpt lat="59.162402" lon="18.130668">
        <ele>39</ele>
        <time>2019-09-01T15:23:48Z</time>
      </trkpt>
      <trkpt lat="59.162386" lon="18.130599">
        <ele>39</ele>
        <time>2019-09-01T15:23:50Z</time>
      </trkpt>
      <trkpt lat="59.16237" lon="18.130557">
        <ele>39</ele>
        <time>2019-09-01T15:23:51Z</time>
      </trkpt>
      <trkpt lat="59.162351" lon="18.130517">
        <ele>39</ele>
        <time>2019-09-01T15:23:52Z</time>
      </trkpt>
      <trkpt lat="59.162329" lon="18.130478">
        <ele>39</ele>
        <time>2019-09-01T15:23:53Z</time>
      </trkpt>
      <trkpt lat="59.162303" lon="18.130444">
        <ele>39</ele>
        <time>2019-09-01T15:23:54Z</time>
      </trkpt>
      <trkpt lat="59.162275" lon="18.130415">
        <ele>39</ele>
        <time>2019-09-01T15:23:55Z</time>
      </trkpt>
      <trkpt lat="59.162246" lon="18.13039">
        <ele>39</ele>
        <time>2019-09-01T15:23:56Z</time>
      </trkpt>
      <trkpt lat="59.162216" lon="18.13037">
        <ele>39</ele>
        <time>2019-09-01T15:23:57Z</time>
      </trkpt>
      <trkpt lat="59.162184" lon="18.130353">
        <ele>39</ele>
        <time>2019-09-01T15:23:58Z</time>
      </trkpt>
      <trkpt lat="59.162153" lon="18.13034">
        <ele>39</ele>
        <time>2019-09-01T15:23:59Z</time>
      </trkpt>
      <trkpt lat="59.162119" lon="18.130329">
        <ele>40</ele>
        <time>2019-09-01T15:24:00Z</time>
      </trkpt>
      <trkpt lat="59.162083" lon="18.130326">
        <ele>40</ele>
        <time>2019-09-01T15:24:01Z</time>
      </trkpt>
      <trkpt lat="59.162046" lon="18.130335">
        <ele>40</ele>
        <time>2019-09-01T15:24:02Z</time>
      </trkpt>
      <trkpt lat="59.162009" lon="18.130355">
        <ele>40</ele>
        <time>2019-09-01T15:24:03Z</time>
      </trkpt>
      <trkpt lat="59.161971" lon="18.130381">
        <ele>40</ele>
        <time>2019-09-01T15:24:04Z</time>
      </trkpt>
      <trkpt lat="59.161934" lon="18.130414">
        <ele>40</ele>
        <time>2019-09-01T15:24:05Z</time>
      </trkpt>
      <trkpt lat="59.161903" lon="18.130458">
        <ele>40</ele>
        <time>2019-09-01T15:24:06Z</time>
      </trkpt>
      <trkpt lat="59.161878" lon="18.130506">
        <ele>40</ele>
        <time>2019-09-01T15:24:07Z</time>
      </trkpt>
      <trkpt lat="59.161851" lon="18.13055">
        <ele>40</ele>
        <time>2019-09-01T15:24:08Z</time>
      </trkpt>
      <trkpt lat="59.161822" lon="18.130581">
        <ele>40</ele>
        <time>2019-09-01T15:24:09Z</time>
      </trkpt>
      <trkpt lat="59.161792" lon="18.130607">
        <ele>40</ele>
        <time>2019-09-01T15:24:10Z</time>
      </trkpt>
      <trkpt lat="59.161764" lon="18.130629">
        <ele>40</ele>
        <time>2019-09-01T15:24:11Z</time>
      </trkpt>
      <trkpt lat="59.161739" lon="18.130644">
        <ele>40</ele>
        <time>2019-09-01T15:24:12Z</time>
      </trkpt>
      <trkpt lat="59.161716" lon="18.130651">
        <ele>40</ele>
        <time>2019-09-01T15:24:13Z</time>
      </trkpt>
      <trkpt lat="59.161695" lon="18.130655">
        <ele>41</ele>
        <time>2019-09-01T15:24:14Z</time>
      </trkpt>
      <trkpt lat="59.161676" lon="18.130685">
        <ele>41</ele>
        <time>2019-09-01T15:24:16Z</time>
      </trkpt>
      <trkpt lat="59.161675" lon="18.130691">
        <ele>0</ele>
        <time>2019-09-01T15:24:22Z</time>
      </trkpt>
      <trkpt lat="59.161672" lon="18.130796">
        <ele>42</ele>
        <time>2019-09-01T15:26:27Z</time>
      </trkpt>
      <trkpt lat="59.161659" lon="18.130824">
        <ele>42</ele>
        <time>2019-09-01T15:26:28Z</time>
      </trkpt>
      <trkpt lat="59.161644" lon="18.130856">
        <ele>42</ele>
        <time>2019-09-01T15:26:29Z</time>
      </trkpt>
      <trkpt lat="59.161625" lon="18.130889">
        <ele>42</ele>
        <time>2019-09-01T15:26:30Z</time>
      </trkpt>
      <trkpt lat="59.161602" lon="18.130914">
        <ele>42</ele>
        <time>2019-09-01T15:26:31Z</time>
      </trkpt>
      <trkpt lat="59.161577" lon="18.130929">
        <ele>42</ele>
        <time>2019-09-01T15:26:32Z</time>
      </trkpt>
      <trkpt lat="59.16155" lon="18.130927">
        <ele>43</ele>
        <time>2019-09-01T15:26:33Z</time>
      </trkpt>
      <trkpt lat="59.161521" lon="18.130911">
        <ele>43</ele>
        <time>2019-09-01T15:26:34Z</time>
      </trkpt>
      <trkpt lat="59.161492" lon="18.130887">
        <ele>43</ele>
        <time>2019-09-01T15:26:35Z</time>
      </trkpt>
      <trkpt lat="59.161464" lon="18.130857">
        <ele>43</ele>
        <time>2019-09-01T15:26:36Z</time>
      </trkpt>
      <trkpt lat="59.161438" lon="18.130821">
        <ele>43</ele>
        <time>2019-09-01T15:26:37Z</time>
      </trkpt>
      <trkpt lat="59.161414" lon="18.130779">
        <ele>43</ele>
        <time>2019-09-01T15:26:38Z</time>
      </trkpt>
      <trkpt lat="59.161393" lon="18.130734">
        <ele>43</ele>
        <time>2019-09-01T15:26:39Z</time>
      </trkpt>
      <trkpt lat="59.161372" lon="18.130688">
        <ele>44</ele>
        <time>2019-09-01T15:26:40Z</time>
      </trkpt>
      <trkpt lat="59.161354" lon="18.130638">
        <ele>44</ele>
        <time>2019-09-01T15:26:41Z</time>
      </trkpt>
      <trkpt lat="59.161339" lon="18.130587">
        <ele>44</ele>
        <time>2019-09-01T15:26:42Z</time>
      </trkpt>
      <trkpt lat="59.161329" lon="18.130532">
        <ele>44</ele>
        <time>2019-09-01T15:26:43Z</time>
      </trkpt>
      <trkpt lat="59.161323" lon="18.130467">
        <ele>44</ele>
        <time>2019-09-01T15:26:44Z</time>
      </trkpt>
      <trkpt lat="59.161321" lon="18.130401">
        <ele>44</ele>
        <time>2019-09-01T15:26:45Z</time>
      </trkpt>
      <trkpt lat="59.161314" lon="18.130338">
        <ele>44</ele>
        <time>2019-09-01T15:26:46Z</time>
      </trkpt>
      <trkpt lat="59.161293" lon="18.13027">
        <ele>44</ele>
        <time>2019-09-01T15:26:47Z</time>
      </trkpt>
      <trkpt lat="59.161262" lon="18.130218">
        <ele>44</ele>
        <time>2019-09-01T15:26:48Z</time>
      </trkpt>
      <trkpt lat="59.161234" lon="18.130191">
        <ele>44</ele>
        <time>2019-09-01T15:26:49Z</time>
      </trkpt>
      <trkpt lat="59.161208" lon="18.130172">
        <ele>45</ele>
        <time>2019-09-01T15:26:50Z</time>
      </trkpt>
      <trkpt lat="59.161176" lon="18.130159">
        <ele>45</ele>
        <time>2019-09-01T15:26:51Z</time>
      </trkpt>
      <trkpt lat="59.161148" lon="18.130142">
        <ele>45</ele>
        <time>2019-09-01T15:26:52Z</time>
      </trkpt>
      <trkpt lat="59.16112" lon="18.130124">
        <ele>45</ele>
        <time>2019-09-01T15:26:53Z</time>
      </trkpt>
      <trkpt lat="59.161093" lon="18.130094">
        <ele>45</ele>
        <time>2019-09-01T15:26:54Z</time>
      </trkpt>
      <trkpt lat="59.161065" lon="18.130058">
        <ele>45</ele>
        <time>2019-09-01T15:26:55Z</time>
      </trkpt>
      <trkpt lat="59.161039" lon="18.130012">
        <ele>45</ele>
        <time>2019-09-01T15:26:56Z</time>
      </trkpt>
      <trkpt lat="59.161014" lon="18.129967">
        <ele>46</ele>
        <time>2019-09-01T15:26:57Z</time>
      </trkpt>
      <trkpt lat="59.160991" lon="18.129922">
        <ele>46</ele>
        <time>2019-09-01T15:26:58Z</time>
      </trkpt>
      <trkpt lat="59.160963" lon="18.12988">
        <ele>46</ele>
        <time>2019-09-01T15:26:59Z</time>
      </trkpt>
      <trkpt lat="59.160937" lon="18.129837">
        <ele>46</ele>
        <time>2019-09-01T15:27:00Z</time>
      </trkpt>
      <trkpt lat="59.160909" lon="18.129797">
        <ele>46</ele>
        <time>2019-09-01T15:27:01Z</time>
      </trkpt>
      <trkpt lat="59.160882" lon="18.129758">
        <ele>47</ele>
        <time>2019-09-01T15:27:02Z</time>
      </trkpt>
      <trkpt lat="59.160852" lon="18.129727">
        <ele>47</ele>
        <time>2019-09-01T15:27:03Z</time>
      </trkpt>
      <trkpt lat="59.160823" lon="18.129704">
        <ele>47</ele>
        <time>2019-09-01T15:27:04Z</time>
      </trkpt>
      <trkpt lat="59.160793" lon="18.129684">
        <ele>47</ele>
        <time>2019-09-01T15:27:05Z</time>
      </trkpt>
      <trkpt lat="59.160761" lon="18.129659">
        <ele>47</ele>
        <time>2019-09-01T15:27:06Z</time>
      </trkpt>
      <trkpt lat="59.16073" lon="18.129635">
        <ele>48</ele>
        <time>2019-09-01T15:27:07Z</time>
      </trkpt>
      <trkpt lat="59.160701" lon="18.129616">
        <ele>48</ele>
        <time>2019-09-01T15:27:08Z</time>
      </trkpt>
      <trkpt lat="59.160672" lon="18.129594">
        <ele>48</ele>
        <time>2019-09-01T15:27:09Z</time>
      </trkpt>
      <trkpt lat="59.160641" lon="18.12956">
        <ele>48</ele>
        <time>2019-09-01T15:27:10Z</time>
      </trkpt>
      <trkpt lat="59.160613" lon="18.129525">
        <ele>49</ele>
        <time>2019-09-01T15:27:11Z</time>
      </trkpt>
      <trkpt lat="59.160585" lon="18.129494">
        <ele>49</ele>
        <time>2019-09-01T15:27:12Z</time>
      </trkpt>
      <trkpt lat="59.160554" lon="18.12947">
        <ele>49</ele>
        <time>2019-09-01T15:27:13Z</time>
      </trkpt>
      <trkpt lat="59.160526" lon="18.129448">
        <ele>49</ele>
        <time>2019-09-01T15:27:14Z</time>
      </trkpt>
      <trkpt lat="59.160497" lon="18.129432">
        <ele>49</ele>
        <time>2019-09-01T15:27:15Z</time>
      </trkpt>
      <trkpt lat="59.160467" lon="18.129413">
        <ele>50</ele>
        <time>2019-09-01T15:27:16Z</time>
      </trkpt>
      <trkpt lat="59.160439" lon="18.129387">
        <ele>50</ele>
        <time>2019-09-01T15:27:17Z</time>
      </trkpt>
      <trkpt lat="59.16041" lon="18.129357">
        <ele>50</ele>
        <time>2019-09-01T15:27:18Z</time>
      </trkpt>
      <trkpt lat="59.160381" lon="18.12933">
        <ele>50</ele>
        <time>2019-09-01T15:27:19Z</time>
      </trkpt>
      <trkpt lat="59.160357" lon="18.129316">
        <ele>51</ele>
        <time>2019-09-01T15:27:20Z</time>
      </trkpt>
      <trkpt lat="59.160332" lon="18.129305">
        <ele>51</ele>
        <time>2019-09-01T15:27:21Z</time>
      </trkpt>
      <trkpt lat="59.160306" lon="18.129293">
        <ele>51</ele>
        <time>2019-09-01T15:27:22Z</time>
      </trkpt>
      <trkpt lat="59.160277" lon="18.129286">
        <ele>51</ele>
        <time>2019-09-01T15:27:23Z</time>
      </trkpt>
      <trkpt lat="59.160252" lon="18.129288">
        <ele>52</ele>
        <time>2019-09-01T15:27:24Z</time>
      </trkpt>
      <trkpt lat="59.160226" lon="18.12929">
        <ele>52</ele>
        <time>2019-09-01T15:27:25Z</time>
      </trkpt>
      <trkpt lat="59.160206" lon="18.129276">
        <ele>52</ele>
        <time>2019-09-01T15:27:26Z</time>
      </trkpt>
      <trkpt lat="59.160189" lon="18.129259">
        <ele>52</ele>
        <time>2019-09-01T15:27:27Z</time>
      </trkpt>
      <trkpt lat="59.160152" lon="18.129235">
        <ele>53</ele>
        <time>2019-09-01T15:27:29Z</time>
      </trkpt>
      <trkpt lat="59.160135" lon="18.129208">
        <ele>53</ele>
        <time>2019-09-01T15:27:30Z</time>
      </trkpt>
      <trkpt lat="59.160115" lon="18.129181">
        <ele>53</ele>
        <time>2019-09-01T15:27:31Z</time>
      </trkpt>
      <trkpt lat="59.160089" lon="18.129156">
        <ele>53</ele>
        <time>2019-09-01T15:27:32Z</time>
      </trkpt>
      <trkpt lat="59.160061" lon="18.129134">
        <ele>53</ele>
        <time>2019-09-01T15:27:33Z</time>
      </trkpt>
      <trkpt lat="59.160032" lon="18.129111">
        <ele>53</ele>
        <time>2019-09-01T15:27:34Z</time>
      </trkpt>
      <trkpt lat="59.160001" lon="18.129098">
        <ele>53</ele>
        <time>2019-09-01T15:27:35Z</time>
      </trkpt>
      <trkpt lat="59.159972" lon="18.129086">
        <ele>53</ele>
        <time>2019-09-01T15:27:36Z</time>
      </trkpt>
      <trkpt lat="59.159947" lon="18.129081">
        <ele>54</ele>
        <time>2019-09-01T15:27:37Z</time>
      </trkpt>
      <trkpt lat="59.159922" lon="18.129086">
        <ele>54</ele>
        <time>2019-09-01T15:27:38Z</time>
      </trkpt>
      <trkpt lat="59.159895" lon="18.12909">
        <ele>54</ele>
        <time>2019-09-01T15:27:39Z</time>
      </trkpt>
      <trkpt lat="59.15987" lon="18.129091">
        <ele>55</ele>
        <time>2019-09-01T15:27:40Z</time>
      </trkpt>
      <trkpt lat="59.15985" lon="18.129083">
        <ele>55</ele>
        <time>2019-09-01T15:27:41Z</time>
      </trkpt>
      <trkpt lat="59.159831" lon="18.129069">
        <ele>55</ele>
        <time>2019-09-01T15:27:42Z</time>
      </trkpt>
      <trkpt lat="59.159797" lon="18.129055">
        <ele>55</ele>
        <time>2019-09-01T15:27:44Z</time>
      </trkpt>
      <trkpt lat="59.159763" lon="18.129061">
        <ele>56</ele>
        <time>2019-09-01T15:27:46Z</time>
      </trkpt>
      <trkpt lat="59.159735" lon="18.129059">
        <ele>56</ele>
        <time>2019-09-01T15:27:48Z</time>
      </trkpt>
      <trkpt lat="59.159714" lon="18.12905">
        <ele>56</ele>
        <time>2019-09-01T15:27:50Z</time>
      </trkpt>
      <trkpt lat="59.159692" lon="18.129036">
        <ele>57</ele>
        <time>2019-09-01T15:27:52Z</time>
      </trkpt>
      <trkpt lat="59.159669" lon="18.129025">
        <ele>57</ele>
        <time>2019-09-01T15:27:54Z</time>
      </trkpt>
      <trkpt lat="59.159645" lon="18.129011">
        <ele>57</ele>
        <time>2019-09-01T15:27:56Z</time>
      </trkpt>
      <trkpt lat="59.159622" lon="18.128994">
        <ele>57</ele>
        <time>2019-09-01T15:27:58Z</time>
      </trkpt>
      <trkpt lat="59.159593" lon="18.128974">
        <ele>58</ele>
        <time>2019-09-01T15:28:00Z</time>
      </trkpt>
      <trkpt lat="59.159561" lon="18.128957">
        <ele>58</ele>
        <time>2019-09-01T15:28:02Z</time>
      </trkpt>
      <trkpt lat="59.159531" lon="18.128931">
        <ele>58</ele>
        <time>2019-09-01T15:28:04Z</time>
      </trkpt>
      <trkpt lat="59.159499" lon="18.128896">
        <ele>58</ele>
        <time>2019-09-01T15:28:06Z</time>
      </trkpt>
      <trkpt lat="59.159479" lon="18.128873">
        <ele>58</ele>
        <time>2019-09-01T15:28:07Z</time>
      </trkpt>
      <trkpt lat="59.159458" lon="18.128851">
        <ele>58</ele>
        <time>2019-09-01T15:28:08Z</time>
      </trkpt>
      <trkpt lat="59.159433" lon="18.128837">
        <ele>58</ele>
        <time>2019-09-01T15:28:09Z</time>
      </trkpt>
      <trkpt lat="59.159409" lon="18.128832">
        <ele>59</ele>
        <time>2019-09-01T15:28:10Z</time>
      </trkpt>
      <trkpt lat="59.159388" lon="18.128837">
        <ele>59</ele>
        <time>2019-09-01T15:28:11Z</time>
      </trkpt>
      <trkpt lat="59.15937" lon="18.128846">
        <ele>59</ele>
        <time>2019-09-01T15:28:12Z</time>
      </trkpt>
      <trkpt lat="59.159349" lon="18.128849">
        <ele>59</ele>
        <time>2019-09-01T15:28:13Z</time>
      </trkpt>
      <trkpt lat="59.159329" lon="18.128843">
        <ele>59</ele>
        <time>2019-09-01T15:28:14Z</time>
      </trkpt>
      <trkpt lat="59.15931" lon="18.128838">
        <ele>59</ele>
        <time>2019-09-01T15:28:15Z</time>
      </trkpt>
      <trkpt lat="59.159291" lon="18.128838">
        <ele>59</ele>
        <time>2019-09-01T15:28:16Z</time>
      </trkpt>
      <trkpt lat="59.159267" lon="18.128838">
        <ele>59</ele>
        <time>2019-09-01T15:28:18Z</time>
      </trkpt>
      <trkpt lat="59.15927" lon="18.12884">
        <ele>0</ele>
        <time>2019-09-01T15:28:22Z</time>
      </trkpt>
      <trkpt lat="59.159206" lon="18.128812">
        <ele>59</ele>
        <time>2019-09-01T15:28:29Z</time>
      </trkpt>
      <trkpt lat="59.159186" lon="18.128789">
        <ele>60</ele>
        <time>2019-09-01T15:28:30Z</time>
      </trkpt>
      <trkpt lat="59.159163" lon="18.128778">
        <ele>59</ele>
        <time>2019-09-01T15:28:31Z</time>
      </trkpt>
      <trkpt lat="59.159143" lon="18.128784">
        <ele>59</ele>
        <time>2019-09-01T15:28:32Z</time>
      </trkpt>
      <trkpt lat="59.15912" lon="18.128786">
        <ele>59</ele>
        <time>2019-09-01T15:28:33Z</time>
      </trkpt>
      <trkpt lat="59.159096" lon="18.128779">
        <ele>60</ele>
        <time>2019-09-01T15:28:34Z</time>
      </trkpt>
      <trkpt lat="59.159078" lon="18.128766">
        <ele>60</ele>
        <time>2019-09-01T15:28:35Z</time>
      </trkpt>
      <trkpt lat="59.159046" lon="18.128725">
        <ele>60</ele>
        <time>2019-09-01T15:28:37Z</time>
      </trkpt>
      <trkpt lat="59.15903" lon="18.128696">
        <ele>60</ele>
        <time>2019-09-01T15:28:38Z</time>
      </trkpt>
      <trkpt lat="59.159018" lon="18.128666">
        <ele>60</ele>
        <time>2019-09-01T15:28:39Z</time>
      </trkpt>
      <trkpt lat="59.159004" lon="18.128612">
        <ele>60</ele>
        <time>2019-09-01T15:28:41Z</time>
      </trkpt>
      <trkpt lat="59.158994" lon="18.128556">
        <ele>60</ele>
        <time>2019-09-01T15:28:43Z</time>
      </trkpt>
      <trkpt lat="59.158988" lon="18.128544">
        <ele>0</ele>
        <time>2019-09-01T15:28:48Z</time>
      </trkpt>
      <trkpt lat="59.158923" lon="18.128593">
        <ele>62</ele>
        <time>2019-09-01T15:30:53Z</time>
      </trkpt>
      <trkpt lat="59.158894" lon="18.128604">
        <ele>62</ele>
        <time>2019-09-01T15:30:54Z</time>
      </trkpt>
      <trkpt lat="59.158863" lon="18.128615">
        <ele>62</ele>
        <time>2019-09-01T15:30:55Z</time>
      </trkpt>
      <trkpt lat="59.158837" lon="18.128628">
        <ele>62</ele>
        <time>2019-09-01T15:30:56Z</time>
      </trkpt>
      <trkpt lat="59.15882" lon="18.128647">
        <ele>62</ele>
        <time>2019-09-01T15:30:57Z</time>
      </trkpt>
      <trkpt lat="59.158806" lon="18.128671">
        <ele>62</ele>
        <time>2019-09-01T15:30:58Z</time>
      </trkpt>
      <trkpt lat="59.158782" lon="18.128695">
        <ele>62</ele>
        <time>2019-09-01T15:31:00Z</time>
      </trkpt>
      <trkpt lat="59.158768" lon="18.12869">
        <ele>61</ele>
        <time>2019-09-01T15:31:06Z</time>
      </trkpt>
      <trkpt lat="59.158752" lon="18.128639">
        <ele>59</ele>
        <time>2019-09-01T15:35:41Z</time>
      </trkpt>
      <trkpt lat="59.158729" lon="18.128652">
        <ele>59</ele>
        <time>2019-09-01T15:35:43Z</time>
      </trkpt>
      <trkpt lat="59.158706" lon="18.128659">
        <ele>59</ele>
        <time>2019-09-01T15:35:45Z</time>
      </trkpt>
      <trkpt lat="59.158687" lon="18.12867">
        <ele>59</ele>
        <time>2019-09-01T15:35:49Z</time>
      </trkpt>
      <trkpt lat="59.158685" lon="18.128633">
        <ele>59</ele>
        <time>2019-09-01T15:35:52Z</time>
      </trkpt>
      <trkpt lat="59.158684" lon="18.128584">
        <ele>59</ele>
        <time>2019-09-01T15:35:56Z</time>
      </trkpt>
      <trkpt lat="59.158684" lon="18.128539">
        <ele>59</ele>
        <time>2019-09-01T15:35:59Z</time>
      </trkpt>
      <trkpt lat="59.158685" lon="18.128495">
        <ele>59</ele>
        <time>2019-09-01T15:36:03Z</time>
      </trkpt>
      <trkpt lat="59.158683" lon="18.128449">
        <ele>59</ele>
        <time>2019-09-01T15:36:06Z</time>
      </trkpt>
      <trkpt lat="59.158678" lon="18.128371">
        <ele>59</ele>
        <time>2019-09-01T15:36:08Z</time>
      </trkpt>
      <trkpt lat="59.158669" lon="18.128316">
        <ele>59</ele>
        <time>2019-09-01T15:36:09Z</time>
      </trkpt>
      <trkpt lat="59.158658" lon="18.128257">
        <ele>59</ele>
        <time>2019-09-01T15:36:10Z</time>
      </trkpt>
      <trkpt lat="59.158639" lon="18.128196">
        <ele>59</ele>
        <time>2019-09-01T15:36:11Z</time>
      </trkpt>
      <trkpt lat="59.158616" lon="18.128128">
        <ele>59</ele>
        <time>2019-09-01T15:36:12Z</time>
      </trkpt>
      <trkpt lat="59.158596" lon="18.128053">
        <ele>59</ele>
        <time>2019-09-01T15:36:13Z</time>
      </trkpt>
      <trkpt lat="59.158575" lon="18.127982">
        <ele>59</ele>
        <time>2019-09-01T15:36:14Z</time>
      </trkpt>
      <trkpt lat="59.158548" lon="18.127923">
        <ele>59</ele>
        <time>2019-09-01T15:36:15Z</time>
      </trkpt>
      <trkpt lat="59.158513" lon="18.127877">
        <ele>59</ele>
        <time>2019-09-01T15:36:16Z</time>
      </trkpt>
      <trkpt lat="59.158471" lon="18.12784">
        <ele>59</ele>
        <time>2019-09-01T15:36:17Z</time>
      </trkpt>
      <trkpt lat="59.158426" lon="18.12782">
        <ele>59</ele>
        <time>2019-09-01T15:36:18Z</time>
      </trkpt>
      <trkpt lat="59.158376" lon="18.127827">
        <ele>59</ele>
        <time>2019-09-01T15:36:19Z</time>
      </trkpt>
      <trkpt lat="59.158326" lon="18.127839">
        <ele>59</ele>
        <time>2019-09-01T15:36:20Z</time>
      </trkpt>
      <trkpt lat="59.158275" lon="18.127852">
        <ele>59</ele>
        <time>2019-09-01T15:36:21Z</time>
      </trkpt>
      <trkpt lat="59.158228" lon="18.127858">
        <ele>59</ele>
        <time>2019-09-01T15:36:22Z</time>
      </trkpt>
      <trkpt lat="59.158182" lon="18.127854">
        <ele>59</ele>
        <time>2019-09-01T15:36:23Z</time>
      </trkpt>
      <trkpt lat="59.158135" lon="18.127852">
        <ele>59</ele>
        <time>2019-09-01T15:36:24Z</time>
      </trkpt>
      <trkpt lat="59.158088" lon="18.127848">
        <ele>59</ele>
        <time>2019-09-01T15:36:25Z</time>
      </trkpt>
      <trkpt lat="59.158037" lon="18.127842">
        <ele>59</ele>
        <time>2019-09-01T15:36:26Z</time>
      </trkpt>
      <trkpt lat="59.157983" lon="18.127832">
        <ele>59</ele>
        <time>2019-09-01T15:36:27Z</time>
      </trkpt>
      <trkpt lat="59.157932" lon="18.127814">
        <ele>59</ele>
        <time>2019-09-01T15:36:28Z</time>
      </trkpt>
      <trkpt lat="59.15788" lon="18.127796">
        <ele>59</ele>
        <time>2019-09-01T15:36:29Z</time>
      </trkpt>
      <trkpt lat="59.15783" lon="18.127776">
        <ele>59</ele>
        <time>2019-09-01T15:36:30Z</time>
      </trkpt>
      <trkpt lat="59.157781" lon="18.127756">
        <ele>59</ele>
        <time>2019-09-01T15:36:31Z</time>
      </trkpt>
      <trkpt lat="59.157733" lon="18.127732">
        <ele>59</ele>
        <time>2019-09-01T15:36:32Z</time>
      </trkpt>
      <trkpt lat="59.157685" lon="18.127706">
        <ele>59</ele>
        <time>2019-09-01T15:36:33Z</time>
      </trkpt>
      <trkpt lat="59.157644" lon="18.127667">
        <ele>58</ele>
        <time>2019-09-01T15:36:34Z</time>
      </trkpt>
      <trkpt lat="59.157607" lon="18.127617">
        <ele>58</ele>
        <time>2019-09-01T15:36:35Z</time>
      </trkpt>
      <trkpt lat="59.157571" lon="18.127572">
        <ele>58</ele>
        <time>2019-09-01T15:36:36Z</time>
      </trkpt>
      <trkpt lat="59.157535" lon="18.127527">
        <ele>58</ele>
        <time>2019-09-01T15:36:37Z</time>
      </trkpt>
      <trkpt lat="59.157497" lon="18.127486">
        <ele>58</ele>
        <time>2019-09-01T15:36:38Z</time>
      </trkpt>
      <trkpt lat="59.157458" lon="18.127452">
        <ele>58</ele>
        <time>2019-09-01T15:36:39Z</time>
      </trkpt>
      <trkpt lat="59.157418" lon="18.127427">
        <ele>58</ele>
        <time>2019-09-01T15:36:40Z</time>
      </trkpt>
      <trkpt lat="59.157378" lon="18.127405">
        <ele>58</ele>
        <time>2019-09-01T15:36:41Z</time>
      </trkpt>
      <trkpt lat="59.15734" lon="18.127384">
        <ele>58</ele>
        <time>2019-09-01T15:36:42Z</time>
      </trkpt>
      <trkpt lat="59.157301" lon="18.127363">
        <ele>58</ele>
        <time>2019-09-01T15:36:43Z</time>
      </trkpt>
      <trkpt lat="59.157267" lon="18.127333">
        <ele>58</ele>
        <time>2019-09-01T15:36:44Z</time>
      </trkpt>
      <trkpt lat="59.157247" lon="18.127294">
        <ele>58</ele>
        <time>2019-09-01T15:36:45Z</time>
      </trkpt>
      <trkpt lat="59.157238" lon="18.12725">
        <ele>58</ele>
        <time>2019-09-01T15:36:46Z</time>
      </trkpt>
      <trkpt lat="59.157237" lon="18.127201">
        <ele>58</ele>
        <time>2019-09-01T15:36:47Z</time>
      </trkpt>
      <trkpt lat="59.157239" lon="18.127141">
        <ele>58</ele>
        <time>2019-09-01T15:36:48Z</time>
      </trkpt>
      <trkpt lat="59.157238" lon="18.127078">
        <ele>58</ele>
        <time>2019-09-01T15:36:49Z</time>
      </trkpt>
      <trkpt lat="59.157234" lon="18.127022">
        <ele>58</ele>
        <time>2019-09-01T15:36:50Z</time>
      </trkpt>
      <trkpt lat="59.157232" lon="18.12697">
        <ele>58</ele>
        <time>2019-09-01T15:36:51Z</time>
      </trkpt>
      <trkpt lat="59.157226" lon="18.126921">
        <ele>58</ele>
        <time>2019-09-01T15:36:52Z</time>
      </trkpt>
      <trkpt lat="59.157214" lon="18.126884">
        <ele>58</ele>
        <time>2019-09-01T15:36:53Z</time>
      </trkpt>
      <trkpt lat="59.157205" lon="18.126854">
        <ele>58</ele>
        <time>2019-09-01T15:36:54Z</time>
      </trkpt>
      <trkpt lat="59.157188" lon="18.126822">
        <ele>58</ele>
        <time>2019-09-01T15:36:55Z</time>
      </trkpt>
      <trkpt lat="59.157169" lon="18.126802">
        <ele>57</ele>
        <time>2019-09-01T15:36:56Z</time>
      </trkpt>
      <trkpt lat="59.157151" lon="18.126798">
        <ele>57</ele>
        <time>2019-09-01T15:36:57Z</time>
      </trkpt>
      <trkpt lat="59.157131" lon="18.12679">
        <ele>57</ele>
        <time>2019-09-01T15:36:58Z</time>
      </trkpt>
      <trkpt lat="59.157113" lon="18.126786">
        <ele>57</ele>
        <time>2019-09-01T15:36:59Z</time>
      </trkpt>
      <trkpt lat="59.157094" lon="18.126788">
        <ele>57</ele>
        <time>2019-09-01T15:37:00Z</time>
      </trkpt>
      <trkpt lat="59.157061" lon="18.126809">
        <ele>57</ele>
        <time>2019-09-01T15:37:02Z</time>
      </trkpt>
      <trkpt lat="59.157037" lon="18.126829">
        <ele>57</ele>
        <time>2019-09-01T15:37:03Z</time>
      </trkpt>
      <trkpt lat="59.157022" lon="18.126855">
        <ele>57</ele>
        <time>2019-09-01T15:37:04Z</time>
      </trkpt>
      <trkpt lat="59.157004" lon="18.126878">
        <ele>57</ele>
        <time>2019-09-01T15:37:05Z</time>
      </trkpt>
      <trkpt lat="59.156986" lon="18.126895">
        <ele>57</ele>
        <time>2019-09-01T15:37:06Z</time>
      </trkpt>
      <trkpt lat="59.156963" lon="18.126918">
        <ele>57</ele>
        <time>2019-09-01T15:37:07Z</time>
      </trkpt>
      <trkpt lat="59.156937" lon="18.126938">
        <ele>58</ele>
        <time>2019-09-01T15:37:08Z</time>
      </trkpt>
      <trkpt lat="59.156917" lon="18.126953">
        <ele>58</ele>
        <time>2019-09-01T15:37:09Z</time>
      </trkpt>
      <trkpt lat="59.156889" lon="18.12697">
        <ele>58</ele>
        <time>2019-09-01T15:37:10Z</time>
      </trkpt>
      <trkpt lat="59.156859" lon="18.126986">
        <ele>58</ele>
        <time>2019-09-01T15:37:11Z</time>
      </trkpt>
      <trkpt lat="59.15683" lon="18.126983">
        <ele>58</ele>
        <time>2019-09-01T15:37:12Z</time>
      </trkpt>
      <trkpt lat="59.156803" lon="18.126958">
        <ele>58</ele>
        <time>2019-09-01T15:37:13Z</time>
      </trkpt>
      <trkpt lat="59.156781" lon="18.126925">
        <ele>58</ele>
        <time>2019-09-01T15:37:14Z</time>
      </trkpt>
      <trkpt lat="59.15676" lon="18.126903">
        <ele>58</ele>
        <time>2019-09-01T15:37:15Z</time>
      </trkpt>
      <trkpt lat="59.156745" lon="18.126881">
        <ele>59</ele>
        <time>2019-09-01T15:37:16Z</time>
      </trkpt>
      <trkpt lat="59.156721" lon="18.126838">
        <ele>59</ele>
        <time>2019-09-01T15:37:18Z</time>
      </trkpt>
      <trkpt lat="59.156702" lon="18.12679">
        <ele>58</ele>
        <time>2019-09-01T15:37:20Z</time>
      </trkpt>
      <trkpt lat="59.15669" lon="18.126761">
        <ele>58</ele>
        <time>2019-09-01T15:37:21Z</time>
      </trkpt>
      <trkpt lat="59.15667" lon="18.126704">
        <ele>58</ele>
        <time>2019-09-01T15:37:23Z</time>
      </trkpt>
      <trkpt lat="59.156654" lon="18.126679">
        <ele>58</ele>
        <time>2019-09-01T15:37:24Z</time>
      </trkpt>
      <trkpt lat="59.156636" lon="18.12665">
        <ele>58</ele>
        <time>2019-09-01T15:37:25Z</time>
      </trkpt>
      <trkpt lat="59.15662" lon="18.126618">
        <ele>58</ele>
        <time>2019-09-01T15:37:26Z</time>
      </trkpt>
      <trkpt lat="59.156604" lon="18.126585">
        <ele>57</ele>
        <time>2019-09-01T15:37:27Z</time>
      </trkpt>
      <trkpt lat="59.156582" lon="18.126554">
        <ele>57</ele>
        <time>2019-09-01T15:37:28Z</time>
      </trkpt>
      <trkpt lat="59.156564" lon="18.126533">
        <ele>57</ele>
        <time>2019-09-01T15:37:29Z</time>
      </trkpt>
      <trkpt lat="59.156549" lon="18.126513">
        <ele>57</ele>
        <time>2019-09-01T15:37:30Z</time>
      </trkpt>
      <trkpt lat="59.15654" lon="18.126506">
        <ele>0</ele>
        <time>2019-09-01T15:37:36Z</time>
      </trkpt>
      <trkpt lat="59.156484" lon="18.126425">
        <ele>55</ele>
        <time>2019-09-01T15:39:03Z</time>
      </trkpt>
      <trkpt lat="59.15648" lon="18.126382">
        <ele>55</ele>
        <time>2019-09-01T15:39:04Z</time>
      </trkpt>
      <trkpt lat="59.156477" lon="18.12633">
        <ele>55</ele>
        <time>2019-09-01T15:39:05Z</time>
      </trkpt>
      <trkpt lat="59.156469" lon="18.12627">
        <ele>55</ele>
        <time>2019-09-01T15:39:06Z</time>
      </trkpt>
      <trkpt lat="59.156452" lon="18.126203">
        <ele>55</ele>
        <time>2019-09-01T15:39:07Z</time>
      </trkpt>
      <trkpt lat="59.156438" lon="18.126139">
        <ele>55</ele>
        <time>2019-09-01T15:39:08Z</time>
      </trkpt>
      <trkpt lat="59.156429" lon="18.126064">
        <ele>55</ele>
        <time>2019-09-01T15:39:09Z</time>
      </trkpt>
      <trkpt lat="59.156423" lon="18.125991">
        <ele>55</ele>
        <time>2019-09-01T15:39:10Z</time>
      </trkpt>
      <trkpt lat="59.156425" lon="18.125913">
        <ele>55</ele>
        <time>2019-09-01T15:39:11Z</time>
      </trkpt>
      <trkpt lat="59.156428" lon="18.12583">
        <ele>55</ele>
        <time>2019-09-01T15:39:12Z</time>
      </trkpt>
      <trkpt lat="59.156433" lon="18.125745">
        <ele>55</ele>
        <time>2019-09-01T15:39:13Z</time>
      </trkpt>
      <trkpt lat="59.15644" lon="18.125675">
        <ele>55</ele>
        <time>2019-09-01T15:39:14Z</time>
      </trkpt>
      <trkpt lat="59.15645" lon="18.125605">
        <ele>55</ele>
        <time>2019-09-01T15:39:15Z</time>
      </trkpt>
      <trkpt lat="59.15646" lon="18.125524">
        <ele>55</ele>
        <time>2019-09-01T15:39:16Z</time>
      </trkpt>
      <trkpt lat="59.156469" lon="18.125439">
        <ele>55</ele>
        <time>2019-09-01T15:39:17Z</time>
      </trkpt>
      <trkpt lat="59.156476" lon="18.125349">
        <ele>55</ele>
        <time>2019-09-01T15:39:18Z</time>
      </trkpt>
      <trkpt lat="59.156487" lon="18.125268">
        <ele>54</ele>
        <time>2019-09-01T15:39:19Z</time>
      </trkpt>
      <trkpt lat="59.156499" lon="18.125189">
        <ele>54</ele>
        <time>2019-09-01T15:39:20Z</time>
      </trkpt>
      <trkpt lat="59.156511" lon="18.125107">
        <ele>54</ele>
        <time>2019-09-01T15:39:21Z</time>
      </trkpt>
      <trkpt lat="59.156526" lon="18.125026">
        <ele>54</ele>
        <time>2019-09-01T15:39:22Z</time>
      </trkpt>
      <trkpt lat="59.156541" lon="18.124949">
        <ele>54</ele>
        <time>2019-09-01T15:39:23Z</time>
      </trkpt>
      <trkpt lat="59.156558" lon="18.124861">
        <ele>54</ele>
        <time>2019-09-01T15:39:24Z</time>
      </trkpt>
      <trkpt lat="59.156567" lon="18.12477">
        <ele>54</ele>
        <time>2019-09-01T15:39:25Z</time>
      </trkpt>
      <trkpt lat="59.15658" lon="18.124679">
        <ele>54</ele>
        <time>2019-09-01T15:39:26Z</time>
      </trkpt>
      <trkpt lat="59.156591" lon="18.124583">
        <ele>54</ele>
        <time>2019-09-01T15:39:27Z</time>
      </trkpt>
      <trkpt lat="59.156603" lon="18.124486">
        <ele>54</ele>
        <time>2019-09-01T15:39:28Z</time>
      </trkpt>
      <trkpt lat="59.156617" lon="18.124387">
        <ele>54</ele>
        <time>2019-09-01T15:39:29Z</time>
      </trkpt>
      <trkpt lat="59.15663" lon="18.124305">
        <ele>55</ele>
        <time>2019-09-01T15:39:30Z</time>
      </trkpt>
      <trkpt lat="59.156647" lon="18.124211">
        <ele>55</ele>
        <time>2019-09-01T15:39:31Z</time>
      </trkpt>
      <trkpt lat="59.156664" lon="18.124119">
        <ele>55</ele>
        <time>2019-09-01T15:39:32Z</time>
      </trkpt>
      <trkpt lat="59.156675" lon="18.124025">
        <ele>55</ele>
        <time>2019-09-01T15:39:33Z</time>
      </trkpt>
      <trkpt lat="59.156691" lon="18.123928">
        <ele>54</ele>
        <time>2019-09-01T15:39:34Z</time>
      </trkpt>
      <trkpt lat="59.15671" lon="18.123831">
        <ele>54</ele>
        <time>2019-09-01T15:39:35Z</time>
      </trkpt>
      <trkpt lat="59.156723" lon="18.123738">
        <ele>54</ele>
        <time>2019-09-01T15:39:36Z</time>
      </trkpt>
      <trkpt lat="59.15673" lon="18.123647">
        <ele>54</ele>
        <time>2019-09-01T15:39:37Z</time>
      </trkpt>
      <trkpt lat="59.15672" lon="18.123549">
        <ele>54</ele>
        <time>2019-09-01T15:39:38Z</time>
      </trkpt>
      <trkpt lat="59.156707" lon="18.123456">
        <ele>54</ele>
        <time>2019-09-01T15:39:39Z</time>
      </trkpt>
      <trkpt lat="59.156686" lon="18.123366">
        <ele>54</ele>
        <time>2019-09-01T15:39:40Z</time>
      </trkpt>
      <trkpt lat="59.156668" lon="18.123284">
        <ele>54</ele>
        <time>2019-09-01T15:39:41Z</time>
      </trkpt>
      <trkpt lat="59.156649" lon="18.123213">
        <ele>54</ele>
        <time>2019-09-01T15:39:42Z</time>
      </trkpt>
      <trkpt lat="59.156622" lon="18.123135">
        <ele>54</ele>
        <time>2019-09-01T15:39:43Z</time>
      </trkpt>
      <trkpt lat="59.156594" lon="18.123058">
        <ele>54</ele>
        <time>2019-09-01T15:39:44Z</time>
      </trkpt>
      <trkpt lat="59.15657" lon="18.122979">
        <ele>54</ele>
        <time>2019-09-01T15:39:45Z</time>
      </trkpt>
      <trkpt lat="59.15654" lon="18.122904">
        <ele>54</ele>
        <time>2019-09-01T15:39:46Z</time>
      </trkpt>
      <trkpt lat="59.156513" lon="18.122827">
        <ele>54</ele>
        <time>2019-09-01T15:39:47Z</time>
      </trkpt>
      <trkpt lat="59.15649" lon="18.12275">
        <ele>54</ele>
        <time>2019-09-01T15:39:48Z</time>
      </trkpt>
      <trkpt lat="59.15647" lon="18.12267">
        <ele>54</ele>
        <time>2019-09-01T15:39:49Z</time>
      </trkpt>
      <trkpt lat="59.156455" lon="18.12258">
        <ele>54</ele>
        <time>2019-09-01T15:39:50Z</time>
      </trkpt>
      <trkpt lat="59.156443" lon="18.122495">
        <ele>54</ele>
        <time>2019-09-01T15:39:51Z</time>
      </trkpt>
      <trkpt lat="59.156434" lon="18.122419">
        <ele>54</ele>
        <time>2019-09-01T15:39:52Z</time>
      </trkpt>
      <trkpt lat="59.156424" lon="18.12234">
        <ele>54</ele>
        <time>2019-09-01T15:39:53Z</time>
      </trkpt>
      <trkpt lat="59.15642" lon="18.122273">
        <ele>54</ele>
        <time>2019-09-01T15:39:54Z</time>
      </trkpt>
      <trkpt lat="59.156415" lon="18.122187">
        <ele>54</ele>
        <time>2019-09-01T15:39:55Z</time>
      </trkpt>
      <trkpt lat="59.156417" lon="18.122109">
        <ele>54</ele>
        <time>2019-09-01T15:39:56Z</time>
      </trkpt>
      <trkpt lat="59.156418" lon="18.122041">
        <ele>54</ele>
        <time>2019-09-01T15:39:57Z</time>
      </trkpt>
      <trkpt lat="59.156415" lon="18.121973">
        <ele>54</ele>
        <time>2019-09-01T15:39:58Z</time>
      </trkpt>
      <trkpt lat="59.156418" lon="18.121912">
        <ele>54</ele>
        <time>2019-09-01T15:39:59Z</time>
      </trkpt>
      <trkpt lat="59.156429" lon="18.121844">
        <ele>54</ele>
        <time>2019-09-01T15:40:00Z</time>
      </trkpt>
      <trkpt lat="59.156442" lon="18.121779">
        <ele>54</ele>
        <time>2019-09-01T15:40:01Z</time>
      </trkpt>
      <trkpt lat="59.156454" lon="18.121717">
        <ele>54</ele>
        <time>2019-09-01T15:40:02Z</time>
      </trkpt>
      <trkpt lat="59.156467" lon="18.121654">
        <ele>53</ele>
        <time>2019-09-01T15:40:03Z</time>
      </trkpt>
      <trkpt lat="59.156477" lon="18.1216">
        <ele>53</ele>
        <time>2019-09-01T15:40:04Z</time>
      </trkpt>
      <trkpt lat="59.156485" lon="18.121549">
        <ele>53</ele>
        <time>2019-09-01T15:40:05Z</time>
      </trkpt>
      <trkpt lat="59.156493" lon="18.1215">
        <ele>53</ele>
        <time>2019-09-01T15:40:06Z</time>
      </trkpt>
      <trkpt lat="59.156503" lon="18.121456">
        <ele>53</ele>
        <time>2019-09-01T15:40:07Z</time>
      </trkpt>
      <trkpt lat="59.156511" lon="18.121418">
        <ele>53</ele>
        <time>2019-09-01T15:40:08Z</time>
      </trkpt>
      <trkpt lat="59.156514" lon="18.121382">
        <ele>53</ele>
        <time>2019-09-01T15:40:09Z</time>
      </trkpt>
      <trkpt lat="59.156522" lon="18.121314">
        <ele>53</ele>
        <time>2019-09-01T15:40:11Z</time>
      </trkpt>
      <trkpt lat="59.156536" lon="18.12126">
        <ele>53</ele>
        <time>2019-09-01T15:40:13Z</time>
      </trkpt>
      <trkpt lat="59.156548" lon="18.121232">
        <ele>53</ele>
        <time>2019-09-01T15:40:14Z</time>
      </trkpt>
      <trkpt lat="59.156561" lon="18.121205">
        <ele>53</ele>
        <time>2019-09-01T15:40:15Z</time>
      </trkpt>
      <trkpt lat="59.156576" lon="18.121176">
        <ele>53</ele>
        <time>2019-09-01T15:40:16Z</time>
      </trkpt>
      <trkpt lat="59.156599" lon="18.121138">
        <ele>53</ele>
        <time>2019-09-01T15:40:18Z</time>
      </trkpt>
      <trkpt lat="59.156613" lon="18.121105">
        <ele>53</ele>
        <time>2019-09-01T15:40:20Z</time>
      </trkpt>
      <trkpt lat="59.156633" lon="18.121069">
        <ele>53</ele>
        <time>2019-09-01T15:40:23Z</time>
      </trkpt>
      <trkpt lat="59.156648" lon="18.121043">
        <ele>53</ele>
        <time>2019-09-01T15:40:25Z</time>
      </trkpt>
      <trkpt lat="59.156657" lon="18.121025">
        <ele>0</ele>
        <time>2019-09-01T15:40:31Z</time>
      </trkpt>
      <trkpt lat="59.156692" lon="18.120961">
        <ele>53</ele>
        <time>2019-09-01T15:40:36Z</time>
      </trkpt>
      <trkpt lat="59.156708" lon="18.120927">
        <ele>53</ele>
        <time>2019-09-01T15:40:38Z</time>
      </trkpt>
      <trkpt lat="59.156723" lon="18.120894">
        <ele>54</ele>
        <time>2019-09-01T15:40:40Z</time>
      </trkpt>
      <trkpt lat="59.156739" lon="18.120862">
        <ele>54</ele>
        <time>2019-09-01T15:40:42Z</time>
      </trkpt>
      <trkpt lat="59.156753" lon="18.120836">
        <ele>54</ele>
        <time>2019-09-01T15:40:44Z</time>
      </trkpt>
      <trkpt lat="59.156767" lon="18.120806">
        <ele>54</ele>
        <time>2019-09-01T15:40:46Z</time>
      </trkpt>
      <trkpt lat="59.156778" lon="18.120773">
        <ele>54</ele>
        <time>2019-09-01T15:40:48Z</time>
      </trkpt>
      <trkpt lat="59.156794" lon="18.120736">
        <ele>55</ele>
        <time>2019-09-01T15:40:51Z</time>
      </trkpt>
      <trkpt lat="59.156808" lon="18.120705">
        <ele>55</ele>
        <time>2019-09-01T15:40:53Z</time>
      </trkpt>
      <trkpt lat="59.156819" lon="18.120677">
        <ele>55</ele>
        <time>2019-09-01T15:40:55Z</time>
      </trkpt>
      <trkpt lat="59.156824" lon="18.120656">
        <ele>54</ele>
        <time>2019-09-01T15:41:01Z</time>
      </trkpt>
      <trkpt lat="59.156859" lon="18.120559">
        <ele>54</ele>
        <time>2019-09-01T15:42:26Z</time>
      </trkpt>
      <trkpt lat="59.156877" lon="18.120526">
        <ele>54</ele>
        <time>2019-09-01T15:42:27Z</time>
      </trkpt>
      <trkpt lat="59.156899" lon="18.120497">
        <ele>54</ele>
        <time>2019-09-01T15:42:28Z</time>
      </trkpt>
      <trkpt lat="59.156925" lon="18.12047">
        <ele>55</ele>
        <time>2019-09-01T15:42:29Z</time>
      </trkpt>
      <trkpt lat="59.156954" lon="18.120448">
        <ele>55</ele>
        <time>2019-09-01T15:42:30Z</time>
      </trkpt>
      <trkpt lat="59.15698" lon="18.120438">
        <ele>55</ele>
        <time>2019-09-01T15:42:31Z</time>
      </trkpt>
      <trkpt lat="59.157009" lon="18.12044">
        <ele>55</ele>
        <time>2019-09-01T15:42:32Z</time>
      </trkpt>
      <trkpt lat="59.157042" lon="18.120437">
        <ele>55</ele>
        <time>2019-09-01T15:42:33Z</time>
      </trkpt>
      <trkpt lat="59.157074" lon="18.120429">
        <ele>55</ele>
        <time>2019-09-01T15:42:34Z</time>
      </trkpt>
      <trkpt lat="59.157106" lon="18.120419">
        <ele>55</ele>
        <time>2019-09-01T15:42:35Z</time>
      </trkpt>
      <trkpt lat="59.157137" lon="18.120417">
        <ele>55</ele>
        <time>2019-09-01T15:42:36Z</time>
      </trkpt>
      <trkpt lat="59.157161" lon="18.120428">
        <ele>55</ele>
        <time>2019-09-01T15:42:37Z</time>
      </trkpt>
      <trkpt lat="59.15719" lon="18.120424">
        <ele>55</ele>
        <time>2019-09-01T15:42:38Z</time>
      </trkpt>
      <trkpt lat="59.157218" lon="18.120422">
        <ele>54</ele>
        <time>2019-09-01T15:42:39Z</time>
      </trkpt>
      <trkpt lat="59.157246" lon="18.120428">
        <ele>55</ele>
        <time>2019-09-01T15:42:40Z</time>
      </trkpt>
      <trkpt lat="59.157275" lon="18.12044">
        <ele>55</ele>
        <time>2019-09-01T15:42:41Z</time>
      </trkpt>
      <trkpt lat="59.157304" lon="18.120455">
        <ele>55</ele>
        <time>2019-09-01T15:42:42Z</time>
      </trkpt>
      <trkpt lat="59.15733" lon="18.120472">
        <ele>55</ele>
        <time>2019-09-01T15:42:43Z</time>
      </trkpt>
      <trkpt lat="59.157356" lon="18.120485">
        <ele>55</ele>
        <time>2019-09-01T15:42:44Z</time>
      </trkpt>
      <trkpt lat="59.157383" lon="18.120495">
        <ele>55</ele>
        <time>2019-09-01T15:42:45Z</time>
      </trkpt>
      <trkpt lat="59.157412" lon="18.120506">
        <ele>55</ele>
        <time>2019-09-01T15:42:46Z</time>
      </trkpt>
      <trkpt lat="59.157434" lon="18.12051">
        <ele>55</ele>
        <time>2019-09-01T15:42:47Z</time>
      </trkpt>
      <trkpt lat="59.157452" lon="18.120498">
        <ele>56</ele>
        <time>2019-09-01T15:42:48Z</time>
      </trkpt>
      <trkpt lat="59.157476" lon="18.120469">
        <ele>56</ele>
        <time>2019-09-01T15:42:50Z</time>
      </trkpt>
      <trkpt lat="59.157492" lon="18.120432">
        <ele>56</ele>
        <time>2019-09-01T15:42:53Z</time>
      </trkpt>
      <trkpt lat="59.157503" lon="18.120388">
        <ele>57</ele>
        <time>2019-09-01T15:42:56Z</time>
      </trkpt>
      <trkpt lat="59.157513" lon="18.120355">
        <ele>57</ele>
        <time>2019-09-01T15:42:58Z</time>
      </trkpt>
      <trkpt lat="59.157522" lon="18.120321">
        <ele>57</ele>
        <time>2019-09-01T15:43:00Z</time>
      </trkpt>
      <trkpt lat="59.15753" lon="18.120279">
        <ele>58</ele>
        <time>2019-09-01T15:43:02Z</time>
      </trkpt>
      <trkpt lat="59.157532" lon="18.120219">
        <ele>58</ele>
        <time>2019-09-01T15:43:04Z</time>
      </trkpt>
      <trkpt lat="59.157531" lon="18.120177">
        <ele>58</ele>
        <time>2019-09-01T15:43:05Z</time>
      </trkpt>
      <trkpt lat="59.157528" lon="18.120135">
        <ele>58</ele>
        <time>2019-09-01T15:43:06Z</time>
      </trkpt>
      <trkpt lat="59.157526" lon="18.120095">
        <ele>58</ele>
        <time>2019-09-01T15:43:07Z</time>
      </trkpt>
      <trkpt lat="59.157524" lon="18.120057">
        <ele>58</ele>
        <time>2019-09-01T15:43:08Z</time>
      </trkpt>
      <trkpt lat="59.157522" lon="18.120016">
        <ele>58</ele>
        <time>2019-09-01T15:43:09Z</time>
      </trkpt>
      <trkpt lat="59.157518" lon="18.119974">
        <ele>58</ele>
        <time>2019-09-01T15:43:10Z</time>
      </trkpt>
      <trkpt lat="59.157511" lon="18.119928">
        <ele>59</ele>
        <time>2019-09-01T15:43:11Z</time>
      </trkpt>
      <trkpt lat="59.157507" lon="18.119881">
        <ele>59</ele>
        <time>2019-09-01T15:43:12Z</time>
      </trkpt>
      <trkpt lat="59.157503" lon="18.119833">
        <ele>59</ele>
        <time>2019-09-01T15:43:13Z</time>
      </trkpt>
      <trkpt lat="59.157498" lon="18.119775">
        <ele>59</ele>
        <time>2019-09-01T15:43:14Z</time>
      </trkpt>
      <trkpt lat="59.157497" lon="18.119721">
        <ele>59</ele>
        <time>2019-09-01T15:43:15Z</time>
      </trkpt>
      <trkpt lat="59.157495" lon="18.119673">
        <ele>59</ele>
        <time>2019-09-01T15:43:16Z</time>
      </trkpt>
      <trkpt lat="59.157495" lon="18.119623">
        <ele>59</ele>
        <time>2019-09-01T15:43:17Z</time>
      </trkpt>
      <trkpt lat="59.157494" lon="18.119574">
        <ele>59</ele>
        <time>2019-09-01T15:43:18Z</time>
      </trkpt>
      <trkpt lat="59.157492" lon="18.119529">
        <ele>59</ele>
        <time>2019-09-01T15:43:19Z</time>
      </trkpt>
      <trkpt lat="59.157487" lon="18.119489">
        <ele>59</ele>
        <time>2019-09-01T15:43:20Z</time>
      </trkpt>
      <trkpt lat="59.157479" lon="18.119449">
        <ele>59</ele>
        <time>2019-09-01T15:43:21Z</time>
      </trkpt>
      <trkpt lat="59.157471" lon="18.119412">
        <ele>59</ele>
        <time>2019-09-01T15:43:22Z</time>
      </trkpt>
      <trkpt lat="59.157465" lon="18.119378">
        <ele>59</ele>
        <time>2019-09-01T15:43:23Z</time>
      </trkpt>
      <trkpt lat="59.157461" lon="18.119341">
        <ele>59</ele>
        <time>2019-09-01T15:43:24Z</time>
      </trkpt>
      <trkpt lat="59.157458" lon="18.119306">
        <ele>59</ele>
        <time>2019-09-01T15:43:25Z</time>
      </trkpt>
      <trkpt lat="59.157455" lon="18.11927">
        <ele>59</ele>
        <time>2019-09-01T15:43:26Z</time>
      </trkpt>
      <trkpt lat="59.157452" lon="18.119219">
        <ele>59</ele>
        <time>2019-09-01T15:43:28Z</time>
      </trkpt>
      <trkpt lat="59.157451" lon="18.119184">
        <ele>59</ele>
        <time>2019-09-01T15:43:30Z</time>
      </trkpt>
      <trkpt lat="59.157457" lon="18.11917">
        <ele>0</ele>
        <time>2019-09-01T15:43:35Z</time>
      </trkpt>
      <trkpt lat="59.1575" lon="18.119071">
        <ele>60</ele>
        <time>2019-09-01T15:44:04Z</time>
      </trkpt>
      <trkpt lat="59.157513" lon="18.11903">
        <ele>60</ele>
        <time>2019-09-01T15:44:05Z</time>
      </trkpt>
      <trkpt lat="59.157528" lon="18.118986">
        <ele>61</ele>
        <time>2019-09-01T15:44:06Z</time>
      </trkpt>
      <trkpt lat="59.157546" lon="18.11894">
        <ele>61</ele>
        <time>2019-09-01T15:44:07Z</time>
      </trkpt>
      <trkpt lat="59.157564" lon="18.118887">
        <ele>60</ele>
        <time>2019-09-01T15:44:08Z</time>
      </trkpt>
      <trkpt lat="59.157588" lon="18.118827">
        <ele>60</ele>
        <time>2019-09-01T15:44:09Z</time>
      </trkpt>
      <trkpt lat="59.157609" lon="18.118759">
        <ele>60</ele>
        <time>2019-09-01T15:44:10Z</time>
      </trkpt>
      <trkpt lat="59.157635" lon="18.118692">
        <ele>60</ele>
        <time>2019-09-01T15:44:11Z</time>
      </trkpt>
      <trkpt lat="59.157661" lon="18.118627">
        <ele>60</ele>
        <time>2019-09-01T15:44:12Z</time>
      </trkpt>
      <trkpt lat="59.157681" lon="18.118563">
        <ele>60</ele>
        <time>2019-09-01T15:44:13Z</time>
      </trkpt>
      <trkpt lat="59.157703" lon="18.118497">
        <ele>60</ele>
        <time>2019-09-01T15:44:14Z</time>
      </trkpt>
      <trkpt lat="59.157723" lon="18.118428">
        <ele>60</ele>
        <time>2019-09-01T15:44:15Z</time>
      </trkpt>
      <trkpt lat="59.157745" lon="18.118368">
        <ele>60</ele>
        <time>2019-09-01T15:44:16Z</time>
      </trkpt>
      <trkpt lat="59.157767" lon="18.118308">
        <ele>60</ele>
        <time>2019-09-01T15:44:17Z</time>
      </trkpt>
      <trkpt lat="59.157791" lon="18.118249">
        <ele>60</ele>
        <time>2019-09-01T15:44:18Z</time>
      </trkpt>
      <trkpt lat="59.157815" lon="18.118186">
        <ele>60</ele>
        <time>2019-09-01T15:44:19Z</time>
      </trkpt>
      <trkpt lat="59.157842" lon="18.118135">
        <ele>60</ele>
        <time>2019-09-01T15:44:20Z</time>
      </trkpt>
      <trkpt lat="59.15787" lon="18.118106">
        <ele>60</ele>
        <time>2019-09-01T15:44:21Z</time>
      </trkpt>
      <trkpt lat="59.157893" lon="18.118085">
        <ele>60</ele>
        <time>2019-09-01T15:44:22Z</time>
      </trkpt>
      <trkpt lat="59.157925" lon="18.118067">
        <ele>60</ele>
        <time>2019-09-01T15:44:23Z</time>
      </trkpt>
      <trkpt lat="59.15796" lon="18.118062">
        <ele>60</ele>
        <time>2019-09-01T15:44:24Z</time>
      </trkpt>
      <trkpt lat="59.157991" lon="18.118067">
        <ele>60</ele>
        <time>2019-09-01T15:44:25Z</time>
      </trkpt>
      <trkpt lat="59.158023" lon="18.11807">
        <ele>60</ele>
        <time>2019-09-01T15:44:26Z</time>
      </trkpt>
      <trkpt lat="59.158062" lon="18.118084">
        <ele>60</ele>
        <time>2019-09-01T15:44:27Z</time>
      </trkpt>
      <trkpt lat="59.158101" lon="18.118114">
        <ele>60</ele>
        <time>2019-09-01T15:44:28Z</time>
      </trkpt>
      <trkpt lat="59.158142" lon="18.118143">
        <ele>60</ele>
        <time>2019-09-01T15:44:29Z</time>
      </trkpt>
      <trkpt lat="59.158183" lon="18.118168">
        <ele>60</ele>
        <time>2019-09-01T15:44:30Z</time>
      </trkpt>
      <trkpt lat="59.158222" lon="18.118193">
        <ele>60</ele>
        <time>2019-09-01T15:44:31Z</time>
      </trkpt>
      <trkpt lat="59.158258" lon="18.118226">
        <ele>60</ele>
        <time>2019-09-01T15:44:32Z</time>
      </trkpt>
      <trkpt lat="59.15829" lon="18.118247">
        <ele>60</ele>
        <time>2019-09-01T15:44:33Z</time>
      </trkpt>
      <trkpt lat="59.158315" lon="18.118272">
        <ele>59</ele>
        <time>2019-09-01T15:44:34Z</time>
      </trkpt>
      <trkpt lat="59.158333" lon="18.118277">
        <ele>60</ele>
        <time>2019-09-01T15:44:37Z</time>
      </trkpt>
      <trkpt lat="59.15835" lon="18.118285">
        <ele>0</ele>
        <time>2019-09-01T15:44:41Z</time>
      </trkpt>
      <trkpt lat="59.158423" lon="18.118381">
        <ele>62</ele>
        <time>2019-09-01T15:45:52Z</time>
      </trkpt>
      <trkpt lat="59.158438" lon="18.118403">
        <ele>62</ele>
        <time>2019-09-01T15:45:53Z</time>
      </trkpt>
      <trkpt lat="59.158458" lon="18.118416">
        <ele>62</ele>
        <time>2019-09-01T15:45:54Z</time>
      </trkpt>
      <trkpt lat="59.158479" lon="18.118434">
        <ele>62</ele>
        <time>2019-09-01T15:45:55Z</time>
      </trkpt>
      <trkpt lat="59.158505" lon="18.118458">
        <ele>62</ele>
        <time>2019-09-01T15:45:56Z</time>
      </trkpt>
      <trkpt lat="59.158535" lon="18.118499">
        <ele>62</ele>
        <time>2019-09-01T15:45:57Z</time>
      </trkpt>
      <trkpt lat="59.158566" lon="18.118552">
        <ele>62</ele>
        <time>2019-09-01T15:45:58Z</time>
      </trkpt>
      <trkpt lat="59.158589" lon="18.118598">
        <ele>62</ele>
        <time>2019-09-01T15:45:59Z</time>
      </trkpt>
      <trkpt lat="59.158613" lon="18.118656">
        <ele>62</ele>
        <time>2019-09-01T15:46:00Z</time>
      </trkpt>
      <trkpt lat="59.158636" lon="18.118718">
        <ele>62</ele>
        <time>2019-09-01T15:46:01Z</time>
      </trkpt>
      <trkpt lat="59.158656" lon="18.118797">
        <ele>62</ele>
        <time>2019-09-01T15:46:02Z</time>
      </trkpt>
      <trkpt lat="59.158668" lon="18.118882">
        <ele>62</ele>
        <time>2019-09-01T15:46:03Z</time>
      </trkpt>
      <trkpt lat="59.158679" lon="18.118974">
        <ele>62</ele>
        <time>2019-09-01T15:46:04Z</time>
      </trkpt>
      <trkpt lat="59.158687" lon="18.119062">
        <ele>62</ele>
        <time>2019-09-01T15:46:05Z</time>
      </trkpt>
      <trkpt lat="59.15869" lon="18.119144">
        <ele>62</ele>
        <time>2019-09-01T15:46:06Z</time>
      </trkpt>
      <trkpt lat="59.158691" lon="18.11922">
        <ele>62</ele>
        <time>2019-09-01T15:46:07Z</time>
      </trkpt>
      <trkpt lat="59.158692" lon="18.119294">
        <ele>62</ele>
        <time>2019-09-01T15:46:08Z</time>
      </trkpt>
      <trkpt lat="59.158694" lon="18.119362">
        <ele>62</ele>
        <time>2019-09-01T15:46:09Z</time>
      </trkpt>
      <trkpt lat="59.158697" lon="18.119429">
        <ele>62</ele>
        <time>2019-09-01T15:46:10Z</time>
      </trkpt>
      <trkpt lat="59.158702" lon="18.119498">
        <ele>62</ele>
        <time>2019-09-01T15:46:11Z</time>
      </trkpt>
      <trkpt lat="59.158711" lon="18.119565">
        <ele>62</ele>
        <time>2019-09-01T15:46:12Z</time>
      </trkpt>
      <trkpt lat="59.15872" lon="18.119626">
        <ele>62</ele>
        <time>2019-09-01T15:46:13Z</time>
      </trkpt>
      <trkpt lat="59.158723" lon="18.119684">
        <ele>62</ele>
        <time>2019-09-01T15:46:14Z</time>
      </trkpt>
      <trkpt lat="59.158729" lon="18.119749">
        <ele>62</ele>
        <time>2019-09-01T15:46:15Z</time>
      </trkpt>
      <trkpt lat="59.158732" lon="18.119822">
        <ele>62</ele>
        <time>2019-09-01T15:46:16Z</time>
      </trkpt>
      <trkpt lat="59.158733" lon="18.119886">
        <ele>62</ele>
        <time>2019-09-01T15:46:17Z</time>
      </trkpt>
      <trkpt lat="59.158734" lon="18.119953">
        <ele>62</ele>
        <time>2019-09-01T15:46:18Z</time>
      </trkpt>
      <trkpt lat="59.158731" lon="18.120011">
        <ele>62</ele>
        <time>2019-09-01T15:46:19Z</time>
      </trkpt>
      <trkpt lat="59.158731" lon="18.120092">
        <ele>62</ele>
        <time>2019-09-01T15:46:20Z</time>
      </trkpt>
      <trkpt lat="59.158728" lon="18.120168">
        <ele>62</ele>
        <time>2019-09-01T15:46:21Z</time>
      </trkpt>
      <trkpt lat="59.158719" lon="18.120236">
        <ele>62</ele>
        <time>2019-09-01T15:46:22Z</time>
      </trkpt>
      <trkpt lat="59.158702" lon="18.120276">
        <ele>62</ele>
        <time>2019-09-01T15:46:23Z</time>
      </trkpt>
      <trkpt lat="59.158683" lon="18.1203">
        <ele>62</ele>
        <time>2019-09-01T15:46:24Z</time>
      </trkpt>
      <trkpt lat="59.158663" lon="18.120317">
        <ele>62</ele>
        <time>2019-09-01T15:46:25Z</time>
      </trkpt>
      <trkpt lat="59.158647" lon="18.12034">
        <ele>62</ele>
        <time>2019-09-01T15:46:26Z</time>
      </trkpt>
      <trkpt lat="59.15863" lon="18.120353">
        <ele>62</ele>
        <time>2019-09-01T15:46:27Z</time>
      </trkpt>
      <trkpt lat="59.158609" lon="18.12037">
        <ele>62</ele>
        <time>2019-09-01T15:46:28Z</time>
      </trkpt>
      <trkpt lat="59.15859" lon="18.120387">
        <ele>62</ele>
        <time>2019-09-01T15:46:29Z</time>
      </trkpt>
      <trkpt lat="59.158573" lon="18.120405">
        <ele>62</ele>
        <time>2019-09-01T15:46:30Z</time>
      </trkpt>
      <trkpt lat="59.158549" lon="18.120444">
        <ele>62</ele>
        <time>2019-09-01T15:46:32Z</time>
      </trkpt>
      <trkpt lat="59.158549" lon="18.120485">
        <ele>62</ele>
        <time>2019-09-01T15:46:34Z</time>
      </trkpt>
      <trkpt lat="59.158544" lon="18.12054">
        <ele>62</ele>
        <time>2019-09-01T15:46:36Z</time>
      </trkpt>
      <trkpt lat="59.158529" lon="18.120589">
        <ele>62</ele>
        <time>2019-09-01T15:46:38Z</time>
      </trkpt>
      <trkpt lat="59.158509" lon="18.120613">
        <ele>63</ele>
        <time>2019-09-01T15:46:40Z</time>
      </trkpt>
      <trkpt lat="59.15849" lon="18.120636">
        <ele>63</ele>
        <time>2019-09-01T15:46:42Z</time>
      </trkpt>
      <trkpt lat="59.158476" lon="18.120663">
        <ele>63</ele>
        <time>2019-09-01T15:46:44Z</time>
      </trkpt>
      <trkpt lat="59.158458" lon="18.120684">
        <ele>63</ele>
        <time>2019-09-01T15:46:46Z</time>
      </trkpt>
      <trkpt lat="59.158436" lon="18.120705">
        <ele>62</ele>
        <time>2019-09-01T15:46:48Z</time>
      </trkpt>
      <trkpt lat="59.158415" lon="18.120732">
        <ele>62</ele>
        <time>2019-09-01T15:46:50Z</time>
      </trkpt>
      <trkpt lat="59.158395" lon="18.120787">
        <ele>62</ele>
        <time>2019-09-01T15:46:52Z</time>
      </trkpt>
      <trkpt lat="59.158378" lon="18.120839">
        <ele>62</ele>
        <time>2019-09-01T15:46:54Z</time>
      </trkpt>
      <trkpt lat="59.158368" lon="18.120897">
        <ele>62</ele>
        <time>2019-09-01T15:46:56Z</time>
      </trkpt>
      <trkpt lat="59.158359" lon="18.120955">
        <ele>62</ele>
        <time>2019-09-01T15:46:58Z</time>
      </trkpt>
      <trkpt lat="59.158349" lon="18.121007">
        <ele>61</ele>
        <time>2019-09-01T15:47:00Z</time>
      </trkpt>
      <trkpt lat="59.158354" lon="18.121049">
        <ele>61</ele>
        <time>2019-09-01T15:47:02Z</time>
      </trkpt>
      <trkpt lat="59.158363" lon="18.121085">
        <ele>61</ele>
        <time>2019-09-01T15:47:04Z</time>
      </trkpt>
      <trkpt lat="59.158375" lon="18.121122">
        <ele>61</ele>
        <time>2019-09-01T15:47:06Z</time>
      </trkpt>
      <trkpt lat="59.158386" lon="18.121163">
        <ele>61</ele>
        <time>2019-09-01T15:47:08Z</time>
      </trkpt>
      <trkpt lat="59.158388" lon="18.121202">
        <ele>61</ele>
        <time>2019-09-01T15:47:11Z</time>
      </trkpt>
      <trkpt lat="59.158386" lon="18.121204">
        <ele>0</ele>
        <time>2019-09-01T15:47:15Z</time>
      </trkpt>
      <trkpt lat="59.158347" lon="18.1213">
        <ele>61</ele>
        <time>2019-09-01T15:50:26Z</time>
      </trkpt>
      <trkpt lat="59.158333" lon="18.121322">
        <ele>61</ele>
        <time>2019-09-01T15:50:27Z</time>
      </trkpt>
      <trkpt lat="59.158312" lon="18.121348">
        <ele>61</ele>
        <time>2019-09-01T15:50:28Z</time>
      </trkpt>
      <trkpt lat="59.158291" lon="18.121371">
        <ele>61</ele>
        <time>2019-09-01T15:50:29Z</time>
      </trkpt>
      <trkpt lat="59.158273" lon="18.121399">
        <ele>61</ele>
        <time>2019-09-01T15:50:30Z</time>
      </trkpt>
      <trkpt lat="59.158265" lon="18.121437">
        <ele>61</ele>
        <time>2019-09-01T15:50:31Z</time>
      </trkpt>
      <trkpt lat="59.158271" lon="18.121473">
        <ele>61</ele>
        <time>2019-09-01T15:50:32Z</time>
      </trkpt>
      <trkpt lat="59.158286" lon="18.121501">
        <ele>61</ele>
        <time>2019-09-01T15:50:33Z</time>
      </trkpt>
      <trkpt lat="59.158303" lon="18.121529">
        <ele>61</ele>
        <time>2019-09-01T15:50:34Z</time>
      </trkpt>
      <trkpt lat="59.158318" lon="18.121563">
        <ele>61</ele>
        <time>2019-09-01T15:50:35Z</time>
      </trkpt>
      <trkpt lat="59.158336" lon="18.121589">
        <ele>61</ele>
        <time>2019-09-01T15:50:36Z</time>
      </trkpt>
      <trkpt lat="59.158356" lon="18.121611">
        <ele>61</ele>
        <time>2019-09-01T15:50:37Z</time>
      </trkpt>
      <trkpt lat="59.158376" lon="18.121629">
        <ele>61</ele>
        <time>2019-09-01T15:50:38Z</time>
      </trkpt>
      <trkpt lat="59.158397" lon="18.121645">
        <ele>61</ele>
        <time>2019-09-01T15:50:39Z</time>
      </trkpt>
      <trkpt lat="59.158417" lon="18.121661">
        <ele>61</ele>
        <time>2019-09-01T15:50:40Z</time>
      </trkpt>
      <trkpt lat="59.158439" lon="18.121675">
        <ele>61</ele>
        <time>2019-09-01T15:50:41Z</time>
      </trkpt>
      <trkpt lat="59.158463" lon="18.121677">
        <ele>61</ele>
        <time>2019-09-01T15:50:42Z</time>
      </trkpt>
      <trkpt lat="59.158485" lon="18.121667">
        <ele>61</ele>
        <time>2019-09-01T15:50:43Z</time>
      </trkpt>
      <trkpt lat="59.158504" lon="18.121646">
        <ele>61</ele>
        <time>2019-09-01T15:50:44Z</time>
      </trkpt>
      <trkpt lat="59.158523" lon="18.12162">
        <ele>61</ele>
        <time>2019-09-01T15:50:45Z</time>
      </trkpt>
      <trkpt lat="59.158543" lon="18.121609">
        <ele>61</ele>
        <time>2019-09-01T15:50:46Z</time>
      </trkpt>
      <trkpt lat="59.158562" lon="18.12161">
        <ele>61</ele>
        <time>2019-09-01T15:50:47Z</time>
      </trkpt>
      <trkpt lat="59.158584" lon="18.121617">
        <ele>61</ele>
        <time>2019-09-01T15:50:48Z</time>
      </trkpt>
      <trkpt lat="59.158608" lon="18.121612">
        <ele>61</ele>
        <time>2019-09-01T15:50:49Z</time>
      </trkpt>
      <trkpt lat="59.158632" lon="18.121607">
        <ele>61</ele>
        <time>2019-09-01T15:50:50Z</time>
      </trkpt>
      <trkpt lat="59.158656" lon="18.121596">
        <ele>61</ele>
        <time>2019-09-01T15:50:51Z</time>
      </trkpt>
      <trkpt lat="59.158677" lon="18.121581">
        <ele>61</ele>
        <time>2019-09-01T15:50:52Z</time>
      </trkpt>
      <trkpt lat="59.158699" lon="18.121559">
        <ele>61</ele>
        <time>2019-09-01T15:50:53Z</time>
      </trkpt>
      <trkpt lat="59.158722" lon="18.121539">
        <ele>61</ele>
        <time>2019-09-01T15:50:54Z</time>
      </trkpt>
      <trkpt lat="59.158751" lon="18.121525">
        <ele>60</ele>
        <time>2019-09-01T15:50:55Z</time>
      </trkpt>
      <trkpt lat="59.158785" lon="18.121521">
        <ele>60</ele>
        <time>2019-09-01T15:50:56Z</time>
      </trkpt>
      <trkpt lat="59.158815" lon="18.121535">
        <ele>60</ele>
        <time>2019-09-01T15:50:57Z</time>
      </trkpt>
      <trkpt lat="59.158844" lon="18.121551">
        <ele>60</ele>
        <time>2019-09-01T15:50:58Z</time>
      </trkpt>
      <trkpt lat="59.158872" lon="18.121572">
        <ele>60</ele>
        <time>2019-09-01T15:50:59Z</time>
      </trkpt>
      <trkpt lat="59.158898" lon="18.12159">
        <ele>60</ele>
        <time>2019-09-01T15:51:00Z</time>
      </trkpt>
      <trkpt lat="59.158931" lon="18.121605">
        <ele>60</ele>
        <time>2019-09-01T15:51:01Z</time>
      </trkpt>
      <trkpt lat="59.158959" lon="18.12162">
        <ele>60</ele>
        <time>2019-09-01T15:51:02Z</time>
      </trkpt>
      <trkpt lat="59.158985" lon="18.121633">
        <ele>60</ele>
        <time>2019-09-01T15:51:03Z</time>
      </trkpt>
      <trkpt lat="59.159007" lon="18.121637">
        <ele>60</ele>
        <time>2019-09-01T15:51:04Z</time>
      </trkpt>
      <trkpt lat="59.159032" lon="18.121632">
        <ele>60</ele>
        <time>2019-09-01T15:51:05Z</time>
      </trkpt>
      <trkpt lat="59.159052" lon="18.121622">
        <ele>60</ele>
        <time>2019-09-01T15:51:06Z</time>
      </trkpt>
      <trkpt lat="59.159079" lon="18.121592">
        <ele>61</ele>
        <time>2019-09-01T15:51:08Z</time>
      </trkpt>
      <trkpt lat="59.15912" lon="18.121556">
        <ele>61</ele>
        <time>2019-09-01T15:51:10Z</time>
      </trkpt>
      <trkpt lat="59.159141" lon="18.121527">
        <ele>61</ele>
        <time>2019-09-01T15:51:11Z</time>
      </trkpt>
      <trkpt lat="59.159161" lon="18.121502">
        <ele>61</ele>
        <time>2019-09-01T15:51:12Z</time>
      </trkpt>
      <trkpt lat="59.159179" lon="18.121466">
        <ele>61</ele>
        <time>2019-09-01T15:51:13Z</time>
      </trkpt>
      <trkpt lat="59.159195" lon="18.12144">
        <ele>61</ele>
        <time>2019-09-01T15:51:14Z</time>
      </trkpt>
      <trkpt lat="59.159213" lon="18.121413">
        <ele>61</ele>
        <time>2019-09-01T15:51:15Z</time>
      </trkpt>
      <trkpt lat="59.15923" lon="18.121388">
        <ele>61</ele>
        <time>2019-09-01T15:51:16Z</time>
      </trkpt>
      <trkpt lat="59.159244" lon="18.121353">
        <ele>61</ele>
        <time>2019-09-01T15:51:17Z</time>
      </trkpt>
      <trkpt lat="59.159253" lon="18.121318">
        <ele>61</ele>
        <time>2019-09-01T15:51:18Z</time>
      </trkpt>
      <trkpt lat="59.159266" lon="18.121257">
        <ele>61</ele>
        <time>2019-09-01T15:51:20Z</time>
      </trkpt>
      <trkpt lat="59.159271" lon="18.121223">
        <ele>61</ele>
        <time>2019-09-01T15:51:21Z</time>
      </trkpt>
      <trkpt lat="59.159285" lon="18.121171">
        <ele>62</ele>
        <time>2019-09-01T15:51:23Z</time>
      </trkpt>
      <trkpt lat="59.159296" lon="18.121136">
        <ele>61</ele>
        <time>2019-09-01T15:51:24Z</time>
      </trkpt>
      <trkpt lat="59.15931" lon="18.121097">
        <ele>61</ele>
        <time>2019-09-01T15:51:25Z</time>
      </trkpt>
      <trkpt lat="59.159327" lon="18.121047">
        <ele>61</ele>
        <time>2019-09-01T15:51:27Z</time>
      </trkpt>
      <trkpt lat="59.159333" lon="18.121003">
        <ele>61</ele>
        <time>2019-09-01T15:51:29Z</time>
      </trkpt>
      <trkpt lat="59.159333" lon="18.120964">
        <ele>62</ele>
        <time>2019-09-01T15:51:31Z</time>
      </trkpt>
      <trkpt lat="59.159333" lon="18.120928">
        <ele>62</ele>
        <time>2019-09-01T15:51:33Z</time>
      </trkpt>
      <trkpt lat="59.159334" lon="18.120903">
        <ele>0</ele>
        <time>2019-09-01T15:51:41Z</time>
      </trkpt>
      <trkpt lat="59.159347" lon="18.120759">
        <ele>63</ele>
        <time>2019-09-01T15:53:32Z</time>
      </trkpt>
      <trkpt lat="59.159349" lon="18.120737">
        <ele>63</ele>
        <time>2019-09-01T15:53:33Z</time>
      </trkpt>
      <trkpt lat="59.159351" lon="18.1207">
        <ele>63</ele>
        <time>2019-09-01T15:53:35Z</time>
      </trkpt>
      <trkpt lat="59.159366" lon="18.120692">
        <ele>0</ele>
        <time>2019-09-01T15:53:45Z</time>
      </trkpt>
      <trkpt lat="59.159389" lon="18.120589">
        <ele>60</ele>
        <time>2019-09-01T15:58:44Z</time>
      </trkpt>
      <trkpt lat="59.159392" lon="18.120523">
        <ele>60</ele>
        <time>2019-09-01T15:58:46Z</time>
      </trkpt>
      <trkpt lat="59.159389" lon="18.120464">
        <ele>61</ele>
        <time>2019-09-01T15:58:48Z</time>
      </trkpt>
      <trkpt lat="59.159384" lon="18.120444">
        <ele>0</ele>
        <time>2019-09-01T15:58:55Z</time>
      </trkpt>
      <trkpt lat="59.159384" lon="18.120374">
        <ele>62</ele>
        <time>2019-09-01T16:02:28Z</time>
      </trkpt>
      <trkpt lat="59.159383" lon="18.120371">
        <ele>62</ele>
        <time>2019-09-01T16:02:31Z</time>
      </trkpt>
      <trkpt lat="59.159368" lon="18.120225">
        <ele>61</ele>
        <time>2019-09-01T16:03:20Z</time>
      </trkpt>
      <trkpt lat="59.159373" lon="18.120167">
        <ele>62</ele>
        <time>2019-09-01T16:03:22Z</time>
      </trkpt>
      <trkpt lat="59.159376" lon="18.120104">
        <ele>62</ele>
        <time>2019-09-01T16:03:24Z</time>
      </trkpt>
      <trkpt lat="59.159379" lon="18.120064">
        <ele>62</ele>
        <time>2019-09-01T16:03:25Z</time>
      </trkpt>
      <trkpt lat="59.159382" lon="18.120026">
        <ele>62</ele>
        <time>2019-09-01T16:03:26Z</time>
      </trkpt>
      <trkpt lat="59.159386" lon="18.11999">
        <ele>62</ele>
        <time>2019-09-01T16:03:27Z</time>
      </trkpt>
      <trkpt lat="59.159388" lon="18.119952">
        <ele>62</ele>
        <time>2019-09-01T16:03:28Z</time>
      </trkpt>
      <trkpt lat="59.159391" lon="18.119889">
        <ele>62</ele>
        <time>2019-09-01T16:03:30Z</time>
      </trkpt>
      <trkpt lat="59.159395" lon="18.119831">
        <ele>62</ele>
        <time>2019-09-01T16:03:32Z</time>
      </trkpt>
      <trkpt lat="59.159396" lon="18.119769">
        <ele>62</ele>
        <time>2019-09-01T16:03:34Z</time>
      </trkpt>
      <trkpt lat="59.159396" lon="18.119719">
        <ele>62</ele>
        <time>2019-09-01T16:03:38Z</time>
      </trkpt>
      <trkpt lat="59.159396" lon="18.119719">
        <ele>0</ele>
        <time>2019-09-01T16:03:43Z</time>
      </trkpt>
      <trkpt lat="59.159421" lon="18.119549">
        <ele>62</ele>
        <time>2019-09-01T16:04:40Z</time>
      </trkpt>
      <trkpt lat="59.159428" lon="18.119502">
        <ele>62</ele>
        <time>2019-09-01T16:04:41Z</time>
      </trkpt>
      <trkpt lat="59.159437" lon="18.119451">
        <ele>62</ele>
        <time>2019-09-01T16:04:42Z</time>
      </trkpt>
      <trkpt lat="59.159444" lon="18.119394">
        <ele>62</ele>
        <time>2019-09-01T16:04:43Z</time>
      </trkpt>
      <trkpt lat="59.159449" lon="18.119331">
        <ele>62</ele>
        <time>2019-09-01T16:04:44Z</time>
      </trkpt>
      <trkpt lat="59.159454" lon="18.119272">
        <ele>62</ele>
        <time>2019-09-01T16:04:45Z</time>
      </trkpt>
      <trkpt lat="59.159457" lon="18.119217">
        <ele>62</ele>
        <time>2019-09-01T16:04:46Z</time>
      </trkpt>
      <trkpt lat="59.15946" lon="18.119158">
        <ele>62</ele>
        <time>2019-09-01T16:04:47Z</time>
      </trkpt>
      <trkpt lat="59.159463" lon="18.119099">
        <ele>62</ele>
        <time>2019-09-01T16:04:48Z</time>
      </trkpt>
      <trkpt lat="59.159459" lon="18.119045">
        <ele>62</ele>
        <time>2019-09-01T16:04:49Z</time>
      </trkpt>
      <trkpt lat="59.159446" lon="18.118997">
        <ele>62</ele>
        <time>2019-09-01T16:04:50Z</time>
      </trkpt>
      <trkpt lat="59.159428" lon="18.118967">
        <ele>62</ele>
        <time>2019-09-01T16:04:51Z</time>
      </trkpt>
      <trkpt lat="59.159408" lon="18.118955">
        <ele>63</ele>
        <time>2019-09-01T16:04:52Z</time>
      </trkpt>
      <trkpt lat="59.159387" lon="18.11894">
        <ele>63</ele>
        <time>2019-09-01T16:04:53Z</time>
      </trkpt>
      <trkpt lat="59.159365" lon="18.118913">
        <ele>63</ele>
        <time>2019-09-01T16:04:54Z</time>
      </trkpt>
      <trkpt lat="59.159342" lon="18.118884">
        <ele>63</ele>
        <time>2019-09-01T16:04:55Z</time>
      </trkpt>
      <trkpt lat="59.159316" lon="18.118862">
        <ele>63</ele>
        <time>2019-09-01T16:04:56Z</time>
      </trkpt>
      <trkpt lat="59.159293" lon="18.118835">
        <ele>63</ele>
        <time>2019-09-01T16:04:57Z</time>
      </trkpt>
      <trkpt lat="59.159271" lon="18.118808">
        <ele>63</ele>
        <time>2019-09-01T16:04:58Z</time>
      </trkpt>
      <trkpt lat="59.159252" lon="18.118777">
        <ele>63</ele>
        <time>2019-09-01T16:04:59Z</time>
      </trkpt>
      <trkpt lat="59.159232" lon="18.118743">
        <ele>63</ele>
        <time>2019-09-01T16:05:00Z</time>
      </trkpt>
      <trkpt lat="59.159208" lon="18.11871">
        <ele>63</ele>
        <time>2019-09-01T16:05:01Z</time>
      </trkpt>
      <trkpt lat="59.159183" lon="18.118681">
        <ele>63</ele>
        <time>2019-09-01T16:05:02Z</time>
      </trkpt>
      <trkpt lat="59.159158" lon="18.118652">
        <ele>63</ele>
        <time>2019-09-01T16:05:03Z</time>
      </trkpt>
      <trkpt lat="59.159136" lon="18.118624">
        <ele>63</ele>
        <time>2019-09-01T16:05:04Z</time>
      </trkpt>
      <trkpt lat="59.159114" lon="18.118593">
        <ele>63</ele>
        <time>2019-09-01T16:05:05Z</time>
      </trkpt>
      <trkpt lat="59.159094" lon="18.118561">
        <ele>63</ele>
        <time>2019-09-01T16:05:06Z</time>
      </trkpt>
      <trkpt lat="59.159076" lon="18.118525">
        <ele>63</ele>
        <time>2019-09-01T16:05:07Z</time>
      </trkpt>
      <trkpt lat="59.159066" lon="18.11849">
        <ele>63</ele>
        <time>2019-09-01T16:05:08Z</time>
      </trkpt>
      <trkpt lat="59.159062" lon="18.118452">
        <ele>63</ele>
        <time>2019-09-01T16:05:09Z</time>
      </trkpt>
      <trkpt lat="59.159058" lon="18.118409">
        <ele>63</ele>
        <time>2019-09-01T16:05:10Z</time>
      </trkpt>
      <trkpt lat="59.159057" lon="18.118365">
        <ele>63</ele>
        <time>2019-09-01T16:05:11Z</time>
      </trkpt>
      <trkpt lat="59.159056" lon="18.118319">
        <ele>63</ele>
        <time>2019-09-01T16:05:12Z</time>
      </trkpt>
      <trkpt lat="59.159052" lon="18.118272">
        <ele>63</ele>
        <time>2019-09-01T16:05:13Z</time>
      </trkpt>
      <trkpt lat="59.159042" lon="18.118223">
        <ele>63</ele>
        <time>2019-09-01T16:05:14Z</time>
      </trkpt>
      <trkpt lat="59.159035" lon="18.118173">
        <ele>63</ele>
        <time>2019-09-01T16:05:15Z</time>
      </trkpt>
      <trkpt lat="59.159032" lon="18.118123">
        <ele>64</ele>
        <time>2019-09-01T16:05:16Z</time>
      </trkpt>
      <trkpt lat="59.159032" lon="18.118079">
        <ele>63</ele>
        <time>2019-09-01T16:05:17Z</time>
      </trkpt>
      <trkpt lat="59.159031" lon="18.118033">
        <ele>63</ele>
        <time>2019-09-01T16:05:18Z</time>
      </trkpt>
      <trkpt lat="59.159029" lon="18.117991">
        <ele>64</ele>
        <time>2019-09-01T16:05:19Z</time>
      </trkpt>
      <trkpt lat="59.159034" lon="18.117948">
        <ele>64</ele>
        <time>2019-09-01T16:05:20Z</time>
      </trkpt>
      <trkpt lat="59.159041" lon="18.117902">
        <ele>64</ele>
        <time>2019-09-01T16:05:21Z</time>
      </trkpt>
      <trkpt lat="59.15905" lon="18.117871">
        <ele>64</ele>
        <time>2019-09-01T16:05:22Z</time>
      </trkpt>
      <trkpt lat="59.159056" lon="18.117838">
        <ele>64</ele>
        <time>2019-09-01T16:05:23Z</time>
      </trkpt>
      <trkpt lat="59.159057" lon="18.117797">
        <ele>65</ele>
        <time>2019-09-01T16:05:24Z</time>
      </trkpt>
      <trkpt lat="59.159057" lon="18.117758">
        <ele>65</ele>
        <time>2019-09-01T16:05:25Z</time>
      </trkpt>
      <trkpt lat="59.159054" lon="18.117719">
        <ele>65</ele>
        <time>2019-09-01T16:05:26Z</time>
      </trkpt>
      <trkpt lat="59.159053" lon="18.117683">
        <ele>65</ele>
        <time>2019-09-01T16:05:27Z</time>
      </trkpt>
      <trkpt lat="59.159065" lon="18.117636">
        <ele>65</ele>
        <time>2019-09-01T16:05:29Z</time>
      </trkpt>
      <trkpt lat="59.159086" lon="18.117625">
        <ele>65</ele>
        <time>2019-09-01T16:05:31Z</time>
      </trkpt>
      <trkpt lat="59.159105" lon="18.117611">
        <ele>64</ele>
        <time>2019-09-01T16:05:33Z</time>
      </trkpt>
      <trkpt lat="59.159111" lon="18.117593">
        <ele>0</ele>
        <time>2019-09-01T16:05:39Z</time>
      </trkpt>
      <trkpt lat="59.159204" lon="18.117595">
        <ele>63</ele>
        <time>2019-09-01T16:07:50Z</time>
      </trkpt>
      <trkpt lat="59.159236" lon="18.117594">
        <ele>63</ele>
        <time>2019-09-01T16:07:51Z</time>
      </trkpt>
      <trkpt lat="59.159275" lon="18.117594">
        <ele>63</ele>
        <time>2019-09-01T16:07:52Z</time>
      </trkpt>
      <trkpt lat="59.15932" lon="18.117599">
        <ele>63</ele>
        <time>2019-09-01T16:07:53Z</time>
      </trkpt>
      <trkpt lat="59.159367" lon="18.117611">
        <ele>63</ele>
        <time>2019-09-01T16:07:54Z</time>
      </trkpt>
      <trkpt lat="59.159417" lon="18.11762">
        <ele>62</ele>
        <time>2019-09-01T16:07:55Z</time>
      </trkpt>
      <trkpt lat="59.159462" lon="18.117631">
        <ele>62</ele>
        <time>2019-09-01T16:07:56Z</time>
      </trkpt>
      <trkpt lat="59.159504" lon="18.11764">
        <ele>62</ele>
        <time>2019-09-01T16:07:57Z</time>
      </trkpt>
      <trkpt lat="59.159552" lon="18.117654">
        <ele>62</ele>
        <time>2019-09-01T16:07:58Z</time>
      </trkpt>
      <trkpt lat="59.159604" lon="18.117648">
        <ele>62</ele>
        <time>2019-09-01T16:07:59Z</time>
      </trkpt>
      <trkpt lat="59.159654" lon="18.117634">
        <ele>62</ele>
        <time>2019-09-01T16:08:00Z</time>
      </trkpt>
      <trkpt lat="59.1597" lon="18.117619">
        <ele>62</ele>
        <time>2019-09-01T16:08:01Z</time>
      </trkpt>
      <trkpt lat="59.159748" lon="18.117597">
        <ele>62</ele>
        <time>2019-09-01T16:08:02Z</time>
      </trkpt>
      <trkpt lat="59.159791" lon="18.117567">
        <ele>62</ele>
        <time>2019-09-01T16:08:03Z</time>
      </trkpt>
      <trkpt lat="59.15983" lon="18.117523">
        <ele>62</ele>
        <time>2019-09-01T16:08:04Z</time>
      </trkpt>
      <trkpt lat="59.159876" lon="18.117485">
        <ele>62</ele>
        <time>2019-09-01T16:08:05Z</time>
      </trkpt>
      <trkpt lat="59.159926" lon="18.117425">
        <ele>62</ele>
        <time>2019-09-01T16:08:06Z</time>
      </trkpt>
      <trkpt lat="59.159981" lon="18.117367">
        <ele>62</ele>
        <time>2019-09-01T16:08:07Z</time>
      </trkpt>
      <trkpt lat="59.160042" lon="18.117307">
        <ele>62</ele>
        <time>2019-09-01T16:08:08Z</time>
      </trkpt>
      <trkpt lat="59.160106" lon="18.117245">
        <ele>61</ele>
        <time>2019-09-01T16:08:10Z</time>
      </trkpt>
      <trkpt lat="59.160177" lon="18.117178">
        <ele>61</ele>
        <time>2019-09-01T16:08:10Z</time>
      </trkpt>
      <trkpt lat="59.160246" lon="18.117101">
        <ele>61</ele>
        <time>2019-09-01T16:08:11Z</time>
      </trkpt>
      <trkpt lat="59.160306" lon="18.117022">
        <ele>60</ele>
        <time>2019-09-01T16:08:12Z</time>
      </trkpt>
      <trkpt lat="59.160368" lon="18.116959">
        <ele>60</ele>
        <time>2019-09-01T16:08:13Z</time>
      </trkpt>
      <trkpt lat="59.160416" lon="18.116907">
        <ele>60</ele>
        <time>2019-09-01T16:08:14Z</time>
      </trkpt>
      <trkpt lat="59.160455" lon="18.116848">
        <ele>59</ele>
        <time>2019-09-01T16:08:15Z</time>
      </trkpt>
      <trkpt lat="59.160487" lon="18.116795">
        <ele>59</ele>
        <time>2019-09-01T16:08:16Z</time>
      </trkpt>
      <trkpt lat="59.160507" lon="18.11675">
        <ele>58</ele>
        <time>2019-09-01T16:08:17Z</time>
      </trkpt>
      <trkpt lat="59.160506" lon="18.116703">
        <ele>58</ele>
        <time>2019-09-01T16:08:18Z</time>
      </trkpt>
      <trkpt lat="59.160474" lon="18.116719">
        <ele>57</ele>
        <time>2019-09-01T16:08:20Z</time>
      </trkpt>
      <trkpt lat="59.160463" lon="18.116759">
        <ele>56</ele>
        <time>2019-09-01T16:08:21Z</time>
      </trkpt>
      <trkpt lat="59.160452" lon="18.116803">
        <ele>55</ele>
        <time>2019-09-01T16:08:22Z</time>
      </trkpt>
      <trkpt lat="59.160438" lon="18.116845">
        <ele>55</ele>
        <time>2019-09-01T16:08:23Z</time>
      </trkpt>
      <trkpt lat="59.160423" lon="18.116879">
        <ele>55</ele>
        <time>2019-09-01T16:08:24Z</time>
      </trkpt>
      <trkpt lat="59.160406" lon="18.116912">
        <ele>55</ele>
        <time>2019-09-01T16:08:25Z</time>
      </trkpt>
      <trkpt lat="59.160391" lon="18.116946">
        <ele>54</ele>
        <time>2019-09-01T16:08:26Z</time>
      </trkpt>
      <trkpt lat="59.160376" lon="18.116975">
        <ele>54</ele>
        <time>2019-09-01T16:08:27Z</time>
      </trkpt>
      <trkpt lat="59.160354" lon="18.116995">
        <ele>54</ele>
        <time>2019-09-01T16:08:29Z</time>
      </trkpt>
      <trkpt lat="59.160372" lon="18.116977">
        <ele>54</ele>
        <time>2019-09-01T16:08:36Z</time>
      </trkpt>
      <trkpt lat="59.160368" lon="18.116966">
        <ele>0</ele>
        <time>2019-09-01T16:08:42Z</time>
      </trkpt>
      <trkpt lat="59.160422" lon="18.116877">
        <ele>53</ele>
        <time>2019-09-01T16:08:51Z</time>
      </trkpt>
      <trkpt lat="59.160452" lon="18.116846">
        <ele>53</ele>
        <time>2019-09-01T16:08:52Z</time>
      </trkpt>
      <trkpt lat="59.160484" lon="18.116811">
        <ele>53</ele>
        <time>2019-09-01T16:08:53Z</time>
      </trkpt>
      <trkpt lat="59.160518" lon="18.116772">
        <ele>53</ele>
        <time>2019-09-01T16:08:54Z</time>
      </trkpt>
      <trkpt lat="59.160553" lon="18.116732">
        <ele>52</ele>
        <time>2019-09-01T16:08:55Z</time>
      </trkpt>
      <trkpt lat="59.160588" lon="18.116691">
        <ele>52</ele>
        <time>2019-09-01T16:08:56Z</time>
      </trkpt>
      <trkpt lat="59.160625" lon="18.116658">
        <ele>52</ele>
        <time>2019-09-01T16:08:57Z</time>
      </trkpt>
      <trkpt lat="59.160662" lon="18.116626">
        <ele>52</ele>
        <time>2019-09-01T16:08:58Z</time>
      </trkpt>
      <trkpt lat="59.160699" lon="18.116593">
        <ele>52</ele>
        <time>2019-09-01T16:08:59Z</time>
      </trkpt>
      <trkpt lat="59.160737" lon="18.116564">
        <ele>51</ele>
        <time>2019-09-01T16:09:00Z</time>
      </trkpt>
      <trkpt lat="59.160774" lon="18.116539">
        <ele>51</ele>
        <time>2019-09-01T16:09:01Z</time>
      </trkpt>
      <trkpt lat="59.160812" lon="18.11651">
        <ele>51</ele>
        <time>2019-09-01T16:09:02Z</time>
      </trkpt>
      <trkpt lat="59.160851" lon="18.116482">
        <ele>51</ele>
        <time>2019-09-01T16:09:03Z</time>
      </trkpt>
      <trkpt lat="59.160892" lon="18.11646">
        <ele>50</ele>
        <time>2019-09-01T16:09:04Z</time>
      </trkpt>
      <trkpt lat="59.160932" lon="18.116435">
        <ele>50</ele>
        <time>2019-09-01T16:09:05Z</time>
      </trkpt>
      <trkpt lat="59.160972" lon="18.116401">
        <ele>50</ele>
        <time>2019-09-01T16:09:06Z</time>
      </trkpt>
      <trkpt lat="59.161012" lon="18.116364">
        <ele>50</ele>
        <time>2019-09-01T16:09:07Z</time>
      </trkpt>
      <trkpt lat="59.161051" lon="18.116326">
        <ele>50</ele>
        <time>2019-09-01T16:09:08Z</time>
      </trkpt>
      <trkpt lat="59.161089" lon="18.116286">
        <ele>50</ele>
        <time>2019-09-01T16:09:09Z</time>
      </trkpt>
      <trkpt lat="59.161128" lon="18.116243">
        <ele>49</ele>
        <time>2019-09-01T16:09:10Z</time>
      </trkpt>
      <trkpt lat="59.161164" lon="18.116199">
        <ele>49</ele>
        <time>2019-09-01T16:09:11Z</time>
      </trkpt>
      <trkpt lat="59.161204" lon="18.116158">
        <ele>49</ele>
        <time>2019-09-01T16:09:12Z</time>
      </trkpt>
      <trkpt lat="59.161244" lon="18.116127">
        <ele>49</ele>
        <time>2019-09-01T16:09:13Z</time>
      </trkpt>
      <trkpt lat="59.161285" lon="18.116103">
        <ele>49</ele>
        <time>2019-09-01T16:09:14Z</time>
      </trkpt>
      <trkpt lat="59.161326" lon="18.116083">
        <ele>49</ele>
        <time>2019-09-01T16:09:15Z</time>
      </trkpt>
      <trkpt lat="59.161364" lon="18.116063">
        <ele>49</ele>
        <time>2019-09-01T16:09:16Z</time>
      </trkpt>
      <trkpt lat="59.161404" lon="18.116042">
        <ele>49</ele>
        <time>2019-09-01T16:09:17Z</time>
      </trkpt>
      <trkpt lat="59.161444" lon="18.116025">
        <ele>49</ele>
        <time>2019-09-01T16:09:18Z</time>
      </trkpt>
      <trkpt lat="59.161484" lon="18.116013">
        <ele>49</ele>
        <time>2019-09-01T16:09:19Z</time>
      </trkpt>
      <trkpt lat="59.161528" lon="18.116015">
        <ele>49</ele>
        <time>2019-09-01T16:09:20Z</time>
      </trkpt>
      <trkpt lat="59.161573" lon="18.116024">
        <ele>48</ele>
        <time>2019-09-01T16:09:21Z</time>
      </trkpt>
      <trkpt lat="59.161617" lon="18.116048">
        <ele>48</ele>
        <time>2019-09-01T16:09:22Z</time>
      </trkpt>
      <trkpt lat="59.161661" lon="18.116079">
        <ele>48</ele>
        <time>2019-09-01T16:09:23Z</time>
      </trkpt>
      <trkpt lat="59.161705" lon="18.116114">
        <ele>48</ele>
        <time>2019-09-01T16:09:24Z</time>
      </trkpt>
      <trkpt lat="59.161746" lon="18.116153">
        <ele>48</ele>
        <time>2019-09-01T16:09:25Z</time>
      </trkpt>
      <trkpt lat="59.16179" lon="18.116182">
        <ele>48</ele>
        <time>2019-09-01T16:09:26Z</time>
      </trkpt>
      <trkpt lat="59.161834" lon="18.116192">
        <ele>48</ele>
        <time>2019-09-01T16:09:27Z</time>
      </trkpt>
      <trkpt lat="59.161878" lon="18.116184">
        <ele>48</ele>
        <time>2019-09-01T16:09:28Z</time>
      </trkpt>
      <trkpt lat="59.161922" lon="18.116162">
        <ele>48</ele>
        <time>2019-09-01T16:09:29Z</time>
      </trkpt>
      <trkpt lat="59.161968" lon="18.116135">
        <ele>48</ele>
        <time>2019-09-01T16:09:30Z</time>
      </trkpt>
      <trkpt lat="59.162013" lon="18.116102">
        <ele>48</ele>
        <time>2019-09-01T16:09:31Z</time>
      </trkpt>
      <trkpt lat="59.162054" lon="18.116067">
        <ele>48</ele>
        <time>2019-09-01T16:09:32Z</time>
      </trkpt>
      <trkpt lat="59.162094" lon="18.116029">
        <ele>48</ele>
        <time>2019-09-01T16:09:33Z</time>
      </trkpt>
      <trkpt lat="59.162134" lon="18.11599">
        <ele>48</ele>
        <time>2019-09-01T16:09:34Z</time>
      </trkpt>
      <trkpt lat="59.162172" lon="18.115951">
        <ele>48</ele>
        <time>2019-09-01T16:09:35Z</time>
      </trkpt>
      <trkpt lat="59.16221" lon="18.115914">
        <ele>48</ele>
        <time>2019-09-01T16:09:36Z</time>
      </trkpt>
      <trkpt lat="59.162247" lon="18.115877">
        <ele>48</ele>
        <time>2019-09-01T16:09:37Z</time>
      </trkpt>
      <trkpt lat="59.162285" lon="18.115845">
        <ele>48</ele>
        <time>2019-09-01T16:09:38Z</time>
      </trkpt>
      <trkpt lat="59.162325" lon="18.115817">
        <ele>48</ele>
        <time>2019-09-01T16:09:39Z</time>
      </trkpt>
      <trkpt lat="59.162364" lon="18.115788">
        <ele>48</ele>
        <time>2019-09-01T16:09:40Z</time>
      </trkpt>
      <trkpt lat="59.162402" lon="18.115764">
        <ele>48</ele>
        <time>2019-09-01T16:09:41Z</time>
      </trkpt>
      <trkpt lat="59.162436" lon="18.115736">
        <ele>48</ele>
        <time>2019-09-01T16:09:42Z</time>
      </trkpt>
      <trkpt lat="59.162465" lon="18.115691">
        <ele>48</ele>
        <time>2019-09-01T16:09:43Z</time>
      </trkpt>
      <trkpt lat="59.16249" lon="18.115636">
        <ele>48</ele>
        <time>2019-09-01T16:09:44Z</time>
      </trkpt>
      <trkpt lat="59.162507" lon="18.115575">
        <ele>48</ele>
        <time>2019-09-01T16:09:45Z</time>
      </trkpt>
      <trkpt lat="59.162518" lon="18.115511">
        <ele>48</ele>
        <time>2019-09-01T16:09:46Z</time>
      </trkpt>
      <trkpt lat="59.162525" lon="18.115451">
        <ele>48</ele>
        <time>2019-09-01T16:09:47Z</time>
      </trkpt>
      <trkpt lat="59.162532" lon="18.115395">
        <ele>48</ele>
        <time>2019-09-01T16:09:48Z</time>
      </trkpt>
      <trkpt lat="59.162534" lon="18.115345">
        <ele>48</ele>
        <time>2019-09-01T16:09:49Z</time>
      </trkpt>
      <trkpt lat="59.162534" lon="18.1153">
        <ele>48</ele>
        <time>2019-09-01T16:09:50Z</time>
      </trkpt>
      <trkpt lat="59.162534" lon="18.115262">
        <ele>48</ele>
        <time>2019-09-01T16:09:51Z</time>
      </trkpt>
      <trkpt lat="59.162534" lon="18.11521">
        <ele>49</ele>
        <time>2019-09-01T16:09:53Z</time>
      </trkpt>
      <trkpt lat="59.162532" lon="18.115166">
        <ele>49</ele>
        <time>2019-09-01T16:09:55Z</time>
      </trkpt>
      <trkpt lat="59.162524" lon="18.115164">
        <ele>48</ele>
        <time>2019-09-01T16:10:02Z</time>
      </trkpt>
      <trkpt lat="59.162522" lon="18.115183">
        <ele>49</ele>
        <time>2019-09-01T16:10:07Z</time>
      </trkpt>
      <trkpt lat="59.162522" lon="18.115184">
        <ele>0</ele>
        <time>2019-09-01T16:10:10Z</time>
      </trkpt>
      <trkpt lat="59.1625" lon="18.115203">
        <ele>50</ele>
        <time>2019-09-01T16:16:13Z</time>
      </trkpt>
      <trkpt lat="59.1625" lon="18.115203">
        <ele>50</ele>
        <time>2019-09-01T16:16:16Z</time>
      </trkpt>
      <trkpt lat="59.16249" lon="18.11524">
        <ele>52</ele>
        <time>2019-09-01T16:21:09Z</time>
      </trkpt>
      <trkpt lat="59.16249" lon="18.11524">
        <ele>0</ele>
        <time>2019-09-01T16:21:12Z</time>
      </trkpt>
      <trkpt lat="59.162516" lon="18.115304">
        <ele>52</ele>
        <time>2019-09-01T16:37:29Z</time>
      </trkpt>
      <trkpt lat="59.162519" lon="18.115349">
        <ele>52</ele>
        <time>2019-09-01T16:37:30Z</time>
      </trkpt>
      <trkpt lat="59.162519" lon="18.115395">
        <ele>52</ele>
        <time>2019-09-01T16:37:31Z</time>
      </trkpt>
      <trkpt lat="59.162514" lon="18.115444">
        <ele>52</ele>
        <time>2019-09-01T16:37:32Z</time>
      </trkpt>
      <trkpt lat="59.162508" lon="18.115491">
        <ele>52</ele>
        <time>2019-09-01T16:37:33Z</time>
      </trkpt>
      <trkpt lat="59.1625" lon="18.115541">
        <ele>52</ele>
        <time>2019-09-01T16:37:34Z</time>
      </trkpt>
      <trkpt lat="59.162494" lon="18.115593">
        <ele>52</ele>
        <time>2019-09-01T16:37:35Z</time>
      </trkpt>
      <trkpt lat="59.162482" lon="18.115644">
        <ele>52</ele>
        <time>2019-09-01T16:37:36Z</time>
      </trkpt>
      <trkpt lat="59.162466" lon="18.11569">
        <ele>52</ele>
        <time>2019-09-01T16:37:37Z</time>
      </trkpt>
      <trkpt lat="59.162444" lon="18.115722">
        <ele>52</ele>
        <time>2019-09-01T16:37:38Z</time>
      </trkpt>
      <trkpt lat="59.162416" lon="18.115744">
        <ele>52</ele>
        <time>2019-09-01T16:37:39Z</time>
      </trkpt>
      <trkpt lat="59.162387" lon="18.115762">
        <ele>52</ele>
        <time>2019-09-01T16:37:40Z</time>
      </trkpt>
      <trkpt lat="59.162358" lon="18.115776">
        <ele>52</ele>
        <time>2019-09-01T16:37:41Z</time>
      </trkpt>
      <trkpt lat="59.162332" lon="18.115791">
        <ele>52</ele>
        <time>2019-09-01T16:37:42Z</time>
      </trkpt>
      <trkpt lat="59.162308" lon="18.115811">
        <ele>52</ele>
        <time>2019-09-01T16:37:43Z</time>
      </trkpt>
      <trkpt lat="59.162282" lon="18.115835">
        <ele>52</ele>
        <time>2019-09-01T16:37:44Z</time>
      </trkpt>
      <trkpt lat="59.162256" lon="18.115858">
        <ele>52</ele>
        <time>2019-09-01T16:37:45Z</time>
      </trkpt>
      <trkpt lat="59.162228" lon="18.115877">
        <ele>52</ele>
        <time>2019-09-01T16:37:46Z</time>
      </trkpt>
      <trkpt lat="59.162202" lon="18.115902">
        <ele>52</ele>
        <time>2019-09-01T16:37:47Z</time>
      </trkpt>
      <trkpt lat="59.162177" lon="18.115934">
        <ele>52</ele>
        <time>2019-09-01T16:37:48Z</time>
      </trkpt>
      <trkpt lat="59.162148" lon="18.115965">
        <ele>52</ele>
        <time>2019-09-01T16:37:49Z</time>
      </trkpt>
      <trkpt lat="59.162118" lon="18.115992">
        <ele>52</ele>
        <time>2019-09-01T16:37:50Z</time>
      </trkpt>
      <trkpt lat="59.162088" lon="18.116017">
        <ele>52</ele>
        <time>2019-09-01T16:37:51Z</time>
      </trkpt>
      <trkpt lat="59.16206" lon="18.116042">
        <ele>52</ele>
        <time>2019-09-01T16:37:52Z</time>
      </trkpt>
      <trkpt lat="59.162029" lon="18.116062">
        <ele>52</ele>
        <time>2019-09-01T16:37:53Z</time>
      </trkpt>
      <trkpt lat="59.161996" lon="18.116082">
        <ele>52</ele>
        <time>2019-09-01T16:37:54Z</time>
      </trkpt>
      <trkpt lat="59.161964" lon="18.116102">
        <ele>52</ele>
        <time>2019-09-01T16:37:55Z</time>
      </trkpt>
      <trkpt lat="59.161934" lon="18.116124">
        <ele>52</ele>
        <time>2019-09-01T16:37:56Z</time>
      </trkpt>
      <trkpt lat="59.161903" lon="18.116146">
        <ele>52</ele>
        <time>2019-09-01T16:37:57Z</time>
      </trkpt>
      <trkpt lat="59.161874" lon="18.116165">
        <ele>52</ele>
        <time>2019-09-01T16:37:58Z</time>
      </trkpt>
      <trkpt lat="59.161843" lon="18.116177">
        <ele>52</ele>
        <time>2019-09-01T16:37:59Z</time>
      </trkpt>
      <trkpt lat="59.161812" lon="18.116177">
        <ele>52</ele>
        <time>2019-09-01T16:38:00Z</time>
      </trkpt>
      <trkpt lat="59.161782" lon="18.116161">
        <ele>51</ele>
        <time>2019-09-01T16:38:01Z</time>
      </trkpt>
      <trkpt lat="59.161751" lon="18.11613">
        <ele>51</ele>
        <time>2019-09-01T16:38:02Z</time>
      </trkpt>
      <trkpt lat="59.16172" lon="18.116097">
        <ele>51</ele>
        <time>2019-09-01T16:38:03Z</time>
      </trkpt>
      <trkpt lat="59.161687" lon="18.11607">
        <ele>51</ele>
        <time>2019-09-01T16:38:04Z</time>
      </trkpt>
      <trkpt lat="59.161653" lon="18.116049">
        <ele>51</ele>
        <time>2019-09-01T16:38:05Z</time>
      </trkpt>
      <trkpt lat="59.161619" lon="18.11603">
        <ele>51</ele>
        <time>2019-09-01T16:38:06Z</time>
      </trkpt>
      <trkpt lat="59.16159" lon="18.116017">
        <ele>51</ele>
        <time>2019-09-01T16:38:07Z</time>
      </trkpt>
      <trkpt lat="59.161561" lon="18.116011">
        <ele>51</ele>
        <time>2019-09-01T16:38:08Z</time>
      </trkpt>
      <trkpt lat="59.161533" lon="18.116008">
        <ele>51</ele>
        <time>2019-09-01T16:38:09Z</time>
      </trkpt>
      <trkpt lat="59.161501" lon="18.116013">
        <ele>51</ele>
        <time>2019-09-01T16:38:10Z</time>
      </trkpt>
      <trkpt lat="59.161468" lon="18.116022">
        <ele>51</ele>
        <time>2019-09-01T16:38:11Z</time>
      </trkpt>
      <trkpt lat="59.161437" lon="18.116035">
        <ele>51</ele>
        <time>2019-09-01T16:38:12Z</time>
      </trkpt>
      <trkpt lat="59.161407" lon="18.116051">
        <ele>51</ele>
        <time>2019-09-01T16:38:13Z</time>
      </trkpt>
      <trkpt lat="59.161375" lon="18.116065">
        <ele>51</ele>
        <time>2019-09-01T16:38:14Z</time>
      </trkpt>
      <trkpt lat="59.161343" lon="18.11608">
        <ele>51</ele>
        <time>2019-09-01T16:38:15Z</time>
      </trkpt>
      <trkpt lat="59.161316" lon="18.116098">
        <ele>51</ele>
        <time>2019-09-01T16:38:16Z</time>
      </trkpt>
      <trkpt lat="59.161286" lon="18.116117">
        <ele>51</ele>
        <time>2019-09-01T16:38:17Z</time>
      </trkpt>
      <trkpt lat="59.161256" lon="18.116139">
        <ele>51</ele>
        <time>2019-09-01T16:38:18Z</time>
      </trkpt>
      <trkpt lat="59.161227" lon="18.116167">
        <ele>51</ele>
        <time>2019-09-01T16:38:19Z</time>
      </trkpt>
      <trkpt lat="59.161199" lon="18.1162">
        <ele>51</ele>
        <time>2019-09-01T16:38:20Z</time>
      </trkpt>
      <trkpt lat="59.161171" lon="18.116233">
        <ele>51</ele>
        <time>2019-09-01T16:38:21Z</time>
      </trkpt>
      <trkpt lat="59.161141" lon="18.116264">
        <ele>51</ele>
        <time>2019-09-01T16:38:22Z</time>
      </trkpt>
      <trkpt lat="59.161111" lon="18.116295">
        <ele>51</ele>
        <time>2019-09-01T16:38:23Z</time>
      </trkpt>
      <trkpt lat="59.161079" lon="18.116326">
        <ele>51</ele>
        <time>2019-09-01T16:38:24Z</time>
      </trkpt>
      <trkpt lat="59.161048" lon="18.116357">
        <ele>50</ele>
        <time>2019-09-01T16:38:25Z</time>
      </trkpt>
      <trkpt lat="59.161016" lon="18.116389">
        <ele>50</ele>
        <time>2019-09-01T16:38:26Z</time>
      </trkpt>
      <trkpt lat="59.160984" lon="18.116419">
        <ele>50</ele>
        <time>2019-09-01T16:38:27Z</time>
      </trkpt>
      <trkpt lat="59.160953" lon="18.116447">
        <ele>50</ele>
        <time>2019-09-01T16:38:28Z</time>
      </trkpt>
      <trkpt lat="59.160922" lon="18.116476">
        <ele>50</ele>
        <time>2019-09-01T16:38:29Z</time>
      </trkpt>
      <trkpt lat="59.160891" lon="18.116504">
        <ele>50</ele>
        <time>2019-09-01T16:38:30Z</time>
      </trkpt>
      <trkpt lat="59.160859" lon="18.116532">
        <ele>49</ele>
        <time>2019-09-01T16:38:31Z</time>
      </trkpt>
      <trkpt lat="59.160828" lon="18.11656">
        <ele>49</ele>
        <time>2019-09-01T16:38:32Z</time>
      </trkpt>
      <trkpt lat="59.160799" lon="18.116589">
        <ele>49</ele>
        <time>2019-09-01T16:38:33Z</time>
      </trkpt>
      <trkpt lat="59.160772" lon="18.116619">
        <ele>50</ele>
        <time>2019-09-01T16:38:34Z</time>
      </trkpt>
      <trkpt lat="59.160745" lon="18.11665">
        <ele>49</ele>
        <time>2019-09-01T16:38:35Z</time>
      </trkpt>
      <trkpt lat="59.160715" lon="18.11668">
        <ele>49</ele>
        <time>2019-09-01T16:38:36Z</time>
      </trkpt>
      <trkpt lat="59.160684" lon="18.116708">
        <ele>49</ele>
        <time>2019-09-01T16:38:37Z</time>
      </trkpt>
      <trkpt lat="59.160652" lon="18.116739">
        <ele>49</ele>
        <time>2019-09-01T16:38:38Z</time>
      </trkpt>
      <trkpt lat="59.16062" lon="18.116773">
        <ele>49</ele>
        <time>2019-09-01T16:38:39Z</time>
      </trkpt>
      <trkpt lat="59.160589" lon="18.116809">
        <ele>49</ele>
        <time>2019-09-01T16:38:40Z</time>
      </trkpt>
      <trkpt lat="59.160558" lon="18.116843">
        <ele>49</ele>
        <time>2019-09-01T16:38:41Z</time>
      </trkpt>
      <trkpt lat="59.160528" lon="18.116878">
        <ele>49</ele>
        <time>2019-09-01T16:38:42Z</time>
      </trkpt>
      <trkpt lat="59.160498" lon="18.116911">
        <ele>49</ele>
        <time>2019-09-01T16:38:43Z</time>
      </trkpt>
      <trkpt lat="59.160469" lon="18.116943">
        <ele>49</ele>
        <time>2019-09-01T16:38:44Z</time>
      </trkpt>
      <trkpt lat="59.16044" lon="18.116976">
        <ele>49</ele>
        <time>2019-09-01T16:38:45Z</time>
      </trkpt>
      <trkpt lat="59.160411" lon="18.11701">
        <ele>49</ele>
        <time>2019-09-01T16:38:46Z</time>
      </trkpt>
      <trkpt lat="59.160381" lon="18.117048">
        <ele>49</ele>
        <time>2019-09-01T16:38:47Z</time>
      </trkpt>
      <trkpt lat="59.160356" lon="18.117086">
        <ele>49</ele>
        <time>2019-09-01T16:38:48Z</time>
      </trkpt>
      <trkpt lat="59.160332" lon="18.117123">
        <ele>50</ele>
        <time>2019-09-01T16:38:49Z</time>
      </trkpt>
      <trkpt lat="59.160308" lon="18.117158">
        <ele>50</ele>
        <time>2019-09-01T16:38:50Z</time>
      </trkpt>
      <trkpt lat="59.160286" lon="18.117186">
        <ele>50</ele>
        <time>2019-09-01T16:38:51Z</time>
      </trkpt>
      <trkpt lat="59.160264" lon="18.117209">
        <ele>50</ele>
        <time>2019-09-01T16:38:52Z</time>
      </trkpt>
      <trkpt lat="59.160242" lon="18.117231">
        <ele>51</ele>
        <time>2019-09-01T16:38:53Z</time>
      </trkpt>
      <trkpt lat="59.16022" lon="18.117252">
        <ele>51</ele>
        <time>2019-09-01T16:38:54Z</time>
      </trkpt>
      <trkpt lat="59.160198" lon="18.117269">
        <ele>51</ele>
        <time>2019-09-01T16:38:55Z</time>
      </trkpt>
      <trkpt lat="59.160181" lon="18.117284">
        <ele>51</ele>
        <time>2019-09-01T16:38:56Z</time>
      </trkpt>
      <trkpt lat="59.160164" lon="18.1173">
        <ele>52</ele>
        <time>2019-09-01T16:38:57Z</time>
      </trkpt>
      <trkpt lat="59.160145" lon="18.117321">
        <ele>52</ele>
        <time>2019-09-01T16:38:58Z</time>
      </trkpt>
      <trkpt lat="59.160126" lon="18.117342">
        <ele>53</ele>
        <time>2019-09-01T16:38:59Z</time>
      </trkpt>
      <trkpt lat="59.160107" lon="18.11736">
        <ele>53</ele>
        <time>2019-09-01T16:39:00Z</time>
      </trkpt>
      <trkpt lat="59.16009" lon="18.117381">
        <ele>54</ele>
        <time>2019-09-01T16:39:01Z</time>
      </trkpt>
      <trkpt lat="59.160073" lon="18.117403">
        <ele>54</ele>
        <time>2019-09-01T16:39:02Z</time>
      </trkpt>
      <trkpt lat="59.160055" lon="18.117423">
        <ele>55</ele>
        <time>2019-09-01T16:39:03Z</time>
      </trkpt>
      <trkpt lat="59.16004" lon="18.117444">
        <ele>55</ele>
        <time>2019-09-01T16:39:04Z</time>
      </trkpt>
      <trkpt lat="59.160025" lon="18.117468">
        <ele>55</ele>
        <time>2019-09-01T16:39:05Z</time>
      </trkpt>
      <trkpt lat="59.160008" lon="18.117494">
        <ele>56</ele>
        <time>2019-09-01T16:39:06Z</time>
      </trkpt>
      <trkpt lat="59.159992" lon="18.117515">
        <ele>56</ele>
        <time>2019-09-01T16:39:07Z</time>
      </trkpt>
      <trkpt lat="59.159973" lon="18.117531">
        <ele>57</ele>
        <time>2019-09-01T16:39:08Z</time>
      </trkpt>
      <trkpt lat="59.159955" lon="18.117548">
        <ele>57</ele>
        <time>2019-09-01T16:39:09Z</time>
      </trkpt>
      <trkpt lat="59.159937" lon="18.117569">
        <ele>57</ele>
        <time>2019-09-01T16:39:10Z</time>
      </trkpt>
      <trkpt lat="59.15992" lon="18.117586">
        <ele>58</ele>
        <time>2019-09-01T16:39:11Z</time>
      </trkpt>
      <trkpt lat="59.159893" lon="18.117618">
        <ele>58</ele>
        <time>2019-09-01T16:39:13Z</time>
      </trkpt>
      <trkpt lat="59.15987" lon="18.117648">
        <ele>59</ele>
        <time>2019-09-01T16:39:15Z</time>
      </trkpt>
      <trkpt lat="59.159863" lon="18.11767">
        <ele>0</ele>
        <time>2019-09-01T16:39:20Z</time>
      </trkpt>
      <trkpt lat="59.159757" lon="18.117691">
        <ele>61</ele>
        <time>2019-09-01T16:40:43Z</time>
      </trkpt>
      <trkpt lat="59.159725" lon="18.117684">
        <ele>61</ele>
        <time>2019-09-01T16:40:44Z</time>
      </trkpt>
      <trkpt lat="59.159688" lon="18.117673">
        <ele>62</ele>
        <time>2019-09-01T16:40:45Z</time>
      </trkpt>
      <trkpt lat="59.159651" lon="18.117661">
        <ele>62</ele>
        <time>2019-09-01T16:40:46Z</time>
      </trkpt>
      <trkpt lat="59.159616" lon="18.117646">
        <ele>62</ele>
        <time>2019-09-01T16:40:47Z</time>
      </trkpt>
      <trkpt lat="59.159582" lon="18.117633">
        <ele>62</ele>
        <time>2019-09-01T16:40:48Z</time>
      </trkpt>
      <trkpt lat="59.159541" lon="18.117618">
        <ele>62</ele>
        <time>2019-09-01T16:40:49Z</time>
      </trkpt>
      <trkpt lat="59.1595" lon="18.117605">
        <ele>62</ele>
        <time>2019-09-01T16:40:50Z</time>
      </trkpt>
      <trkpt lat="59.159462" lon="18.117597">
        <ele>62</ele>
        <time>2019-09-01T16:40:51Z</time>
      </trkpt>
      <trkpt lat="59.15942" lon="18.117594">
        <ele>62</ele>
        <time>2019-09-01T16:40:52Z</time>
      </trkpt>
      <trkpt lat="59.15938" lon="18.117589">
        <ele>62</ele>
        <time>2019-09-01T16:40:53Z</time>
      </trkpt>
      <trkpt lat="59.159343" lon="18.117579">
        <ele>62</ele>
        <time>2019-09-01T16:40:54Z</time>
      </trkpt>
      <trkpt lat="59.159309" lon="18.117567">
        <ele>62</ele>
        <time>2019-09-01T16:40:55Z</time>
      </trkpt>
      <trkpt lat="59.159279" lon="18.117553">
        <ele>63</ele>
        <time>2019-09-01T16:40:56Z</time>
      </trkpt>
      <trkpt lat="59.159248" lon="18.117551">
        <ele>62</ele>
        <time>2019-09-01T16:40:57Z</time>
      </trkpt>
      <trkpt lat="59.159221" lon="18.11756">
        <ele>62</ele>
        <time>2019-09-01T16:40:58Z</time>
      </trkpt>
      <trkpt lat="59.159199" lon="18.117567">
        <ele>62</ele>
        <time>2019-09-01T16:40:59Z</time>
      </trkpt>
      <trkpt lat="59.15918" lon="18.117568">
        <ele>62</ele>
        <time>2019-09-01T16:41:00Z</time>
      </trkpt>
      <trkpt lat="59.159152" lon="18.117546">
        <ele>62</ele>
        <time>2019-09-01T16:41:02Z</time>
      </trkpt>
      <trkpt lat="59.159132" lon="18.117537">
        <ele>62</ele>
        <time>2019-09-01T16:41:03Z</time>
      </trkpt>
      <trkpt lat="59.159114" lon="18.117534">
        <ele>62</ele>
        <time>2019-09-01T16:41:04Z</time>
      </trkpt>
      <trkpt lat="59.15909" lon="18.117525">
        <ele>62</ele>
        <time>2019-09-01T16:41:06Z</time>
      </trkpt>
      <trkpt lat="59.159071" lon="18.117544">
        <ele>62</ele>
        <time>2019-09-01T16:41:09Z</time>
      </trkpt>
      <trkpt lat="59.159065" lon="18.117547">
        <ele>0</ele>
        <time>2019-09-01T16:41:14Z</time>
      </trkpt>
      <trkpt lat="59.159012" lon="18.117544">
        <ele>63</ele>
        <time>2019-09-01T16:41:19Z</time>
      </trkpt>
      <trkpt lat="59.159" lon="18.117556">
        <ele>63</ele>
        <time>2019-09-01T16:41:20Z</time>
      </trkpt>
      <trkpt lat="59.158982" lon="18.117574">
        <ele>63</ele>
        <time>2019-09-01T16:41:21Z</time>
      </trkpt>
      <trkpt lat="59.15896" lon="18.117599">
        <ele>63</ele>
        <time>2019-09-01T16:41:22Z</time>
      </trkpt>
      <trkpt lat="59.158932" lon="18.117633">
        <ele>63</ele>
        <time>2019-09-01T16:41:23Z</time>
      </trkpt>
      <trkpt lat="59.158895" lon="18.117664">
        <ele>63</ele>
        <time>2019-09-01T16:41:24Z</time>
      </trkpt>
      <trkpt lat="59.158852" lon="18.11768">
        <ele>63</ele>
        <time>2019-09-01T16:41:25Z</time>
      </trkpt>
      <trkpt lat="59.158804" lon="18.117685">
        <ele>63</ele>
        <time>2019-09-01T16:41:26Z</time>
      </trkpt>
      <trkpt lat="59.158758" lon="18.117693">
        <ele>63</ele>
        <time>2019-09-01T16:41:27Z</time>
      </trkpt>
      <trkpt lat="59.158711" lon="18.117709">
        <ele>63</ele>
        <time>2019-09-01T16:41:28Z</time>
      </trkpt>
      <trkpt lat="59.158672" lon="18.117735">
        <ele>63</ele>
        <time>2019-09-01T16:41:29Z</time>
      </trkpt>
      <trkpt lat="59.158634" lon="18.117764">
        <ele>63</ele>
        <time>2019-09-01T16:41:30Z</time>
      </trkpt>
      <trkpt lat="59.158602" lon="18.117795">
        <ele>63</ele>
        <time>2019-09-01T16:41:31Z</time>
      </trkpt>
      <trkpt lat="59.158563" lon="18.117833">
        <ele>63</ele>
        <time>2019-09-01T16:41:32Z</time>
      </trkpt>
      <trkpt lat="59.158526" lon="18.117884">
        <ele>63</ele>
        <time>2019-09-01T16:41:33Z</time>
      </trkpt>
      <trkpt lat="59.158488" lon="18.117949">
        <ele>63</ele>
        <time>2019-09-01T16:41:34Z</time>
      </trkpt>
      <trkpt lat="59.158456" lon="18.118018">
        <ele>63</ele>
        <time>2019-09-01T16:41:35Z</time>
      </trkpt>
      <trkpt lat="59.15843" lon="18.118088">
        <ele>63</ele>
        <time>2019-09-01T16:41:36Z</time>
      </trkpt>
      <trkpt lat="59.158418" lon="18.118163">
        <ele>63</ele>
        <time>2019-09-01T16:41:37Z</time>
      </trkpt>
      <trkpt lat="59.158415" lon="18.11824">
        <ele>63</ele>
        <time>2019-09-01T16:41:38Z</time>
      </trkpt>
      <trkpt lat="59.158429" lon="18.1183">
        <ele>63</ele>
        <time>2019-09-01T16:41:39Z</time>
      </trkpt>
      <trkpt lat="59.158448" lon="18.118345">
        <ele>63</ele>
        <time>2019-09-01T16:41:40Z</time>
      </trkpt>
      <trkpt lat="59.158475" lon="18.118375">
        <ele>63</ele>
        <time>2019-09-01T16:41:41Z</time>
      </trkpt>
      <trkpt lat="59.158506" lon="18.118401">
        <ele>63</ele>
        <time>2019-09-01T16:41:42Z</time>
      </trkpt>
      <trkpt lat="59.158532" lon="18.118424">
        <ele>63</ele>
        <time>2019-09-01T16:41:43Z</time>
      </trkpt>
      <trkpt lat="59.158556" lon="18.118455">
        <ele>64</ele>
        <time>2019-09-01T16:41:44Z</time>
      </trkpt>
      <trkpt lat="59.158579" lon="18.118493">
        <ele>64</ele>
        <time>2019-09-01T16:41:45Z</time>
      </trkpt>
      <trkpt lat="59.158598" lon="18.118539">
        <ele>64</ele>
        <time>2019-09-01T16:41:46Z</time>
      </trkpt>
      <trkpt lat="59.158614" lon="18.118592">
        <ele>64</ele>
        <time>2019-09-01T16:41:47Z</time>
      </trkpt>
      <trkpt lat="59.158628" lon="18.118644">
        <ele>64</ele>
        <time>2019-09-01T16:41:48Z</time>
      </trkpt>
      <trkpt lat="59.158644" lon="18.118697">
        <ele>64</ele>
        <time>2019-09-01T16:41:49Z</time>
      </trkpt>
      <trkpt lat="59.158655" lon="18.118751">
        <ele>64</ele>
        <time>2019-09-01T16:41:50Z</time>
      </trkpt>
      <trkpt lat="59.158666" lon="18.118811">
        <ele>64</ele>
        <time>2019-09-01T16:41:51Z</time>
      </trkpt>
      <trkpt lat="59.158675" lon="18.118885">
        <ele>64</ele>
        <time>2019-09-01T16:41:52Z</time>
      </trkpt>
      <trkpt lat="59.15868" lon="18.118958">
        <ele>64</ele>
        <time>2019-09-01T16:41:53Z</time>
      </trkpt>
      <trkpt lat="59.158683" lon="18.119026">
        <ele>65</ele>
        <time>2019-09-01T16:41:54Z</time>
      </trkpt>
      <trkpt lat="59.158684" lon="18.119097">
        <ele>65</ele>
        <time>2019-09-01T16:41:55Z</time>
      </trkpt>
      <trkpt lat="59.158682" lon="18.119169">
        <ele>65</ele>
        <time>2019-09-01T16:41:56Z</time>
      </trkpt>
      <trkpt lat="59.158682" lon="18.119247">
        <ele>65</ele>
        <time>2019-09-01T16:41:57Z</time>
      </trkpt>
      <trkpt lat="59.158682" lon="18.119331">
        <ele>65</ele>
        <time>2019-09-01T16:41:58Z</time>
      </trkpt>
      <trkpt lat="59.158683" lon="18.11941">
        <ele>65</ele>
        <time>2019-09-01T16:41:59Z</time>
      </trkpt>
      <trkpt lat="59.158689" lon="18.119491">
        <ele>65</ele>
        <time>2019-09-01T16:42:00Z</time>
      </trkpt>
      <trkpt lat="59.1587" lon="18.119571">
        <ele>65</ele>
        <time>2019-09-01T16:42:01Z</time>
      </trkpt>
      <trkpt lat="59.158702" lon="18.119647">
        <ele>65</ele>
        <time>2019-09-01T16:42:02Z</time>
      </trkpt>
      <trkpt lat="59.158708" lon="18.119723">
        <ele>65</ele>
        <time>2019-09-01T16:42:03Z</time>
      </trkpt>
      <trkpt lat="59.158711" lon="18.119792">
        <ele>65</ele>
        <time>2019-09-01T16:42:04Z</time>
      </trkpt>
      <trkpt lat="59.158715" lon="18.119868">
        <ele>65</ele>
        <time>2019-09-01T16:42:05Z</time>
      </trkpt>
      <trkpt lat="59.158718" lon="18.119942">
        <ele>64</ele>
        <time>2019-09-01T16:42:06Z</time>
      </trkpt>
      <trkpt lat="59.158719" lon="18.120014">
        <ele>64</ele>
        <time>2019-09-01T16:42:07Z</time>
      </trkpt>
      <trkpt lat="59.15872" lon="18.120082">
        <ele>64</ele>
        <time>2019-09-01T16:42:08Z</time>
      </trkpt>
      <trkpt lat="59.158717" lon="18.12015">
        <ele>64</ele>
        <time>2019-09-01T16:42:09Z</time>
      </trkpt>
      <trkpt lat="59.158711" lon="18.120217">
        <ele>64</ele>
        <time>2019-09-01T16:42:10Z</time>
      </trkpt>
      <trkpt lat="59.158704" lon="18.120263">
        <ele>64</ele>
        <time>2019-09-01T16:42:11Z</time>
      </trkpt>
      <trkpt lat="59.158684" lon="18.120317">
        <ele>64</ele>
        <time>2019-09-01T16:42:13Z</time>
      </trkpt>
      <trkpt lat="59.158655" lon="18.120341">
        <ele>64</ele>
        <time>2019-09-01T16:42:15Z</time>
      </trkpt>
      <trkpt lat="59.158637" lon="18.120361">
        <ele>63</ele>
        <time>2019-09-01T16:42:16Z</time>
      </trkpt>
      <trkpt lat="59.15862" lon="18.12038">
        <ele>63</ele>
        <time>2019-09-01T16:42:17Z</time>
      </trkpt>
      <trkpt lat="59.158589" lon="18.120415">
        <ele>63</ele>
        <time>2019-09-01T16:42:19Z</time>
      </trkpt>
      <trkpt lat="59.158567" lon="18.120456">
        <ele>63</ele>
        <time>2019-09-01T16:42:21Z</time>
      </trkpt>
      <trkpt lat="59.158557" lon="18.120491">
        <ele>63</ele>
        <time>2019-09-01T16:42:23Z</time>
      </trkpt>
      <trkpt lat="59.15855" lon="18.120539">
        <ele>63</ele>
        <time>2019-09-01T16:42:25Z</time>
      </trkpt>
      <trkpt lat="59.15854" lon="18.12059">
        <ele>63</ele>
        <time>2019-09-01T16:42:27Z</time>
      </trkpt>
      <trkpt lat="59.158523" lon="18.120618">
        <ele>63</ele>
        <time>2019-09-01T16:42:29Z</time>
      </trkpt>
      <trkpt lat="59.158501" lon="18.12064">
        <ele>63</ele>
        <time>2019-09-01T16:42:31Z</time>
      </trkpt>
      <trkpt lat="59.158484" lon="18.120668">
        <ele>63</ele>
        <time>2019-09-01T16:42:33Z</time>
      </trkpt>
      <trkpt lat="59.158463" lon="18.120689">
        <ele>63</ele>
        <time>2019-09-01T16:42:35Z</time>
      </trkpt>
      <trkpt lat="59.158444" lon="18.120711">
        <ele>64</ele>
        <time>2019-09-01T16:42:37Z</time>
      </trkpt>
      <trkpt lat="59.158426" lon="18.12074">
        <ele>64</ele>
        <time>2019-09-01T16:42:39Z</time>
      </trkpt>
      <trkpt lat="59.158416" lon="18.120768">
        <ele>63</ele>
        <time>2019-09-01T16:42:40Z</time>
      </trkpt>
      <trkpt lat="59.158403" lon="18.120805">
        <ele>63</ele>
        <time>2019-09-01T16:42:41Z</time>
      </trkpt>
      <trkpt lat="59.158393" lon="18.120837">
        <ele>63</ele>
        <time>2019-09-01T16:42:42Z</time>
      </trkpt>
      <trkpt lat="59.158383" lon="18.120868">
        <ele>63</ele>
        <time>2019-09-01T16:42:43Z</time>
      </trkpt>
      <trkpt lat="59.158372" lon="18.120908">
        <ele>63</ele>
        <time>2019-09-01T16:42:44Z</time>
      </trkpt>
      <trkpt lat="59.158363" lon="18.120941">
        <ele>63</ele>
        <time>2019-09-01T16:42:45Z</time>
      </trkpt>
      <trkpt lat="59.158349" lon="18.121">
        <ele>63</ele>
        <time>2019-09-01T16:42:47Z</time>
      </trkpt>
      <trkpt lat="59.158354" lon="18.121044">
        <ele>63</ele>
        <time>2019-09-01T16:42:49Z</time>
      </trkpt>
      <trkpt lat="59.158371" lon="18.121091">
        <ele>63</ele>
        <time>2019-09-01T16:42:51Z</time>
      </trkpt>
      <trkpt lat="59.158384" lon="18.121147">
        <ele>63</ele>
        <time>2019-09-01T16:42:53Z</time>
      </trkpt>
      <trkpt lat="59.158383" lon="18.121189">
        <ele>63</ele>
        <time>2019-09-01T16:42:56Z</time>
      </trkpt>
      <trkpt lat="59.158383" lon="18.12119">
        <ele>0</ele>
        <time>2019-09-01T16:43:00Z</time>
      </trkpt>
      <trkpt lat="59.158363" lon="18.121264">
        <ele>63</ele>
        <time>2019-09-01T16:44:23Z</time>
      </trkpt>
      <trkpt lat="59.158348" lon="18.121297">
        <ele>63</ele>
        <time>2019-09-01T16:44:24Z</time>
      </trkpt>
      <trkpt lat="59.158327" lon="18.12133">
        <ele>63</ele>
        <time>2019-09-01T16:44:25Z</time>
      </trkpt>
      <trkpt lat="59.158304" lon="18.121357">
        <ele>63</ele>
        <time>2019-09-01T16:44:26Z</time>
      </trkpt>
      <trkpt lat="59.158277" lon="18.121378">
        <ele>63</ele>
        <time>2019-09-01T16:44:27Z</time>
      </trkpt>
      <trkpt lat="59.15825" lon="18.121399">
        <ele>63</ele>
        <time>2019-09-01T16:44:28Z</time>
      </trkpt>
      <trkpt lat="59.158221" lon="18.121416">
        <ele>63</ele>
        <time>2019-09-01T16:44:29Z</time>
      </trkpt>
      <trkpt lat="59.158193" lon="18.121423">
        <ele>63</ele>
        <time>2019-09-01T16:44:30Z</time>
      </trkpt>
      <trkpt lat="59.158164" lon="18.121429">
        <ele>63</ele>
        <time>2019-09-01T16:44:31Z</time>
      </trkpt>
      <trkpt lat="59.158135" lon="18.121441">
        <ele>63</ele>
        <time>2019-09-01T16:44:32Z</time>
      </trkpt>
      <trkpt lat="59.158106" lon="18.121452">
        <ele>63</ele>
        <time>2019-09-01T16:44:33Z</time>
      </trkpt>
      <trkpt lat="59.158077" lon="18.121463">
        <ele>63</ele>
        <time>2019-09-01T16:44:34Z</time>
      </trkpt>
      <trkpt lat="59.158049" lon="18.121483">
        <ele>63</ele>
        <time>2019-09-01T16:44:35Z</time>
      </trkpt>
      <trkpt lat="59.158019" lon="18.121511">
        <ele>63</ele>
        <time>2019-09-01T16:44:36Z</time>
      </trkpt>
      <trkpt lat="59.157989" lon="18.121539">
        <ele>63</ele>
        <time>2019-09-01T16:44:37Z</time>
      </trkpt>
      <trkpt lat="59.157958" lon="18.121571">
        <ele>63</ele>
        <time>2019-09-01T16:44:38Z</time>
      </trkpt>
      <trkpt lat="59.157929" lon="18.121616">
        <ele>63</ele>
        <time>2019-09-01T16:44:39Z</time>
      </trkpt>
      <trkpt lat="59.157905" lon="18.121668">
        <ele>62</ele>
        <time>2019-09-01T16:44:40Z</time>
      </trkpt>
      <trkpt lat="59.157891" lon="18.121717">
        <ele>62</ele>
        <time>2019-09-01T16:44:41Z</time>
      </trkpt>
      <trkpt lat="59.157884" lon="18.121754">
        <ele>62</ele>
        <time>2019-09-01T16:44:42Z</time>
      </trkpt>
      <trkpt lat="59.157879" lon="18.12179">
        <ele>62</ele>
        <time>2019-09-01T16:44:43Z</time>
      </trkpt>
      <trkpt lat="59.15788" lon="18.121853">
        <ele>62</ele>
        <time>2019-09-01T16:44:45Z</time>
      </trkpt>
      <trkpt lat="59.15788" lon="18.121905">
        <ele>62</ele>
        <time>2019-09-01T16:44:47Z</time>
      </trkpt>
      <trkpt lat="59.157879" lon="18.121961">
        <ele>62</ele>
        <time>2019-09-01T16:44:49Z</time>
      </trkpt>
      <trkpt lat="59.157872" lon="18.122008">
        <ele>61</ele>
        <time>2019-09-01T16:44:51Z</time>
      </trkpt>
      <trkpt lat="59.157861" lon="18.122066">
        <ele>61</ele>
        <time>2019-09-01T16:44:53Z</time>
      </trkpt>
      <trkpt lat="59.157855" lon="18.122102">
        <ele>61</ele>
        <time>2019-09-01T16:44:54Z</time>
      </trkpt>
      <trkpt lat="59.157849" lon="18.122151">
        <ele>61</ele>
        <time>2019-09-01T16:44:55Z</time>
      </trkpt>
      <trkpt lat="59.157843" lon="18.122204">
        <ele>61</ele>
        <time>2019-09-01T16:44:56Z</time>
      </trkpt>
      <trkpt lat="59.157839" lon="18.122253">
        <ele>61</ele>
        <time>2019-09-01T16:44:57Z</time>
      </trkpt>
      <trkpt lat="59.157843" lon="18.122325">
        <ele>60</ele>
        <time>2019-09-01T16:44:59Z</time>
      </trkpt>
      <trkpt lat="59.157849" lon="18.122364">
        <ele>60</ele>
        <time>2019-09-01T16:45:01Z</time>
      </trkpt>
      <trkpt lat="59.157864" lon="18.12239">
        <ele>0</ele>
        <time>2019-09-01T16:45:06Z</time>
      </trkpt>
      <trkpt lat="59.157922" lon="18.12251">
        <ele>60</ele>
        <time>2019-09-01T16:45:17Z</time>
      </trkpt>
      <trkpt lat="59.157942" lon="18.122533">
        <ele>59</ele>
        <time>2019-09-01T16:45:19Z</time>
      </trkpt>
      <trkpt lat="59.157956" lon="18.122565">
        <ele>59</ele>
        <time>2019-09-01T16:45:21Z</time>
      </trkpt>
      <trkpt lat="59.157982" lon="18.122613">
        <ele>59</ele>
        <time>2019-09-01T16:45:23Z</time>
      </trkpt>
      <trkpt lat="59.157994" lon="18.122643">
        <ele>60</ele>
        <time>2019-09-01T16:45:24Z</time>
      </trkpt>
      <trkpt lat="59.158004" lon="18.122673">
        <ele>60</ele>
        <time>2019-09-01T16:45:25Z</time>
      </trkpt>
      <trkpt lat="59.158013" lon="18.122706">
        <ele>59</ele>
        <time>2019-09-01T16:45:29Z</time>
      </trkpt>
      <trkpt lat="59.158022" lon="18.122714">
        <ele>0</ele>
        <time>2019-09-01T16:45:36Z</time>
      </trkpt>
      <trkpt lat="59.158064" lon="18.122775">
        <ele>59</ele>
        <time>2019-09-01T16:47:03Z</time>
      </trkpt>
      <trkpt lat="59.158086" lon="18.122786">
        <ele>59</ele>
        <time>2019-09-01T16:47:04Z</time>
      </trkpt>
      <trkpt lat="59.158112" lon="18.122799">
        <ele>59</ele>
        <time>2019-09-01T16:47:05Z</time>
      </trkpt>
      <trkpt lat="59.158138" lon="18.122814">
        <ele>59</ele>
        <time>2019-09-01T16:47:06Z</time>
      </trkpt>
      <trkpt lat="59.158164" lon="18.122818">
        <ele>59</ele>
        <time>2019-09-01T16:47:07Z</time>
      </trkpt>
      <trkpt lat="59.158196" lon="18.122821">
        <ele>59</ele>
        <time>2019-09-01T16:47:08Z</time>
      </trkpt>
      <trkpt lat="59.15823" lon="18.122825">
        <ele>59</ele>
        <time>2019-09-01T16:47:09Z</time>
      </trkpt>
      <trkpt lat="59.158266" lon="18.122826">
        <ele>60</ele>
        <time>2019-09-01T16:47:10Z</time>
      </trkpt>
      <trkpt lat="59.158306" lon="18.122837">
        <ele>60</ele>
        <time>2019-09-01T16:47:11Z</time>
      </trkpt>
      <trkpt lat="59.158357" lon="18.12285">
        <ele>60</ele>
        <time>2019-09-01T16:47:12Z</time>
      </trkpt>
      <trkpt lat="59.158411" lon="18.122866">
        <ele>60</ele>
        <time>2019-09-01T16:47:13Z</time>
      </trkpt>
      <trkpt lat="59.158468" lon="18.122882">
        <ele>60</ele>
        <time>2019-09-01T16:47:14Z</time>
      </trkpt>
      <trkpt lat="59.158519" lon="18.122898">
        <ele>60</ele>
        <time>2019-09-01T16:47:15Z</time>
      </trkpt>
      <trkpt lat="59.158569" lon="18.122912">
        <ele>60</ele>
        <time>2019-09-01T16:47:16Z</time>
      </trkpt>
      <trkpt lat="59.15862" lon="18.122927">
        <ele>60</ele>
        <time>2019-09-01T16:47:17Z</time>
      </trkpt>
      <trkpt lat="59.158667" lon="18.12295">
        <ele>60</ele>
        <time>2019-09-01T16:47:18Z</time>
      </trkpt>
      <trkpt lat="59.158719" lon="18.122967">
        <ele>60</ele>
        <time>2019-09-01T16:47:19Z</time>
      </trkpt>
      <trkpt lat="59.158788" lon="18.122987">
        <ele>60</ele>
        <time>2019-09-01T16:47:20Z</time>
      </trkpt>
      <trkpt lat="59.158856" lon="18.123023">
        <ele>60</ele>
        <time>2019-09-01T16:47:21Z</time>
      </trkpt>
      <trkpt lat="59.158918" lon="18.123054">
        <ele>60</ele>
        <time>2019-09-01T16:47:23Z</time>
      </trkpt>
      <trkpt lat="59.158978" lon="18.123082">
        <ele>60</ele>
        <time>2019-09-01T16:47:23Z</time>
      </trkpt>
      <trkpt lat="59.159041" lon="18.123108">
        <ele>60</ele>
        <time>2019-09-01T16:47:24Z</time>
      </trkpt>
      <trkpt lat="59.159109" lon="18.123136">
        <ele>60</ele>
        <time>2019-09-01T16:47:25Z</time>
      </trkpt>
      <trkpt lat="59.159186" lon="18.123171">
        <ele>59</ele>
        <time>2019-09-01T16:47:26Z</time>
      </trkpt>
      <trkpt lat="59.159266" lon="18.123198">
        <ele>59</ele>
        <time>2019-09-01T16:47:27Z</time>
      </trkpt>
      <trkpt lat="59.159343" lon="18.123206">
        <ele>59</ele>
        <time>2019-09-01T16:47:28Z</time>
      </trkpt>
      <trkpt lat="59.15942" lon="18.123211">
        <ele>59</ele>
        <time>2019-09-01T16:47:29Z</time>
      </trkpt>
      <trkpt lat="59.15949" lon="18.123209">
        <ele>59</ele>
        <time>2019-09-01T16:47:30Z</time>
      </trkpt>
      <trkpt lat="59.159553" lon="18.123221">
        <ele>59</ele>
        <time>2019-09-01T16:47:31Z</time>
      </trkpt>
      <trkpt lat="59.159596" lon="18.123213">
        <ele>59</ele>
        <time>2019-09-01T16:47:32Z</time>
      </trkpt>
      <trkpt lat="59.159637" lon="18.1232">
        <ele>59</ele>
        <time>2019-09-01T16:47:33Z</time>
      </trkpt>
      <trkpt lat="59.159671" lon="18.12318">
        <ele>59</ele>
        <time>2019-09-01T16:47:34Z</time>
      </trkpt>
      <trkpt lat="59.1597" lon="18.123172">
        <ele>60</ele>
        <time>2019-09-01T16:47:35Z</time>
      </trkpt>
      <trkpt lat="59.159726" lon="18.123166">
        <ele>60</ele>
        <time>2019-09-01T16:47:36Z</time>
      </trkpt>
      <trkpt lat="59.159748" lon="18.12316">
        <ele>60</ele>
        <time>2019-09-01T16:47:37Z</time>
      </trkpt>
      <trkpt lat="59.159773" lon="18.123157">
        <ele>60</ele>
        <time>2019-09-01T16:47:38Z</time>
      </trkpt>
      <trkpt lat="59.159797" lon="18.123151">
        <ele>60</ele>
        <time>2019-09-01T16:47:39Z</time>
      </trkpt>
      <trkpt lat="59.15982" lon="18.123141">
        <ele>60</ele>
        <time>2019-09-01T16:47:40Z</time>
      </trkpt>
      <trkpt lat="59.159843" lon="18.123137">
        <ele>60</ele>
        <time>2019-09-01T16:47:41Z</time>
      </trkpt>
      <trkpt lat="59.159864" lon="18.123133">
        <ele>60</ele>
        <time>2019-09-01T16:47:42Z</time>
      </trkpt>
      <trkpt lat="59.159897" lon="18.123139">
        <ele>60</ele>
        <time>2019-09-01T16:47:44Z</time>
      </trkpt>
      <trkpt lat="59.159923" lon="18.123152">
        <ele>60</ele>
        <time>2019-09-01T16:47:46Z</time>
      </trkpt>
      <trkpt lat="59.159948" lon="18.123155">
        <ele>60</ele>
        <time>2019-09-01T16:47:48Z</time>
      </trkpt>
      <trkpt lat="59.159974" lon="18.12316">
        <ele>60</ele>
        <time>2019-09-01T16:47:50Z</time>
      </trkpt>
      <trkpt lat="59.15997" lon="18.123163">
        <ele>0</ele>
        <time>2019-09-01T16:47:55Z</time>
      </trkpt>
      <trkpt lat="59.160042" lon="18.123164">
        <ele>60</ele>
        <time>2019-09-01T16:49:02Z</time>
      </trkpt>
      <trkpt lat="59.160065" lon="18.123163">
        <ele>60</ele>
        <time>2019-09-01T16:49:03Z</time>
      </trkpt>
      <trkpt lat="59.16009" lon="18.123155">
        <ele>60</ele>
        <time>2019-09-01T16:49:04Z</time>
      </trkpt>
      <trkpt lat="59.16012" lon="18.123146">
        <ele>60</ele>
        <time>2019-09-01T16:49:05Z</time>
      </trkpt>
      <trkpt lat="59.160154" lon="18.12313">
        <ele>60</ele>
        <time>2019-09-01T16:49:06Z</time>
      </trkpt>
      <trkpt lat="59.160193" lon="18.123106">
        <ele>60</ele>
        <time>2019-09-01T16:49:07Z</time>
      </trkpt>
      <trkpt lat="59.160231" lon="18.123092">
        <ele>59</ele>
        <time>2019-09-01T16:49:08Z</time>
      </trkpt>
      <trkpt lat="59.160275" lon="18.123081">
        <ele>59</ele>
        <time>2019-09-01T16:49:09Z</time>
      </trkpt>
      <trkpt lat="59.160322" lon="18.123075">
        <ele>59</ele>
        <time>2019-09-01T16:49:10Z</time>
      </trkpt>
      <trkpt lat="59.160358" lon="18.123072">
        <ele>59</ele>
        <time>2019-09-01T16:49:11Z</time>
      </trkpt>
      <trkpt lat="59.16039" lon="18.123076">
        <ele>59</ele>
        <time>2019-09-01T16:49:12Z</time>
      </trkpt>
      <trkpt lat="59.160419" lon="18.123099">
        <ele>59</ele>
        <time>2019-09-01T16:49:13Z</time>
      </trkpt>
      <trkpt lat="59.16045" lon="18.12315">
        <ele>59</ele>
        <time>2019-09-01T16:49:14Z</time>
      </trkpt>
      <trkpt lat="59.160475" lon="18.123243">
        <ele>58</ele>
        <time>2019-09-01T16:49:15Z</time>
      </trkpt>
      <trkpt lat="59.160495" lon="18.12335">
        <ele>58</ele>
        <time>2019-09-01T16:49:16Z</time>
      </trkpt>
      <trkpt lat="59.160514" lon="18.123456">
        <ele>58</ele>
        <time>2019-09-01T16:49:17Z</time>
      </trkpt>
      <trkpt lat="59.160527" lon="18.123542">
        <ele>58</ele>
        <time>2019-09-01T16:49:18Z</time>
      </trkpt>
      <trkpt lat="59.160545" lon="18.123598">
        <ele>58</ele>
        <time>2019-09-01T16:49:19Z</time>
      </trkpt>
      <trkpt lat="59.160564" lon="18.123631">
        <ele>58</ele>
        <time>2019-09-01T16:49:20Z</time>
      </trkpt>
      <trkpt lat="59.160587" lon="18.123673">
        <ele>58</ele>
        <time>2019-09-01T16:49:21Z</time>
      </trkpt>
      <trkpt lat="59.160606" lon="18.123711">
        <ele>58</ele>
        <time>2019-09-01T16:49:22Z</time>
      </trkpt>
      <trkpt lat="59.160628" lon="18.123737">
        <ele>57</ele>
        <time>2019-09-01T16:49:23Z</time>
      </trkpt>
      <trkpt lat="59.160645" lon="18.12376">
        <ele>57</ele>
        <time>2019-09-01T16:49:24Z</time>
      </trkpt>
      <trkpt lat="59.160643" lon="18.123761">
        <ele>0</ele>
        <time>2019-09-01T16:49:30Z</time>
      </trkpt>
      <trkpt lat="59.160694" lon="18.123793">
        <ele>56</ele>
        <time>2019-09-01T16:49:41Z</time>
      </trkpt>
      <trkpt lat="59.160714" lon="18.123792">
        <ele>55</ele>
        <time>2019-09-01T16:49:42Z</time>
      </trkpt>
      <trkpt lat="59.160737" lon="18.123789">
        <ele>55</ele>
        <time>2019-09-01T16:49:43Z</time>
      </trkpt>
      <trkpt lat="59.160762" lon="18.123788">
        <ele>55</ele>
        <time>2019-09-01T16:49:44Z</time>
      </trkpt>
      <trkpt lat="59.160788" lon="18.123783">
        <ele>55</ele>
        <time>2019-09-01T16:49:45Z</time>
      </trkpt>
      <trkpt lat="59.160823" lon="18.123781">
        <ele>55</ele>
        <time>2019-09-01T16:49:46Z</time>
      </trkpt>
      <trkpt lat="59.160864" lon="18.12379">
        <ele>55</ele>
        <time>2019-09-01T16:49:47Z</time>
      </trkpt>
      <trkpt lat="59.160898" lon="18.123815">
        <ele>55</ele>
        <time>2019-09-01T16:49:48Z</time>
      </trkpt>
      <trkpt lat="59.160922" lon="18.123859">
        <ele>55</ele>
        <time>2019-09-01T16:49:49Z</time>
      </trkpt>
      <trkpt lat="59.160946" lon="18.123915">
        <ele>55</ele>
        <time>2019-09-01T16:49:50Z</time>
      </trkpt>
      <trkpt lat="59.160965" lon="18.123981">
        <ele>55</ele>
        <time>2019-09-01T16:49:51Z</time>
      </trkpt>
      <trkpt lat="59.160983" lon="18.124032">
        <ele>55</ele>
        <time>2019-09-01T16:49:52Z</time>
      </trkpt>
      <trkpt lat="59.161002" lon="18.124076">
        <ele>55</ele>
        <time>2019-09-01T16:49:53Z</time>
      </trkpt>
      <trkpt lat="59.161023" lon="18.12411">
        <ele>55</ele>
        <time>2019-09-01T16:49:54Z</time>
      </trkpt>
      <trkpt lat="59.161045" lon="18.124137">
        <ele>55</ele>
        <time>2019-09-01T16:49:55Z</time>
      </trkpt>
      <trkpt lat="59.161063" lon="18.124159">
        <ele>55</ele>
        <time>2019-09-01T16:49:56Z</time>
      </trkpt>
      <trkpt lat="59.161081" lon="18.124187">
        <ele>55</ele>
        <time>2019-09-01T16:49:57Z</time>
      </trkpt>
      <trkpt lat="59.161098" lon="18.124214">
        <ele>55</ele>
        <time>2019-09-01T16:49:58Z</time>
      </trkpt>
      <trkpt lat="59.161113" lon="18.12425">
        <ele>56</ele>
        <time>2019-09-01T16:49:59Z</time>
      </trkpt>
      <trkpt lat="59.161126" lon="18.124288">
        <ele>55</ele>
        <time>2019-09-01T16:50:00Z</time>
      </trkpt>
      <trkpt lat="59.161132" lon="18.124328">
        <ele>55</ele>
        <time>2019-09-01T16:50:01Z</time>
      </trkpt>
      <trkpt lat="59.161136" lon="18.124363">
        <ele>55</ele>
        <time>2019-09-01T16:50:02Z</time>
      </trkpt>
      <trkpt lat="59.161139" lon="18.124411">
        <ele>55</ele>
        <time>2019-09-01T16:50:03Z</time>
      </trkpt>
      <trkpt lat="59.161148" lon="18.124466">
        <ele>54</ele>
        <time>2019-09-01T16:50:04Z</time>
      </trkpt>
      <trkpt lat="59.161149" lon="18.124531">
        <ele>54</ele>
        <time>2019-09-01T16:50:05Z</time>
      </trkpt>
      <trkpt lat="59.161135" lon="18.124596">
        <ele>54</ele>
        <time>2019-09-01T16:50:06Z</time>
      </trkpt>
      <trkpt lat="59.161116" lon="18.124674">
        <ele>54</ele>
        <time>2019-09-01T16:50:07Z</time>
      </trkpt>
      <trkpt lat="59.161092" lon="18.12476">
        <ele>53</ele>
        <time>2019-09-01T16:50:08Z</time>
      </trkpt>
      <trkpt lat="59.16107" lon="18.124843">
        <ele>53</ele>
        <time>2019-09-01T16:50:09Z</time>
      </trkpt>
      <trkpt lat="59.161053" lon="18.124931">
        <ele>53</ele>
        <time>2019-09-01T16:50:10Z</time>
      </trkpt>
      <trkpt lat="59.161037" lon="18.12502">
        <ele>52</ele>
        <time>2019-09-01T16:50:11Z</time>
      </trkpt>
      <trkpt lat="59.161028" lon="18.125105">
        <ele>52</ele>
        <time>2019-09-01T16:50:12Z</time>
      </trkpt>
      <trkpt lat="59.16102" lon="18.125173">
        <ele>52</ele>
        <time>2019-09-01T16:50:13Z</time>
      </trkpt>
      <trkpt lat="59.161013" lon="18.12523">
        <ele>52</ele>
        <time>2019-09-01T16:50:14Z</time>
      </trkpt>
      <trkpt lat="59.161011" lon="18.125273">
        <ele>52</ele>
        <time>2019-09-01T16:50:15Z</time>
      </trkpt>
      <trkpt lat="59.161014" lon="18.125314">
        <ele>52</ele>
        <time>2019-09-01T16:50:16Z</time>
      </trkpt>
      <trkpt lat="59.161017" lon="18.12537">
        <ele>51</ele>
        <time>2019-09-01T16:50:18Z</time>
      </trkpt>
      <trkpt lat="59.161017" lon="18.125425">
        <ele>52</ele>
        <time>2019-09-01T16:50:20Z</time>
      </trkpt>
      <trkpt lat="59.161009" lon="18.12546">
        <ele>52</ele>
        <time>2019-09-01T16:50:21Z</time>
      </trkpt>
      <trkpt lat="59.161" lon="18.12551">
        <ele>52</ele>
        <time>2019-09-01T16:50:22Z</time>
      </trkpt>
      <trkpt lat="59.160989" lon="18.12557">
        <ele>52</ele>
        <time>2019-09-01T16:50:23Z</time>
      </trkpt>
      <trkpt lat="59.160973" lon="18.125631">
        <ele>52</ele>
        <time>2019-09-01T16:50:24Z</time>
      </trkpt>
      <trkpt lat="59.160951" lon="18.125692">
        <ele>51</ele>
        <time>2019-09-01T16:50:25Z</time>
      </trkpt>
      <trkpt lat="59.160921" lon="18.125751">
        <ele>51</ele>
        <time>2019-09-01T16:50:26Z</time>
      </trkpt>
      <trkpt lat="59.160895" lon="18.125797">
        <ele>51</ele>
        <time>2019-09-01T16:50:27Z</time>
      </trkpt>
      <trkpt lat="59.160864" lon="18.125842">
        <ele>51</ele>
        <time>2019-09-01T16:50:28Z</time>
      </trkpt>
      <trkpt lat="59.160844" lon="18.125891">
        <ele>51</ele>
        <time>2019-09-01T16:50:29Z</time>
      </trkpt>
      <trkpt lat="59.160839" lon="18.125931">
        <ele>51</ele>
        <time>2019-09-01T16:50:30Z</time>
      </trkpt>
      <trkpt lat="59.160838" lon="18.125973">
        <ele>51</ele>
        <time>2019-09-01T16:50:31Z</time>
      </trkpt>
      <trkpt lat="59.160842" lon="18.126008">
        <ele>51</ele>
        <time>2019-09-01T16:50:32Z</time>
      </trkpt>
      <trkpt lat="59.160856" lon="18.126054">
        <ele>51</ele>
        <time>2019-09-01T16:50:34Z</time>
      </trkpt>
      <trkpt lat="59.160863" lon="18.126088">
        <ele>51</ele>
        <time>2019-09-01T16:50:36Z</time>
      </trkpt>
      <trkpt lat="59.160866" lon="18.126109">
        <ele>0</ele>
        <time>2019-09-01T16:50:42Z</time>
      </trkpt>
      <trkpt lat="59.160885" lon="18.12621">
        <ele>51</ele>
        <time>2019-09-01T16:52:12Z</time>
      </trkpt>
      <trkpt lat="59.160899" lon="18.126263">
        <ele>51</ele>
        <time>2019-09-01T16:52:14Z</time>
      </trkpt>
      <trkpt lat="59.160908" lon="18.126296">
        <ele>51</ele>
        <time>2019-09-01T16:52:15Z</time>
      </trkpt>
      <trkpt lat="59.160919" lon="18.126344">
        <ele>51</ele>
        <time>2019-09-01T16:52:16Z</time>
      </trkpt>
      <trkpt lat="59.160928" lon="18.126397">
        <ele>51</ele>
        <time>2019-09-01T16:52:17Z</time>
      </trkpt>
      <trkpt lat="59.16094" lon="18.126454">
        <ele>51</ele>
        <time>2019-09-01T16:52:18Z</time>
      </trkpt>
      <trkpt lat="59.160954" lon="18.126528">
        <ele>51</ele>
        <time>2019-09-01T16:52:19Z</time>
      </trkpt>
      <trkpt lat="59.160968" lon="18.126601">
        <ele>51</ele>
        <time>2019-09-01T16:52:20Z</time>
      </trkpt>
      <trkpt lat="59.160986" lon="18.126676">
        <ele>51</ele>
        <time>2019-09-01T16:52:21Z</time>
      </trkpt>
      <trkpt lat="59.161008" lon="18.126759">
        <ele>51</ele>
        <time>2019-09-01T16:52:22Z</time>
      </trkpt>
      <trkpt lat="59.161039" lon="18.126849">
        <ele>51</ele>
        <time>2019-09-01T16:52:23Z</time>
      </trkpt>
      <trkpt lat="59.161072" lon="18.126936">
        <ele>51</ele>
        <time>2019-09-01T16:52:24Z</time>
      </trkpt>
      <trkpt lat="59.161102" lon="18.127013">
        <ele>51</ele>
        <time>2019-09-01T16:52:25Z</time>
      </trkpt>
      <trkpt lat="59.16113" lon="18.127098">
        <ele>51</ele>
        <time>2019-09-01T16:52:26Z</time>
      </trkpt>
      <trkpt lat="59.161158" lon="18.12719">
        <ele>51</ele>
        <time>2019-09-01T16:52:27Z</time>
      </trkpt>
      <trkpt lat="59.161184" lon="18.127274">
        <ele>51</ele>
        <time>2019-09-01T16:52:28Z</time>
      </trkpt>
      <trkpt lat="59.16121" lon="18.127359">
        <ele>51</ele>
        <time>2019-09-01T16:52:29Z</time>
      </trkpt>
      <trkpt lat="59.161233" lon="18.127441">
        <ele>51</ele>
        <time>2019-09-01T16:52:30Z</time>
      </trkpt>
      <trkpt lat="59.161253" lon="18.127525">
        <ele>51</ele>
        <time>2019-09-01T16:52:31Z</time>
      </trkpt>
      <trkpt lat="59.16127" lon="18.127599">
        <ele>51</ele>
        <time>2019-09-01T16:52:32Z</time>
      </trkpt>
      <trkpt lat="59.161294" lon="18.127659">
        <ele>50</ele>
        <time>2019-09-01T16:52:33Z</time>
      </trkpt>
      <trkpt lat="59.161326" lon="18.127716">
        <ele>50</ele>
        <time>2019-09-01T16:52:34Z</time>
      </trkpt>
      <trkpt lat="59.161354" lon="18.127764">
        <ele>49</ele>
        <time>2019-09-01T16:52:35Z</time>
      </trkpt>
      <trkpt lat="59.161386" lon="18.127827">
        <ele>48</ele>
        <time>2019-09-01T16:52:36Z</time>
      </trkpt>
      <trkpt lat="59.161406" lon="18.127883">
        <ele>48</ele>
        <time>2019-09-01T16:52:37Z</time>
      </trkpt>
      <trkpt lat="59.161426" lon="18.127934">
        <ele>48</ele>
        <time>2019-09-01T16:52:38Z</time>
      </trkpt>
      <trkpt lat="59.161453" lon="18.127975">
        <ele>47</ele>
        <time>2019-09-01T16:52:39Z</time>
      </trkpt>
      <trkpt lat="59.161489" lon="18.12802">
        <ele>47</ele>
        <time>2019-09-01T16:52:40Z</time>
      </trkpt>
      <trkpt lat="59.161526" lon="18.128063">
        <ele>46</ele>
        <time>2019-09-01T16:52:41Z</time>
      </trkpt>
      <trkpt lat="59.161561" lon="18.128109">
        <ele>46</ele>
        <time>2019-09-01T16:52:42Z</time>
      </trkpt>
      <trkpt lat="59.161596" lon="18.128151">
        <ele>46</ele>
        <time>2019-09-01T16:52:43Z</time>
      </trkpt>
      <trkpt lat="59.16163" lon="18.128185">
        <ele>46</ele>
        <time>2019-09-01T16:52:44Z</time>
      </trkpt>
      <trkpt lat="59.161661" lon="18.128215">
        <ele>45</ele>
        <time>2019-09-01T16:52:45Z</time>
      </trkpt>
      <trkpt lat="59.161687" lon="18.12825">
        <ele>45</ele>
        <time>2019-09-01T16:52:46Z</time>
      </trkpt>
      <trkpt lat="59.161718" lon="18.128285">
        <ele>45</ele>
        <time>2019-09-01T16:52:47Z</time>
      </trkpt>
      <trkpt lat="59.161748" lon="18.12832">
        <ele>46</ele>
        <time>2019-09-01T16:52:48Z</time>
      </trkpt>
      <trkpt lat="59.161775" lon="18.128358">
        <ele>46</ele>
        <time>2019-09-01T16:52:49Z</time>
      </trkpt>
      <trkpt lat="59.161802" lon="18.1284">
        <ele>46</ele>
        <time>2019-09-01T16:52:50Z</time>
      </trkpt>
      <trkpt lat="59.161832" lon="18.128458">
        <ele>46</ele>
        <time>2019-09-01T16:52:52Z</time>
      </trkpt>
      <trkpt lat="59.161859" lon="18.128512">
        <ele>46</ele>
        <time>2019-09-01T16:52:52Z</time>
      </trkpt>
      <trkpt lat="59.16188" lon="18.128567">
        <ele>46</ele>
        <time>2019-09-01T16:52:53Z</time>
      </trkpt>
      <trkpt lat="59.161903" lon="18.128626">
        <ele>46</ele>
        <time>2019-09-01T16:52:54Z</time>
      </trkpt>
      <trkpt lat="59.161927" lon="18.128688">
        <ele>46</ele>
        <time>2019-09-01T16:52:55Z</time>
      </trkpt>
      <trkpt lat="59.16195" lon="18.128746">
        <ele>46</ele>
        <time>2019-09-01T16:52:56Z</time>
      </trkpt>
      <trkpt lat="59.161975" lon="18.128812">
        <ele>46</ele>
        <time>2019-09-01T16:52:57Z</time>
      </trkpt>
      <trkpt lat="59.161998" lon="18.128882">
        <ele>46</ele>
        <time>2019-09-01T16:52:58Z</time>
      </trkpt>
      <trkpt lat="59.162018" lon="18.128957">
        <ele>46</ele>
        <time>2019-09-01T16:52:59Z</time>
      </trkpt>
      <trkpt lat="59.162038" lon="18.129034">
        <ele>46</ele>
        <time>2019-09-01T16:53:00Z</time>
      </trkpt>
      <trkpt lat="59.162053" lon="18.129108">
        <ele>46</ele>
        <time>2019-09-01T16:53:01Z</time>
      </trkpt>
      <trkpt lat="59.162065" lon="18.129185">
        <ele>46</ele>
        <time>2019-09-01T16:53:02Z</time>
      </trkpt>
      <trkpt lat="59.162074" lon="18.129257">
        <ele>46</ele>
        <time>2019-09-01T16:53:03Z</time>
      </trkpt>
      <trkpt lat="59.162076" lon="18.129331">
        <ele>46</ele>
        <time>2019-09-01T16:53:04Z</time>
      </trkpt>
      <trkpt lat="59.162076" lon="18.129406">
        <ele>46</ele>
        <time>2019-09-01T16:53:05Z</time>
      </trkpt>
      <trkpt lat="59.162074" lon="18.129477">
        <ele>45</ele>
        <time>2019-09-01T16:53:06Z</time>
      </trkpt>
      <trkpt lat="59.162072" lon="18.129548">
        <ele>45</ele>
        <time>2019-09-01T16:53:07Z</time>
      </trkpt>
      <trkpt lat="59.162068" lon="18.129611">
        <ele>45</ele>
        <time>2019-09-01T16:53:08Z</time>
      </trkpt>
      <trkpt lat="59.162064" lon="18.129667">
        <ele>44</ele>
        <time>2019-09-01T16:53:09Z</time>
      </trkpt>
      <trkpt lat="59.162056" lon="18.129723">
        <ele>44</ele>
        <time>2019-09-01T16:53:10Z</time>
      </trkpt>
      <trkpt lat="59.162044" lon="18.129779">
        <ele>44</ele>
        <time>2019-09-01T16:53:11Z</time>
      </trkpt>
      <trkpt lat="59.162034" lon="18.129832">
        <ele>44</ele>
        <time>2019-09-01T16:53:12Z</time>
      </trkpt>
      <trkpt lat="59.162025" lon="18.129879">
        <ele>44</ele>
        <time>2019-09-01T16:53:13Z</time>
      </trkpt>
      <trkpt lat="59.162026" lon="18.129918">
        <ele>44</ele>
        <time>2019-09-01T16:53:14Z</time>
      </trkpt>
      <trkpt lat="59.16203" lon="18.12996">
        <ele>43</ele>
        <time>2019-09-01T16:53:16Z</time>
      </trkpt>
      <trkpt lat="59.162031" lon="18.129979">
        <ele>42</ele>
        <time>2019-09-01T16:53:22Z</time>
      </trkpt>
      <trkpt lat="59.162006" lon="18.130064">
        <ele>42</ele>
        <time>2019-09-01T16:54:07Z</time>
      </trkpt>
      <trkpt lat="59.161987" lon="18.130097">
        <ele>42</ele>
        <time>2019-09-01T16:54:08Z</time>
      </trkpt>
      <trkpt lat="59.161966" lon="18.130132">
        <ele>42</ele>
        <time>2019-09-01T16:54:09Z</time>
      </trkpt>
      <trkpt lat="59.161941" lon="18.130164">
        <ele>42</ele>
        <time>2019-09-01T16:54:10Z</time>
      </trkpt>
      <trkpt lat="59.16191" lon="18.13018">
        <ele>42</ele>
        <time>2019-09-01T16:54:11Z</time>
      </trkpt>
      <trkpt lat="59.161877" lon="18.130177">
        <ele>42</ele>
        <time>2019-09-01T16:54:12Z</time>
      </trkpt>
      <trkpt lat="59.161845" lon="18.130164">
        <ele>42</ele>
        <time>2019-09-01T16:54:13Z</time>
      </trkpt>
      <trkpt lat="59.161815" lon="18.130152">
        <ele>42</ele>
        <time>2019-09-01T16:54:14Z</time>
      </trkpt>
      <trkpt lat="59.161785" lon="18.130144">
        <ele>42</ele>
        <time>2019-09-01T16:54:15Z</time>
      </trkpt>
      <trkpt lat="59.161756" lon="18.13014">
        <ele>42</ele>
        <time>2019-09-01T16:54:16Z</time>
      </trkpt>
      <trkpt lat="59.161727" lon="18.130139">
        <ele>42</ele>
        <time>2019-09-01T16:54:17Z</time>
      </trkpt>
      <trkpt lat="59.161697" lon="18.13014">
        <ele>42</ele>
        <time>2019-09-01T16:54:18Z</time>
      </trkpt>
      <trkpt lat="59.161667" lon="18.130143">
        <ele>43</ele>
        <time>2019-09-01T16:54:19Z</time>
      </trkpt>
      <trkpt lat="59.16164" lon="18.130151">
        <ele>43</ele>
        <time>2019-09-01T16:54:20Z</time>
      </trkpt>
      <trkpt lat="59.161614" lon="18.130162">
        <ele>43</ele>
        <time>2019-09-01T16:54:21Z</time>
      </trkpt>
      <trkpt lat="59.161588" lon="18.130174">
        <ele>43</ele>
        <time>2019-09-01T16:54:22Z</time>
      </trkpt>
      <trkpt lat="59.161567" lon="18.13019">
        <ele>44</ele>
        <time>2019-09-01T16:54:23Z</time>
      </trkpt>
      <trkpt lat="59.161546" lon="18.130206">
        <ele>44</ele>
        <time>2019-09-01T16:54:24Z</time>
      </trkpt>
      <trkpt lat="59.161522" lon="18.130215">
        <ele>44</ele>
        <time>2019-09-01T16:54:25Z</time>
      </trkpt>
      <trkpt lat="59.161497" lon="18.130225">
        <ele>45</ele>
        <time>2019-09-01T16:54:26Z</time>
      </trkpt>
      <trkpt lat="59.16147" lon="18.13023">
        <ele>45</ele>
        <time>2019-09-01T16:54:27Z</time>
      </trkpt>
      <trkpt lat="59.16144" lon="18.130235">
        <ele>45</ele>
        <time>2019-09-01T16:54:28Z</time>
      </trkpt>
      <trkpt lat="59.161398" lon="18.130233">
        <ele>45</ele>
        <time>2019-09-01T16:54:29Z</time>
      </trkpt>
      <trkpt lat="59.161362" lon="18.130225">
        <ele>46</ele>
        <time>2019-09-01T16:54:30Z</time>
      </trkpt>
      <trkpt lat="59.161323" lon="18.130217">
        <ele>46</ele>
        <time>2019-09-01T16:54:31Z</time>
      </trkpt>
      <trkpt lat="59.161285" lon="18.130206">
        <ele>46</ele>
        <time>2019-09-01T16:54:32Z</time>
      </trkpt>
      <trkpt lat="59.161248" lon="18.13019">
        <ele>46</ele>
        <time>2019-09-01T16:54:33Z</time>
      </trkpt>
      <trkpt lat="59.16121" lon="18.130169">
        <ele>46</ele>
        <time>2019-09-01T16:54:34Z</time>
      </trkpt>
      <trkpt lat="59.161175" lon="18.130147">
        <ele>46</ele>
        <time>2019-09-01T16:54:35Z</time>
      </trkpt>
      <trkpt lat="59.161143" lon="18.130119">
        <ele>47</ele>
        <time>2019-09-01T16:54:36Z</time>
      </trkpt>
      <trkpt lat="59.161111" lon="18.130088">
        <ele>47</ele>
        <time>2019-09-01T16:54:37Z</time>
      </trkpt>
      <trkpt lat="59.161083" lon="18.130049">
        <ele>47</ele>
        <time>2019-09-01T16:54:38Z</time>
      </trkpt>
      <trkpt lat="59.161055" lon="18.130009">
        <ele>47</ele>
        <time>2019-09-01T16:54:39Z</time>
      </trkpt>
      <trkpt lat="59.161029" lon="18.129968">
        <ele>47</ele>
        <time>2019-09-01T16:54:40Z</time>
      </trkpt>
      <trkpt lat="59.161001" lon="18.129932">
        <ele>48</ele>
        <time>2019-09-01T16:54:41Z</time>
      </trkpt>
      <trkpt lat="59.160975" lon="18.129894">
        <ele>48</ele>
        <time>2019-09-01T16:54:42Z</time>
      </trkpt>
      <trkpt lat="59.160949" lon="18.129852">
        <ele>48</ele>
        <time>2019-09-01T16:54:43Z</time>
      </trkpt>
      <trkpt lat="59.160921" lon="18.129812">
        <ele>48</ele>
        <time>2019-09-01T16:54:44Z</time>
      </trkpt>
      <trkpt lat="59.160893" lon="18.129777">
        <ele>48</ele>
        <time>2019-09-01T16:54:45Z</time>
      </trkpt>
      <trkpt lat="59.16087" lon="18.129747">
        <ele>49</ele>
        <time>2019-09-01T16:54:46Z</time>
      </trkpt>
      <trkpt lat="59.160847" lon="18.129716">
        <ele>49</ele>
        <time>2019-09-01T16:54:47Z</time>
      </trkpt>
      <trkpt lat="59.160819" lon="18.129695">
        <ele>49</ele>
        <time>2019-09-01T16:54:48Z</time>
      </trkpt>
      <trkpt lat="59.160787" lon="18.129682">
        <ele>50</ele>
        <time>2019-09-01T16:54:49Z</time>
      </trkpt>
      <trkpt lat="59.160758" lon="18.129661">
        <ele>50</ele>
        <time>2019-09-01T16:54:50Z</time>
      </trkpt>
      <trkpt lat="59.160728" lon="18.129633">
        <ele>50</ele>
        <time>2019-09-01T16:54:51Z</time>
      </trkpt>
      <trkpt lat="59.160694" lon="18.129594">
        <ele>50</ele>
        <time>2019-09-01T16:54:52Z</time>
      </trkpt>
      <trkpt lat="59.160658" lon="18.129556">
        <ele>51</ele>
        <time>2019-09-01T16:54:53Z</time>
      </trkpt>
      <trkpt lat="59.160625" lon="18.129521">
        <ele>51</ele>
        <time>2019-09-01T16:54:54Z</time>
      </trkpt>
      <trkpt lat="59.160595" lon="18.129493">
        <ele>51</ele>
        <time>2019-09-01T16:54:55Z</time>
      </trkpt>
      <trkpt lat="59.160564" lon="18.129469">
        <ele>51</ele>
        <time>2019-09-01T16:54:56Z</time>
      </trkpt>
      <trkpt lat="59.160533" lon="18.129445">
        <ele>51</ele>
        <time>2019-09-01T16:54:57Z</time>
      </trkpt>
      <trkpt lat="59.160502" lon="18.129414">
        <ele>51</ele>
        <time>2019-09-01T16:54:58Z</time>
      </trkpt>
      <trkpt lat="59.160471" lon="18.129381">
        <ele>52</ele>
        <time>2019-09-01T16:54:59Z</time>
      </trkpt>
      <trkpt lat="59.160442" lon="18.129349">
        <ele>52</ele>
        <time>2019-09-01T16:55:00Z</time>
      </trkpt>
      <trkpt lat="59.160411" lon="18.129322">
        <ele>52</ele>
        <time>2019-09-01T16:55:01Z</time>
      </trkpt>
      <trkpt lat="59.160379" lon="18.129307">
        <ele>52</ele>
        <time>2019-09-01T16:55:02Z</time>
      </trkpt>
      <trkpt lat="59.16035" lon="18.129298">
        <ele>53</ele>
        <time>2019-09-01T16:55:03Z</time>
      </trkpt>
      <trkpt lat="59.160322" lon="18.129292">
        <ele>53</ele>
        <time>2019-09-01T16:55:04Z</time>
      </trkpt>
      <trkpt lat="59.160294" lon="18.129294">
        <ele>53</ele>
        <time>2019-09-01T16:55:05Z</time>
      </trkpt>
      <trkpt lat="59.160266" lon="18.129302">
        <ele>53</ele>
        <time>2019-09-01T16:55:06Z</time>
      </trkpt>
      <trkpt lat="59.160237" lon="18.129302">
        <ele>54</ele>
        <time>2019-09-01T16:55:07Z</time>
      </trkpt>
      <trkpt lat="59.160213" lon="18.12929">
        <ele>54</ele>
        <time>2019-09-01T16:55:08Z</time>
      </trkpt>
      <trkpt lat="59.160183" lon="18.12927">
        <ele>54</ele>
        <time>2019-09-01T16:55:09Z</time>
      </trkpt>
      <trkpt lat="59.160157" lon="18.12924">
        <ele>53</ele>
        <time>2019-09-01T16:55:10Z</time>
      </trkpt>
      <trkpt lat="59.160134" lon="18.129212">
        <ele>53</ele>
        <time>2019-09-01T16:55:11Z</time>
      </trkpt>
      <trkpt lat="59.160114" lon="18.12919">
        <ele>54</ele>
        <time>2019-09-01T16:55:12Z</time>
      </trkpt>
      <trkpt lat="59.160097" lon="18.129166">
        <ele>54</ele>
        <time>2019-09-01T16:55:13Z</time>
      </trkpt>
      <trkpt lat="59.160082" lon="18.129142">
        <ele>54</ele>
        <time>2019-09-01T16:55:14Z</time>
      </trkpt>
      <trkpt lat="59.160057" lon="18.129122">
        <ele>55</ele>
        <time>2019-09-01T16:55:16Z</time>
      </trkpt>
      <trkpt lat="59.160034" lon="18.129112">
        <ele>55</ele>
        <time>2019-09-01T16:55:18Z</time>
      </trkpt>
      <trkpt lat="59.16001" lon="18.1291">
        <ele>56</ele>
        <time>2019-09-01T16:55:20Z</time>
      </trkpt>
      <trkpt lat="59.159991" lon="18.129092">
        <ele>56</ele>
        <time>2019-09-01T16:55:21Z</time>
      </trkpt>
      <trkpt lat="59.159952" lon="18.129098">
        <ele>57</ele>
        <time>2019-09-01T16:55:23Z</time>
      </trkpt>
      <trkpt lat="59.159932" lon="18.129102">
        <ele>57</ele>
        <time>2019-09-01T16:55:24Z</time>
      </trkpt>
      <trkpt lat="59.159911" lon="18.129102">
        <ele>58</ele>
        <time>2019-09-01T16:55:25Z</time>
      </trkpt>
      <trkpt lat="59.159883" lon="18.12909">
        <ele>58</ele>
        <time>2019-09-01T16:55:27Z</time>
      </trkpt>
      <trkpt lat="59.159856" lon="18.12908">
        <ele>58</ele>
        <time>2019-09-01T16:55:29Z</time>
      </trkpt>
      <trkpt lat="59.15983" lon="18.129078">
        <ele>58</ele>
        <time>2019-09-01T16:55:31Z</time>
      </trkpt>
      <trkpt lat="59.159824" lon="18.12908">
        <ele>0</ele>
        <time>2019-09-01T16:55:37Z</time>
      </trkpt>
      <trkpt lat="59.159666" lon="18.129026">
        <ele>59</ele>
        <time>2019-09-01T16:56:38Z</time>
      </trkpt>
      <trkpt lat="59.159645" lon="18.129007">
        <ele>59</ele>
        <time>2019-09-01T16:56:39Z</time>
      </trkpt>
      <trkpt lat="59.159617" lon="18.128988">
        <ele>59</ele>
        <time>2019-09-01T16:56:40Z</time>
      </trkpt>
      <trkpt lat="59.159587" lon="18.128973">
        <ele>59</ele>
        <time>2019-09-01T16:56:41Z</time>
      </trkpt>
      <trkpt lat="59.15956" lon="18.128955">
        <ele>59</ele>
        <time>2019-09-01T16:56:42Z</time>
      </trkpt>
      <trkpt lat="59.159533" lon="18.128926">
        <ele>59</ele>
        <time>2019-09-01T16:56:43Z</time>
      </trkpt>
      <trkpt lat="59.159508" lon="18.128894">
        <ele>59</ele>
        <time>2019-09-01T16:56:44Z</time>
      </trkpt>
      <trkpt lat="59.159479" lon="18.128864">
        <ele>59</ele>
        <time>2019-09-01T16:56:45Z</time>
      </trkpt>
      <trkpt lat="59.159446" lon="18.128845">
        <ele>59</ele>
        <time>2019-09-01T16:56:46Z</time>
      </trkpt>
      <trkpt lat="59.159416" lon="18.128848">
        <ele>59</ele>
        <time>2019-09-01T16:56:47Z</time>
      </trkpt>
      <trkpt lat="59.15939" lon="18.128859">
        <ele>59</ele>
        <time>2019-09-01T16:56:48Z</time>
      </trkpt>
      <trkpt lat="59.159363" lon="18.128852">
        <ele>59</ele>
        <time>2019-09-01T16:56:49Z</time>
      </trkpt>
      <trkpt lat="59.159337" lon="18.128843">
        <ele>60</ele>
        <time>2019-09-01T16:56:50Z</time>
      </trkpt>
      <trkpt lat="59.159315" lon="18.128838">
        <ele>60</ele>
        <time>2019-09-01T16:56:51Z</time>
      </trkpt>
      <trkpt lat="59.159293" lon="18.128833">
        <ele>60</ele>
        <time>2019-09-01T16:56:52Z</time>
      </trkpt>
      <trkpt lat="59.159265" lon="18.128819">
        <ele>60</ele>
        <time>2019-09-01T16:56:53Z</time>
      </trkpt>
      <trkpt lat="59.159239" lon="18.128805">
        <ele>60</ele>
        <time>2019-09-01T16:56:54Z</time>
      </trkpt>
      <trkpt lat="59.159216" lon="18.128794">
        <ele>60</ele>
        <time>2019-09-01T16:56:55Z</time>
      </trkpt>
      <trkpt lat="59.159193" lon="18.128789">
        <ele>60</ele>
        <time>2019-09-01T16:56:56Z</time>
      </trkpt>
      <trkpt lat="59.159168" lon="18.128791">
        <ele>60</ele>
        <time>2019-09-01T16:56:57Z</time>
      </trkpt>
      <trkpt lat="59.159143" lon="18.128787">
        <ele>61</ele>
        <time>2019-09-01T16:56:58Z</time>
      </trkpt>
      <trkpt lat="59.159121" lon="18.128778">
        <ele>61</ele>
        <time>2019-09-01T16:56:59Z</time>
      </trkpt>
      <trkpt lat="59.159097" lon="18.128762">
        <ele>61</ele>
        <time>2019-09-01T16:57:00Z</time>
      </trkpt>
      <trkpt lat="59.159076" lon="18.12874">
        <ele>61</ele>
        <time>2019-09-01T16:57:01Z</time>
      </trkpt>
      <trkpt lat="59.15906" lon="18.12871">
        <ele>61</ele>
        <time>2019-09-01T16:57:02Z</time>
      </trkpt>
      <trkpt lat="59.159047" lon="18.128682">
        <ele>61</ele>
        <time>2019-09-01T16:57:03Z</time>
      </trkpt>
      <trkpt lat="59.159031" lon="18.128623">
        <ele>60</ele>
        <time>2019-09-01T16:57:05Z</time>
      </trkpt>
      <trkpt lat="59.15901" lon="18.128577">
        <ele>60</ele>
        <time>2019-09-01T16:57:07Z</time>
      </trkpt>
      <trkpt lat="59.15899" lon="18.128574">
        <ele>60</ele>
        <time>2019-09-01T16:57:09Z</time>
      </trkpt>
      <trkpt lat="59.158966" lon="18.128591">
        <ele>60</ele>
        <time>2019-09-01T16:57:11Z</time>
      </trkpt>
      <trkpt lat="59.158931" lon="18.128602">
        <ele>60</ele>
        <time>2019-09-01T16:57:13Z</time>
      </trkpt>
      <trkpt lat="59.158904" lon="18.128607">
        <ele>60</ele>
        <time>2019-09-01T16:57:14Z</time>
      </trkpt>
      <trkpt lat="59.158874" lon="18.128606">
        <ele>60</ele>
        <time>2019-09-01T16:57:15Z</time>
      </trkpt>
      <trkpt lat="59.158853" lon="18.12861">
        <ele>60</ele>
        <time>2019-09-01T16:57:16Z</time>
      </trkpt>
      <trkpt lat="59.158832" lon="18.128624">
        <ele>60</ele>
        <time>2019-09-01T16:57:17Z</time>
      </trkpt>
      <trkpt lat="59.158814" lon="18.128637">
        <ele>61</ele>
        <time>2019-09-01T16:57:18Z</time>
      </trkpt>
      <trkpt lat="59.158797" lon="18.12865">
        <ele>61</ele>
        <time>2019-09-01T16:57:20Z</time>
      </trkpt>
      <trkpt lat="59.158798" lon="18.128646">
        <ele>61</ele>
        <time>2019-09-01T16:57:24Z</time>
      </trkpt>
      <trkpt lat="59.158777" lon="18.128667">
        <ele>61</ele>
        <time>2019-09-01T16:57:39Z</time>
      </trkpt>
      <trkpt lat="59.158759" lon="18.128706">
        <ele>61</ele>
        <time>2019-09-01T16:57:41Z</time>
      </trkpt>
      <trkpt lat="59.158753" lon="18.12877">
        <ele>61</ele>
        <time>2019-09-01T16:57:43Z</time>
      </trkpt>
      <trkpt lat="59.158753" lon="18.128817">
        <ele>61</ele>
        <time>2019-09-01T16:57:44Z</time>
      </trkpt>
      <trkpt lat="59.158758" lon="18.12887">
        <ele>61</ele>
        <time>2019-09-01T16:57:45Z</time>
      </trkpt>
      <trkpt lat="59.158768" lon="18.128919">
        <ele>61</ele>
        <time>2019-09-01T16:57:46Z</time>
      </trkpt>
      <trkpt lat="59.15878" lon="18.128961">
        <ele>61</ele>
        <time>2019-09-01T16:57:47Z</time>
      </trkpt>
      <trkpt lat="59.158796" lon="18.129002">
        <ele>61</ele>
        <time>2019-09-01T16:57:48Z</time>
      </trkpt>
      <trkpt lat="59.158813" lon="18.129036">
        <ele>61</ele>
        <time>2019-09-01T16:57:49Z</time>
      </trkpt>
      <trkpt lat="59.158842" lon="18.129066">
        <ele>61</ele>
        <time>2019-09-01T16:57:50Z</time>
      </trkpt>
      <trkpt lat="59.158877" lon="18.12909">
        <ele>61</ele>
        <time>2019-09-01T16:57:51Z</time>
      </trkpt>
      <trkpt lat="59.158917" lon="18.129109">
        <ele>61</ele>
        <time>2019-09-01T16:57:52Z</time>
      </trkpt>
      <trkpt lat="59.158963" lon="18.129131">
        <ele>61</ele>
        <time>2019-09-01T16:57:53Z</time>
      </trkpt>
      <trkpt lat="59.159012" lon="18.129142">
        <ele>61</ele>
        <time>2019-09-01T16:57:54Z</time>
      </trkpt>
      <trkpt lat="59.15906" lon="18.129142">
        <ele>61</ele>
        <time>2019-09-01T16:57:55Z</time>
      </trkpt>
      <trkpt lat="59.159106" lon="18.129142">
        <ele>61</ele>
        <time>2019-09-01T16:57:56Z</time>
      </trkpt>
      <trkpt lat="59.159155" lon="18.129139">
        <ele>61</ele>
        <time>2019-09-01T16:57:57Z</time>
      </trkpt>
      <trkpt lat="59.159206" lon="18.12912">
        <ele>61</ele>
        <time>2019-09-01T16:57:58Z</time>
      </trkpt>
      <trkpt lat="59.159259" lon="18.129095">
        <ele>61</ele>
        <time>2019-09-01T16:57:59Z</time>
      </trkpt>
      <trkpt lat="59.159315" lon="18.12906">
        <ele>61</ele>
        <time>2019-09-01T16:58:00Z</time>
      </trkpt>
      <trkpt lat="59.159367" lon="18.12902">
        <ele>61</ele>
        <time>2019-09-01T16:58:01Z</time>
      </trkpt>
      <trkpt lat="59.15941" lon="18.128972">
        <ele>61</ele>
        <time>2019-09-01T16:58:02Z</time>
      </trkpt>
      <trkpt lat="59.159449" lon="18.128922">
        <ele>61</ele>
        <time>2019-09-01T16:58:03Z</time>
      </trkpt>
      <trkpt lat="59.159487" lon="18.128875">
        <ele>60</ele>
        <time>2019-09-01T16:58:04Z</time>
      </trkpt>
      <trkpt lat="59.159525" lon="18.128834">
        <ele>60</ele>
        <time>2019-09-01T16:58:05Z</time>
      </trkpt>
      <trkpt lat="59.159563" lon="18.128797">
        <ele>60</ele>
        <time>2019-09-01T16:58:06Z</time>
      </trkpt>
      <trkpt lat="59.159604" lon="18.128772">
        <ele>60</ele>
        <time>2019-09-01T16:58:07Z</time>
      </trkpt>
      <trkpt lat="59.159642" lon="18.128744">
        <ele>60</ele>
        <time>2019-09-01T16:58:08Z</time>
      </trkpt>
      <trkpt lat="59.159682" lon="18.128708">
        <ele>60</ele>
        <time>2019-09-01T16:58:09Z</time>
      </trkpt>
      <trkpt lat="59.159725" lon="18.128676">
        <ele>59</ele>
        <time>2019-09-01T16:58:10Z</time>
      </trkpt>
      <trkpt lat="59.159769" lon="18.128656">
        <ele>59</ele>
        <time>2019-09-01T16:58:11Z</time>
      </trkpt>
      <trkpt lat="59.159813" lon="18.128658">
        <ele>59</ele>
        <time>2019-09-01T16:58:12Z</time>
      </trkpt>
      <trkpt lat="59.159854" lon="18.128683">
        <ele>59</ele>
        <time>2019-09-01T16:58:13Z</time>
      </trkpt>
      <trkpt lat="59.159894" lon="18.128728">
        <ele>59</ele>
        <time>2019-09-01T16:58:14Z</time>
      </trkpt>
      <trkpt lat="59.15993" lon="18.128784">
        <ele>59</ele>
        <time>2019-09-01T16:58:15Z</time>
      </trkpt>
      <trkpt lat="59.159965" lon="18.128835">
        <ele>59</ele>
        <time>2019-09-01T16:58:16Z</time>
      </trkpt>
      <trkpt lat="59.15999" lon="18.128894">
        <ele>59</ele>
        <time>2019-09-01T16:58:17Z</time>
      </trkpt>
      <trkpt lat="59.160014" lon="18.128951">
        <ele>59</ele>
        <time>2019-09-01T16:58:18Z</time>
      </trkpt>
      <trkpt lat="59.160036" lon="18.129002">
        <ele>59</ele>
        <time>2019-09-01T16:58:19Z</time>
      </trkpt>
      <trkpt lat="59.160061" lon="18.129053">
        <ele>59</ele>
        <time>2019-09-01T16:58:20Z</time>
      </trkpt>
      <trkpt lat="59.160084" lon="18.1291">
        <ele>59</ele>
        <time>2019-09-01T16:58:21Z</time>
      </trkpt>
      <trkpt lat="59.160104" lon="18.129136">
        <ele>59</ele>
        <time>2019-09-01T16:58:22Z</time>
      </trkpt>
      <trkpt lat="59.160121" lon="18.129164">
        <ele>59</ele>
        <time>2019-09-01T16:58:23Z</time>
      </trkpt>
      <trkpt lat="59.160138" lon="18.129198">
        <ele>59</ele>
        <time>2019-09-01T16:58:24Z</time>
      </trkpt>
      <trkpt lat="59.160157" lon="18.12924">
        <ele>59</ele>
        <time>2019-09-01T16:58:25Z</time>
      </trkpt>
      <trkpt lat="59.160182" lon="18.129278">
        <ele>59</ele>
        <time>2019-09-01T16:58:26Z</time>
      </trkpt>
      <trkpt lat="59.160218" lon="18.129322">
        <ele>59</ele>
        <time>2019-09-01T16:58:27Z</time>
      </trkpt>
      <trkpt lat="59.160252" lon="18.12937">
        <ele>59</ele>
        <time>2019-09-01T16:58:28Z</time>
      </trkpt>
      <trkpt lat="59.160296" lon="18.129412">
        <ele>58</ele>
        <time>2019-09-01T16:58:29Z</time>
      </trkpt>
      <trkpt lat="59.160343" lon="18.129439">
        <ele>58</ele>
        <time>2019-09-01T16:58:30Z</time>
      </trkpt>
      <trkpt lat="59.160396" lon="18.129472">
        <ele>58</ele>
        <time>2019-09-01T16:58:31Z</time>
      </trkpt>
      <trkpt lat="59.16045" lon="18.129499">
        <ele>57</ele>
        <time>2019-09-01T16:58:32Z</time>
      </trkpt>
      <trkpt lat="59.160513" lon="18.12953">
        <ele>57</ele>
        <time>2019-09-01T16:58:33Z</time>
      </trkpt>
      <trkpt lat="59.160577" lon="18.129554">
        <ele>57</ele>
        <time>2019-09-01T16:58:34Z</time>
      </trkpt>
      <trkpt lat="59.160631" lon="18.129576">
        <ele>57</ele>
        <time>2019-09-01T16:58:35Z</time>
      </trkpt>
      <trkpt lat="59.160687" lon="18.129604">
        <ele>57</ele>
        <time>2019-09-01T16:58:36Z</time>
      </trkpt>
      <trkpt lat="59.160737" lon="18.129636">
        <ele>57</ele>
        <time>2019-09-01T16:58:38Z</time>
      </trkpt>
      <trkpt lat="59.160781" lon="18.129664">
        <ele>57</ele>
        <time>2019-09-01T16:58:38Z</time>
      </trkpt>
      <trkpt lat="59.160819" lon="18.129699">
        <ele>57</ele>
        <time>2019-09-01T16:58:39Z</time>
      </trkpt>
      <trkpt lat="59.160851" lon="18.129736">
        <ele>57</ele>
        <time>2019-09-01T16:58:40Z</time>
      </trkpt>
      <trkpt lat="59.160884" lon="18.129771">
        <ele>57</ele>
        <time>2019-09-01T16:58:41Z</time>
      </trkpt>
      <trkpt lat="59.160918" lon="18.129808">
        <ele>57</ele>
        <time>2019-09-01T16:58:42Z</time>
      </trkpt>
      <trkpt lat="59.160949" lon="18.129852">
        <ele>57</ele>
        <time>2019-09-01T16:58:43Z</time>
      </trkpt>
      <trkpt lat="59.160984" lon="18.1299">
        <ele>57</ele>
        <time>2019-09-01T16:58:44Z</time>
      </trkpt>
      <trkpt lat="59.161025" lon="18.129954">
        <ele>56</ele>
        <time>2019-09-01T16:58:45Z</time>
      </trkpt>
      <trkpt lat="59.161063" lon="18.129992">
        <ele>56</ele>
        <time>2019-09-01T16:58:46Z</time>
      </trkpt>
      <trkpt lat="59.161097" lon="18.130029">
        <ele>56</ele>
        <time>2019-09-01T16:58:47Z</time>
      </trkpt>
      <trkpt lat="59.161138" lon="18.130074">
        <ele>56</ele>
        <time>2019-09-01T16:58:48Z</time>
      </trkpt>
      <trkpt lat="59.161175" lon="18.130104">
        <ele>55</ele>
        <time>2019-09-01T16:58:49Z</time>
      </trkpt>
      <trkpt lat="59.161211" lon="18.130124">
        <ele>55</ele>
        <time>2019-09-01T16:58:50Z</time>
      </trkpt>
      <trkpt lat="59.161244" lon="18.130134">
        <ele>55</ele>
        <time>2019-09-01T16:58:51Z</time>
      </trkpt>
      <trkpt lat="59.161276" lon="18.130142">
        <ele>55</ele>
        <time>2019-09-01T16:58:52Z</time>
      </trkpt>
      <trkpt lat="59.161307" lon="18.130153">
        <ele>55</ele>
        <time>2019-09-01T16:58:53Z</time>
      </trkpt>
      <trkpt lat="59.161339" lon="18.130156">
        <ele>54</ele>
        <time>2019-09-01T16:58:54Z</time>
      </trkpt>
      <trkpt lat="59.161371" lon="18.130158">
        <ele>54</ele>
        <time>2019-09-01T16:58:55Z</time>
      </trkpt>
      <trkpt lat="59.161403" lon="18.130158">
        <ele>54</ele>
        <time>2019-09-01T16:58:56Z</time>
      </trkpt>
      <trkpt lat="59.16144" lon="18.130164">
        <ele>54</ele>
        <time>2019-09-01T16:58:57Z</time>
      </trkpt>
      <trkpt lat="59.161476" lon="18.130163">
        <ele>53</ele>
        <time>2019-09-01T16:58:58Z</time>
      </trkpt>
      <trkpt lat="59.161508" lon="18.130152">
        <ele>53</ele>
        <time>2019-09-01T16:58:59Z</time>
      </trkpt>
      <trkpt lat="59.161543" lon="18.130132">
        <ele>53</ele>
        <time>2019-09-01T16:59:00Z</time>
      </trkpt>
      <trkpt lat="59.161587" lon="18.130119">
        <ele>52</ele>
        <time>2019-09-01T16:59:01Z</time>
      </trkpt>
      <trkpt lat="59.161631" lon="18.13011">
        <ele>52</ele>
        <time>2019-09-01T16:59:02Z</time>
      </trkpt>
      <trkpt lat="59.161683" lon="18.13011">
        <ele>52</ele>
        <time>2019-09-01T16:59:03Z</time>
      </trkpt>
      <trkpt lat="59.161741" lon="18.130117">
        <ele>51</ele>
        <time>2019-09-01T16:59:04Z</time>
      </trkpt>
      <trkpt lat="59.161791" lon="18.130125">
        <ele>50</ele>
        <time>2019-09-01T16:59:05Z</time>
      </trkpt>
      <trkpt lat="59.161839" lon="18.13014">
        <ele>50</ele>
        <time>2019-09-01T16:59:06Z</time>
      </trkpt>
      <trkpt lat="59.161891" lon="18.13017">
        <ele>49</ele>
        <time>2019-09-01T16:59:07Z</time>
      </trkpt>
      <trkpt lat="59.16194" lon="18.130202">
        <ele>49</ele>
        <time>2019-09-01T16:59:08Z</time>
      </trkpt>
      <trkpt lat="59.161988" lon="18.130236">
        <ele>48</ele>
        <time>2019-09-01T16:59:09Z</time>
      </trkpt>
      <trkpt lat="59.162032" lon="18.130259">
        <ele>47</ele>
        <time>2019-09-01T16:59:10Z</time>
      </trkpt>
      <trkpt lat="59.162072" lon="18.130277">
        <ele>47</ele>
        <time>2019-09-01T16:59:11Z</time>
      </trkpt>
      <trkpt lat="59.162115" lon="18.130293">
        <ele>46</ele>
        <time>2019-09-01T16:59:12Z</time>
      </trkpt>
      <trkpt lat="59.162157" lon="18.130309">
        <ele>46</ele>
        <time>2019-09-01T16:59:13Z</time>
      </trkpt>
      <trkpt lat="59.162196" lon="18.130327">
        <ele>45</ele>
        <time>2019-09-01T16:59:14Z</time>
      </trkpt>
      <trkpt lat="59.162233" lon="18.130341">
        <ele>45</ele>
        <time>2019-09-01T16:59:15Z</time>
      </trkpt>
      <trkpt lat="59.162268" lon="18.130351">
        <ele>44</ele>
        <time>2019-09-01T16:59:16Z</time>
      </trkpt>
      <trkpt lat="59.162299" lon="18.130363">
        <ele>44</ele>
        <time>2019-09-01T16:59:17Z</time>
      </trkpt>
      <trkpt lat="59.162325" lon="18.130373">
        <ele>44</ele>
        <time>2019-09-01T16:59:18Z</time>
      </trkpt>
      <trkpt lat="59.162347" lon="18.130381">
        <ele>44</ele>
        <time>2019-09-01T16:59:19Z</time>
      </trkpt>
      <trkpt lat="59.162367" lon="18.130389">
        <ele>44</ele>
        <time>2019-09-01T16:59:20Z</time>
      </trkpt>
      <trkpt lat="59.162395" lon="18.130398">
        <ele>43</ele>
        <time>2019-09-01T16:59:22Z</time>
      </trkpt>
      <trkpt lat="59.162419" lon="18.130418">
        <ele>43</ele>
        <time>2019-09-01T16:59:24Z</time>
      </trkpt>
      <trkpt lat="59.162436" lon="18.130465">
        <ele>43</ele>
        <time>2019-09-01T16:59:26Z</time>
      </trkpt>
      <trkpt lat="59.162454" lon="18.130511">
        <ele>43</ele>
        <time>2019-09-01T16:59:28Z</time>
      </trkpt>
      <trkpt lat="59.162474" lon="18.130538">
        <ele>42</ele>
        <time>2019-09-01T16:59:30Z</time>
      </trkpt>
      <trkpt lat="59.162492" lon="18.130551">
        <ele>42</ele>
        <time>2019-09-01T16:59:32Z</time>
      </trkpt>
      <trkpt lat="59.162502" lon="18.130556">
        <ele>0</ele>
        <time>2019-09-01T16:59:37Z</time>
      </trkpt>
      <trkpt lat="59.162484" lon="18.130529">
        <ele>38</ele>
        <time>2019-09-01T17:12:54Z</time>
      </trkpt>
      <trkpt lat="59.162485" lon="18.130529">
        <ele>38</ele>
        <time>2019-09-01T17:12:58Z</time>
      </trkpt>
      <trkpt lat="59.162448" lon="18.130468">
        <ele>38</ele>
        <time>2019-09-01T17:14:13Z</time>
      </trkpt>
      <trkpt lat="59.16244" lon="18.130464">
        <ele>38</ele>
        <time>2019-09-01T17:14:14Z</time>
      </trkpt>
      <trkpt lat="59.16242" lon="18.130446">
        <ele>39</ele>
        <time>2019-09-01T17:14:16Z</time>
      </trkpt>
      <trkpt lat="59.162398" lon="18.13043">
        <ele>39</ele>
        <time>2019-09-01T17:14:18Z</time>
      </trkpt>
      <trkpt lat="59.162368" lon="18.130422">
        <ele>39</ele>
        <time>2019-09-01T17:14:20Z</time>
      </trkpt>
      <trkpt lat="59.162338" lon="18.130414">
        <ele>39</ele>
        <time>2019-09-01T17:14:22Z</time>
      </trkpt>
      <trkpt lat="59.162312" lon="18.130404">
        <ele>39</ele>
        <time>2019-09-01T17:14:24Z</time>
      </trkpt>
      <trkpt lat="59.162292" lon="18.130394">
        <ele>39</ele>
        <time>2019-09-01T17:14:26Z</time>
      </trkpt>
      <trkpt lat="59.162271" lon="18.130384">
        <ele>39</ele>
        <time>2019-09-01T17:14:28Z</time>
      </trkpt>
      <trkpt lat="59.162246" lon="18.130374">
        <ele>39</ele>
        <time>2019-09-01T17:14:30Z</time>
      </trkpt>
      <trkpt lat="59.162217" lon="18.130363">
        <ele>39</ele>
        <time>2019-09-01T17:14:32Z</time>
      </trkpt>
      <trkpt lat="59.162188" lon="18.130356">
        <ele>39</ele>
        <time>2019-09-01T17:14:34Z</time>
      </trkpt>
      <trkpt lat="59.162161" lon="18.130349">
        <ele>40</ele>
        <time>2019-09-01T17:14:36Z</time>
      </trkpt>
      <trkpt lat="59.162135" lon="18.130338">
        <ele>40</ele>
        <time>2019-09-01T17:14:38Z</time>
      </trkpt>
      <trkpt lat="59.162106" lon="18.130338">
        <ele>40</ele>
        <time>2019-09-01T17:14:40Z</time>
      </trkpt>
      <trkpt lat="59.162078" lon="18.130338">
        <ele>40</ele>
        <time>2019-09-01T17:14:42Z</time>
      </trkpt>
      <trkpt lat="59.162049" lon="18.130346">
        <ele>40</ele>
        <time>2019-09-01T17:14:44Z</time>
      </trkpt>
      <trkpt lat="59.162021" lon="18.130356">
        <ele>40</ele>
        <time>2019-09-01T17:14:46Z</time>
      </trkpt>
      <trkpt lat="59.161998" lon="18.13037">
        <ele>40</ele>
        <time>2019-09-01T17:14:48Z</time>
      </trkpt>
      <trkpt lat="59.161978" lon="18.130383">
        <ele>40</ele>
        <time>2019-09-01T17:14:50Z</time>
      </trkpt>
      <trkpt lat="59.161955" lon="18.130401">
        <ele>40</ele>
        <time>2019-09-01T17:14:52Z</time>
      </trkpt>
      <trkpt lat="59.161926" lon="18.130443">
        <ele>40</ele>
        <time>2019-09-01T17:14:54Z</time>
      </trkpt>
      <trkpt lat="59.161912" lon="18.130471">
        <ele>40</ele>
        <time>2019-09-01T17:14:55Z</time>
      </trkpt>
      <trkpt lat="59.161901" lon="18.130499">
        <ele>40</ele>
        <time>2019-09-01T17:14:56Z</time>
      </trkpt>
      <trkpt lat="59.161877" lon="18.130549">
        <ele>40</ele>
        <time>2019-09-01T17:14:58Z</time>
      </trkpt>
      <trkpt lat="59.161846" lon="18.130577">
        <ele>40</ele>
        <time>2019-09-01T17:15:01Z</time>
      </trkpt>
      <trkpt lat="59.161816" lon="18.1306">
        <ele>40</ele>
        <time>2019-09-01T17:15:02Z</time>
      </trkpt>
      <trkpt lat="59.161786" lon="18.130631">
        <ele>41</ele>
        <time>2019-09-01T17:15:04Z</time>
      </trkpt>
      <trkpt lat="59.161762" lon="18.130662">
        <ele>41</ele>
        <time>2019-09-01T17:15:06Z</time>
      </trkpt>
      <trkpt lat="59.161741" lon="18.130683">
        <ele>41</ele>
        <time>2019-09-01T17:15:08Z</time>
      </trkpt>
      <trkpt lat="59.161722" lon="18.130697">
        <ele>41</ele>
        <time>2019-09-01T17:15:10Z</time>
      </trkpt>
      <trkpt lat="59.161712" lon="18.130717">
        <ele>0</ele>
        <time>2019-09-01T17:15:17Z</time>
      </trkpt>
      <trkpt lat="59.161701" lon="18.130887">
        <ele>43</ele>
        <time>2019-09-01T17:17:08Z</time>
      </trkpt>
      <trkpt lat="59.161701" lon="18.13094">
        <ele>43</ele>
        <time>2019-09-01T17:17:09Z</time>
      </trkpt>
      <trkpt lat="59.161704" lon="18.130989">
        <ele>43</ele>
        <time>2019-09-01T17:17:10Z</time>
      </trkpt>
      <trkpt lat="59.161712" lon="18.131035">
        <ele>43</ele>
        <time>2019-09-01T17:17:11Z</time>
      </trkpt>
      <trkpt lat="59.161727" lon="18.131072">
        <ele>43</ele>
        <time>2019-09-01T17:17:12Z</time>
      </trkpt>
      <trkpt lat="59.16175" lon="18.131105">
        <ele>43</ele>
        <time>2019-09-01T17:17:13Z</time>
      </trkpt>
      <trkpt lat="59.161776" lon="18.131139">
        <ele>43</ele>
        <time>2019-09-01T17:17:14Z</time>
      </trkpt>
      <trkpt lat="59.161807" lon="18.131175">
        <ele>43</ele>
        <time>2019-09-01T17:17:15Z</time>
      </trkpt>
      <trkpt lat="59.161845" lon="18.131206">
        <ele>43</ele>
        <time>2019-09-01T17:17:16Z</time>
      </trkpt>
      <trkpt lat="59.161887" lon="18.131232">
        <ele>43</ele>
        <time>2019-09-01T17:17:17Z</time>
      </trkpt>
      <trkpt lat="59.161932" lon="18.131255">
        <ele>43</ele>
        <time>2019-09-01T17:17:18Z</time>
      </trkpt>
      <trkpt lat="59.16198" lon="18.131278">
        <ele>43</ele>
        <time>2019-09-01T17:17:19Z</time>
      </trkpt>
      <trkpt lat="59.16203" lon="18.131304">
        <ele>43</ele>
        <time>2019-09-01T17:17:20Z</time>
      </trkpt>
      <trkpt lat="59.162082" lon="18.131332">
        <ele>43</ele>
        <time>2019-09-01T17:17:21Z</time>
      </trkpt>
      <trkpt lat="59.162135" lon="18.131361">
        <ele>43</ele>
        <time>2019-09-01T17:17:22Z</time>
      </trkpt>
      <trkpt lat="59.16219" lon="18.131393">
        <ele>43</ele>
        <time>2019-09-01T17:17:23Z</time>
      </trkpt>
      <trkpt lat="59.162246" lon="18.131426">
        <ele>43</ele>
        <time>2019-09-01T17:17:24Z</time>
      </trkpt>
      <trkpt lat="59.162303" lon="18.13146">
        <ele>43</ele>
        <time>2019-09-01T17:17:25Z</time>
      </trkpt>
      <trkpt lat="59.162361" lon="18.131493">
        <ele>43</ele>
        <time>2019-09-01T17:17:26Z</time>
      </trkpt>
      <trkpt lat="59.16242" lon="18.131526">
        <ele>43</ele>
        <time>2019-09-01T17:17:28Z</time>
      </trkpt>
      <trkpt lat="59.16248" lon="18.131561">
        <ele>43</ele>
        <time>2019-09-01T17:17:28Z</time>
      </trkpt>
      <trkpt lat="59.162539" lon="18.131591">
        <ele>43</ele>
        <time>2019-09-01T17:17:29Z</time>
      </trkpt>
      <trkpt lat="59.1626" lon="18.131619">
        <ele>43</ele>
        <time>2019-09-01T17:17:30Z</time>
      </trkpt>
      <trkpt lat="59.162663" lon="18.131644">
        <ele>43</ele>
        <time>2019-09-01T17:17:31Z</time>
      </trkpt>
      <trkpt lat="59.162726" lon="18.131667">
        <ele>43</ele>
        <time>2019-09-01T17:17:32Z</time>
      </trkpt>
      <trkpt lat="59.162788" lon="18.131691">
        <ele>43</ele>
        <time>2019-09-01T17:17:33Z</time>
      </trkpt>
      <trkpt lat="59.16285" lon="18.131717">
        <ele>43</ele>
        <time>2019-09-01T17:17:34Z</time>
      </trkpt>
      <trkpt lat="59.162909" lon="18.131743">
        <ele>43</ele>
        <time>2019-09-01T17:17:35Z</time>
      </trkpt>
      <trkpt lat="59.162967" lon="18.131771">
        <ele>43</ele>
        <time>2019-09-01T17:17:36Z</time>
      </trkpt>
      <trkpt lat="59.163022" lon="18.131798">
        <ele>43</ele>
        <time>2019-09-01T17:17:37Z</time>
      </trkpt>
      <trkpt lat="59.163076" lon="18.131824">
        <ele>43</ele>
        <time>2019-09-01T17:17:38Z</time>
      </trkpt>
      <trkpt lat="59.163129" lon="18.131847">
        <ele>43</ele>
        <time>2019-09-01T17:17:39Z</time>
      </trkpt>
      <trkpt lat="59.163181" lon="18.131865">
        <ele>43</ele>
        <time>2019-09-01T17:17:40Z</time>
      </trkpt>
      <trkpt lat="59.163231" lon="18.131884">
        <ele>43</ele>
        <time>2019-09-01T17:17:41Z</time>
      </trkpt>
      <trkpt lat="59.163278" lon="18.131903">
        <ele>43</ele>
        <time>2019-09-01T17:17:42Z</time>
      </trkpt>
      <trkpt lat="59.163323" lon="18.131924">
        <ele>43</ele>
        <time>2019-09-01T17:17:43Z</time>
      </trkpt>
      <trkpt lat="59.163368" lon="18.131946">
        <ele>43</ele>
        <time>2019-09-01T17:17:44Z</time>
      </trkpt>
      <trkpt lat="59.163413" lon="18.131968">
        <ele>43</ele>
        <time>2019-09-01T17:17:45Z</time>
      </trkpt>
      <trkpt lat="59.163461" lon="18.131994">
        <ele>43</ele>
        <time>2019-09-01T17:17:46Z</time>
      </trkpt>
      <trkpt lat="59.163509" lon="18.132024">
        <ele>43</ele>
        <time>2019-09-01T17:17:47Z</time>
      </trkpt>
      <trkpt lat="59.163564" lon="18.13205">
        <ele>43</ele>
        <time>2019-09-01T17:17:48Z</time>
      </trkpt>
      <trkpt lat="59.163619" lon="18.132073">
        <ele>43</ele>
        <time>2019-09-01T17:17:49Z</time>
      </trkpt>
      <trkpt lat="59.163675" lon="18.132097">
        <ele>43</ele>
        <time>2019-09-01T17:17:50Z</time>
      </trkpt>
      <trkpt lat="59.16373" lon="18.132121">
        <ele>43</ele>
        <time>2019-09-01T17:17:51Z</time>
      </trkpt>
      <trkpt lat="59.163785" lon="18.132144">
        <ele>43</ele>
        <time>2019-09-01T17:17:52Z</time>
      </trkpt>
      <trkpt lat="59.163839" lon="18.13217">
        <ele>43</ele>
        <time>2019-09-01T17:17:53Z</time>
      </trkpt>
      <trkpt lat="59.163893" lon="18.132193">
        <ele>43</ele>
        <time>2019-09-01T17:17:54Z</time>
      </trkpt>
      <trkpt lat="59.163949" lon="18.132216">
        <ele>43</ele>
        <time>2019-09-01T17:17:55Z</time>
      </trkpt>
      <trkpt lat="59.164004" lon="18.132234">
        <ele>43</ele>
        <time>2019-09-01T17:17:56Z</time>
      </trkpt>
      <trkpt lat="59.164058" lon="18.132252">
        <ele>42</ele>
        <time>2019-09-01T17:17:57Z</time>
      </trkpt>
      <trkpt lat="59.164112" lon="18.132275">
        <ele>43</ele>
        <time>2019-09-01T17:17:58Z</time>
      </trkpt>
      <trkpt lat="59.164164" lon="18.132309">
        <ele>43</ele>
        <time>2019-09-01T17:17:59Z</time>
      </trkpt>
      <trkpt lat="59.164217" lon="18.132347">
        <ele>43</ele>
        <time>2019-09-01T17:18:00Z</time>
      </trkpt>
      <trkpt lat="59.164269" lon="18.132388">
        <ele>42</ele>
        <time>2019-09-01T17:18:01Z</time>
      </trkpt>
      <trkpt lat="59.16432" lon="18.132429">
        <ele>42</ele>
        <time>2019-09-01T17:18:02Z</time>
      </trkpt>
      <trkpt lat="59.16437" lon="18.132467">
        <ele>42</ele>
        <time>2019-09-01T17:18:03Z</time>
      </trkpt>
      <trkpt lat="59.164419" lon="18.132498">
        <ele>42</ele>
        <time>2019-09-01T17:18:04Z</time>
      </trkpt>
      <trkpt lat="59.164469" lon="18.132527">
        <ele>42</ele>
        <time>2019-09-01T17:18:05Z</time>
      </trkpt>
      <trkpt lat="59.16452" lon="18.13255">
        <ele>42</ele>
        <time>2019-09-01T17:18:06Z</time>
      </trkpt>
      <trkpt lat="59.164564" lon="18.132567">
        <ele>42</ele>
        <time>2019-09-01T17:18:07Z</time>
      </trkpt>
      <trkpt lat="59.164608" lon="18.132585">
        <ele>42</ele>
        <time>2019-09-01T17:18:08Z</time>
      </trkpt>
      <trkpt lat="59.164653" lon="18.132606">
        <ele>42</ele>
        <time>2019-09-01T17:18:09Z</time>
      </trkpt>
      <trkpt lat="59.164701" lon="18.132623">
        <ele>42</ele>
        <time>2019-09-01T17:18:10Z</time>
      </trkpt>
      <trkpt lat="59.164749" lon="18.132641">
        <ele>42</ele>
        <time>2019-09-01T17:18:11Z</time>
      </trkpt>
      <trkpt lat="59.164795" lon="18.13266">
        <ele>42</ele>
        <time>2019-09-01T17:18:12Z</time>
      </trkpt>
      <trkpt lat="59.164843" lon="18.132681">
        <ele>42</ele>
        <time>2019-09-01T17:18:13Z</time>
      </trkpt>
      <trkpt lat="59.164887" lon="18.132698">
        <ele>42</ele>
        <time>2019-09-01T17:18:14Z</time>
      </trkpt>
      <trkpt lat="59.164928" lon="18.132714">
        <ele>42</ele>
        <time>2019-09-01T17:18:15Z</time>
      </trkpt>
      <trkpt lat="59.164962" lon="18.132715">
        <ele>42</ele>
        <time>2019-09-01T17:18:16Z</time>
      </trkpt>
      <trkpt lat="59.164987" lon="18.132698">
        <ele>42</ele>
        <time>2019-09-01T17:18:17Z</time>
      </trkpt>
      <trkpt lat="59.165004" lon="18.132682">
        <ele>43</ele>
        <time>2019-09-01T17:18:18Z</time>
      </trkpt>
      <trkpt lat="59.165026" lon="18.132674">
        <ele>43</ele>
        <time>2019-09-01T17:18:19Z</time>
      </trkpt>
      <trkpt lat="59.16506" lon="18.132648">
        <ele>43</ele>
        <time>2019-09-01T17:18:21Z</time>
      </trkpt>
      <trkpt lat="59.165088" lon="18.132679">
        <ele>43</ele>
        <time>2019-09-01T17:18:23Z</time>
      </trkpt>
      <trkpt lat="59.165097" lon="18.132716">
        <ele>43</ele>
        <time>2019-09-01T17:18:24Z</time>
      </trkpt>
      <trkpt lat="59.165108" lon="18.132759">
        <ele>43</ele>
        <time>2019-09-01T17:18:25Z</time>
      </trkpt>
      <trkpt lat="59.165102" lon="18.132806">
        <ele>43</ele>
        <time>2019-09-01T17:18:26Z</time>
      </trkpt>
      <trkpt lat="59.165091" lon="18.132863">
        <ele>43</ele>
        <time>2019-09-01T17:18:27Z</time>
      </trkpt>
      <trkpt lat="59.165069" lon="18.132906">
        <ele>43</ele>
        <time>2019-09-01T17:18:28Z</time>
      </trkpt>
      <trkpt lat="59.165027" lon="18.132884">
        <ele>44</ele>
        <time>2019-09-01T17:18:30Z</time>
      </trkpt>
      <trkpt lat="59.165011" lon="18.132861">
        <ele>44</ele>
        <time>2019-09-01T17:18:31Z</time>
      </trkpt>
      <trkpt lat="59.164992" lon="18.132844">
        <ele>45</ele>
        <time>2019-09-01T17:18:32Z</time>
      </trkpt>
      <trkpt lat="59.164996" lon="18.132804">
        <ele>46</ele>
        <time>2019-09-01T17:18:34Z</time>
      </trkpt>
      <trkpt lat="59.165023" lon="18.132769">
        <ele>47</ele>
        <time>2019-09-01T17:18:36Z</time>
      </trkpt>
      <trkpt lat="59.165056" lon="18.132785">
        <ele>48</ele>
        <time>2019-09-01T17:18:38Z</time>
      </trkpt>
      <trkpt lat="59.165073" lon="18.132846">
        <ele>49</ele>
        <time>2019-09-01T17:18:40Z</time>
      </trkpt>
      <trkpt lat="59.165065" lon="18.132914">
        <ele>50</ele>
        <time>2019-09-01T17:18:42Z</time>
      </trkpt>
      <trkpt lat="59.165043" lon="18.132926">
        <ele>50</ele>
        <time>2019-09-01T17:18:43Z</time>
      </trkpt>
      <trkpt lat="59.165018" lon="18.132923">
        <ele>51</ele>
        <time>2019-09-01T17:18:44Z</time>
      </trkpt>
      <trkpt lat="59.164995" lon="18.132917">
        <ele>51</ele>
        <time>2019-09-01T17:18:45Z</time>
      </trkpt>
      <trkpt lat="59.164973" lon="18.132907">
        <ele>51</ele>
        <time>2019-09-01T17:18:46Z</time>
      </trkpt>
      <trkpt lat="59.16495" lon="18.132896">
        <ele>51</ele>
        <time>2019-09-01T17:18:47Z</time>
      </trkpt>
      <trkpt lat="59.164929" lon="18.132886">
        <ele>51</ele>
        <time>2019-09-01T17:18:48Z</time>
      </trkpt>
      <trkpt lat="59.16491" lon="18.132891">
        <ele>52</ele>
        <time>2019-09-01T17:18:51Z</time>
      </trkpt>
      <trkpt lat="59.164899" lon="18.132921">
        <ele>51</ele>
        <time>2019-09-01T17:18:53Z</time>
      </trkpt>
      <trkpt lat="59.164881" lon="18.132947">
        <ele>50</ele>
        <time>2019-09-01T17:18:55Z</time>
      </trkpt>
      <trkpt lat="59.164868" lon="18.132978">
        <ele>50</ele>
        <time>2019-09-01T17:18:56Z</time>
      </trkpt>
      <trkpt lat="59.164851" lon="18.133022">
        <ele>49</ele>
        <time>2019-09-01T17:18:57Z</time>
      </trkpt>
      <trkpt lat="59.164839" lon="18.133068">
        <ele>48</ele>
        <time>2019-09-01T17:18:58Z</time>
      </trkpt>
      <trkpt lat="59.164832" lon="18.133111">
        <ele>48</ele>
        <time>2019-09-01T17:18:59Z</time>
      </trkpt>
      <trkpt lat="59.164824" lon="18.133155">
        <ele>47</ele>
        <time>2019-09-01T17:19:00Z</time>
      </trkpt>
      <trkpt lat="59.164813" lon="18.133191">
        <ele>47</ele>
        <time>2019-09-01T17:19:01Z</time>
      </trkpt>
      <trkpt lat="59.164803" lon="18.133228">
        <ele>46</ele>
        <time>2019-09-01T17:19:03Z</time>
      </trkpt>
      <trkpt lat="59.164793" lon="18.133272">
        <ele>46</ele>
        <time>2019-09-01T17:19:03Z</time>
      </trkpt>
      <trkpt lat="59.164784" lon="18.133313">
        <ele>46</ele>
        <time>2019-09-01T17:19:04Z</time>
      </trkpt>
      <trkpt lat="59.164774" lon="18.133352">
        <ele>45</ele>
        <time>2019-09-01T17:19:05Z</time>
      </trkpt>
      <trkpt lat="59.16476" lon="18.133393">
        <ele>45</ele>
        <time>2019-09-01T17:19:06Z</time>
      </trkpt>
      <trkpt lat="59.164745" lon="18.133434">
        <ele>45</ele>
        <time>2019-09-01T17:19:07Z</time>
      </trkpt>
      <trkpt lat="59.164728" lon="18.133531">
        <ele>46</ele>
        <time>2019-09-01T17:19:08Z</time>
      </trkpt>
      <trkpt lat="59.164705" lon="18.133821">
        <ele>51</ele>
        <time>2019-09-01T17:19:10Z</time>
      </trkpt>
      <trkpt lat="59.164705" lon="18.133928">
        <ele>52</ele>
        <time>2019-09-01T17:19:11Z</time>
      </trkpt>
      <trkpt lat="59.164698" lon="18.133979">
        <ele>54</ele>
        <time>2019-09-01T17:19:12Z</time>
      </trkpt>
      <trkpt lat="59.164684" lon="18.134035">
        <ele>54</ele>
        <time>2019-09-01T17:19:13Z</time>
      </trkpt>
      <trkpt lat="59.164681" lon="18.134093">
        <ele>54</ele>
        <time>2019-09-01T17:19:14Z</time>
      </trkpt>
      <trkpt lat="59.164682" lon="18.134158">
        <ele>55</ele>
        <time>2019-09-01T17:19:15Z</time>
      </trkpt>
      <trkpt lat="59.164678" lon="18.134227">
        <ele>55</ele>
        <time>2019-09-01T17:19:16Z</time>
      </trkpt>
      <trkpt lat="59.164671" lon="18.13428">
        <ele>55</ele>
        <time>2019-09-01T17:19:17Z</time>
      </trkpt>
      <trkpt lat="59.164663" lon="18.13433">
        <ele>55</ele>
        <time>2019-09-01T17:19:18Z</time>
      </trkpt>
      <trkpt lat="59.164652" lon="18.134377">
        <ele>55</ele>
        <time>2019-09-01T17:19:19Z</time>
      </trkpt>
      <trkpt lat="59.164642" lon="18.134417">
        <ele>55</ele>
        <time>2019-09-01T17:19:20Z</time>
      </trkpt>
      <trkpt lat="59.164633" lon="18.134449">
        <ele>56</ele>
        <time>2019-09-01T17:19:21Z</time>
      </trkpt>
      <trkpt lat="59.164618" lon="18.134478">
        <ele>56</ele>
        <time>2019-09-01T17:19:22Z</time>
      </trkpt>
      <trkpt lat="59.164599" lon="18.134505">
        <ele>56</ele>
        <time>2019-09-01T17:19:23Z</time>
      </trkpt>
      <trkpt lat="59.164585" lon="18.134545">
        <ele>56</ele>
        <time>2019-09-01T17:19:24Z</time>
      </trkpt>
      <trkpt lat="59.164575" lon="18.134596">
        <ele>56</ele>
        <time>2019-09-01T17:19:25Z</time>
      </trkpt>
      <trkpt lat="59.164568" lon="18.134647">
        <ele>55</ele>
        <time>2019-09-01T17:19:26Z</time>
      </trkpt>
      <trkpt lat="59.164564" lon="18.134694">
        <ele>56</ele>
        <time>2019-09-01T17:19:27Z</time>
      </trkpt>
      <trkpt lat="59.164564" lon="18.13474">
        <ele>56</ele>
        <time>2019-09-01T17:19:28Z</time>
      </trkpt>
      <trkpt lat="59.164563" lon="18.134783">
        <ele>56</ele>
        <time>2019-09-01T17:19:29Z</time>
      </trkpt>
      <trkpt lat="59.164557" lon="18.134821">
        <ele>57</ele>
        <time>2019-09-01T17:19:30Z</time>
      </trkpt>
      <trkpt lat="59.164557" lon="18.134861">
        <ele>57</ele>
        <time>2019-09-01T17:19:31Z</time>
      </trkpt>
      <trkpt lat="59.164579" lon="18.134917">
        <ele>57</ele>
        <time>2019-09-01T17:19:33Z</time>
      </trkpt>
      <trkpt lat="59.164602" lon="18.13493">
        <ele>57</ele>
        <time>2019-09-01T17:19:34Z</time>
      </trkpt>
      <trkpt lat="59.164628" lon="18.134937">
        <ele>57</ele>
        <time>2019-09-01T17:19:35Z</time>
      </trkpt>
      <trkpt lat="59.164656" lon="18.134943">
        <ele>57</ele>
        <time>2019-09-01T17:19:36Z</time>
      </trkpt>
      <trkpt lat="59.164686" lon="18.134949">
        <ele>57</ele>
        <time>2019-09-01T17:19:37Z</time>
      </trkpt>
      <trkpt lat="59.164715" lon="18.134959">
        <ele>57</ele>
        <time>2019-09-01T17:19:38Z</time>
      </trkpt>
      <trkpt lat="59.164744" lon="18.134973">
        <ele>57</ele>
        <time>2019-09-01T17:19:39Z</time>
      </trkpt>
      <trkpt lat="59.164774" lon="18.134988">
        <ele>57</ele>
        <time>2019-09-01T17:19:40Z</time>
      </trkpt>
      <trkpt lat="59.164808" lon="18.135002">
        <ele>57</ele>
        <time>2019-09-01T17:19:41Z</time>
      </trkpt>
      <trkpt lat="59.164848" lon="18.135013">
        <ele>57</ele>
        <time>2019-09-01T17:19:42Z</time>
      </trkpt>
      <trkpt lat="59.164887" lon="18.135019">
        <ele>57</ele>
        <time>2019-09-01T17:19:43Z</time>
      </trkpt>
      <trkpt lat="59.164922" lon="18.13503">
        <ele>57</ele>
        <time>2019-09-01T17:19:44Z</time>
      </trkpt>
      <trkpt lat="59.164959" lon="18.135047">
        <ele>58</ele>
        <time>2019-09-01T17:19:45Z</time>
      </trkpt>
      <trkpt lat="59.164999" lon="18.135064">
        <ele>58</ele>
        <time>2019-09-01T17:19:46Z</time>
      </trkpt>
      <trkpt lat="59.165039" lon="18.135084">
        <ele>58</ele>
        <time>2019-09-01T17:19:47Z</time>
      </trkpt>
      <trkpt lat="59.165081" lon="18.135105">
        <ele>58</ele>
        <time>2019-09-01T17:19:48Z</time>
      </trkpt>
      <trkpt lat="59.165127" lon="18.135127">
        <ele>58</ele>
        <time>2019-09-01T17:19:49Z</time>
      </trkpt>
      <trkpt lat="59.165175" lon="18.13515">
        <ele>58</ele>
        <time>2019-09-01T17:19:50Z</time>
      </trkpt>
      <trkpt lat="59.165221" lon="18.135174">
        <ele>58</ele>
        <time>2019-09-01T17:19:51Z</time>
      </trkpt>
      <trkpt lat="59.165264" lon="18.135199">
        <ele>58</ele>
        <time>2019-09-01T17:19:52Z</time>
      </trkpt>
      <trkpt lat="59.165311" lon="18.135221">
        <ele>58</ele>
        <time>2019-09-01T17:19:53Z</time>
      </trkpt>
      <trkpt lat="59.165356" lon="18.135245">
        <ele>58</ele>
        <time>2019-09-01T17:19:54Z</time>
      </trkpt>
      <trkpt lat="59.165403" lon="18.135267">
        <ele>58</ele>
        <time>2019-09-01T17:19:55Z</time>
      </trkpt>
      <trkpt lat="59.165449" lon="18.135289">
        <ele>58</ele>
        <time>2019-09-01T17:19:56Z</time>
      </trkpt>
      <trkpt lat="59.165497" lon="18.135311">
        <ele>58</ele>
        <time>2019-09-01T17:19:57Z</time>
      </trkpt>
      <trkpt lat="59.165544" lon="18.135334">
        <ele>58</ele>
        <time>2019-09-01T17:19:58Z</time>
      </trkpt>
      <trkpt lat="59.165591" lon="18.13536">
        <ele>58</ele>
        <time>2019-09-01T17:19:59Z</time>
      </trkpt>
      <trkpt lat="59.165637" lon="18.135383">
        <ele>58</ele>
        <time>2019-09-01T17:20:00Z</time>
      </trkpt>
      <trkpt lat="59.165684" lon="18.135406">
        <ele>58</ele>
        <time>2019-09-01T17:20:01Z</time>
      </trkpt>
      <trkpt lat="59.16573" lon="18.135431">
        <ele>59</ele>
        <time>2019-09-01T17:20:02Z</time>
      </trkpt>
      <trkpt lat="59.165778" lon="18.135459">
        <ele>59</ele>
        <time>2019-09-01T17:20:03Z</time>
      </trkpt>
      <trkpt lat="59.165823" lon="18.135484">
        <ele>59</ele>
        <time>2019-09-01T17:20:04Z</time>
      </trkpt>
      <trkpt lat="59.16587" lon="18.135507">
        <ele>59</ele>
        <time>2019-09-01T17:20:05Z</time>
      </trkpt>
      <trkpt lat="59.165916" lon="18.13553">
        <ele>59</ele>
        <time>2019-09-01T17:20:06Z</time>
      </trkpt>
      <trkpt lat="59.165961" lon="18.135555">
        <ele>59</ele>
        <time>2019-09-01T17:20:07Z</time>
      </trkpt>
      <trkpt lat="59.166006" lon="18.135579">
        <ele>59</ele>
        <time>2019-09-01T17:20:08Z</time>
      </trkpt>
      <trkpt lat="59.166048" lon="18.135602">
        <ele>59</ele>
        <time>2019-09-01T17:20:09Z</time>
      </trkpt>
      <trkpt lat="59.166091" lon="18.135627">
        <ele>59</ele>
        <time>2019-09-01T17:20:10Z</time>
      </trkpt>
      <trkpt lat="59.166132" lon="18.135656">
        <ele>59</ele>
        <time>2019-09-01T17:20:11Z</time>
      </trkpt>
      <trkpt lat="59.166172" lon="18.135684">
        <ele>59</ele>
        <time>2019-09-01T17:20:12Z</time>
      </trkpt>
      <trkpt lat="59.166216" lon="18.135713">
        <ele>58</ele>
        <time>2019-09-01T17:20:13Z</time>
      </trkpt>
      <trkpt lat="59.166262" lon="18.135737">
        <ele>58</ele>
        <time>2019-09-01T17:20:14Z</time>
      </trkpt>
      <trkpt lat="59.166309" lon="18.135747">
        <ele>58</ele>
        <time>2019-09-01T17:20:15Z</time>
      </trkpt>
      <trkpt lat="59.166354" lon="18.135762">
        <ele>58</ele>
        <time>2019-09-01T17:20:16Z</time>
      </trkpt>
      <trkpt lat="59.16639" lon="18.135794">
        <ele>58</ele>
        <time>2019-09-01T17:20:17Z</time>
      </trkpt>
      <trkpt lat="59.166432" lon="18.135802">
        <ele>59</ele>
        <time>2019-09-01T17:20:18Z</time>
      </trkpt>
      <trkpt lat="59.166473" lon="18.135801">
        <ele>59</ele>
        <time>2019-09-01T17:20:19Z</time>
      </trkpt>
      <trkpt lat="59.166518" lon="18.135811">
        <ele>59</ele>
        <time>2019-09-01T17:20:20Z</time>
      </trkpt>
      <trkpt lat="59.166562" lon="18.135814">
        <ele>60</ele>
        <time>2019-09-01T17:20:21Z</time>
      </trkpt>
      <trkpt lat="59.166604" lon="18.135811">
        <ele>60</ele>
        <time>2019-09-01T17:20:22Z</time>
      </trkpt>
      <trkpt lat="59.166648" lon="18.135805">
        <ele>60</ele>
        <time>2019-09-01T17:20:23Z</time>
      </trkpt>
      <trkpt lat="59.166691" lon="18.13581">
        <ele>60</ele>
        <time>2019-09-01T17:20:24Z</time>
      </trkpt>
      <trkpt lat="59.166735" lon="18.135816">
        <ele>60</ele>
        <time>2019-09-01T17:20:25Z</time>
      </trkpt>
      <trkpt lat="59.16678" lon="18.135823">
        <ele>60</ele>
        <time>2019-09-01T17:20:26Z</time>
      </trkpt>
      <trkpt lat="59.166824" lon="18.135832">
        <ele>61</ele>
        <time>2019-09-01T17:20:27Z</time>
      </trkpt>
      <trkpt lat="59.16687" lon="18.135846">
        <ele>61</ele>
        <time>2019-09-01T17:20:28Z</time>
      </trkpt>
      <trkpt lat="59.166914" lon="18.135865">
        <ele>61</ele>
        <time>2019-09-01T17:20:29Z</time>
      </trkpt>
      <trkpt lat="59.166958" lon="18.135885">
        <ele>61</ele>
        <time>2019-09-01T17:20:30Z</time>
      </trkpt>
      <trkpt lat="59.167007" lon="18.135903">
        <ele>61</ele>
        <time>2019-09-01T17:20:31Z</time>
      </trkpt>
      <trkpt lat="59.16705" lon="18.135924">
        <ele>61</ele>
        <time>2019-09-01T17:20:32Z</time>
      </trkpt>
      <trkpt lat="59.167092" lon="18.135944">
        <ele>62</ele>
        <time>2019-09-01T17:20:33Z</time>
      </trkpt>
      <trkpt lat="59.167136" lon="18.135963">
        <ele>62</ele>
        <time>2019-09-01T17:20:34Z</time>
      </trkpt>
      <trkpt lat="59.16718" lon="18.135981">
        <ele>62</ele>
        <time>2019-09-01T17:20:35Z</time>
      </trkpt>
      <trkpt lat="59.167224" lon="18.136">
        <ele>62</ele>
        <time>2019-09-01T17:20:36Z</time>
      </trkpt>
      <trkpt lat="59.167268" lon="18.136022">
        <ele>62</ele>
        <time>2019-09-01T17:20:37Z</time>
      </trkpt>
      <trkpt lat="59.167316" lon="18.136037">
        <ele>62</ele>
        <time>2019-09-01T17:20:38Z</time>
      </trkpt>
      <trkpt lat="59.16736" lon="18.136054">
        <ele>62</ele>
        <time>2019-09-01T17:20:39Z</time>
      </trkpt>
      <trkpt lat="59.167404" lon="18.136071">
        <ele>62</ele>
        <time>2019-09-01T17:20:40Z</time>
      </trkpt>
      <trkpt lat="59.167447" lon="18.136086">
        <ele>62</ele>
        <time>2019-09-01T17:20:41Z</time>
      </trkpt>
      <trkpt lat="59.167489" lon="18.136102">
        <ele>62</ele>
        <time>2019-09-01T17:20:42Z</time>
      </trkpt>
      <trkpt lat="59.167528" lon="18.136121">
        <ele>62</ele>
        <time>2019-09-01T17:20:43Z</time>
      </trkpt>
      <trkpt lat="59.167564" lon="18.136139">
        <ele>62</ele>
        <time>2019-09-01T17:20:44Z</time>
      </trkpt>
      <trkpt lat="59.167602" lon="18.136153">
        <ele>61</ele>
        <time>2019-09-01T17:20:45Z</time>
      </trkpt>
      <trkpt lat="59.167629" lon="18.136172">
        <ele>61</ele>
        <time>2019-09-01T17:20:46Z</time>
      </trkpt>
      <trkpt lat="59.167649" lon="18.136184">
        <ele>62</ele>
        <time>2019-09-01T17:20:47Z</time>
      </trkpt>
      <trkpt lat="59.167669" lon="18.136191">
        <ele>62</ele>
        <time>2019-09-01T17:20:48Z</time>
      </trkpt>
      <trkpt lat="59.167691" lon="18.136195">
        <ele>62</ele>
        <time>2019-09-01T17:20:49Z</time>
      </trkpt>
      <trkpt lat="59.167706" lon="18.136226">
        <ele>62</ele>
        <time>2019-09-01T17:20:50Z</time>
      </trkpt>
      <trkpt lat="59.167734" lon="18.136236">
        <ele>62</ele>
        <time>2019-09-01T17:20:51Z</time>
      </trkpt>
      <trkpt lat="59.167765" lon="18.136259">
        <ele>62</ele>
        <time>2019-09-01T17:20:52Z</time>
      </trkpt>
      <trkpt lat="59.167794" lon="18.136288">
        <ele>62</ele>
        <time>2019-09-01T17:20:53Z</time>
      </trkpt>
      <trkpt lat="59.167824" lon="18.136323">
        <ele>63</ele>
        <time>2019-09-01T17:20:54Z</time>
      </trkpt>
      <trkpt lat="59.167855" lon="18.136352">
        <ele>63</ele>
        <time>2019-09-01T17:20:55Z</time>
      </trkpt>
      <trkpt lat="59.167888" lon="18.136372">
        <ele>63</ele>
        <time>2019-09-01T17:20:56Z</time>
      </trkpt>
      <trkpt lat="59.167922" lon="18.136388">
        <ele>63</ele>
        <time>2019-09-01T17:20:57Z</time>
      </trkpt>
      <trkpt lat="59.167968" lon="18.136399">
        <ele>63</ele>
        <time>2019-09-01T17:20:58Z</time>
      </trkpt>
      <trkpt lat="59.168006" lon="18.136414">
        <ele>63</ele>
        <time>2019-09-01T17:20:59Z</time>
      </trkpt>
      <trkpt lat="59.168042" lon="18.136443">
        <ele>63</ele>
        <time>2019-09-01T17:21:00Z</time>
      </trkpt>
      <trkpt lat="59.168079" lon="18.136462">
        <ele>63</ele>
        <time>2019-09-01T17:21:01Z</time>
      </trkpt>
      <trkpt lat="59.168116" lon="18.136488">
        <ele>64</ele>
        <time>2019-09-01T17:21:02Z</time>
      </trkpt>
      <trkpt lat="59.168157" lon="18.136521">
        <ele>64</ele>
        <time>2019-09-01T17:21:03Z</time>
      </trkpt>
      <trkpt lat="59.168201" lon="18.136556">
        <ele>64</ele>
        <time>2019-09-01T17:21:04Z</time>
      </trkpt>
      <trkpt lat="59.168243" lon="18.136594">
        <ele>64</ele>
        <time>2019-09-01T17:21:05Z</time>
      </trkpt>
      <trkpt lat="59.168274" lon="18.136654">
        <ele>65</ele>
        <time>2019-09-01T17:21:06Z</time>
      </trkpt>
      <trkpt lat="59.168283" lon="18.136733">
        <ele>66</ele>
        <time>2019-09-01T17:21:07Z</time>
      </trkpt>
      <trkpt lat="59.16829" lon="18.136816">
        <ele>66</ele>
        <time>2019-09-01T17:21:08Z</time>
      </trkpt>
      <trkpt lat="59.168299" lon="18.136897">
        <ele>66</ele>
        <time>2019-09-01T17:21:09Z</time>
      </trkpt>
      <trkpt lat="59.168301" lon="18.136972">
        <ele>67</ele>
        <time>2019-09-01T17:21:10Z</time>
      </trkpt>
      <trkpt lat="59.168299" lon="18.137043">
        <ele>67</ele>
        <time>2019-09-01T17:21:11Z</time>
      </trkpt>
      <trkpt lat="59.16829" lon="18.137112">
        <ele>67</ele>
        <time>2019-09-01T17:21:12Z</time>
      </trkpt>
      <trkpt lat="59.168282" lon="18.137181">
        <ele>67</ele>
        <time>2019-09-01T17:21:13Z</time>
      </trkpt>
      <trkpt lat="59.168276" lon="18.137247">
        <ele>67</ele>
        <time>2019-09-01T17:21:14Z</time>
      </trkpt>
      <trkpt lat="59.16827" lon="18.137309">
        <ele>67</ele>
        <time>2019-09-01T17:21:15Z</time>
      </trkpt>
      <trkpt lat="59.168265" lon="18.137364">
        <ele>67</ele>
        <time>2019-09-01T17:21:16Z</time>
      </trkpt>
      <trkpt lat="59.168257" lon="18.137414">
        <ele>67</ele>
        <time>2019-09-01T17:21:17Z</time>
      </trkpt>
      <trkpt lat="59.168245" lon="18.137465">
        <ele>68</ele>
        <time>2019-09-01T17:21:18Z</time>
      </trkpt>
      <trkpt lat="59.168236" lon="18.137517">
        <ele>68</ele>
        <time>2019-09-01T17:21:19Z</time>
      </trkpt>
      <trkpt lat="59.168225" lon="18.137559">
        <ele>68</ele>
        <time>2019-09-01T17:21:20Z</time>
      </trkpt>
      <trkpt lat="59.168216" lon="18.137603">
        <ele>68</ele>
        <time>2019-09-01T17:21:21Z</time>
      </trkpt>
      <trkpt lat="59.168237" lon="18.13765">
        <ele>67</ele>
        <time>2019-09-01T17:21:23Z</time>
      </trkpt>
      <trkpt lat="59.168272" lon="18.137633">
        <ele>67</ele>
        <time>2019-09-01T17:21:25Z</time>
      </trkpt>
      <trkpt lat="59.168311" lon="18.137673">
        <ele>67</ele>
        <time>2019-09-01T17:21:27Z</time>
      </trkpt>
      <trkpt lat="59.168332" lon="18.137718">
        <ele>67</ele>
        <time>2019-09-01T17:21:28Z</time>
      </trkpt>
      <trkpt lat="59.168353" lon="18.137771">
        <ele>67</ele>
        <time>2019-09-01T17:21:29Z</time>
      </trkpt>
      <trkpt lat="59.168374" lon="18.137827">
        <ele>67</ele>
        <time>2019-09-01T17:21:30Z</time>
      </trkpt>
      <trkpt lat="59.168403" lon="18.137878">
        <ele>67</ele>
        <time>2019-09-01T17:21:31Z</time>
      </trkpt>
      <trkpt lat="59.16844" lon="18.13792">
        <ele>67</ele>
        <time>2019-09-01T17:21:32Z</time>
      </trkpt>
      <trkpt lat="59.168478" lon="18.137952">
        <ele>66</ele>
        <time>2019-09-01T17:21:33Z</time>
      </trkpt>
      <trkpt lat="59.168517" lon="18.137979">
        <ele>66</ele>
        <time>2019-09-01T17:21:34Z</time>
      </trkpt>
      <trkpt lat="59.168554" lon="18.138002">
        <ele>66</ele>
        <time>2019-09-01T17:21:35Z</time>
      </trkpt>
      <trkpt lat="59.168593" lon="18.138021">
        <ele>66</ele>
        <time>2019-09-01T17:21:36Z</time>
      </trkpt>
      <trkpt lat="59.168633" lon="18.138041">
        <ele>66</ele>
        <time>2019-09-01T17:21:37Z</time>
      </trkpt>
      <trkpt lat="59.168674" lon="18.138058">
        <ele>66</ele>
        <time>2019-09-01T17:21:38Z</time>
      </trkpt>
      <trkpt lat="59.168714" lon="18.138074">
        <ele>66</ele>
        <time>2019-09-01T17:21:39Z</time>
      </trkpt>
      <trkpt lat="59.168753" lon="18.138092">
        <ele>65</ele>
        <time>2019-09-01T17:21:40Z</time>
      </trkpt>
      <trkpt lat="59.168792" lon="18.138106">
        <ele>65</ele>
        <time>2019-09-01T17:21:41Z</time>
      </trkpt>
      <trkpt lat="59.168832" lon="18.138114">
        <ele>65</ele>
        <time>2019-09-01T17:21:42Z</time>
      </trkpt>
      <trkpt lat="59.168874" lon="18.138119">
        <ele>65</ele>
        <time>2019-09-01T17:21:43Z</time>
      </trkpt>
      <trkpt lat="59.168919" lon="18.138118">
        <ele>65</ele>
        <time>2019-09-01T17:21:44Z</time>
      </trkpt>
      <trkpt lat="59.168967" lon="18.138115">
        <ele>65</ele>
        <time>2019-09-01T17:21:45Z</time>
      </trkpt>
      <trkpt lat="59.169019" lon="18.138113">
        <ele>65</ele>
        <time>2019-09-01T17:21:46Z</time>
      </trkpt>
      <trkpt lat="59.169069" lon="18.138121">
        <ele>65</ele>
        <time>2019-09-01T17:21:47Z</time>
      </trkpt>
      <trkpt lat="59.169117" lon="18.138135">
        <ele>65</ele>
        <time>2019-09-01T17:21:48Z</time>
      </trkpt>
      <trkpt lat="59.169167" lon="18.138151">
        <ele>65</ele>
        <time>2019-09-01T17:21:49Z</time>
      </trkpt>
      <trkpt lat="59.169219" lon="18.138166">
        <ele>65</ele>
        <time>2019-09-01T17:21:50Z</time>
      </trkpt>
      <trkpt lat="59.169273" lon="18.138183">
        <ele>65</ele>
        <time>2019-09-01T17:21:51Z</time>
      </trkpt>
      <trkpt lat="59.169328" lon="18.138204">
        <ele>65</ele>
        <time>2019-09-01T17:21:52Z</time>
      </trkpt>
      <trkpt lat="59.169382" lon="18.138227">
        <ele>65</ele>
        <time>2019-09-01T17:21:54Z</time>
      </trkpt>
      <trkpt lat="59.169434" lon="18.138245">
        <ele>65</ele>
        <time>2019-09-01T17:21:54Z</time>
      </trkpt>
      <trkpt lat="59.169485" lon="18.138262">
        <ele>65</ele>
        <time>2019-09-01T17:21:55Z</time>
      </trkpt>
      <trkpt lat="59.169534" lon="18.13828">
        <ele>65</ele>
        <time>2019-09-01T17:21:56Z</time>
      </trkpt>
      <trkpt lat="59.169582" lon="18.138299">
        <ele>66</ele>
        <time>2019-09-01T17:21:57Z</time>
      </trkpt>
      <trkpt lat="59.169632" lon="18.138319">
        <ele>65</ele>
        <time>2019-09-01T17:21:58Z</time>
      </trkpt>
      <trkpt lat="59.169678" lon="18.138346">
        <ele>65</ele>
        <time>2019-09-01T17:21:59Z</time>
      </trkpt>
      <trkpt lat="59.169724" lon="18.138372">
        <ele>65</ele>
        <time>2019-09-01T17:22:00Z</time>
      </trkpt>
      <trkpt lat="59.169778" lon="18.138397">
        <ele>65</ele>
        <time>2019-09-01T17:22:01Z</time>
      </trkpt>
      <trkpt lat="59.169819" lon="18.138448">
        <ele>66</ele>
        <time>2019-09-01T17:22:02Z</time>
      </trkpt>
      <trkpt lat="59.169842" lon="18.138522">
        <ele>66</ele>
        <time>2019-09-01T17:22:03Z</time>
      </trkpt>
      <trkpt lat="59.169858" lon="18.138594">
        <ele>66</ele>
        <time>2019-09-01T17:22:04Z</time>
      </trkpt>
      <trkpt lat="59.169884" lon="18.138642">
        <ele>66</ele>
        <time>2019-09-01T17:22:05Z</time>
      </trkpt>
      <trkpt lat="59.169911" lon="18.138687">
        <ele>66</ele>
        <time>2019-09-01T17:22:06Z</time>
      </trkpt>
      <trkpt lat="59.169933" lon="18.138732">
        <ele>66</ele>
        <time>2019-09-01T17:22:07Z</time>
      </trkpt>
      <trkpt lat="59.169955" lon="18.138771">
        <ele>66</ele>
        <time>2019-09-01T17:22:08Z</time>
      </trkpt>
      <trkpt lat="59.16998" lon="18.138796">
        <ele>66</ele>
        <time>2019-09-01T17:22:09Z</time>
      </trkpt>
      <trkpt lat="59.170009" lon="18.138824">
        <ele>66</ele>
        <time>2019-09-01T17:22:10Z</time>
      </trkpt>
      <trkpt lat="59.17004" lon="18.138838">
        <ele>66</ele>
        <time>2019-09-01T17:22:11Z</time>
      </trkpt>
      <trkpt lat="59.170074" lon="18.138851">
        <ele>66</ele>
        <time>2019-09-01T17:22:12Z</time>
      </trkpt>
      <trkpt lat="59.170108" lon="18.13886">
        <ele>66</ele>
        <time>2019-09-01T17:22:13Z</time>
      </trkpt>
      <trkpt lat="59.170145" lon="18.138869">
        <ele>66</ele>
        <time>2019-09-01T17:22:14Z</time>
      </trkpt>
      <trkpt lat="59.170173" lon="18.1389">
        <ele>66</ele>
        <time>2019-09-01T17:22:15Z</time>
      </trkpt>
      <trkpt lat="59.170182" lon="18.138959">
        <ele>66</ele>
        <time>2019-09-01T17:22:16Z</time>
      </trkpt>
      <trkpt lat="59.170179" lon="18.139029">
        <ele>66</ele>
        <time>2019-09-01T17:22:17Z</time>
      </trkpt>
      <trkpt lat="59.170171" lon="18.139104">
        <ele>66</ele>
        <time>2019-09-01T17:22:18Z</time>
      </trkpt>
      <trkpt lat="59.170172" lon="18.13918">
        <ele>65</ele>
        <time>2019-09-01T17:22:19Z</time>
      </trkpt>
      <trkpt lat="59.170186" lon="18.139245">
        <ele>66</ele>
        <time>2019-09-01T17:22:20Z</time>
      </trkpt>
      <trkpt lat="59.170218" lon="18.139297">
        <ele>66</ele>
        <time>2019-09-01T17:22:21Z</time>
      </trkpt>
      <trkpt lat="59.170259" lon="18.139337">
        <ele>66</ele>
        <time>2019-09-01T17:22:22Z</time>
      </trkpt>
      <trkpt lat="59.170306" lon="18.139372">
        <ele>66</ele>
        <time>2019-09-01T17:22:23Z</time>
      </trkpt>
      <trkpt lat="59.170357" lon="18.139401">
        <ele>65</ele>
        <time>2019-09-01T17:22:24Z</time>
      </trkpt>
      <trkpt lat="59.170415" lon="18.139431">
        <ele>65</ele>
        <time>2019-09-01T17:22:25Z</time>
      </trkpt>
      <trkpt lat="59.170478" lon="18.139466">
        <ele>65</ele>
        <time>2019-09-01T17:22:26Z</time>
      </trkpt>
      <trkpt lat="59.170544" lon="18.139502">
        <ele>65</ele>
        <time>2019-09-01T17:22:27Z</time>
      </trkpt>
      <trkpt lat="59.17061" lon="18.139538">
        <ele>65</ele>
        <time>2019-09-01T17:22:28Z</time>
      </trkpt>
      <trkpt lat="59.170679" lon="18.139579">
        <ele>64</ele>
        <time>2019-09-01T17:22:29Z</time>
      </trkpt>
      <trkpt lat="59.17075" lon="18.13962">
        <ele>64</ele>
        <time>2019-09-01T17:22:30Z</time>
      </trkpt>
      <trkpt lat="59.170821" lon="18.139662">
        <ele>63</ele>
        <time>2019-09-01T17:22:31Z</time>
      </trkpt>
      <trkpt lat="59.170891" lon="18.139702">
        <ele>63</ele>
        <time>2019-09-01T17:22:32Z</time>
      </trkpt>
      <trkpt lat="59.170957" lon="18.139737">
        <ele>63</ele>
        <time>2019-09-01T17:22:33Z</time>
      </trkpt>
      <trkpt lat="59.171021" lon="18.139767">
        <ele>63</ele>
        <time>2019-09-01T17:22:34Z</time>
      </trkpt>
      <trkpt lat="59.171082" lon="18.139795">
        <ele>63</ele>
        <time>2019-09-01T17:22:35Z</time>
      </trkpt>
      <trkpt lat="59.171142" lon="18.13982">
        <ele>63</ele>
        <time>2019-09-01T17:22:36Z</time>
      </trkpt>
      <trkpt lat="59.171195" lon="18.139842">
        <ele>64</ele>
        <time>2019-09-01T17:22:37Z</time>
      </trkpt>
      <trkpt lat="59.171249" lon="18.139866">
        <ele>64</ele>
        <time>2019-09-01T17:22:38Z</time>
      </trkpt>
      <trkpt lat="59.171303" lon="18.139883">
        <ele>64</ele>
        <time>2019-09-01T17:22:39Z</time>
      </trkpt>
      <trkpt lat="59.171351" lon="18.139904">
        <ele>64</ele>
        <time>2019-09-01T17:22:40Z</time>
      </trkpt>
      <trkpt lat="59.171404" lon="18.139926">
        <ele>64</ele>
        <time>2019-09-01T17:22:41Z</time>
      </trkpt>
      <trkpt lat="59.171468" lon="18.139952">
        <ele>64</ele>
        <time>2019-09-01T17:22:42Z</time>
      </trkpt>
      <trkpt lat="59.171529" lon="18.139971">
        <ele>64</ele>
        <time>2019-09-01T17:22:43Z</time>
      </trkpt>
      <trkpt lat="59.171603" lon="18.139992">
        <ele>64</ele>
        <time>2019-09-01T17:22:44Z</time>
      </trkpt>
      <trkpt lat="59.171673" lon="18.140019">
        <ele>63</ele>
        <time>2019-09-01T17:22:45Z</time>
      </trkpt>
      <trkpt lat="59.17174" lon="18.140043">
        <ele>63</ele>
        <time>2019-09-01T17:22:46Z</time>
      </trkpt>
      <trkpt lat="59.171807" lon="18.140066">
        <ele>63</ele>
        <time>2019-09-01T17:22:47Z</time>
      </trkpt>
      <trkpt lat="59.17187" lon="18.140107">
        <ele>63</ele>
        <time>2019-09-01T17:22:48Z</time>
      </trkpt>
      <trkpt lat="59.171927" lon="18.140172">
        <ele>62</ele>
        <time>2019-09-01T17:22:49Z</time>
      </trkpt>
      <trkpt lat="59.171982" lon="18.140245">
        <ele>62</ele>
        <time>2019-09-01T17:22:50Z</time>
      </trkpt>
      <trkpt lat="59.172038" lon="18.140318">
        <ele>62</ele>
        <time>2019-09-01T17:22:51Z</time>
      </trkpt>
      <trkpt lat="59.172088" lon="18.140381">
        <ele>62</ele>
        <time>2019-09-01T17:22:52Z</time>
      </trkpt>
      <trkpt lat="59.172127" lon="18.140443">
        <ele>61</ele>
        <time>2019-09-01T17:22:53Z</time>
      </trkpt>
      <trkpt lat="59.17215" lon="18.140509">
        <ele>61</ele>
        <time>2019-09-01T17:22:54Z</time>
      </trkpt>
      <trkpt lat="59.172162" lon="18.140575">
        <ele>61</ele>
        <time>2019-09-01T17:22:55Z</time>
      </trkpt>
      <trkpt lat="59.172174" lon="18.140632">
        <ele>61</ele>
        <time>2019-09-01T17:22:56Z</time>
      </trkpt>
      <trkpt lat="59.172191" lon="18.14069">
        <ele>61</ele>
        <time>2019-09-01T17:22:57Z</time>
      </trkpt>
      <trkpt lat="59.172213" lon="18.14076">
        <ele>61</ele>
        <time>2019-09-01T17:22:58Z</time>
      </trkpt>
      <trkpt lat="59.172238" lon="18.140829">
        <ele>61</ele>
        <time>2019-09-01T17:22:59Z</time>
      </trkpt>
      <trkpt lat="59.172264" lon="18.140895">
        <ele>61</ele>
        <time>2019-09-01T17:23:00Z</time>
      </trkpt>
      <trkpt lat="59.172288" lon="18.140956">
        <ele>61</ele>
        <time>2019-09-01T17:23:01Z</time>
      </trkpt>
      <trkpt lat="59.172313" lon="18.141006">
        <ele>61</ele>
        <time>2019-09-01T17:23:02Z</time>
      </trkpt>
      <trkpt lat="59.172338" lon="18.141056">
        <ele>61</ele>
        <time>2019-09-01T17:23:03Z</time>
      </trkpt>
      <trkpt lat="59.172353" lon="18.141117">
        <ele>61</ele>
        <time>2019-09-01T17:23:04Z</time>
      </trkpt>
      <trkpt lat="59.172354" lon="18.141185">
        <ele>61</ele>
        <time>2019-09-01T17:23:05Z</time>
      </trkpt>
      <trkpt lat="59.172348" lon="18.141254">
        <ele>61</ele>
        <time>2019-09-01T17:23:06Z</time>
      </trkpt>
      <trkpt lat="59.172341" lon="18.141324">
        <ele>62</ele>
        <time>2019-09-01T17:23:07Z</time>
      </trkpt>
      <trkpt lat="59.172337" lon="18.141393">
        <ele>62</ele>
        <time>2019-09-01T17:23:08Z</time>
      </trkpt>
      <trkpt lat="59.172334" lon="18.141463">
        <ele>62</ele>
        <time>2019-09-01T17:23:09Z</time>
      </trkpt>
      <trkpt lat="59.172331" lon="18.14153">
        <ele>62</ele>
        <time>2019-09-01T17:23:10Z</time>
      </trkpt>
      <trkpt lat="59.17233" lon="18.141598">
        <ele>63</ele>
        <time>2019-09-01T17:23:11Z</time>
      </trkpt>
      <trkpt lat="59.172332" lon="18.14167">
        <ele>63</ele>
        <time>2019-09-01T17:23:12Z</time>
      </trkpt>
      <trkpt lat="59.172338" lon="18.141742">
        <ele>63</ele>
        <time>2019-09-01T17:23:13Z</time>
      </trkpt>
      <trkpt lat="59.172349" lon="18.141812">
        <ele>63</ele>
        <time>2019-09-01T17:23:14Z</time>
      </trkpt>
      <trkpt lat="59.172368" lon="18.14189">
        <ele>63</ele>
        <time>2019-09-01T17:23:15Z</time>
      </trkpt>
      <trkpt lat="59.172388" lon="18.141961">
        <ele>63</ele>
        <time>2019-09-01T17:23:16Z</time>
      </trkpt>
      <trkpt lat="59.172412" lon="18.142027">
        <ele>63</ele>
        <time>2019-09-01T17:23:17Z</time>
      </trkpt>
      <trkpt lat="59.172443" lon="18.142088">
        <ele>63</ele>
        <time>2019-09-01T17:23:18Z</time>
      </trkpt>
      <trkpt lat="59.172479" lon="18.142139">
        <ele>63</ele>
        <time>2019-09-01T17:23:19Z</time>
      </trkpt>
      <trkpt lat="59.172522" lon="18.142175">
        <ele>63</ele>
        <time>2019-09-01T17:23:20Z</time>
      </trkpt>
      <trkpt lat="59.172569" lon="18.142202">
        <ele>63</ele>
        <time>2019-09-01T17:23:21Z</time>
      </trkpt>
      <trkpt lat="59.17263" lon="18.14223">
        <ele>62</ele>
        <time>2019-09-01T17:23:22Z</time>
      </trkpt>
      <trkpt lat="59.172694" lon="18.142262">
        <ele>62</ele>
        <time>2019-09-01T17:23:23Z</time>
      </trkpt>
      <trkpt lat="59.172761" lon="18.142294">
        <ele>62</ele>
        <time>2019-09-01T17:23:24Z</time>
      </trkpt>
      <trkpt lat="59.172828" lon="18.142322">
        <ele>62</ele>
        <time>2019-09-01T17:23:25Z</time>
      </trkpt>
      <trkpt lat="59.172895" lon="18.142353">
        <ele>62</ele>
        <time>2019-09-01T17:23:26Z</time>
      </trkpt>
      <trkpt lat="59.172953" lon="18.142381">
        <ele>62</ele>
        <time>2019-09-01T17:23:27Z</time>
      </trkpt>
      <trkpt lat="59.173006" lon="18.142408">
        <ele>61</ele>
        <time>2019-09-01T17:23:28Z</time>
      </trkpt>
      <trkpt lat="59.17305" lon="18.142435">
        <ele>61</ele>
        <time>2019-09-01T17:23:29Z</time>
      </trkpt>
      <trkpt lat="59.173086" lon="18.142474">
        <ele>61</ele>
        <time>2019-09-01T17:23:30Z</time>
      </trkpt>
      <trkpt lat="59.173114" lon="18.142538">
        <ele>61</ele>
        <time>2019-09-01T17:23:31Z</time>
      </trkpt>
      <trkpt lat="59.17313" lon="18.142619">
        <ele>61</ele>
        <time>2019-09-01T17:23:32Z</time>
      </trkpt>
      <trkpt lat="59.173155" lon="18.142702">
        <ele>61</ele>
        <time>2019-09-01T17:23:33Z</time>
      </trkpt>
      <trkpt lat="59.173186" lon="18.142773">
        <ele>60</ele>
        <time>2019-09-01T17:23:34Z</time>
      </trkpt>
      <trkpt lat="59.173225" lon="18.142824">
        <ele>60</ele>
        <time>2019-09-01T17:23:35Z</time>
      </trkpt>
      <trkpt lat="59.173269" lon="18.142847">
        <ele>60</ele>
        <time>2019-09-01T17:23:36Z</time>
      </trkpt>
      <trkpt lat="59.173313" lon="18.142871">
        <ele>60</ele>
        <time>2019-09-01T17:23:37Z</time>
      </trkpt>
      <trkpt lat="59.173345" lon="18.142924">
        <ele>60</ele>
        <time>2019-09-01T17:23:38Z</time>
      </trkpt>
      <trkpt lat="59.173353" lon="18.142991">
        <ele>60</ele>
        <time>2019-09-01T17:23:39Z</time>
      </trkpt>
      <trkpt lat="59.173348" lon="18.143057">
        <ele>60</ele>
        <time>2019-09-01T17:23:40Z</time>
      </trkpt>
      <trkpt lat="59.173346" lon="18.14312">
        <ele>60</ele>
        <time>2019-09-01T17:23:41Z</time>
      </trkpt>
      <trkpt lat="59.173348" lon="18.143171">
        <ele>60</ele>
        <time>2019-09-01T17:23:42Z</time>
      </trkpt>
      <trkpt lat="59.173365" lon="18.143219">
        <ele>60</ele>
        <time>2019-09-01T17:23:44Z</time>
      </trkpt>
      <trkpt lat="59.173389" lon="18.143244">
        <ele>60</ele>
        <time>2019-09-01T17:23:45Z</time>
      </trkpt>
      <trkpt lat="59.173406" lon="18.143269">
        <ele>60</ele>
        <time>2019-09-01T17:23:46Z</time>
      </trkpt>
      <trkpt lat="59.173423" lon="18.143302">
        <ele>60</ele>
        <time>2019-09-01T17:23:48Z</time>
      </trkpt>
      <trkpt lat="59.173443" lon="18.143338">
        <ele>60</ele>
        <time>2019-09-01T17:23:50Z</time>
      </trkpt>
      <trkpt lat="59.173466" lon="18.14337">
        <ele>61</ele>
        <time>2019-09-01T17:23:52Z</time>
      </trkpt>
      <trkpt lat="59.173496" lon="18.143399">
        <ele>61</ele>
        <time>2019-09-01T17:23:54Z</time>
      </trkpt>
      <trkpt lat="59.173492" lon="18.143434">
        <ele>61</ele>
        <time>2019-09-01T17:23:59Z</time>
      </trkpt>
      <trkpt lat="59.173468" lon="18.143443">
        <ele>63</ele>
        <time>2019-09-01T17:24:02Z</time>
      </trkpt>
      <trkpt lat="59.173491" lon="18.143414">
        <ele>64</ele>
        <time>2019-09-01T17:24:07Z</time>
      </trkpt>
      <trkpt lat="59.173515" lon="18.143402">
        <ele>65</ele>
        <time>2019-09-01T17:24:09Z</time>
      </trkpt>
    </trkseg>
  </trk>
</gpx>